<?xml version='1.0' encoding='UTF-8'?><gpx version="1.1" creator="JPX - https://github.com/jenetics/jpx" xmlns="http://www.topografix.com/GPX/1/1"><trk><trkseg><trkpt lat="43.3217233" lon="12.8889433"><ele>337.0</ele><time>2026-05-02T12:41:48.995Z</time></trkpt><trkpt lat="43.3217667" lon="12.88901"><ele>337.0</ele><time>2026-05-02T12:41:51.002Z</time></trkpt><trkpt lat="43.3218267" lon="12.88909"><ele>337.0</ele><time>2026-05-02T12:41:52.993Z</time></trkpt><trkpt lat="43.3218617" lon="12.889165"><ele>337.0</ele><time>2026-05-02T12:41:53.995Z</time></trkpt><trkpt lat="43.321905" lon="12.88926"><ele>337.0</ele><time>2026-05-02T12:41:54.993Z</time></trkpt><trkpt lat="43.3219483" lon="12.8893667"><ele>337.0</ele><time>2026-05-02T12:41:55.993Z</time></trkpt><trkpt lat="43.3219983" lon="12.88949"><ele>337.40000000000003</ele><time>2026-05-02T12:41:56.994Z</time></trkpt><trkpt lat="43.3220483" lon="12.8896217"><ele>337.8</ele><time>2026-05-02T12:41:57.995Z</time></trkpt><trkpt lat="43.3220983" lon="12.8897533"><ele>338.2</ele><time>2026-05-02T12:41:58.993Z</time></trkpt><trkpt lat="43.3221483" lon="12.889875"><ele>338.6</ele><time>2026-05-02T12:41:59.994Z</time></trkpt><trkpt lat="43.3221933" lon="12.8899833"><ele>339.0</ele><time>2026-05-02T12:42:00.995Z</time></trkpt><trkpt lat="43.3222433" lon="12.8900733"><ele>339.1666666666667</ele><time>2026-05-02T12:42:01.994Z</time></trkpt><trkpt lat="43.3222933" lon="12.8901483"><ele>339.3333333333333</ele><time>2026-05-02T12:42:02.996Z</time></trkpt><trkpt lat="43.3223633" lon="12.8902517"><ele>339.5</ele><time>2026-05-02T12:42:04.993Z</time></trkpt><trkpt lat="43.322445" lon="12.8903233"><ele>339.66666666666663</ele><time>2026-05-02T12:42:21.992Z</time></trkpt><trkpt lat="43.32246" lon="12.8904083"><ele>339.8333333333333</ele><time>2026-05-02T12:42:29.992Z</time></trkpt><trkpt lat="43.3224583" lon="12.890495"><ele>340.0</ele><time>2026-05-02T12:42:46.993Z</time></trkpt><trkpt lat="43.322455" lon="12.8903867"><ele>340.0</ele><time>2026-05-02T12:42:56.996Z</time></trkpt><trkpt lat="43.32242" lon="12.8903117"><ele>340.0</ele><time>2026-05-02T12:43:02.995Z</time></trkpt><trkpt lat="43.32236" lon="12.8902183"><ele>340.0</ele><time>2026-05-02T12:43:13.992Z</time></trkpt><trkpt lat="43.3223183" lon="12.8901317"><ele>340.0</ele><time>2026-05-02T12:43:14.995Z</time></trkpt><trkpt lat="43.3222633" lon="12.89001"><ele>340.0</ele><time>2026-05-02T12:43:15.993Z</time></trkpt><trkpt lat="43.322205" lon="12.889875"><ele>340.0</ele><time>2026-05-02T12:43:16.994Z</time></trkpt><trkpt lat="43.3221467" lon="12.8897267"><ele>339.25</ele><time>2026-05-02T12:43:17.992Z</time></trkpt><trkpt lat="43.32209" lon="12.8895733"><ele>338.5</ele><time>2026-05-02T12:43:18.994Z</time></trkpt><trkpt lat="43.3220383" lon="12.8894283"><ele>337.75</ele><time>2026-05-02T12:43:19.993Z</time></trkpt><trkpt lat="43.3219917" lon="12.889295"><ele>337.0</ele><time>2026-05-02T12:43:20.991Z</time></trkpt><trkpt lat="43.32194" lon="12.889175"><ele>337.0</ele><time>2026-05-02T12:43:21.992Z</time></trkpt><trkpt lat="43.3218767" lon="12.88908"><ele>337.0</ele><time>2026-05-02T12:43:22.994Z</time></trkpt><trkpt lat="43.3218117" lon="12.8890017"><ele>337.0</ele><time>2026-05-02T12:43:23.993Z</time></trkpt><trkpt lat="43.3217567" lon="12.8889317"><ele>337.0</ele><time>2026-05-02T12:43:24.993Z</time></trkpt><trkpt lat="43.3216833" lon="12.8888267"><ele>337.0</ele><time>2026-05-02T12:43:26.994Z</time></trkpt><trkpt lat="43.3217533" lon="12.8888833"><ele>337.0</ele><time>2026-05-02T12:44:54.993Z</time></trkpt><trkpt lat="43.3218" lon="12.888985"><ele>337.0</ele><time>2026-05-02T12:44:56.994Z</time></trkpt><trkpt lat="43.3218733" lon="12.8890917"><ele>337.0</ele><time>2026-05-02T12:44:58.992Z</time></trkpt><trkpt lat="43.32193" lon="12.8892183"><ele>337.0</ele><time>2026-05-02T12:44:59.994Z</time></trkpt><trkpt lat="43.3219867" lon="12.88937"><ele>337.0</ele><time>2026-05-02T12:45:00.994Z</time></trkpt><trkpt lat="43.3220417" lon="12.8895333"><ele>337.40000000000003</ele><time>2026-05-02T12:45:01.994Z</time></trkpt><trkpt lat="43.3220967" lon="12.8896883"><ele>337.8</ele><time>2026-05-02T12:45:02.995Z</time></trkpt><trkpt lat="43.3221517" lon="12.88983"><ele>338.2</ele><time>2026-05-02T12:45:03.993Z</time></trkpt><trkpt lat="43.3222" lon="12.8899517"><ele>338.6</ele><time>2026-05-02T12:45:04.992Z</time></trkpt><trkpt lat="43.322245" lon="12.8900567"><ele>339.0</ele><time>2026-05-02T12:45:05.994Z</time></trkpt><trkpt lat="43.3222867" lon="12.89014"><ele>339.1666666666667</ele><time>2026-05-02T12:45:06.994Z</time></trkpt><trkpt lat="43.3223283" lon="12.8902083"><ele>339.3333333333333</ele><time>2026-05-02T12:45:07.993Z</time></trkpt><trkpt lat="43.3223983" lon="12.8902933"><ele>339.5</ele><time>2026-05-02T12:45:09.992Z</time></trkpt><trkpt lat="43.32245" lon="12.8903467"><ele>339.66666666666663</ele><time>2026-05-02T12:45:29.992Z</time></trkpt><trkpt lat="43.3224" lon="12.89027"><ele>339.8333333333333</ele><time>2026-05-02T12:49:50.992Z</time></trkpt><trkpt lat="43.3223583" lon="12.8901983"><ele>340.0</ele><time>2026-05-02T12:49:52.992Z</time></trkpt><trkpt lat="43.322305" lon="12.8900983"><ele>339.8333333333333</ele><time>2026-05-02T12:49:54.992Z</time></trkpt><trkpt lat="43.3222717" lon="12.8900183"><ele>339.66666666666663</ele><time>2026-05-02T12:49:56.993Z</time></trkpt><trkpt lat="43.3222417" lon="12.8899017"><ele>339.5</ele><time>2026-05-02T12:49:59.992Z</time></trkpt><trkpt lat="43.322205" lon="12.8898133"><ele>339.3333333333333</ele><time>2026-05-02T12:50:02.994Z</time></trkpt><trkpt lat="43.322135" lon="12.8897733"><ele>339.1666666666667</ele><time>2026-05-02T12:50:05.993Z</time></trkpt><trkpt lat="43.322045" lon="12.8898433"><ele>339.0</ele><time>2026-05-02T12:50:07.993Z</time></trkpt><trkpt lat="43.3219867" lon="12.8898767"><ele>340.1666666666667</ele><time>2026-05-02T12:50:08.996Z</time></trkpt><trkpt lat="43.3218767" lon="12.8898917"><ele>341.3333333333333</ele><time>2026-05-02T12:50:10.992Z</time></trkpt><trkpt lat="43.32178" lon="12.889845"><ele>342.5</ele><time>2026-05-02T12:50:12.994Z</time></trkpt><trkpt lat="43.321725" lon="12.889785"><ele>343.66666666666663</ele><time>2026-05-02T12:50:13.995Z</time></trkpt><trkpt lat="43.3216633" lon="12.88972"><ele>344.8333333333333</ele><time>2026-05-02T12:50:14.995Z</time></trkpt><trkpt lat="43.32159" lon="12.8896567"><ele>346.0</ele><time>2026-05-02T12:50:15.994Z</time></trkpt><trkpt lat="43.32151" lon="12.889595"><ele>346.0</ele><time>2026-05-02T12:50:16.992Z</time></trkpt><trkpt lat="43.3214333" lon="12.8895333"><ele>346.0</ele><time>2026-05-02T12:50:17.994Z</time></trkpt><trkpt lat="43.3213617" lon="12.8894717"><ele>346.0</ele><time>2026-05-02T12:50:18.995Z</time></trkpt><trkpt lat="43.3212967" lon="12.889395"><ele>346.0</ele><time>2026-05-02T12:50:19.995Z</time></trkpt><trkpt lat="43.3212283" lon="12.8893033"><ele>346.0</ele><time>2026-05-02T12:50:20.994Z</time></trkpt><trkpt lat="43.3211667" lon="12.8892067"><ele>346.0</ele><time>2026-05-02T12:50:21.994Z</time></trkpt><trkpt lat="43.3211" lon="12.88911"><ele>346.3333333333333</ele><time>2026-05-02T12:50:22.993Z</time></trkpt><trkpt lat="43.3210383" lon="12.8890167"><ele>346.66666666666663</ele><time>2026-05-02T12:50:23.993Z</time></trkpt><trkpt lat="43.3209783" lon="12.8889367"><ele>347.0</ele><time>2026-05-02T12:50:24.994Z</time></trkpt><trkpt lat="43.3209133" lon="12.8888717"><ele>347.3333333333333</ele><time>2026-05-02T12:50:25.994Z</time></trkpt><trkpt lat="43.320845" lon="12.888815"><ele>347.6666666666667</ele><time>2026-05-02T12:50:26.996Z</time></trkpt><trkpt lat="43.3207767" lon="12.8887667"><ele>348.0</ele><time>2026-05-02T12:50:27.994Z</time></trkpt><trkpt lat="43.3207067" lon="12.888725"><ele>348.0</ele><time>2026-05-02T12:50:28.993Z</time></trkpt><trkpt lat="43.3206467" lon="12.8886833"><ele>348.0</ele><time>2026-05-02T12:50:29.994Z</time></trkpt><trkpt lat="43.3205833" lon="12.8886383"><ele>348.0</ele><time>2026-05-02T12:50:30.994Z</time></trkpt><trkpt lat="43.3205233" lon="12.8885817"><ele>348.0</ele><time>2026-05-02T12:50:31.993Z</time></trkpt><trkpt lat="43.32047" lon="12.8885033"><ele>348.0</ele><time>2026-05-02T12:50:32.996Z</time></trkpt><trkpt lat="43.32042" lon="12.888405"><ele>348.0</ele><time>2026-05-02T12:50:33.994Z</time></trkpt><trkpt lat="43.32039" lon="12.8882733"><ele>351.59999999999997</ele><time>2026-05-02T12:50:34.994Z</time></trkpt><trkpt lat="43.3203617" lon="12.888135"><ele>355.2</ele><time>2026-05-02T12:50:35.995Z</time></trkpt><trkpt lat="43.3203333" lon="12.8879983"><ele>358.8</ele><time>2026-05-02T12:50:36.995Z</time></trkpt><trkpt lat="43.32031" lon="12.887855"><ele>362.4</ele><time>2026-05-02T12:50:37.994Z</time></trkpt><trkpt lat="43.3202867" lon="12.887705"><ele>366.0</ele><time>2026-05-02T12:50:38.995Z</time></trkpt><trkpt lat="43.3202717" lon="12.8875517"><ele>366.0</ele><time>2026-05-02T12:50:39.994Z</time></trkpt><trkpt lat="43.3202783" lon="12.8874017"><ele>366.0</ele><time>2026-05-02T12:50:40.993Z</time></trkpt><trkpt lat="43.3202717" lon="12.8872617"><ele>366.0</ele><time>2026-05-02T12:50:41.993Z</time></trkpt><trkpt lat="43.3202617" lon="12.887135"><ele>366.0</ele><time>2026-05-02T12:50:42.995Z</time></trkpt><trkpt lat="43.320245" lon="12.88702"><ele>366.0</ele><time>2026-05-02T12:50:43.995Z</time></trkpt><trkpt lat="43.3202317" lon="12.8869133"><ele>366.0</ele><time>2026-05-02T12:50:45Z</time></trkpt><trkpt lat="43.3202283" lon="12.88681"><ele>366.0</ele><time>2026-05-02T12:50:45.996Z</time></trkpt><trkpt lat="43.3202467" lon="12.8867083"><ele>366.0</ele><time>2026-05-02T12:50:46.995Z</time></trkpt><trkpt lat="43.3202717" lon="12.8866083"><ele>366.0</ele><time>2026-05-02T12:50:47.995Z</time></trkpt><trkpt lat="43.3203017" lon="12.88649"><ele>366.0</ele><time>2026-05-02T12:50:48.996Z</time></trkpt><trkpt lat="43.3203267" lon="12.8863717"><ele>366.0</ele><time>2026-05-02T12:50:49.994Z</time></trkpt><trkpt lat="43.320345" lon="12.88626"><ele>364.6666666666667</ele><time>2026-05-02T12:50:50.996Z</time></trkpt><trkpt lat="43.3203667" lon="12.8861633"><ele>363.3333333333333</ele><time>2026-05-02T12:50:51.994Z</time></trkpt><trkpt lat="43.3203733" lon="12.8859933"><ele>362.0</ele><time>2026-05-02T12:50:53.994Z</time></trkpt><trkpt lat="43.3203517" lon="12.88591"><ele>360.66666666666663</ele><time>2026-05-02T12:50:54.993Z</time></trkpt><trkpt lat="43.3203117" lon="12.88583"><ele>359.3333333333333</ele><time>2026-05-02T12:50:55.994Z</time></trkpt><trkpt lat="43.3202633" lon="12.8857567"><ele>358.0</ele><time>2026-05-02T12:50:56.995Z</time></trkpt><trkpt lat="43.3202083" lon="12.8857033"><ele>356.5</ele><time>2026-05-02T12:50:57.994Z</time></trkpt><trkpt lat="43.3201433" lon="12.8856767"><ele>355.0</ele><time>2026-05-02T12:50:58.993Z</time></trkpt><trkpt lat="43.32008" lon="12.8856783"><ele>353.5</ele><time>2026-05-02T12:50:59.994Z</time></trkpt><trkpt lat="43.3199867" lon="12.885715"><ele>352.0</ele><time>2026-05-02T12:51:01.995Z</time></trkpt><trkpt lat="43.31992" lon="12.8856967"><ele>350.5</ele><time>2026-05-02T12:51:03.993Z</time></trkpt><trkpt lat="43.3198667" lon="12.8855967"><ele>349.0</ele><time>2026-05-02T12:51:05.994Z</time></trkpt><trkpt lat="43.3197967" lon="12.8855083"><ele>352.2</ele><time>2026-05-02T12:51:07.994Z</time></trkpt><trkpt lat="43.3196717" lon="12.8854567"><ele>355.4</ele><time>2026-05-02T12:51:09.994Z</time></trkpt><trkpt lat="43.3195917" lon="12.885405"><ele>358.6</ele><time>2026-05-02T12:51:10.993Z</time></trkpt><trkpt lat="43.3195067" lon="12.8853367"><ele>361.8</ele><time>2026-05-02T12:51:11.993Z</time></trkpt><trkpt lat="43.3194183" lon="12.885265"><ele>365.0</ele><time>2026-05-02T12:51:12.994Z</time></trkpt><trkpt lat="43.3193333" lon="12.8852033"><ele>365.0</ele><time>2026-05-02T12:51:13.994Z</time></trkpt><trkpt lat="43.3192533" lon="12.8851617"><ele>365.0</ele><time>2026-05-02T12:51:14.995Z</time></trkpt><trkpt lat="43.3191633" lon="12.8851267"><ele>365.0</ele><time>2026-05-02T12:51:15.994Z</time></trkpt><trkpt lat="43.319075" lon="12.8850867"><ele>365.0</ele><time>2026-05-02T12:51:16.993Z</time></trkpt><trkpt lat="43.3189933" lon="12.8850317"><ele>365.0</ele><time>2026-05-02T12:51:17.993Z</time></trkpt><trkpt lat="43.318905" lon="12.88496"><ele>375.5</ele><time>2026-05-02T12:51:18.995Z</time></trkpt><trkpt lat="43.31882" lon="12.8848733"><ele>386.0</ele><time>2026-05-02T12:51:19.992Z</time></trkpt><trkpt lat="43.3187383" lon="12.88477"><ele>396.5</ele><time>2026-05-02T12:51:20.994Z</time></trkpt><trkpt lat="43.3186483" lon="12.88466"><ele>407.0</ele><time>2026-05-02T12:51:21.995Z</time></trkpt><trkpt lat="43.318555" lon="12.8845417"><ele>407.0</ele><time>2026-05-02T12:51:22.995Z</time></trkpt><trkpt lat="43.3184533" lon="12.8844117"><ele>407.0</ele><time>2026-05-02T12:51:23.994Z</time></trkpt><trkpt lat="43.3183717" lon="12.8842667"><ele>407.0</ele><time>2026-05-02T12:51:24.993Z</time></trkpt><trkpt lat="43.3182967" lon="12.8841117"><ele>407.0</ele><time>2026-05-02T12:51:25.993Z</time></trkpt><trkpt lat="43.3182167" lon="12.8839533"><ele>403.5</ele><time>2026-05-02T12:51:26.994Z</time></trkpt><trkpt lat="43.3181383" lon="12.883795"><ele>400.0</ele><time>2026-05-02T12:51:27.995Z</time></trkpt><trkpt lat="43.3180733" lon="12.8836317"><ele>396.5</ele><time>2026-05-02T12:51:28.994Z</time></trkpt><trkpt lat="43.3180083" lon="12.883465"><ele>393.0</ele><time>2026-05-02T12:51:29.994Z</time></trkpt><trkpt lat="43.3179383" lon="12.883305"><ele>403.0</ele><time>2026-05-02T12:51:30.994Z</time></trkpt><trkpt lat="43.31787" lon="12.8831417"><ele>413.0</ele><time>2026-05-02T12:51:31.994Z</time></trkpt><trkpt lat="43.3178067" lon="12.88297"><ele>423.0</ele><time>2026-05-02T12:51:32.994Z</time></trkpt><trkpt lat="43.3177633" lon="12.8827883"><ele>433.0</ele><time>2026-05-02T12:51:33.993Z</time></trkpt><trkpt lat="43.3177117" lon="12.8826183"><ele>430.25</ele><time>2026-05-02T12:51:34.992Z</time></trkpt><trkpt lat="43.3176683" lon="12.882455"><ele>427.5</ele><time>2026-05-02T12:51:35.994Z</time></trkpt><trkpt lat="43.3176" lon="12.882305"><ele>424.75</ele><time>2026-05-02T12:51:36.991Z</time></trkpt><trkpt lat="43.3175383" lon="12.8821467"><ele>422.0</ele><time>2026-05-02T12:51:37.993Z</time></trkpt><trkpt lat="43.3174717" lon="12.881985"><ele>422.0</ele><time>2026-05-02T12:51:38.995Z</time></trkpt><trkpt lat="43.3174067" lon="12.8817917"><ele>422.0</ele><time>2026-05-02T12:51:39.994Z</time></trkpt><trkpt lat="43.3173433" lon="12.8816"><ele>422.0</ele><time>2026-05-02T12:51:40.993Z</time></trkpt><trkpt lat="43.3172767" lon="12.8814133"><ele>428.75</ele><time>2026-05-02T12:51:41.995Z</time></trkpt><trkpt lat="43.3172067" lon="12.8812317"><ele>435.5</ele><time>2026-05-02T12:51:42.995Z</time></trkpt><trkpt lat="43.3171467" lon="12.8810633"><ele>442.25</ele><time>2026-05-02T12:51:43.994Z</time></trkpt><trkpt lat="43.31709" lon="12.8809267"><ele>449.0</ele><time>2026-05-02T12:51:44.994Z</time></trkpt><trkpt lat="43.3170267" lon="12.8808067"><ele>449.0</ele><time>2026-05-02T12:51:45.992Z</time></trkpt><trkpt lat="43.3169517" lon="12.8806767"><ele>449.0</ele><time>2026-05-02T12:51:46.993Z</time></trkpt><trkpt lat="43.316885" lon="12.8805417"><ele>449.0</ele><time>2026-05-02T12:51:47.993Z</time></trkpt><trkpt lat="43.3168233" lon="12.8803983"><ele>449.0</ele><time>2026-05-02T12:51:48.995Z</time></trkpt><trkpt lat="43.31677" lon="12.880255"><ele>449.0</ele><time>2026-05-02T12:51:49.994Z</time></trkpt><trkpt lat="43.3167233" lon="12.88011"><ele>449.0</ele><time>2026-05-02T12:51:50.994Z</time></trkpt><trkpt lat="43.3166783" lon="12.8799617"><ele>449.0</ele><time>2026-05-02T12:51:51.994Z</time></trkpt><trkpt lat="43.3166367" lon="12.8798067"><ele>449.0</ele><time>2026-05-02T12:51:52.994Z</time></trkpt><trkpt lat="43.31661" lon="12.8796517"><ele>446.6</ele><time>2026-05-02T12:51:53.993Z</time></trkpt><trkpt lat="43.3166017" lon="12.8795067"><ele>444.2</ele><time>2026-05-02T12:51:54.996Z</time></trkpt><trkpt lat="43.3165883" lon="12.8793717"><ele>441.80000000000007</ele><time>2026-05-02T12:51:55.996Z</time></trkpt><trkpt lat="43.316555" lon="12.8792433"><ele>439.40000000000003</ele><time>2026-05-02T12:51:56.994Z</time></trkpt><trkpt lat="43.3165183" lon="12.8791317"><ele>437.0</ele><time>2026-05-02T12:51:57.993Z</time></trkpt><trkpt lat="43.316475" lon="12.8790433"><ele>433.40000000000003</ele><time>2026-05-02T12:51:58.994Z</time></trkpt><trkpt lat="43.3164083" lon="12.8789667"><ele>429.80000000000007</ele><time>2026-05-02T12:51:59.994Z</time></trkpt><trkpt lat="43.31633" lon="12.8789033"><ele>426.2</ele><time>2026-05-02T12:52:00.993Z</time></trkpt><trkpt lat="43.3162283" lon="12.8788633"><ele>422.6</ele><time>2026-05-02T12:52:01.993Z</time></trkpt><trkpt lat="43.3161233" lon="12.878835"><ele>419.0</ele><time>2026-05-02T12:52:02.995Z</time></trkpt><trkpt lat="43.3160233" lon="12.878815"><ele>426.16666666666663</ele><time>2026-05-02T12:52:03.994Z</time></trkpt><trkpt lat="43.315935" lon="12.87879"><ele>433.3333333333333</ele><time>2026-05-02T12:52:04.995Z</time></trkpt><trkpt lat="43.3158517" lon="12.8787467"><ele>440.5</ele><time>2026-05-02T12:52:05.995Z</time></trkpt><trkpt lat="43.315775" lon="12.87869"><ele>447.66666666666663</ele><time>2026-05-02T12:52:06.994Z</time></trkpt><trkpt lat="43.3157217" lon="12.87862"><ele>454.8333333333333</ele><time>2026-05-02T12:52:07.995Z</time></trkpt><trkpt lat="43.31566" lon="12.87854"><ele>462.0</ele><time>2026-05-02T12:52:08.995Z</time></trkpt><trkpt lat="43.3156" lon="12.87846"><ele>467.1666666666667</ele><time>2026-05-02T12:52:09.993Z</time></trkpt><trkpt lat="43.3155533" lon="12.8783833"><ele>472.33333333333337</ele><time>2026-05-02T12:52:10.993Z</time></trkpt><trkpt lat="43.3155267" lon="12.8782933"><ele>477.5</ele><time>2026-05-02T12:52:11.994Z</time></trkpt><trkpt lat="43.3155133" lon="12.87817"><ele>482.6666666666667</ele><time>2026-05-02T12:52:12.993Z</time></trkpt><trkpt lat="43.315495" lon="12.8780467"><ele>487.83333333333337</ele><time>2026-05-02T12:52:13.993Z</time></trkpt><trkpt lat="43.3154567" lon="12.8779283"><ele>493.0</ele><time>2026-05-02T12:52:14.993Z</time></trkpt><trkpt lat="43.3154183" lon="12.8778067"><ele>493.0</ele><time>2026-05-02T12:52:15.993Z</time></trkpt><trkpt lat="43.3153867" lon="12.8776833"><ele>492.99999999999994</ele><time>2026-05-02T12:52:16.992Z</time></trkpt><trkpt lat="43.315365" lon="12.8775567"><ele>492.99999999999994</ele><time>2026-05-02T12:52:17.993Z</time></trkpt><trkpt lat="43.315375" lon="12.8774133"><ele>493.0</ele><time>2026-05-02T12:52:18.993Z</time></trkpt><trkpt lat="43.3153983" lon="12.8772817"><ele>493.0</ele><time>2026-05-02T12:52:19.994Z</time></trkpt><trkpt lat="43.3154233" lon="12.87715"><ele>492.59999999999997</ele><time>2026-05-02T12:52:20.994Z</time></trkpt><trkpt lat="43.3154233" lon="12.877045"><ele>492.19999999999993</ele><time>2026-05-02T12:52:21.994Z</time></trkpt><trkpt lat="43.3154217" lon="12.8769367"><ele>491.8</ele><time>2026-05-02T12:52:22.993Z</time></trkpt><trkpt lat="43.3153883" lon="12.876815"><ele>491.4</ele><time>2026-05-02T12:52:23.994Z</time></trkpt><trkpt lat="43.31534" lon="12.8766883"><ele>491.0</ele><time>2026-05-02T12:52:24.993Z</time></trkpt><trkpt lat="43.315275" lon="12.8765767"><ele>488.25</ele><time>2026-05-02T12:52:25.994Z</time></trkpt><trkpt lat="43.3151883" lon="12.8764817"><ele>485.5</ele><time>2026-05-02T12:52:26.996Z</time></trkpt><trkpt lat="43.3150883" lon="12.8763683"><ele>482.75</ele><time>2026-05-02T12:52:27.995Z</time></trkpt><trkpt lat="43.3149933" lon="12.8762533"><ele>480.0</ele><time>2026-05-02T12:52:28.992Z</time></trkpt><trkpt lat="43.3149033" lon="12.876135"><ele>480.0</ele><time>2026-05-02T12:52:29.995Z</time></trkpt><trkpt lat="43.3148233" lon="12.8760167"><ele>480.0</ele><time>2026-05-02T12:52:30.995Z</time></trkpt><trkpt lat="43.31477" lon="12.8759"><ele>480.0</ele><time>2026-05-02T12:52:31.994Z</time></trkpt><trkpt lat="43.314725" lon="12.8757733"><ele>480.0</ele><time>2026-05-02T12:52:32.995Z</time></trkpt><trkpt lat="43.3146767" lon="12.8756617"><ele>480.0</ele><time>2026-05-02T12:52:33.993Z</time></trkpt><trkpt lat="43.3146217" lon="12.8755583"><ele>484.2</ele><time>2026-05-02T12:52:34.993Z</time></trkpt><trkpt lat="43.314565" lon="12.8754533"><ele>488.4</ele><time>2026-05-02T12:52:35.993Z</time></trkpt><trkpt lat="43.3144967" lon="12.8753517"><ele>492.6</ele><time>2026-05-02T12:52:36.99Z</time></trkpt><trkpt lat="43.3144317" lon="12.87526"><ele>496.8</ele><time>2026-05-02T12:52:37.993Z</time></trkpt><trkpt lat="43.3143733" lon="12.8751833"><ele>501.0</ele><time>2026-05-02T12:52:38.994Z</time></trkpt><trkpt lat="43.3143067" lon="12.8751133"><ele>498.4</ele><time>2026-05-02T12:52:39.994Z</time></trkpt><trkpt lat="43.3142167" lon="12.8750517"><ele>495.8</ele><time>2026-05-02T12:52:40.993Z</time></trkpt><trkpt lat="43.3141283" lon="12.875035"><ele>493.19999999999993</ele><time>2026-05-02T12:52:41.994Z</time></trkpt><trkpt lat="43.3140417" lon="12.8750233"><ele>490.59999999999997</ele><time>2026-05-02T12:52:42.993Z</time></trkpt><trkpt lat="43.313945" lon="12.875025"><ele>488.0</ele><time>2026-05-02T12:52:43.994Z</time></trkpt><trkpt lat="43.3138467" lon="12.875035"><ele>487.99999999999994</ele><time>2026-05-02T12:52:44.995Z</time></trkpt><trkpt lat="43.3137483" lon="12.875035"><ele>488.0</ele><time>2026-05-02T12:52:45.995Z</time></trkpt><trkpt lat="43.3136483" lon="12.8750067"><ele>488.0</ele><time>2026-05-02T12:52:47.994Z</time></trkpt><trkpt lat="43.313585" lon="12.8749283"><ele>488.0</ele><time>2026-05-02T12:52:50.995Z</time></trkpt><trkpt lat="43.3135267" lon="12.8748767"><ele>487.99999999999994</ele><time>2026-05-02T12:52:52.993Z</time></trkpt><trkpt lat="43.313435" lon="12.8748533"><ele>488.0</ele><time>2026-05-02T12:52:54.994Z</time></trkpt><trkpt lat="43.3133717" lon="12.87485"><ele>488.0</ele><time>2026-05-02T12:52:55.995Z</time></trkpt><trkpt lat="43.3133" lon="12.8748417"><ele>487.99999999999994</ele><time>2026-05-02T12:52:56.995Z</time></trkpt><trkpt lat="43.313215" lon="12.8748333"><ele>487.99999999999994</ele><time>2026-05-02T12:52:57.994Z</time></trkpt><trkpt lat="43.313125" lon="12.874825"><ele>488.0</ele><time>2026-05-02T12:52:58.994Z</time></trkpt><trkpt lat="43.3130217" lon="12.87482"><ele>488.0</ele><time>2026-05-02T12:52:59.995Z</time></trkpt><trkpt lat="43.31292" lon="12.874815"><ele>490.0</ele><time>2026-05-02T12:53:00.995Z</time></trkpt><trkpt lat="43.3128217" lon="12.87481"><ele>491.99999999999994</ele><time>2026-05-02T12:53:01.994Z</time></trkpt><trkpt lat="43.3127233" lon="12.8748083"><ele>493.99999999999994</ele><time>2026-05-02T12:53:02.995Z</time></trkpt><trkpt lat="43.3126283" lon="12.8748067"><ele>496.0</ele><time>2026-05-02T12:53:03.996Z</time></trkpt><trkpt lat="43.31254" lon="12.8748133"><ele>498.0</ele><time>2026-05-02T12:53:04.995Z</time></trkpt><trkpt lat="43.3124633" lon="12.8748133"><ele>498.0</ele><time>2026-05-02T12:53:05.997Z</time></trkpt><trkpt lat="43.3123967" lon="12.8748067"><ele>497.99999999999994</ele><time>2026-05-02T12:53:06.994Z</time></trkpt><trkpt lat="43.3122767" lon="12.87481"><ele>497.99999999999994</ele><time>2026-05-02T12:53:08.996Z</time></trkpt><trkpt lat="43.3121567" lon="12.8748617"><ele>498.0</ele><time>2026-05-02T12:53:10.993Z</time></trkpt><trkpt lat="43.3120983" lon="12.8749117"><ele>498.0</ele><time>2026-05-02T12:53:11.993Z</time></trkpt><trkpt lat="43.3120417" lon="12.8749683"><ele>497.1428571428571</ele><time>2026-05-02T12:53:12.995Z</time></trkpt><trkpt lat="43.31199" lon="12.875035"><ele>496.2857142857142</ele><time>2026-05-02T12:53:13.994Z</time></trkpt><trkpt lat="43.311935" lon="12.87509"><ele>495.42857142857144</ele><time>2026-05-02T12:53:14.994Z</time></trkpt><trkpt lat="43.31188" lon="12.8751433"><ele>494.57142857142856</ele><time>2026-05-02T12:53:15.994Z</time></trkpt><trkpt lat="43.3118217" lon="12.875195"><ele>493.7142857142857</ele><time>2026-05-02T12:53:16.995Z</time></trkpt><trkpt lat="43.3117633" lon="12.8752433"><ele>492.8571428571429</ele><time>2026-05-02T12:53:17.994Z</time></trkpt><trkpt lat="43.3117017" lon="12.8752817"><ele>492.00000000000006</ele><time>2026-05-02T12:53:18.996Z</time></trkpt><trkpt lat="43.31164" lon="12.875305"><ele>497.8</ele><time>2026-05-02T12:53:19.996Z</time></trkpt><trkpt lat="43.3115433" lon="12.8753133"><ele>503.6</ele><time>2026-05-02T12:53:21.995Z</time></trkpt><trkpt lat="43.31145" lon="12.8752667"><ele>509.40000000000003</ele><time>2026-05-02T12:53:23.994Z</time></trkpt><trkpt lat="43.31137" lon="12.8751833"><ele>515.2</ele><time>2026-05-02T12:53:25.994Z</time></trkpt><trkpt lat="43.3113" lon="12.8751083"><ele>521.0</ele><time>2026-05-02T12:53:27.995Z</time></trkpt><trkpt lat="43.31127" lon="12.87502"><ele>521.0</ele><time>2026-05-02T12:53:30.995Z</time></trkpt><trkpt lat="43.3113233" lon="12.8749183"><ele>521.0</ele><time>2026-05-02T12:53:32.994Z</time></trkpt><trkpt lat="43.311355" lon="12.874815"><ele>521.0</ele><time>2026-05-02T12:53:33.994Z</time></trkpt><trkpt lat="43.3113617" lon="12.8747017"><ele>521.0</ele><time>2026-05-02T12:53:34.992Z</time></trkpt><trkpt lat="43.3113617" lon="12.874605"><ele>521.0</ele><time>2026-05-02T12:53:35.994Z</time></trkpt><trkpt lat="43.31133" lon="12.8744967"><ele>521.0</ele><time>2026-05-02T12:53:36.994Z</time></trkpt><trkpt lat="43.311295" lon="12.8743883"><ele>517.5</ele><time>2026-05-02T12:53:37.994Z</time></trkpt><trkpt lat="43.3112433" lon="12.8742533"><ele>514.0</ele><time>2026-05-02T12:53:38.995Z</time></trkpt><trkpt lat="43.3111717" lon="12.8741"><ele>510.5</ele><time>2026-05-02T12:53:39.995Z</time></trkpt><trkpt lat="43.31111" lon="12.87395"><ele>507.0</ele><time>2026-05-02T12:53:40.994Z</time></trkpt><trkpt lat="43.3110467" lon="12.8738033"><ele>507.0</ele><time>2026-05-02T12:53:41.996Z</time></trkpt><trkpt lat="43.3109983" lon="12.8736667"><ele>507.0</ele><time>2026-05-02T12:53:42.996Z</time></trkpt><trkpt lat="43.3109633" lon="12.8735533"><ele>507.0</ele><time>2026-05-02T12:53:43.995Z</time></trkpt><trkpt lat="43.310935" lon="12.8734567"><ele>507.0</ele><time>2026-05-02T12:53:44.995Z</time></trkpt><trkpt lat="43.3109167" lon="12.873355"><ele>507.0</ele><time>2026-05-02T12:53:45.995Z</time></trkpt><trkpt lat="43.310895" lon="12.8732367"><ele>507.0</ele><time>2026-05-02T12:53:46.995Z</time></trkpt><trkpt lat="43.3108833" lon="12.87311"><ele>505.6666666666667</ele><time>2026-05-02T12:53:47.993Z</time></trkpt><trkpt lat="43.3108833" lon="12.87298"><ele>504.33333333333337</ele><time>2026-05-02T12:53:48.994Z</time></trkpt><trkpt lat="43.310875" lon="12.8728733"><ele>503.0</ele><time>2026-05-02T12:53:49.995Z</time></trkpt><trkpt lat="43.310875" lon="12.8727683"><ele>501.6666666666667</ele><time>2026-05-02T12:53:50.995Z</time></trkpt><trkpt lat="43.3108867" lon="12.8726617"><ele>500.33333333333337</ele><time>2026-05-02T12:53:51.995Z</time></trkpt><trkpt lat="43.3109067" lon="12.8725433"><ele>499.0</ele><time>2026-05-02T12:53:52.994Z</time></trkpt><trkpt lat="43.310945" lon="12.8724233"><ele>499.0</ele><time>2026-05-02T12:53:53.995Z</time></trkpt><trkpt lat="43.3110017" lon="12.8723217"><ele>499.0</ele><time>2026-05-02T12:53:54.996Z</time></trkpt><trkpt lat="43.3110817" lon="12.8722317"><ele>499.0</ele><time>2026-05-02T12:53:55.995Z</time></trkpt><trkpt lat="43.3111783" lon="12.8721367"><ele>499.0</ele><time>2026-05-02T12:53:56.995Z</time></trkpt><trkpt lat="43.311275" lon="12.8720467"><ele>499.0</ele><time>2026-05-02T12:53:57.995Z</time></trkpt><trkpt lat="43.31136" lon="12.8719617"><ele>496.79999999999995</ele><time>2026-05-02T12:53:58.995Z</time></trkpt><trkpt lat="43.3114367" lon="12.8718633"><ele>494.59999999999997</ele><time>2026-05-02T12:53:59.994Z</time></trkpt><trkpt lat="43.3115033" lon="12.8717617"><ele>492.4</ele><time>2026-05-02T12:54:00.995Z</time></trkpt><trkpt lat="43.3115633" lon="12.87168"><ele>490.2</ele><time>2026-05-02T12:54:01.994Z</time></trkpt><trkpt lat="43.31163" lon="12.871595"><ele>488.0</ele><time>2026-05-02T12:54:03.993Z</time></trkpt><trkpt lat="43.311705" lon="12.8715367"><ele>487.99999999999994</ele><time>2026-05-02T12:54:30.993Z</time></trkpt><trkpt lat="43.31177" lon="12.8715567"><ele>488.0</ele><time>2026-05-02T12:54:33.993Z</time></trkpt><trkpt lat="43.3118617" lon="12.8716367"><ele>488.0</ele><time>2026-05-02T12:54:35.993Z</time></trkpt><trkpt lat="43.3119183" lon="12.871685"><ele>488.0</ele><time>2026-05-02T12:54:36.993Z</time></trkpt><trkpt lat="43.31198" lon="12.8717133"><ele>487.99999999999994</ele><time>2026-05-02T12:54:37.992Z</time></trkpt><trkpt lat="43.31205" lon="12.8717333"><ele>488.0</ele><time>2026-05-02T12:54:38.995Z</time></trkpt><trkpt lat="43.3121317" lon="12.8717433"><ele>488.0</ele><time>2026-05-02T12:54:39.995Z</time></trkpt><trkpt lat="43.3122217" lon="12.8717467"><ele>487.99999999999994</ele><time>2026-05-02T12:54:40.994Z</time></trkpt><trkpt lat="43.3123383" lon="12.8717317"><ele>487.99999999999994</ele><time>2026-05-02T12:54:41.994Z</time></trkpt><trkpt lat="43.31244" lon="12.8717183"><ele>488.0</ele><time>2026-05-02T12:54:42.994Z</time></trkpt><trkpt lat="43.3125483" lon="12.8716783"><ele>488.0</ele><time>2026-05-02T12:54:43.994Z</time></trkpt><trkpt lat="43.3126433" lon="12.8716667"><ele>485.4</ele><time>2026-05-02T12:54:44.993Z</time></trkpt><trkpt lat="43.31273" lon="12.8716433"><ele>482.79999999999995</ele><time>2026-05-02T12:54:45.994Z</time></trkpt><trkpt lat="43.31282" lon="12.8716367"><ele>480.2</ele><time>2026-05-02T12:54:46.994Z</time></trkpt><trkpt lat="43.312915" lon="12.8716333"><ele>477.6</ele><time>2026-05-02T12:54:47.994Z</time></trkpt><trkpt lat="43.3130167" lon="12.8716217"><ele>475.0</ele><time>2026-05-02T12:54:48.993Z</time></trkpt><trkpt lat="43.3131183" lon="12.8716017"><ele>470.6</ele><time>2026-05-02T12:54:49.993Z</time></trkpt><trkpt lat="43.3132167" lon="12.87158"><ele>466.2</ele><time>2026-05-02T12:54:50.994Z</time></trkpt><trkpt lat="43.3133067" lon="12.8715533"><ele>461.79999999999995</ele><time>2026-05-02T12:54:51.994Z</time></trkpt><trkpt lat="43.3134033" lon="12.8715267"><ele>457.4</ele><time>2026-05-02T12:54:52.995Z</time></trkpt><trkpt lat="43.3135" lon="12.8714767"><ele>453.0</ele><time>2026-05-02T12:54:53.995Z</time></trkpt><trkpt lat="43.3135883" lon="12.8714283"><ele>453.0</ele><time>2026-05-02T12:54:54.996Z</time></trkpt><trkpt lat="43.3136767" lon="12.87136"><ele>452.99999999999994</ele><time>2026-05-02T12:54:55.993Z</time></trkpt><trkpt lat="43.3137617" lon="12.87132"><ele>452.99999999999994</ele><time>2026-05-02T12:54:56.995Z</time></trkpt><trkpt lat="43.3138567" lon="12.8712867"><ele>453.0</ele><time>2026-05-02T12:54:57.995Z</time></trkpt><trkpt lat="43.31395" lon="12.87125"><ele>453.0</ele><time>2026-05-02T12:54:58.995Z</time></trkpt><trkpt lat="43.3140283" lon="12.8712233"><ele>445.79999999999995</ele><time>2026-05-02T12:54:59.995Z</time></trkpt><trkpt lat="43.3141183" lon="12.8711783"><ele>438.59999999999997</ele><time>2026-05-02T12:55:00.993Z</time></trkpt><trkpt lat="43.3142083" lon="12.87113"><ele>431.4</ele><time>2026-05-02T12:55:01.995Z</time></trkpt><trkpt lat="43.3143" lon="12.8711"><ele>424.20000000000005</ele><time>2026-05-02T12:55:02.996Z</time></trkpt><trkpt lat="43.3143917" lon="12.8710633"><ele>417.0</ele><time>2026-05-02T12:55:03.995Z</time></trkpt><trkpt lat="43.3144967" lon="12.8710367"><ele>417.0</ele><time>2026-05-02T12:55:04.995Z</time></trkpt><trkpt lat="43.3145967" lon="12.8710133"><ele>417.0</ele><time>2026-05-02T12:55:05.993Z</time></trkpt><trkpt lat="43.3147117" lon="12.8709867"><ele>417.0</ele><time>2026-05-02T12:55:06.994Z</time></trkpt><trkpt lat="43.31482" lon="12.87094"><ele>417.0</ele><time>2026-05-02T12:55:07.994Z</time></trkpt><trkpt lat="43.3149283" lon="12.870895"><ele>417.0</ele><time>2026-05-02T12:55:08.993Z</time></trkpt><trkpt lat="43.3150367" lon="12.8708517"><ele>416.40000000000003</ele><time>2026-05-02T12:55:09.994Z</time></trkpt><trkpt lat="43.3151483" lon="12.8708033"><ele>415.8</ele><time>2026-05-02T12:55:10.994Z</time></trkpt><trkpt lat="43.3152583" lon="12.8707333"><ele>415.2</ele><time>2026-05-02T12:55:11.994Z</time></trkpt><trkpt lat="43.31536" lon="12.870675"><ele>414.6</ele><time>2026-05-02T12:55:12.994Z</time></trkpt><trkpt lat="43.31545" lon="12.8706167"><ele>414.0</ele><time>2026-05-02T12:55:13.994Z</time></trkpt><trkpt lat="43.3155317" lon="12.8705517"><ele>407.4</ele><time>2026-05-02T12:55:14.995Z</time></trkpt><trkpt lat="43.3156067" lon="12.8704983"><ele>400.79999999999995</ele><time>2026-05-02T12:55:15.993Z</time></trkpt><trkpt lat="43.31568" lon="12.8704083"><ele>394.20000000000005</ele><time>2026-05-02T12:55:16.994Z</time></trkpt><trkpt lat="43.3157467" lon="12.8703117"><ele>387.6</ele><time>2026-05-02T12:55:17.995Z</time></trkpt><trkpt lat="43.3158183" lon="12.87024"><ele>381.0</ele><time>2026-05-02T12:55:18.996Z</time></trkpt><trkpt lat="43.31589" lon="12.8701583"><ele>384.6</ele><time>2026-05-02T12:55:19.994Z</time></trkpt><trkpt lat="43.315955" lon="12.870075"><ele>388.20000000000005</ele><time>2026-05-02T12:55:20.995Z</time></trkpt><trkpt lat="43.3160133" lon="12.8699867"><ele>391.79999999999995</ele><time>2026-05-02T12:55:21.994Z</time></trkpt><trkpt lat="43.31606" lon="12.8698783"><ele>395.4</ele><time>2026-05-02T12:55:22.994Z</time></trkpt><trkpt lat="43.3161033" lon="12.8697533"><ele>399.0</ele><time>2026-05-02T12:55:23.994Z</time></trkpt><trkpt lat="43.3161383" lon="12.8696417"><ele>399.0</ele><time>2026-05-02T12:55:24.995Z</time></trkpt><trkpt lat="43.3161667" lon="12.869525"><ele>399.0</ele><time>2026-05-02T12:55:25.996Z</time></trkpt><trkpt lat="43.3161817" lon="12.869395"><ele>399.0</ele><time>2026-05-02T12:55:26.994Z</time></trkpt><trkpt lat="43.31622" lon="12.8692783"><ele>399.0</ele><time>2026-05-02T12:55:27.994Z</time></trkpt><trkpt lat="43.3162333" lon="12.86912"><ele>399.0</ele><time>2026-05-02T12:55:28.994Z</time></trkpt><trkpt lat="43.3162733" lon="12.8689667"><ele>401.6</ele><time>2026-05-02T12:55:29.996Z</time></trkpt><trkpt lat="43.316315" lon="12.8688467"><ele>404.2</ele><time>2026-05-02T12:55:30.994Z</time></trkpt><trkpt lat="43.31637" lon="12.868735"><ele>406.8</ele><time>2026-05-02T12:55:31.994Z</time></trkpt><trkpt lat="43.3164233" lon="12.8686467"><ele>409.40000000000003</ele><time>2026-05-02T12:55:32.994Z</time></trkpt><trkpt lat="43.3164867" lon="12.8685733"><ele>412.0</ele><time>2026-05-02T12:55:33.991Z</time></trkpt><trkpt lat="43.316565" lon="12.868455"><ele>402.8</ele><time>2026-05-02T12:55:35.995Z</time></trkpt><trkpt lat="43.3166017" lon="12.86836"><ele>393.6</ele><time>2026-05-02T12:55:36.994Z</time></trkpt><trkpt lat="43.3166283" lon="12.8682317"><ele>384.40000000000003</ele><time>2026-05-02T12:55:37.995Z</time></trkpt><trkpt lat="43.31665" lon="12.868105"><ele>375.20000000000005</ele><time>2026-05-02T12:55:38.995Z</time></trkpt><trkpt lat="43.3166683" lon="12.867975"><ele>366.0</ele><time>2026-05-02T12:55:39.994Z</time></trkpt><trkpt lat="43.316685" lon="12.8678517"><ele>366.0</ele><time>2026-05-02T12:55:40.993Z</time></trkpt><trkpt lat="43.3167017" lon="12.8677317"><ele>366.0</ele><time>2026-05-02T12:55:41.992Z</time></trkpt><trkpt lat="43.3167167" lon="12.86761"><ele>366.0</ele><time>2026-05-02T12:55:42.994Z</time></trkpt><trkpt lat="43.3167233" lon="12.8674967"><ele>366.0</ele><time>2026-05-02T12:55:43.995Z</time></trkpt><trkpt lat="43.3167133" lon="12.8673883"><ele>366.0</ele><time>2026-05-02T12:55:44.995Z</time></trkpt><trkpt lat="43.3166867" lon="12.8672767"><ele>366.0</ele><time>2026-05-02T12:55:45.993Z</time></trkpt><trkpt lat="43.3166467" lon="12.8671567"><ele>366.6</ele><time>2026-05-02T12:55:46.994Z</time></trkpt><trkpt lat="43.316615" lon="12.8670267"><ele>367.20000000000005</ele><time>2026-05-02T12:55:47.995Z</time></trkpt><trkpt lat="43.3165883" lon="12.8668867"><ele>367.79999999999995</ele><time>2026-05-02T12:55:48.992Z</time></trkpt><trkpt lat="43.3165683" lon="12.866735"><ele>368.4</ele><time>2026-05-02T12:55:49.993Z</time></trkpt><trkpt lat="43.3165567" lon="12.8665817"><ele>369.0</ele><time>2026-05-02T12:55:50.995Z</time></trkpt><trkpt lat="43.31655" lon="12.8664133"><ele>369.5</ele><time>2026-05-02T12:55:51.995Z</time></trkpt><trkpt lat="43.3165617" lon="12.8662367"><ele>370.0</ele><time>2026-05-02T12:55:52.993Z</time></trkpt><trkpt lat="43.3165767" lon="12.8660517"><ele>370.5</ele><time>2026-05-02T12:55:53.995Z</time></trkpt><trkpt lat="43.3165917" lon="12.8658667"><ele>371.0</ele><time>2026-05-02T12:55:54.995Z</time></trkpt><trkpt lat="43.316615" lon="12.86569"><ele>371.25</ele><time>2026-05-02T12:55:55.994Z</time></trkpt><trkpt lat="43.3166283" lon="12.8655183"><ele>371.5</ele><time>2026-05-02T12:55:56.993Z</time></trkpt><trkpt lat="43.316625" lon="12.8653483"><ele>371.75</ele><time>2026-05-02T12:55:57.993Z</time></trkpt><trkpt lat="43.3166067" lon="12.865185"><ele>372.0</ele><time>2026-05-02T12:55:58.994Z</time></trkpt><trkpt lat="43.3165783" lon="12.8650333"><ele>372.40000000000003</ele><time>2026-05-02T12:55:59.995Z</time></trkpt><trkpt lat="43.3165417" lon="12.8648983"><ele>372.8</ele><time>2026-05-02T12:56:00.993Z</time></trkpt><trkpt lat="43.3164867" lon="12.8647767"><ele>373.2</ele><time>2026-05-02T12:56:01.994Z</time></trkpt><trkpt lat="43.3164267" lon="12.8646583"><ele>373.6</ele><time>2026-05-02T12:56:02.995Z</time></trkpt><trkpt lat="43.31637" lon="12.8645367"><ele>374.0</ele><time>2026-05-02T12:56:03.993Z</time></trkpt><trkpt lat="43.3163017" lon="12.8644317"><ele>377.6666666666667</ele><time>2026-05-02T12:56:04.994Z</time></trkpt><trkpt lat="43.3162283" lon="12.864355"><ele>381.33333333333337</ele><time>2026-05-02T12:56:05.994Z</time></trkpt><trkpt lat="43.3161517" lon="12.86431"><ele>385.0</ele><time>2026-05-02T12:56:06.994Z</time></trkpt><trkpt lat="43.316075" lon="12.864295"><ele>388.6666666666667</ele><time>2026-05-02T12:56:07.994Z</time></trkpt><trkpt lat="43.3159917" lon="12.8642967"><ele>392.3333333333333</ele><time>2026-05-02T12:56:08.995Z</time></trkpt><trkpt lat="43.3158933" lon="12.8643317"><ele>396.0</ele><time>2026-05-02T12:56:09.994Z</time></trkpt><trkpt lat="43.315785" lon="12.8643967"><ele>396.0</ele><time>2026-05-02T12:56:10.996Z</time></trkpt><trkpt lat="43.3156733" lon="12.8644583"><ele>396.0</ele><time>2026-05-02T12:56:11.996Z</time></trkpt><trkpt lat="43.315555" lon="12.864515"><ele>396.0</ele><time>2026-05-02T12:56:12.996Z</time></trkpt><trkpt lat="43.3154267" lon="12.8645683"><ele>396.0</ele><time>2026-05-02T12:56:13.996Z</time></trkpt><trkpt lat="43.31529" lon="12.86462"><ele>396.5</ele><time>2026-05-02T12:56:14.995Z</time></trkpt><trkpt lat="43.3151567" lon="12.8646783"><ele>397.0</ele><time>2026-05-02T12:56:15.994Z</time></trkpt><trkpt lat="43.3150283" lon="12.86474"><ele>397.5</ele><time>2026-05-02T12:56:16.992Z</time></trkpt><trkpt lat="43.3149017" lon="12.8648117"><ele>398.0</ele><time>2026-05-02T12:56:17.994Z</time></trkpt><trkpt lat="43.31478" lon="12.864885"><ele>397.0</ele><time>2026-05-02T12:56:18.993Z</time></trkpt><trkpt lat="43.3146817" lon="12.864955"><ele>396.0</ele><time>2026-05-02T12:56:19.993Z</time></trkpt><trkpt lat="43.3145917" lon="12.8650367"><ele>395.0</ele><time>2026-05-02T12:56:20.995Z</time></trkpt><trkpt lat="43.3144983" lon="12.8651"><ele>394.0</ele><time>2026-05-02T12:56:21.995Z</time></trkpt><trkpt lat="43.3144" lon="12.8651517"><ele>393.0</ele><time>2026-05-02T12:56:22.994Z</time></trkpt><trkpt lat="43.3142883" lon="12.8652117"><ele>397.5</ele><time>2026-05-02T12:56:23.993Z</time></trkpt><trkpt lat="43.3141733" lon="12.86528"><ele>402.0</ele><time>2026-05-02T12:56:24.994Z</time></trkpt><trkpt lat="43.3140517" lon="12.865365"><ele>406.5</ele><time>2026-05-02T12:56:25.995Z</time></trkpt><trkpt lat="43.3139233" lon="12.8654533"><ele>411.0</ele><time>2026-05-02T12:56:26.994Z</time></trkpt><trkpt lat="43.3137817" lon="12.8655367"><ele>411.0</ele><time>2026-05-02T12:56:27.994Z</time></trkpt><trkpt lat="43.3136283" lon="12.8656"><ele>411.0</ele><time>2026-05-02T12:56:28.995Z</time></trkpt><trkpt lat="43.3134767" lon="12.865665"><ele>411.0</ele><time>2026-05-02T12:56:29.995Z</time></trkpt><trkpt lat="43.3133283" lon="12.8657317"><ele>411.0</ele><time>2026-05-02T12:56:30.995Z</time></trkpt><trkpt lat="43.313185" lon="12.8657933"><ele>411.0</ele><time>2026-05-02T12:56:31.995Z</time></trkpt><trkpt lat="43.313045" lon="12.86586"><ele>411.0</ele><time>2026-05-02T12:56:32.995Z</time></trkpt><trkpt lat="43.31292" lon="12.8659283"><ele>411.0</ele><time>2026-05-02T12:56:33.994Z</time></trkpt><trkpt lat="43.3127983" lon="12.8660017"><ele>416.5</ele><time>2026-05-02T12:56:34.995Z</time></trkpt><trkpt lat="43.3126783" lon="12.866075"><ele>422.0</ele><time>2026-05-02T12:56:35.995Z</time></trkpt><trkpt lat="43.3125583" lon="12.866155"><ele>427.5</ele><time>2026-05-02T12:56:36.992Z</time></trkpt><trkpt lat="43.3124417" lon="12.86624"><ele>433.0</ele><time>2026-05-02T12:56:37.995Z</time></trkpt><trkpt lat="43.3123283" lon="12.8663333"><ele>430.75</ele><time>2026-05-02T12:56:38.994Z</time></trkpt><trkpt lat="43.3122133" lon="12.8664217"><ele>428.5</ele><time>2026-05-02T12:56:39.994Z</time></trkpt><trkpt lat="43.3120933" lon="12.86651"><ele>426.25</ele><time>2026-05-02T12:56:40.994Z</time></trkpt><trkpt lat="43.311965" lon="12.8665933"><ele>424.0</ele><time>2026-05-02T12:56:41.995Z</time></trkpt><trkpt lat="43.3118367" lon="12.8666733"><ele>424.0</ele><time>2026-05-02T12:56:42.996Z</time></trkpt><trkpt lat="43.3117017" lon="12.8667567"><ele>424.0</ele><time>2026-05-02T12:56:43.996Z</time></trkpt><trkpt lat="43.311565" lon="12.8668383"><ele>424.0</ele><time>2026-05-02T12:56:44.995Z</time></trkpt><trkpt lat="43.3114267" lon="12.8669133"><ele>424.0</ele><time>2026-05-02T12:56:45.995Z</time></trkpt><trkpt lat="43.3112817" lon="12.8669817"><ele>428.25</ele><time>2026-05-02T12:56:46.994Z</time></trkpt><trkpt lat="43.3111367" lon="12.8670517"><ele>432.5</ele><time>2026-05-02T12:56:47.995Z</time></trkpt><trkpt lat="43.3110017" lon="12.867115"><ele>436.75</ele><time>2026-05-02T12:56:48.997Z</time></trkpt><trkpt lat="43.31088" lon="12.8671767"><ele>441.0</ele><time>2026-05-02T12:56:49.994Z</time></trkpt><trkpt lat="43.3107733" lon="12.8672367"><ele>441.0</ele><time>2026-05-02T12:56:50.997Z</time></trkpt><trkpt lat="43.3106717" lon="12.867305"><ele>441.0</ele><time>2026-05-02T12:56:51.995Z</time></trkpt><trkpt lat="43.3105767" lon="12.86738"><ele>441.0</ele><time>2026-05-02T12:56:52.994Z</time></trkpt><trkpt lat="43.3104667" lon="12.86746"><ele>441.0</ele><time>2026-05-02T12:56:53.993Z</time></trkpt><trkpt lat="43.31035" lon="12.8675467"><ele>447.0</ele><time>2026-05-02T12:56:54.995Z</time></trkpt><trkpt lat="43.31023" lon="12.8676283"><ele>453.0</ele><time>2026-05-02T12:56:55.995Z</time></trkpt><trkpt lat="43.3101067" lon="12.867705"><ele>459.0</ele><time>2026-05-02T12:56:56.994Z</time></trkpt><trkpt lat="43.3099733" lon="12.8677733"><ele>465.0</ele><time>2026-05-02T12:56:57.995Z</time></trkpt><trkpt lat="43.309845" lon="12.8678733"><ele>463.0</ele><time>2026-05-02T12:56:58.994Z</time></trkpt><trkpt lat="43.3097033" lon="12.8679767"><ele>461.0</ele><time>2026-05-02T12:56:59.994Z</time></trkpt><trkpt lat="43.3095583" lon="12.8680717"><ele>459.0</ele><time>2026-05-02T12:57:00.996Z</time></trkpt><trkpt lat="43.30942" lon="12.8681617"><ele>459.0</ele><time>2026-05-02T12:57:01.995Z</time></trkpt><trkpt lat="43.30932" lon="12.86828"><ele>459.0</ele><time>2026-05-02T12:57:02.995Z</time></trkpt><trkpt lat="43.30919" lon="12.8683333"><ele>459.0</ele><time>2026-05-02T12:57:03.994Z</time></trkpt><trkpt lat="43.3090883" lon="12.8683967"><ele>459.0</ele><time>2026-05-02T12:57:04.994Z</time></trkpt><trkpt lat="43.308985" lon="12.868425"><ele>461.0</ele><time>2026-05-02T12:57:05.994Z</time></trkpt><trkpt lat="43.3088867" lon="12.8684183"><ele>463.0</ele><time>2026-05-02T12:57:06.996Z</time></trkpt><trkpt lat="43.3088167" lon="12.8683583"><ele>465.0</ele><time>2026-05-02T12:57:07.997Z</time></trkpt><trkpt lat="43.30874" lon="12.868315"><ele>467.0</ele><time>2026-05-02T12:57:08.995Z</time></trkpt><trkpt lat="43.3086633" lon="12.8682817"><ele>469.0</ele><time>2026-05-02T12:57:09.996Z</time></trkpt><trkpt lat="43.3085733" lon="12.8682667"><ele>471.0</ele><time>2026-05-02T12:57:10.994Z</time></trkpt><trkpt lat="43.3084717" lon="12.8682967"><ele>471.0</ele><time>2026-05-02T12:57:11.995Z</time></trkpt><trkpt lat="43.3083967" lon="12.8683917"><ele>471.0</ele><time>2026-05-02T12:57:12.994Z</time></trkpt><trkpt lat="43.3083417" lon="12.8684833"><ele>471.0</ele><time>2026-05-02T12:57:13.995Z</time></trkpt><trkpt lat="43.3082967" lon="12.868575"><ele>471.0</ele><time>2026-05-02T12:57:14.996Z</time></trkpt><trkpt lat="43.3083033" lon="12.8687183"><ele>471.0</ele><time>2026-05-02T12:57:16.994Z</time></trkpt><trkpt lat="43.3084" lon="12.8688117"><ele>474.25</ele><time>2026-05-02T12:57:18.995Z</time></trkpt><trkpt lat="43.3085783" lon="12.8688083"><ele>477.5</ele><time>2026-05-02T12:57:19.995Z</time></trkpt><trkpt lat="43.30868" lon="12.868845"><ele>480.75</ele><time>2026-05-02T12:57:20.991Z</time></trkpt><trkpt lat="43.3087867" lon="12.8688633"><ele>484.0</ele><time>2026-05-02T12:57:21.994Z</time></trkpt><trkpt lat="43.3089383" lon="12.8688683"><ele>484.0</ele><time>2026-05-02T12:57:22.994Z</time></trkpt><trkpt lat="43.3090367" lon="12.8688933"><ele>484.0</ele><time>2026-05-02T12:57:23.994Z</time></trkpt><trkpt lat="43.3091233" lon="12.86894"><ele>484.0</ele><time>2026-05-02T12:57:24.994Z</time></trkpt><trkpt lat="43.3092067" lon="12.868985"><ele>484.0</ele><time>2026-05-02T12:57:25.994Z</time></trkpt><trkpt lat="43.3092933" lon="12.86902"><ele>484.0</ele><time>2026-05-02T12:57:26.996Z</time></trkpt><trkpt lat="43.3094017" lon="12.8690317"><ele>484.0</ele><time>2026-05-02T12:57:27.995Z</time></trkpt><trkpt lat="43.3095033" lon="12.868985"><ele>484.0</ele><time>2026-05-02T12:57:28.994Z</time></trkpt><trkpt lat="43.3096033" lon="12.868905"><ele>484.0</ele><time>2026-05-02T12:57:29.995Z</time></trkpt><trkpt lat="43.309685" lon="12.8688233"><ele>484.0</ele><time>2026-05-02T12:57:30.995Z</time></trkpt><trkpt lat="43.30976" lon="12.8687467"><ele>484.0</ele><time>2026-05-02T12:57:31.995Z</time></trkpt><trkpt lat="43.3098433" lon="12.8686933"><ele>486.79999999999995</ele><time>2026-05-02T12:57:32.994Z</time></trkpt><trkpt lat="43.3099367" lon="12.8686383"><ele>489.59999999999997</ele><time>2026-05-02T12:57:33.994Z</time></trkpt><trkpt lat="43.3100383" lon="12.868655"><ele>492.4</ele><time>2026-05-02T12:57:34.995Z</time></trkpt><trkpt lat="43.3101567" lon="12.8686483"><ele>495.2</ele><time>2026-05-02T12:57:35.994Z</time></trkpt><trkpt lat="43.3102817" lon="12.8686467"><ele>498.0</ele><time>2026-05-02T12:57:36.993Z</time></trkpt><trkpt lat="43.3104083" lon="12.8686567"><ele>498.0</ele><time>2026-05-02T12:57:37.994Z</time></trkpt><trkpt lat="43.3105417" lon="12.8686683"><ele>498.0</ele><time>2026-05-02T12:57:38.995Z</time></trkpt><trkpt lat="43.3106867" lon="12.8686867"><ele>498.0</ele><time>2026-05-02T12:57:39.995Z</time></trkpt><trkpt lat="43.3108383" lon="12.86871"><ele>498.0</ele><time>2026-05-02T12:57:40.994Z</time></trkpt><trkpt lat="43.3109917" lon="12.8687367"><ele>501.0</ele><time>2026-05-02T12:57:41.994Z</time></trkpt><trkpt lat="43.3111383" lon="12.8687633"><ele>504.0</ele><time>2026-05-02T12:57:42.995Z</time></trkpt><trkpt lat="43.3112783" lon="12.8687817"><ele>507.0</ele><time>2026-05-02T12:57:43.994Z</time></trkpt><trkpt lat="43.3114133" lon="12.8687867"><ele>510.0</ele><time>2026-05-02T12:57:44.995Z</time></trkpt><trkpt lat="43.3115567" lon="12.8687917"><ele>511.66666666666663</ele><time>2026-05-02T12:57:45.995Z</time></trkpt><trkpt lat="43.3117117" lon="12.868805"><ele>513.3333333333333</ele><time>2026-05-02T12:57:46.994Z</time></trkpt><trkpt lat="43.31187" lon="12.8688117"><ele>515.0</ele><time>2026-05-02T12:57:47.995Z</time></trkpt><trkpt lat="43.3120333" lon="12.8688383"><ele>515.0</ele><time>2026-05-02T12:57:48.997Z</time></trkpt><trkpt lat="43.3121883" lon="12.868865"><ele>515.0</ele><time>2026-05-02T12:57:49.995Z</time></trkpt><trkpt lat="43.3123283" lon="12.8688917"><ele>515.0</ele><time>2026-05-02T12:57:50.995Z</time></trkpt><trkpt lat="43.3124383" lon="12.8689317"><ele>515.0</ele><time>2026-05-02T12:57:51.996Z</time></trkpt><trkpt lat="43.3125383" lon="12.86898"><ele>514.8</ele><time>2026-05-02T12:57:52.994Z</time></trkpt><trkpt lat="43.3126283" lon="12.8690417"><ele>514.6</ele><time>2026-05-02T12:57:53.995Z</time></trkpt><trkpt lat="43.3127167" lon="12.86912"><ele>514.4</ele><time>2026-05-02T12:57:54.993Z</time></trkpt><trkpt lat="43.3127983" lon="12.8692217"><ele>514.2</ele><time>2026-05-02T12:57:55.994Z</time></trkpt><trkpt lat="43.3128683" lon="12.869335"><ele>514.0</ele><time>2026-05-02T12:57:56.995Z</time></trkpt><trkpt lat="43.3129133" lon="12.8694517"><ele>514.0</ele><time>2026-05-02T12:57:57.993Z</time></trkpt><trkpt lat="43.31294" lon="12.8695733"><ele>514.0</ele><time>2026-05-02T12:57:58.994Z</time></trkpt><trkpt lat="43.31294" lon="12.8696817"><ele>514.0</ele><time>2026-05-02T12:57:59.994Z</time></trkpt><trkpt lat="43.31292" lon="12.8697917"><ele>514.0</ele><time>2026-05-02T12:58:00.995Z</time></trkpt><trkpt lat="43.3128883" lon="12.8699017"><ele>514.0</ele><time>2026-05-02T12:58:01.995Z</time></trkpt><trkpt lat="43.3128233" lon="12.87003"><ele>509.75</ele><time>2026-05-02T12:58:02.996Z</time></trkpt><trkpt lat="43.31274" lon="12.8701683"><ele>505.5</ele><time>2026-05-02T12:58:03.994Z</time></trkpt><trkpt lat="43.312645" lon="12.8702967"><ele>501.25</ele><time>2026-05-02T12:58:04.994Z</time></trkpt><trkpt lat="43.3125533" lon="12.8704217"><ele>497.0</ele><time>2026-05-02T12:58:05.994Z</time></trkpt><trkpt lat="43.3124767" lon="12.8705617"><ele>497.0</ele><time>2026-05-02T12:58:06.995Z</time></trkpt><trkpt lat="43.3123833" lon="12.8706917"><ele>497.0</ele><time>2026-05-02T12:58:07.994Z</time></trkpt><trkpt lat="43.3122717" lon="12.8708367"><ele>497.0</ele><time>2026-05-02T12:58:08.995Z</time></trkpt><trkpt lat="43.312155" lon="12.8709983"><ele>494.75</ele><time>2026-05-02T12:58:09.994Z</time></trkpt><trkpt lat="43.3120467" lon="12.8711433"><ele>492.5</ele><time>2026-05-02T12:58:10.993Z</time></trkpt><trkpt lat="43.31195" lon="12.87127"><ele>490.25</ele><time>2026-05-02T12:58:11.996Z</time></trkpt><trkpt lat="43.3118617" lon="12.871375"><ele>488.0</ele><time>2026-05-02T12:58:12.993Z</time></trkpt><trkpt lat="43.31179" lon="12.8714483"><ele>487.99999999999994</ele><time>2026-05-02T12:58:13.992Z</time></trkpt><trkpt lat="43.3117333" lon="12.8715033"><ele>488.0</ele><time>2026-05-02T12:58:14.994Z</time></trkpt><trkpt lat="43.3116767" lon="12.8715683"><ele>488.0</ele><time>2026-05-02T12:58:16.993Z</time></trkpt><trkpt lat="43.3115867" lon="12.871605"><ele>488.0</ele><time>2026-05-02T12:58:18.995Z</time></trkpt><trkpt lat="43.3115167" lon="12.87163"><ele>487.99999999999994</ele><time>2026-05-02T12:58:19.994Z</time></trkpt><trkpt lat="43.3114383" lon="12.871665"><ele>488.0</ele><time>2026-05-02T12:58:20.995Z</time></trkpt><trkpt lat="43.311345" lon="12.8717067"><ele>491.79999999999995</ele><time>2026-05-02T12:58:21.994Z</time></trkpt><trkpt lat="43.3112483" lon="12.8717383"><ele>495.59999999999997</ele><time>2026-05-02T12:58:22.994Z</time></trkpt><trkpt lat="43.3111417" lon="12.8717533"><ele>499.40000000000003</ele><time>2026-05-02T12:58:23.995Z</time></trkpt><trkpt lat="43.3110317" lon="12.871755"><ele>503.20000000000005</ele><time>2026-05-02T12:58:24.995Z</time></trkpt><trkpt lat="43.3109033" lon="12.87174"><ele>507.0</ele><time>2026-05-02T12:58:25.988Z</time></trkpt><trkpt lat="43.31077" lon="12.871705"><ele>507.0</ele><time>2026-05-02T12:58:26.995Z</time></trkpt><trkpt lat="43.310635" lon="12.87166"><ele>507.0</ele><time>2026-05-02T12:58:27.995Z</time></trkpt><trkpt lat="43.3105" lon="12.8716167"><ele>507.0</ele><time>2026-05-02T12:58:28.996Z</time></trkpt><trkpt lat="43.310365" lon="12.8715933"><ele>507.0</ele><time>2026-05-02T12:58:29.995Z</time></trkpt><trkpt lat="43.3102433" lon="12.8715917"><ele>514.0</ele><time>2026-05-02T12:58:30.996Z</time></trkpt><trkpt lat="43.3101167" lon="12.871625"><ele>521.0</ele><time>2026-05-02T12:58:31.994Z</time></trkpt><trkpt lat="43.3099867" lon="12.8716717"><ele>528.0</ele><time>2026-05-02T12:58:32.994Z</time></trkpt><trkpt lat="43.30985" lon="12.8717367"><ele>535.0</ele><time>2026-05-02T12:58:33.994Z</time></trkpt><trkpt lat="43.309715" lon="12.8718067"><ele>541.25</ele><time>2026-05-02T12:58:34.993Z</time></trkpt><trkpt lat="43.3096" lon="12.8718867"><ele>547.5</ele><time>2026-05-02T12:58:35.994Z</time></trkpt><trkpt lat="43.3095017" lon="12.871985"><ele>553.75</ele><time>2026-05-02T12:58:36.995Z</time></trkpt><trkpt lat="43.3094167" lon="12.8721083"><ele>560.0</ele><time>2026-05-02T12:58:37.995Z</time></trkpt><trkpt lat="43.3093417" lon="12.8722567"><ele>560.0</ele><time>2026-05-02T12:58:38.996Z</time></trkpt><trkpt lat="43.309275" lon="12.8724083"><ele>560.0</ele><time>2026-05-02T12:58:39.995Z</time></trkpt><trkpt lat="43.30922" lon="12.8725667"><ele>560.0</ele><time>2026-05-02T12:58:40.994Z</time></trkpt><trkpt lat="43.3091667" lon="12.8727167"><ele>560.0</ele><time>2026-05-02T12:58:41.995Z</time></trkpt><trkpt lat="43.3091333" lon="12.872875"><ele>562.75</ele><time>2026-05-02T12:58:42.996Z</time></trkpt><trkpt lat="43.3091017" lon="12.8730517"><ele>565.5</ele><time>2026-05-02T12:58:43.994Z</time></trkpt><trkpt lat="43.3090717" lon="12.8732367"><ele>568.25</ele><time>2026-05-02T12:58:44.997Z</time></trkpt><trkpt lat="43.3090467" lon="12.8734233"><ele>571.0</ele><time>2026-05-02T12:58:45.995Z</time></trkpt><trkpt lat="43.3090367" lon="12.8735983"><ele>574.2</ele><time>2026-05-02T12:58:46.995Z</time></trkpt><trkpt lat="43.30904" lon="12.87375"><ele>577.4000000000001</ele><time>2026-05-02T12:58:47.994Z</time></trkpt><trkpt lat="43.309035" lon="12.8738917"><ele>580.6</ele><time>2026-05-02T12:58:48.993Z</time></trkpt><trkpt lat="43.3090517" lon="12.87403"><ele>583.8000000000001</ele><time>2026-05-02T12:58:49.994Z</time></trkpt><trkpt lat="43.3090583" lon="12.8741517"><ele>587.0</ele><time>2026-05-02T12:58:50.995Z</time></trkpt><trkpt lat="43.3090683" lon="12.8742783"><ele>592.2</ele><time>2026-05-02T12:58:51.989Z</time></trkpt><trkpt lat="43.3090883" lon="12.874415"><ele>597.4000000000001</ele><time>2026-05-02T12:58:52.994Z</time></trkpt><trkpt lat="43.3091217" lon="12.874555"><ele>602.5999999999999</ele><time>2026-05-02T12:58:53.995Z</time></trkpt><trkpt lat="43.3091583" lon="12.8746883"><ele>607.8</ele><time>2026-05-02T12:58:54.996Z</time></trkpt><trkpt lat="43.309195" lon="12.8748167"><ele>613.0</ele><time>2026-05-02T12:58:55.995Z</time></trkpt><trkpt lat="43.3092283" lon="12.8749417"><ele>613.0</ele><time>2026-05-02T12:58:56.997Z</time></trkpt><trkpt lat="43.3092483" lon="12.8750483"><ele>613.0</ele><time>2026-05-02T12:58:57.994Z</time></trkpt><trkpt lat="43.3092583" lon="12.8751517"><ele>613.0</ele><time>2026-05-02T12:58:58.996Z</time></trkpt><trkpt lat="43.309275" lon="12.8752617"><ele>613.0</ele><time>2026-05-02T12:58:59.995Z</time></trkpt><trkpt lat="43.309285" lon="12.875385"><ele>613.0</ele><time>2026-05-02T12:59:00.995Z</time></trkpt><trkpt lat="43.30928" lon="12.8755167"><ele>613.0</ele><time>2026-05-02T12:59:01.995Z</time></trkpt><trkpt lat="43.3092767" lon="12.875645"><ele>616.0</ele><time>2026-05-02T12:59:02.996Z</time></trkpt><trkpt lat="43.3092667" lon="12.87576"><ele>619.0</ele><time>2026-05-02T12:59:03.994Z</time></trkpt><trkpt lat="43.3092517" lon="12.87587"><ele>622.0</ele><time>2026-05-02T12:59:04.993Z</time></trkpt><trkpt lat="43.3092467" lon="12.87597"><ele>625.0</ele><time>2026-05-02T12:59:05.994Z</time></trkpt><trkpt lat="43.30922" lon="12.8760683"><ele>628.0</ele><time>2026-05-02T12:59:07.994Z</time></trkpt><trkpt lat="43.3091483" lon="12.8760767"><ele>631.0</ele><time>2026-05-02T12:59:10.996Z</time></trkpt><trkpt lat="43.3090517" lon="12.8760283"><ele>634.8333333333334</ele><time>2026-05-02T12:59:13.994Z</time></trkpt><trkpt lat="43.3089783" lon="12.8759783"><ele>638.6666666666667</ele><time>2026-05-02T12:59:15.994Z</time></trkpt><trkpt lat="43.3088783" lon="12.8759233"><ele>642.5</ele><time>2026-05-02T12:59:17.994Z</time></trkpt><trkpt lat="43.3087867" lon="12.8758533"><ele>646.3333333333334</ele><time>2026-05-02T12:59:18.991Z</time></trkpt><trkpt lat="43.308725" lon="12.875805"><ele>650.1666666666666</ele><time>2026-05-02T12:59:19.991Z</time></trkpt><trkpt lat="43.30865" lon="12.8757633"><ele>654.0</ele><time>2026-05-02T12:59:20.991Z</time></trkpt><trkpt lat="43.3085683" lon="12.8757167"><ele>655.8333333333334</ele><time>2026-05-02T12:59:21.99Z</time></trkpt><trkpt lat="43.308495" lon="12.8756767"><ele>657.6666666666666</ele><time>2026-05-02T12:59:22.991Z</time></trkpt><trkpt lat="43.3084183" lon="12.8756483"><ele>659.5</ele><time>2026-05-02T12:59:23.99Z</time></trkpt><trkpt lat="43.308325" lon="12.875625"><ele>661.3333333333333</ele><time>2026-05-02T12:59:24.991Z</time></trkpt><trkpt lat="43.308245" lon="12.8756083"><ele>663.1666666666666</ele><time>2026-05-02T12:59:25.989Z</time></trkpt><trkpt lat="43.3081717" lon="12.8755933"><ele>665.0</ele><time>2026-05-02T12:59:26.991Z</time></trkpt><trkpt lat="43.3080783" lon="12.8755833"><ele>670.1666666666666</ele><time>2026-05-02T12:59:27.991Z</time></trkpt><trkpt lat="43.3079917" lon="12.8755683"><ele>675.3333333333333</ele><time>2026-05-02T12:59:28.989Z</time></trkpt><trkpt lat="43.3079067" lon="12.8755617"><ele>680.5</ele><time>2026-05-02T12:59:29.991Z</time></trkpt><trkpt lat="43.3078183" lon="12.8755633"><ele>685.6666666666666</ele><time>2026-05-02T12:59:30.99Z</time></trkpt><trkpt lat="43.30773" lon="12.8755683"><ele>690.8333333333334</ele><time>2026-05-02T12:59:31.992Z</time></trkpt><trkpt lat="43.3076417" lon="12.8755883"><ele>696.0</ele><time>2026-05-02T12:59:32.991Z</time></trkpt><trkpt lat="43.3075433" lon="12.8756183"><ele>696.0</ele><time>2026-05-02T12:59:33.991Z</time></trkpt><trkpt lat="43.3074333" lon="12.8756467"><ele>696.0</ele><time>2026-05-02T12:59:34.99Z</time></trkpt><trkpt lat="43.3073383" lon="12.8756883"><ele>696.0</ele><time>2026-05-02T12:59:35.99Z</time></trkpt><trkpt lat="43.3072433" lon="12.8757033"><ele>696.0</ele><time>2026-05-02T12:59:36.989Z</time></trkpt><trkpt lat="43.3071583" lon="12.87571"><ele>696.0</ele><time>2026-05-02T12:59:37.99Z</time></trkpt><trkpt lat="43.3070733" lon="12.8757183"><ele>700.3333333333334</ele><time>2026-05-02T12:59:38.996Z</time></trkpt><trkpt lat="43.3069867" lon="12.8757317"><ele>704.6666666666666</ele><time>2026-05-02T12:59:40.994Z</time></trkpt><trkpt lat="43.3069533" lon="12.8756583"><ele>709.0</ele><time>2026-05-02T12:59:44.995Z</time></trkpt><trkpt lat="43.3070317" lon="12.875745"><ele>713.3333333333333</ele><time>2026-05-02T13:00:00.992Z</time></trkpt><trkpt lat="43.3070933" lon="12.8757933"><ele>717.6666666666666</ele><time>2026-05-02T13:01:37.993Z</time></trkpt><trkpt lat="43.3070683" lon="12.8756317"><ele>722.0</ele><time>2026-05-02T13:01:39.994Z</time></trkpt><trkpt lat="43.307055" lon="12.8755217"><ele>722.0</ele><time>2026-05-02T13:01:40.994Z</time></trkpt><trkpt lat="43.3070283" lon="12.8753933"><ele>722.0</ele><time>2026-05-02T13:01:41.994Z</time></trkpt><trkpt lat="43.3069833" lon="12.875255"><ele>722.0</ele><time>2026-05-02T13:01:42.993Z</time></trkpt><trkpt lat="43.3069367" lon="12.875125"><ele>722.0</ele><time>2026-05-02T13:01:43.994Z</time></trkpt><trkpt lat="43.3068817" lon="12.8749967"><ele>722.0</ele><time>2026-05-02T13:01:44.992Z</time></trkpt><trkpt lat="43.3068267" lon="12.87487"><ele>720.0</ele><time>2026-05-02T13:01:45.991Z</time></trkpt><trkpt lat="43.3067667" lon="12.8747417"><ele>718.0</ele><time>2026-05-02T13:01:46.992Z</time></trkpt><trkpt lat="43.3067233" lon="12.8746167"><ele>716.0</ele><time>2026-05-02T13:01:47.994Z</time></trkpt><trkpt lat="43.3066833" lon="12.8745083"><ele>714.0</ele><time>2026-05-02T13:01:48.994Z</time></trkpt><trkpt lat="43.30664" lon="12.8744183"><ele>712.0</ele><time>2026-05-02T13:01:49.994Z</time></trkpt><trkpt lat="43.306605" lon="12.87434"><ele>710.0</ele><time>2026-05-02T13:01:50.994Z</time></trkpt><trkpt lat="43.3065617" lon="12.8742617"><ele>710.3333333333333</ele><time>2026-05-02T13:01:51.993Z</time></trkpt><trkpt lat="43.306515" lon="12.874165"><ele>710.6666666666666</ele><time>2026-05-02T13:01:52.993Z</time></trkpt><trkpt lat="43.3064733" lon="12.8740533"><ele>711.0</ele><time>2026-05-02T13:01:53.992Z</time></trkpt><trkpt lat="43.3064333" lon="12.8739483"><ele>711.3333333333334</ele><time>2026-05-02T13:01:54.994Z</time></trkpt><trkpt lat="43.3063767" lon="12.8738467"><ele>711.6666666666667</ele><time>2026-05-02T13:01:55.994Z</time></trkpt><trkpt lat="43.3063117" lon="12.8737633"><ele>712.0</ele><time>2026-05-02T13:01:56.996Z</time></trkpt><trkpt lat="43.3062467" lon="12.8736783"><ele>712.0</ele><time>2026-05-02T13:01:57.995Z</time></trkpt><trkpt lat="43.3061767" lon="12.8735983"><ele>712.0</ele><time>2026-05-02T13:01:58.995Z</time></trkpt><trkpt lat="43.3061033" lon="12.8735233"><ele>712.0</ele><time>2026-05-02T13:01:59.996Z</time></trkpt><trkpt lat="43.30603" lon="12.87345"><ele>712.0</ele><time>2026-05-02T13:02:00.996Z</time></trkpt><trkpt lat="43.3059633" lon="12.873375"><ele>712.0</ele><time>2026-05-02T13:02:01.994Z</time></trkpt><trkpt lat="43.3059017" lon="12.873315"><ele>712.0</ele><time>2026-05-02T13:02:02.998Z</time></trkpt><trkpt lat="43.30585" lon="12.873255"><ele>705.6</ele><time>2026-05-02T13:02:03.994Z</time></trkpt><trkpt lat="43.3057933" lon="12.8731983"><ele>699.2</ele><time>2026-05-02T13:02:04.993Z</time></trkpt><trkpt lat="43.3057267" lon="12.8731317"><ele>692.8</ele><time>2026-05-02T13:02:05.993Z</time></trkpt><trkpt lat="43.3056633" lon="12.8730683"><ele>686.4</ele><time>2026-05-02T13:02:06.994Z</time></trkpt><trkpt lat="43.3055633" lon="12.872985"><ele>680.0</ele><time>2026-05-02T13:02:08.994Z</time></trkpt><trkpt lat="43.30546" lon="12.8729167"><ele>679.0</ele><time>2026-05-02T13:02:10.992Z</time></trkpt><trkpt lat="43.3053717" lon="12.8728417"><ele>678.0</ele><time>2026-05-02T13:02:12.994Z</time></trkpt><trkpt lat="43.3052467" lon="12.8727617"><ele>677.0</ele><time>2026-05-02T13:02:14.992Z</time></trkpt><trkpt lat="43.305155" lon="12.8727083"><ele>676.0</ele><time>2026-05-02T13:02:15.994Z</time></trkpt><trkpt lat="43.3050633" lon="12.8726617"><ele>675.0</ele><time>2026-05-02T13:02:16.992Z</time></trkpt><trkpt lat="43.3049833" lon="12.8726383"><ele>669.6</ele><time>2026-05-02T13:02:17.993Z</time></trkpt><trkpt lat="43.3048883" lon="12.8725983"><ele>664.2</ele><time>2026-05-02T13:02:18.995Z</time></trkpt><trkpt lat="43.3048" lon="12.8725767"><ele>658.8</ele><time>2026-05-02T13:02:19.994Z</time></trkpt><trkpt lat="43.3046917" lon="12.872555"><ele>653.4</ele><time>2026-05-02T13:02:20.994Z</time></trkpt><trkpt lat="43.3046017" lon="12.8725567"><ele>648.0</ele><time>2026-05-02T13:02:21.995Z</time></trkpt><trkpt lat="43.3045167" lon="12.8725583"><ele>648.1666666666666</ele><time>2026-05-02T13:02:22.994Z</time></trkpt><trkpt lat="43.3044467" lon="12.8725583"><ele>648.3333333333334</ele><time>2026-05-02T13:02:23.994Z</time></trkpt><trkpt lat="43.3043783" lon="12.87257"><ele>648.5</ele><time>2026-05-02T13:02:24.995Z</time></trkpt><trkpt lat="43.304295" lon="12.8726367"><ele>648.6666666666667</ele><time>2026-05-02T13:02:26.995Z</time></trkpt><trkpt lat="43.30423" lon="12.8727233"><ele>648.8333333333334</ele><time>2026-05-02T13:02:29.994Z</time></trkpt><trkpt lat="43.3041367" lon="12.8727783"><ele>649.0</ele><time>2026-05-02T13:02:31.994Z</time></trkpt><trkpt lat="43.30403" lon="12.872875"><ele>649.0</ele><time>2026-05-02T13:02:33.995Z</time></trkpt><trkpt lat="43.30397" lon="12.8729333"><ele>649.0</ele><time>2026-05-02T13:02:34.992Z</time></trkpt><trkpt lat="43.303875" lon="12.8730417"><ele>649.0</ele><time>2026-05-02T13:02:36.993Z</time></trkpt><trkpt lat="43.3038267" lon="12.8731117"><ele>649.0</ele><time>2026-05-02T13:02:37.993Z</time></trkpt><trkpt lat="43.3037417" lon="12.8731867"><ele>649.0</ele><time>2026-05-02T13:02:39.993Z</time></trkpt><trkpt lat="43.3036833" lon="12.8732233"><ele>649.0</ele><time>2026-05-02T13:02:40.993Z</time></trkpt><trkpt lat="43.30362" lon="12.8732633"><ele>646.8333333333334</ele><time>2026-05-02T13:02:41.993Z</time></trkpt><trkpt lat="43.3035517" lon="12.873325"><ele>644.6666666666667</ele><time>2026-05-02T13:02:42.993Z</time></trkpt><trkpt lat="43.303485" lon="12.873395"><ele>642.5</ele><time>2026-05-02T13:02:43.992Z</time></trkpt><trkpt lat="43.3034167" lon="12.8734733"><ele>640.3333333333334</ele><time>2026-05-02T13:02:44.995Z</time></trkpt><trkpt lat="43.30335" lon="12.87354"><ele>638.1666666666666</ele><time>2026-05-02T13:02:45.994Z</time></trkpt><trkpt lat="43.3032967" lon="12.8736117"><ele>636.0</ele><time>2026-05-02T13:02:46.993Z</time></trkpt><trkpt lat="43.30324" lon="12.8736533"><ele>636.0</ele><time>2026-05-02T13:02:47.993Z</time></trkpt><trkpt lat="43.30312" lon="12.87369"><ele>636.0</ele><time>2026-05-02T13:02:49.996Z</time></trkpt><trkpt lat="43.3030467" lon="12.8736933"><ele>636.0</ele><time>2026-05-02T13:02:50.995Z</time></trkpt><trkpt lat="43.3029783" lon="12.8737033"><ele>636.0</ele><time>2026-05-02T13:02:51.995Z</time></trkpt><trkpt lat="43.302905" lon="12.87371"><ele>636.0</ele><time>2026-05-02T13:02:52.994Z</time></trkpt><trkpt lat="43.3028283" lon="12.8737133"><ele>636.0</ele><time>2026-05-02T13:02:53.994Z</time></trkpt><trkpt lat="43.30275" lon="12.873725"><ele>631.0</ele><time>2026-05-02T13:02:54.992Z</time></trkpt><trkpt lat="43.30266" lon="12.8737333"><ele>626.0</ele><time>2026-05-02T13:02:55.993Z</time></trkpt><trkpt lat="43.3025717" lon="12.8737367"><ele>621.0</ele><time>2026-05-02T13:02:56.994Z</time></trkpt><trkpt lat="43.3024917" lon="12.8737333"><ele>616.0</ele><time>2026-05-02T13:02:57.994Z</time></trkpt><trkpt lat="43.3024167" lon="12.8737233"><ele>611.0</ele><time>2026-05-02T13:02:58.994Z</time></trkpt><trkpt lat="43.3023383" lon="12.873715"><ele>606.0</ele><time>2026-05-02T13:02:59.992Z</time></trkpt><trkpt lat="43.3022633" lon="12.87371"><ele>602.5</ele><time>2026-05-02T13:03:00.995Z</time></trkpt><trkpt lat="43.3021933" lon="12.873705"><ele>599.0</ele><time>2026-05-02T13:03:01.993Z</time></trkpt><trkpt lat="43.3020767" lon="12.8736717"><ele>595.5</ele><time>2026-05-02T13:03:03.993Z</time></trkpt><trkpt lat="43.3020117" lon="12.8736633"><ele>592.0</ele><time>2026-05-02T13:03:04.993Z</time></trkpt><trkpt lat="43.301945" lon="12.8736667"><ele>588.5</ele><time>2026-05-02T13:03:05.993Z</time></trkpt><trkpt lat="43.30187" lon="12.8736717"><ele>585.0</ele><time>2026-05-02T13:03:06.993Z</time></trkpt><trkpt lat="43.3018" lon="12.87368"><ele>585.0</ele><time>2026-05-02T13:03:07.993Z</time></trkpt><trkpt lat="43.30172" lon="12.8736767"><ele>585.0</ele><time>2026-05-02T13:03:08.994Z</time></trkpt><trkpt lat="43.3016433" lon="12.8736817"><ele>585.0</ele><time>2026-05-02T13:03:09.992Z</time></trkpt><trkpt lat="43.3015733" lon="12.873685"><ele>585.0</ele><time>2026-05-02T13:03:10.993Z</time></trkpt><trkpt lat="43.3014483" lon="12.8736717"><ele>585.0</ele><time>2026-05-02T13:03:12.993Z</time></trkpt><trkpt lat="43.301385" lon="12.8736683"><ele>585.0</ele><time>2026-05-02T13:03:13.993Z</time></trkpt><trkpt lat="43.3013083" lon="12.8736783"><ele>579.2</ele><time>2026-05-02T13:03:14.994Z</time></trkpt><trkpt lat="43.3012317" lon="12.8736967"><ele>573.4</ele><time>2026-05-02T13:03:15.993Z</time></trkpt><trkpt lat="43.3011567" lon="12.87372"><ele>567.6</ele><time>2026-05-02T13:03:16.993Z</time></trkpt><trkpt lat="43.3010883" lon="12.8737383"><ele>561.8</ele><time>2026-05-02T13:03:17.993Z</time></trkpt><trkpt lat="43.30097" lon="12.8737733"><ele>556.0</ele><time>2026-05-02T13:03:19.993Z</time></trkpt><trkpt lat="43.30085" lon="12.8738067"><ele>556.0</ele><time>2026-05-02T13:03:21.993Z</time></trkpt><trkpt lat="43.3007833" lon="12.873825"><ele>556.0</ele><time>2026-05-02T13:03:22.994Z</time></trkpt><trkpt lat="43.3007167" lon="12.8738467"><ele>556.0</ele><time>2026-05-02T13:03:23.994Z</time></trkpt><trkpt lat="43.3006483" lon="12.8738617"><ele>556.0</ele><time>2026-05-02T13:03:24.993Z</time></trkpt><trkpt lat="43.300575" lon="12.8738817"><ele>556.0</ele><time>2026-05-02T13:03:25.993Z</time></trkpt><trkpt lat="43.300505" lon="12.8738867"><ele>556.0</ele><time>2026-05-02T13:03:26.995Z</time></trkpt><trkpt lat="43.3004333" lon="12.8738933"><ele>556.0</ele><time>2026-05-02T13:03:27.994Z</time></trkpt><trkpt lat="43.300365" lon="12.873905"><ele>549.8</ele><time>2026-05-02T13:03:28.994Z</time></trkpt><trkpt lat="43.3002967" lon="12.8739133"><ele>543.6</ele><time>2026-05-02T13:03:29.994Z</time></trkpt><trkpt lat="43.3001867" lon="12.87395"><ele>537.4</ele><time>2026-05-02T13:03:31.993Z</time></trkpt><trkpt lat="43.300065" lon="12.873945"><ele>531.2</ele><time>2026-05-02T13:03:33.992Z</time></trkpt><trkpt lat="43.2999367" lon="12.8739567"><ele>525.0</ele><time>2026-05-02T13:03:35.994Z</time></trkpt><trkpt lat="43.29987" lon="12.8739567"><ele>525.0</ele><time>2026-05-02T13:03:36.993Z</time></trkpt><trkpt lat="43.2998067" lon="12.8739583"><ele>525.0</ele><time>2026-05-02T13:03:37.993Z</time></trkpt><trkpt lat="43.299695" lon="12.87398"><ele>525.0</ele><time>2026-05-02T13:03:39.993Z</time></trkpt><trkpt lat="43.2995883" lon="12.87404"><ele>525.0</ele><time>2026-05-02T13:03:41.994Z</time></trkpt><trkpt lat="43.29952" lon="12.874055"><ele>525.0</ele><time>2026-05-02T13:03:42.989Z</time></trkpt><trkpt lat="43.2994567" lon="12.8740633"><ele>525.0</ele><time>2026-05-02T13:03:43.994Z</time></trkpt><trkpt lat="43.2993267" lon="12.8740867"><ele>520.8333333333334</ele><time>2026-05-02T13:03:45.994Z</time></trkpt><trkpt lat="43.299245" lon="12.8740967"><ele>516.6666666666666</ele><time>2026-05-02T13:03:46.993Z</time></trkpt><trkpt lat="43.299165" lon="12.87411"><ele>512.5</ele><time>2026-05-02T13:03:47.994Z</time></trkpt><trkpt lat="43.299095" lon="12.874125"><ele>508.3333333333333</ele><time>2026-05-02T13:03:48.993Z</time></trkpt><trkpt lat="43.29903" lon="12.8741383"><ele>504.16666666666663</ele><time>2026-05-02T13:03:49.993Z</time></trkpt><trkpt lat="43.2989283" lon="12.8741617"><ele>500.0</ele><time>2026-05-02T13:03:51.993Z</time></trkpt><trkpt lat="43.2988317" lon="12.874205"><ele>497.8333333333333</ele><time>2026-05-02T13:03:53.994Z</time></trkpt><trkpt lat="43.2987167" lon="12.8742467"><ele>495.66666666666663</ele><time>2026-05-02T13:03:55.994Z</time></trkpt><trkpt lat="43.2986" lon="12.8742717"><ele>493.5</ele><time>2026-05-02T13:03:57.994Z</time></trkpt><trkpt lat="43.2985333" lon="12.8742683"><ele>491.33333333333337</ele><time>2026-05-02T13:03:58.994Z</time></trkpt><trkpt lat="43.298465" lon="12.874275"><ele>489.1666666666667</ele><time>2026-05-02T13:03:59.992Z</time></trkpt><trkpt lat="43.2983967" lon="12.874285"><ele>487.0</ele><time>2026-05-02T13:04:00.993Z</time></trkpt><trkpt lat="43.2983167" lon="12.8742933"><ele>487.00000000000006</ele><time>2026-05-02T13:04:01.994Z</time></trkpt><trkpt lat="43.2982483" lon="12.874305"><ele>487.0</ele><time>2026-05-02T13:04:02.995Z</time></trkpt><trkpt lat="43.2981383" lon="12.8743283"><ele>487.0</ele><time>2026-05-02T13:04:04.994Z</time></trkpt><trkpt lat="43.29805" lon="12.874325"><ele>487.0</ele><time>2026-05-02T13:04:07.993Z</time></trkpt><trkpt lat="43.2979583" lon="12.874305"><ele>487.00000000000006</ele><time>2026-05-02T13:04:09.993Z</time></trkpt><trkpt lat="43.297875" lon="12.8743167"><ele>487.0</ele><time>2026-05-02T13:04:11.994Z</time></trkpt><trkpt lat="43.2977883" lon="12.87432"><ele>483.40000000000003</ele><time>2026-05-02T13:04:14.994Z</time></trkpt><trkpt lat="43.2977117" lon="12.8743133"><ele>479.80000000000007</ele><time>2026-05-02T13:04:16.992Z</time></trkpt><trkpt lat="43.297615" lon="12.8742483"><ele>476.2</ele><time>2026-05-02T13:04:18.993Z</time></trkpt><trkpt lat="43.297515" lon="12.8741933"><ele>472.6</ele><time>2026-05-02T13:04:20.994Z</time></trkpt><trkpt lat="43.2973933" lon="12.8741267"><ele>469.0</ele><time>2026-05-02T13:04:22.993Z</time></trkpt><trkpt lat="43.2973367" lon="12.87408"><ele>467.79999999999995</ele><time>2026-05-02T13:04:23.994Z</time></trkpt><trkpt lat="43.2972567" lon="12.8739517"><ele>466.59999999999997</ele><time>2026-05-02T13:04:25.993Z</time></trkpt><trkpt lat="43.2972183" lon="12.87388"><ele>465.4</ele><time>2026-05-02T13:04:26.995Z</time></trkpt><trkpt lat="43.2971633" lon="12.87373"><ele>464.2</ele><time>2026-05-02T13:04:28.993Z</time></trkpt><trkpt lat="43.297125" lon="12.8735833"><ele>463.0</ele><time>2026-05-02T13:04:30.995Z</time></trkpt><trkpt lat="43.2970917" lon="12.8734833"><ele>462.33333333333337</ele><time>2026-05-02T13:04:32.993Z</time></trkpt><trkpt lat="43.2970333" lon="12.8734167"><ele>461.6666666666667</ele><time>2026-05-02T13:04:36.993Z</time></trkpt><trkpt lat="43.296955" lon="12.8733867"><ele>461.0</ele><time>2026-05-02T13:05:14.994Z</time></trkpt><trkpt lat="43.29687" lon="12.8734067"><ele>460.33333333333337</ele><time>2026-05-02T13:05:16.993Z</time></trkpt><trkpt lat="43.2967967" lon="12.8734667"><ele>459.6666666666667</ele><time>2026-05-02T13:05:18.994Z</time></trkpt><trkpt lat="43.2967367" lon="12.8735617"><ele>459.0</ele><time>2026-05-02T13:05:20.995Z</time></trkpt><trkpt lat="43.2966833" lon="12.8736767"><ele>459.0</ele><time>2026-05-02T13:05:22.995Z</time></trkpt><trkpt lat="43.2966267" lon="12.873785"><ele>459.0</ele><time>2026-05-02T13:05:24.993Z</time></trkpt><trkpt lat="43.2965567" lon="12.873885"><ele>459.0</ele><time>2026-05-02T13:05:26.994Z</time></trkpt><trkpt lat="43.2964717" lon="12.87401"><ele>459.0</ele><time>2026-05-02T13:05:28.993Z</time></trkpt><trkpt lat="43.2964167" lon="12.8741367"><ele>459.0</ele><time>2026-05-02T13:05:30.99Z</time></trkpt><trkpt lat="43.296405" lon="12.8742383"><ele>461.3333333333333</ele><time>2026-05-02T13:05:32.994Z</time></trkpt><trkpt lat="43.296405" lon="12.87433"><ele>463.66666666666663</ele><time>2026-05-02T13:05:35.994Z</time></trkpt><trkpt lat="43.29636" lon="12.8744367"><ele>466.0</ele><time>2026-05-02T13:05:38.993Z</time></trkpt><trkpt lat="43.2963383" lon="12.8745417"><ele>468.3333333333333</ele><time>2026-05-02T13:05:40.993Z</time></trkpt><trkpt lat="43.2963217" lon="12.87465"><ele>470.66666666666663</ele><time>2026-05-02T13:05:42.993Z</time></trkpt><trkpt lat="43.2963133" lon="12.8747633"><ele>473.0</ele><time>2026-05-02T13:05:44.995Z</time></trkpt><trkpt lat="43.2963133" lon="12.8749"><ele>473.0</ele><time>2026-05-02T13:05:46.992Z</time></trkpt><trkpt lat="43.296325" lon="12.87504"><ele>472.99999999999994</ele><time>2026-05-02T13:05:48.993Z</time></trkpt><trkpt lat="43.2963417" lon="12.8751917"><ele>472.99999999999994</ele><time>2026-05-02T13:05:50.994Z</time></trkpt><trkpt lat="43.2963633" lon="12.87534"><ele>473.0</ele><time>2026-05-02T13:05:52.994Z</time></trkpt><trkpt lat="43.2963867" lon="12.875485"><ele>473.0</ele><time>2026-05-02T13:05:54.993Z</time></trkpt><trkpt lat="43.2964133" lon="12.875615"><ele>474.79999999999995</ele><time>2026-05-02T13:05:56.994Z</time></trkpt><trkpt lat="43.29643" lon="12.8757567"><ele>476.59999999999997</ele><time>2026-05-02T13:05:58.994Z</time></trkpt><trkpt lat="43.29644" lon="12.8759133"><ele>478.40000000000003</ele><time>2026-05-02T13:06:00.993Z</time></trkpt><trkpt lat="43.296445" lon="12.8760583"><ele>480.20000000000005</ele><time>2026-05-02T13:06:02.994Z</time></trkpt><trkpt lat="43.29645" lon="12.87617"><ele>482.0</ele><time>2026-05-02T13:06:04.992Z</time></trkpt><trkpt lat="43.2964617" lon="12.8762667"><ele>484.49999999999994</ele><time>2026-05-02T13:06:08.995Z</time></trkpt><trkpt lat="43.296455" lon="12.87637"><ele>487.0</ele><time>2026-05-02T13:06:13.992Z</time></trkpt><trkpt lat="43.2964483" lon="12.8764733"><ele>489.5</ele><time>2026-05-02T13:06:19.993Z</time></trkpt><trkpt lat="43.2964617" lon="12.8765867"><ele>492.0</ele><time>2026-05-02T13:06:21.992Z</time></trkpt><trkpt lat="43.2964633" lon="12.8767033"><ele>494.49999999999994</ele><time>2026-05-02T13:06:23.991Z</time></trkpt><trkpt lat="43.2964483" lon="12.876875"><ele>497.0</ele><time>2026-05-02T13:06:25.992Z</time></trkpt><trkpt lat="43.296445" lon="12.877035"><ele>498.8333333333333</ele><time>2026-05-02T13:06:27.992Z</time></trkpt><trkpt lat="43.296425" lon="12.87716"><ele>500.66666666666663</ele><time>2026-05-02T13:06:29.992Z</time></trkpt><trkpt lat="43.2963983" lon="12.8772567"><ele>502.5</ele><time>2026-05-02T13:06:31.992Z</time></trkpt><trkpt lat="43.296385" lon="12.8773983"><ele>504.33333333333337</ele><time>2026-05-02T13:07:36.992Z</time></trkpt><trkpt lat="43.2963583" lon="12.8774883"><ele>506.1666666666667</ele><time>2026-05-02T13:07:38.994Z</time></trkpt><trkpt lat="43.2963233" lon="12.8776183"><ele>508.0</ele><time>2026-05-02T13:07:40.992Z</time></trkpt><trkpt lat="43.2963233" lon="12.877725"><ele>508.0</ele><time>2026-05-02T13:07:42.993Z</time></trkpt><trkpt lat="43.2963267" lon="12.877825"><ele>508.0</ele><time>2026-05-02T13:07:45.995Z</time></trkpt><trkpt lat="43.296315" lon="12.87791"><ele>508.0</ele><time>2026-05-02T13:07:51.993Z</time></trkpt><trkpt lat="43.2963717" lon="12.8778717"><ele>508.0</ele><time>2026-05-02T13:07:58.992Z</time></trkpt><trkpt lat="43.29643" lon="12.8778033"><ele>508.0</ele><time>2026-05-02T13:09:07.993Z</time></trkpt><trkpt lat="43.2965067" lon="12.87775"><ele>508.0</ele><time>2026-05-02T13:09:09.992Z</time></trkpt><trkpt lat="43.29657" lon="12.8777133"><ele>508.0</ele><time>2026-05-02T13:09:11.993Z</time></trkpt><trkpt lat="43.296635" lon="12.8776733"><ele>511.00000000000006</ele><time>2026-05-02T13:09:17.993Z</time></trkpt><trkpt lat="43.2967167" lon="12.8776267"><ele>514.0</ele><time>2026-05-02T13:09:21.992Z</time></trkpt><trkpt lat="43.2967756" lon="12.8775954"><ele>517.0</ele><time>2026-05-02T13:09:23.992Z</time></trkpt><trkpt lat="43.2968699" lon="12.8775763"><ele>520.0</ele><time>2026-05-02T13:09:27.021Z</time></trkpt><trkpt lat="43.296935" lon="12.8775567"><ele>523.0</ele><time>2026-05-02T13:09:28.992Z</time></trkpt><trkpt lat="43.29704" lon="12.877454"><ele>526.0</ele><time>2026-05-02T13:09:32.028Z</time></trkpt><trkpt lat="43.2970827" lon="12.8773891"><ele>526.0</ele><time>2026-05-02T13:09:32.994Z</time></trkpt><trkpt lat="43.2971319" lon="12.877274"><ele>526.0</ele><time>2026-05-02T13:09:35.008Z</time></trkpt><trkpt lat="43.2971935" lon="12.8771473"><ele>526.0</ele><time>2026-05-02T13:09:37.035Z</time></trkpt><trkpt lat="43.2972951" lon="12.8770924"><ele>526.0</ele><time>2026-05-02T13:09:38.994Z</time></trkpt><trkpt lat="43.2973504" lon="12.8772034"><ele>526.0</ele><time>2026-05-02T13:09:40.992Z</time></trkpt><trkpt lat="43.2973851" lon="12.877373"><ele>531.0</ele><time>2026-05-02T13:09:42.992Z</time></trkpt><trkpt lat="43.2974027" lon="12.8774684"><ele>536.0</ele><time>2026-05-02T13:09:43.992Z</time></trkpt><trkpt lat="43.2974283" lon="12.8775867"><ele>541.0</ele><time>2026-05-02T13:09:44.993Z</time></trkpt><trkpt lat="43.2974667" lon="12.877725"><ele>546.0</ele><time>2026-05-02T13:09:45.992Z</time></trkpt><trkpt lat="43.2975067" lon="12.8778783"><ele>551.0</ele><time>2026-05-02T13:09:46.992Z</time></trkpt><trkpt lat="43.2975417" lon="12.878035"><ele>556.2</ele><time>2026-05-02T13:09:47.993Z</time></trkpt><trkpt lat="43.2975783" lon="12.878185"><ele>561.4000000000001</ele><time>2026-05-02T13:09:48.994Z</time></trkpt><trkpt lat="43.2976067" lon="12.8783333"><ele>566.6</ele><time>2026-05-02T13:09:49.99Z</time></trkpt><trkpt lat="43.2976267" lon="12.8784733"><ele>571.8000000000001</ele><time>2026-05-02T13:09:50.994Z</time></trkpt><trkpt lat="43.2976367" lon="12.878605"><ele>577.0</ele><time>2026-05-02T13:09:51.992Z</time></trkpt><trkpt lat="43.2976467" lon="12.8787367"><ele>580.2</ele><time>2026-05-02T13:09:52.993Z</time></trkpt><trkpt lat="43.29765" lon="12.8788667"><ele>583.4000000000001</ele><time>2026-05-02T13:09:53.993Z</time></trkpt><trkpt lat="43.297645" lon="12.8790017"><ele>586.5999999999999</ele><time>2026-05-02T13:09:54.993Z</time></trkpt><trkpt lat="43.2976333" lon="12.8791467"><ele>589.8</ele><time>2026-05-02T13:09:55.994Z</time></trkpt><trkpt lat="43.29762" lon="12.879295"><ele>593.0</ele><time>2026-05-02T13:09:56.995Z</time></trkpt><trkpt lat="43.2976133" lon="12.8794467"><ele>597.0</ele><time>2026-05-02T13:09:57.993Z</time></trkpt><trkpt lat="43.2976033" lon="12.8796017"><ele>601.0</ele><time>2026-05-02T13:09:58.993Z</time></trkpt><trkpt lat="43.2975883" lon="12.8797633"><ele>605.0</ele><time>2026-05-02T13:09:59.987Z</time></trkpt><trkpt lat="43.2975717" lon="12.8799267"><ele>609.0</ele><time>2026-05-02T13:10:00.991Z</time></trkpt><trkpt lat="43.297555" lon="12.8800917"><ele>614.0</ele><time>2026-05-02T13:10:01.992Z</time></trkpt><trkpt lat="43.2975367" lon="12.8802533"><ele>619.0</ele><time>2026-05-02T13:10:02.988Z</time></trkpt><trkpt lat="43.2975167" lon="12.880415"><ele>624.0</ele><time>2026-05-02T13:10:03.992Z</time></trkpt><trkpt lat="43.2975" lon="12.8805833"><ele>629.0</ele><time>2026-05-02T13:10:04.992Z</time></trkpt><trkpt lat="43.2974867" lon="12.8807583"><ele>634.25</ele><time>2026-05-02T13:10:05.994Z</time></trkpt><trkpt lat="43.2974717" lon="12.8809333"><ele>639.5</ele><time>2026-05-02T13:10:06.992Z</time></trkpt><trkpt lat="43.2974567" lon="12.88111"><ele>644.75</ele><time>2026-05-02T13:10:07.992Z</time></trkpt><trkpt lat="43.2974417" lon="12.8812783"><ele>650.0</ele><time>2026-05-02T13:10:08.993Z</time></trkpt><trkpt lat="43.297435" lon="12.88143"><ele>650.0</ele><time>2026-05-02T13:10:09.991Z</time></trkpt><trkpt lat="43.297425" lon="12.8815667"><ele>650.0</ele><time>2026-05-02T13:10:10.991Z</time></trkpt><trkpt lat="43.297405" lon="12.8817083"><ele>650.0</ele><time>2026-05-02T13:10:11.993Z</time></trkpt><trkpt lat="43.29738" lon="12.8818567"><ele>650.0</ele><time>2026-05-02T13:10:12.993Z</time></trkpt><trkpt lat="43.2973617" lon="12.8820167"><ele>650.0</ele><time>2026-05-02T13:10:13.989Z</time></trkpt><trkpt lat="43.29734" lon="12.8821717"><ele>653.8</ele><time>2026-05-02T13:10:14.994Z</time></trkpt><trkpt lat="43.2973217" lon="12.8823183"><ele>657.6</ele><time>2026-05-02T13:10:15.992Z</time></trkpt><trkpt lat="43.2973083" lon="12.8824583"><ele>661.4000000000001</ele><time>2026-05-02T13:10:16.992Z</time></trkpt><trkpt lat="43.29729" lon="12.8825967"><ele>665.2</ele><time>2026-05-02T13:10:17.993Z</time></trkpt><trkpt lat="43.2972683" lon="12.882735"><ele>669.0</ele><time>2026-05-02T13:10:18.992Z</time></trkpt><trkpt lat="43.2972433" lon="12.8828733"><ele>673.5</ele><time>2026-05-02T13:10:19.992Z</time></trkpt><trkpt lat="43.2972233" lon="12.8830033"><ele>678.0</ele><time>2026-05-02T13:10:20.993Z</time></trkpt><trkpt lat="43.29721" lon="12.8831183"><ele>682.5</ele><time>2026-05-02T13:10:21.992Z</time></trkpt><trkpt lat="43.2971983" lon="12.883215"><ele>687.0</ele><time>2026-05-02T13:10:22.993Z</time></trkpt><trkpt lat="43.2971717" lon="12.8833817"><ele>691.5</ele><time>2026-05-02T13:10:24.994Z</time></trkpt><trkpt lat="43.2971467" lon="12.8834617"><ele>696.0</ele><time>2026-05-02T13:10:25.994Z</time></trkpt><trkpt lat="43.2971333" lon="12.88355"><ele>700.1666666666666</ele><time>2026-05-02T13:10:26.994Z</time></trkpt><trkpt lat="43.2971033" lon="12.8836733"><ele>704.3333333333334</ele><time>2026-05-02T13:10:28.993Z</time></trkpt><trkpt lat="43.297025" lon="12.8836483"><ele>708.5</ele><time>2026-05-02T13:10:32.995Z</time></trkpt><trkpt lat="43.296965" lon="12.88359"><ele>712.6666666666667</ele><time>2026-05-02T13:10:35.994Z</time></trkpt><trkpt lat="43.29688" lon="12.883545"><ele>716.8333333333334</ele><time>2026-05-02T13:10:38.993Z</time></trkpt><trkpt lat="43.2968133" lon="12.8835267"><ele>721.0</ele><time>2026-05-02T13:10:40.992Z</time></trkpt><trkpt lat="43.2967133" lon="12.8835183"><ele>721.0</ele><time>2026-05-02T13:10:42.993Z</time></trkpt><trkpt lat="43.29664" lon="12.8835233"><ele>721.0</ele><time>2026-05-02T13:10:43.993Z</time></trkpt><trkpt lat="43.2965583" lon="12.8835433"><ele>721.0</ele><time>2026-05-02T13:10:44.993Z</time></trkpt><trkpt lat="43.296475" lon="12.8835817"><ele>721.0</ele><time>2026-05-02T13:10:45.993Z</time></trkpt><trkpt lat="43.2963933" lon="12.883635"><ele>721.0</ele><time>2026-05-02T13:10:46.993Z</time></trkpt><trkpt lat="43.296315" lon="12.8836983"><ele>721.0</ele><time>2026-05-02T13:10:47.993Z</time></trkpt><trkpt lat="43.2962417" lon="12.883775"><ele>720.5999999999999</ele><time>2026-05-02T13:10:48.992Z</time></trkpt><trkpt lat="43.29618" lon="12.8838633"><ele>720.2</ele><time>2026-05-02T13:10:49.993Z</time></trkpt><trkpt lat="43.2961233" lon="12.883965"><ele>719.8</ele><time>2026-05-02T13:10:50.994Z</time></trkpt><trkpt lat="43.296065" lon="12.88407"><ele>719.4000000000001</ele><time>2026-05-02T13:10:51.993Z</time></trkpt><trkpt lat="43.29601" lon="12.884185"><ele>719.0</ele><time>2026-05-02T13:10:52.995Z</time></trkpt><trkpt lat="43.2959533" lon="12.8843"><ele>719.0</ele><time>2026-05-02T13:10:53.994Z</time></trkpt><trkpt lat="43.2958967" lon="12.8844167"><ele>719.0</ele><time>2026-05-02T13:10:54.994Z</time></trkpt><trkpt lat="43.2958367" lon="12.8845367"><ele>719.0</ele><time>2026-05-02T13:10:55.994Z</time></trkpt><trkpt lat="43.295775" lon="12.88466"><ele>719.0</ele><time>2026-05-02T13:10:56.993Z</time></trkpt><trkpt lat="43.2957083" lon="12.8847833"><ele>719.0</ele><time>2026-05-02T13:10:57.992Z</time></trkpt><trkpt lat="43.2956417" lon="12.884905"><ele>719.2</ele><time>2026-05-02T13:10:58.993Z</time></trkpt><trkpt lat="43.2955733" lon="12.8850183"><ele>719.4000000000001</ele><time>2026-05-02T13:10:59.993Z</time></trkpt><trkpt lat="43.2955017" lon="12.885115"><ele>719.6</ele><time>2026-05-02T13:11:00.993Z</time></trkpt><trkpt lat="43.2954217" lon="12.88519"><ele>719.8</ele><time>2026-05-02T13:11:01.993Z</time></trkpt><trkpt lat="43.29533" lon="12.8852417"><ele>720.0</ele><time>2026-05-02T13:11:02.995Z</time></trkpt><trkpt lat="43.2952267" lon="12.88529"><ele>720.0</ele><time>2026-05-02T13:11:03.993Z</time></trkpt><trkpt lat="43.2951167" lon="12.8853417"><ele>720.0</ele><time>2026-05-02T13:11:04.993Z</time></trkpt><trkpt lat="43.2950067" lon="12.8853967"><ele>720.0</ele><time>2026-05-02T13:11:05.993Z</time></trkpt><trkpt lat="43.2949" lon="12.885465"><ele>720.0</ele><time>2026-05-02T13:11:06.992Z</time></trkpt><trkpt lat="43.2947933" lon="12.8855367"><ele>712.0</ele><time>2026-05-02T13:11:07.992Z</time></trkpt><trkpt lat="43.29469" lon="12.8856217"><ele>704.0</ele><time>2026-05-02T13:11:08.993Z</time></trkpt><trkpt lat="43.2945933" lon="12.8857083"><ele>696.0</ele><time>2026-05-02T13:11:09.992Z</time></trkpt><trkpt lat="43.2944983" lon="12.8858017"><ele>688.0</ele><time>2026-05-02T13:11:10.993Z</time></trkpt><trkpt lat="43.29441" lon="12.8858967"><ele>692.8</ele><time>2026-05-02T13:11:11.993Z</time></trkpt><trkpt lat="43.2943283" lon="12.88599"><ele>697.5999999999999</ele><time>2026-05-02T13:11:12.993Z</time></trkpt><trkpt lat="43.2942517" lon="12.88608"><ele>702.4000000000001</ele><time>2026-05-02T13:11:13.993Z</time></trkpt><trkpt lat="43.294175" lon="12.8861717"><ele>707.2</ele><time>2026-05-02T13:11:14.994Z</time></trkpt><trkpt lat="43.294095" lon="12.88627"><ele>712.0</ele><time>2026-05-02T13:11:15.994Z</time></trkpt><trkpt lat="43.2940117" lon="12.8863817"><ele>712.0</ele><time>2026-05-02T13:11:16.992Z</time></trkpt><trkpt lat="43.293925" lon="12.8865033"><ele>712.0</ele><time>2026-05-02T13:11:17.994Z</time></trkpt><trkpt lat="43.2938383" lon="12.8866267"><ele>712.0</ele><time>2026-05-02T13:11:18.993Z</time></trkpt><trkpt lat="43.2937533" lon="12.8867367"><ele>712.0</ele><time>2026-05-02T13:11:19.993Z</time></trkpt><trkpt lat="43.2936783" lon="12.8868333"><ele>709.6</ele><time>2026-05-02T13:11:20.994Z</time></trkpt><trkpt lat="43.2936117" lon="12.8869267"><ele>707.2</ele><time>2026-05-02T13:11:21.993Z</time></trkpt><trkpt lat="43.2935467" lon="12.8870217"><ele>704.8</ele><time>2026-05-02T13:11:22.992Z</time></trkpt><trkpt lat="43.2934783" lon="12.887125"><ele>702.4</ele><time>2026-05-02T13:11:23.994Z</time></trkpt><trkpt lat="43.2934083" lon="12.88724"><ele>700.0</ele><time>2026-05-02T13:11:24.992Z</time></trkpt><trkpt lat="43.2933367" lon="12.8873633"><ele>700.0</ele><time>2026-05-02T13:11:25.994Z</time></trkpt><trkpt lat="43.293265" lon="12.8874917"><ele>700.0</ele><time>2026-05-02T13:11:26.993Z</time></trkpt><trkpt lat="43.293195" lon="12.8876367"><ele>700.0</ele><time>2026-05-02T13:11:27.993Z</time></trkpt><trkpt lat="43.2931217" lon="12.887795"><ele>700.0</ele><time>2026-05-02T13:11:28.993Z</time></trkpt><trkpt lat="43.2930467" lon="12.8879667"><ele>698.0</ele><time>2026-05-02T13:11:29.992Z</time></trkpt><trkpt lat="43.2929767" lon="12.8881483"><ele>696.0</ele><time>2026-05-02T13:11:30.992Z</time></trkpt><trkpt lat="43.2929117" lon="12.8883233"><ele>694.0</ele><time>2026-05-02T13:11:31.993Z</time></trkpt><trkpt lat="43.2928483" lon="12.8884767"><ele>692.0</ele><time>2026-05-02T13:11:32.994Z</time></trkpt><trkpt lat="43.2927817" lon="12.88861"><ele>692.0</ele><time>2026-05-02T13:11:33.993Z</time></trkpt><trkpt lat="43.2927217" lon="12.888745"><ele>692.0</ele><time>2026-05-02T13:11:34.994Z</time></trkpt><trkpt lat="43.2926633" lon="12.88887"><ele>692.0</ele><time>2026-05-02T13:11:35.994Z</time></trkpt><trkpt lat="43.2926033" lon="12.8889933"><ele>692.0</ele><time>2026-05-02T13:11:36.993Z</time></trkpt><trkpt lat="43.29254" lon="12.889135"><ele>694.4000000000001</ele><time>2026-05-02T13:11:37.992Z</time></trkpt><trkpt lat="43.2924783" lon="12.8892867"><ele>696.8000000000001</ele><time>2026-05-02T13:11:38.993Z</time></trkpt><trkpt lat="43.2924283" lon="12.8894333"><ele>699.2</ele><time>2026-05-02T13:11:39.992Z</time></trkpt><trkpt lat="43.29239" lon="12.8895733"><ele>701.6</ele><time>2026-05-02T13:11:40.993Z</time></trkpt><trkpt lat="43.2923583" lon="12.889695"><ele>704.0</ele><time>2026-05-02T13:11:41.993Z</time></trkpt><trkpt lat="43.29233" lon="12.8897933"><ele>704.0</ele><time>2026-05-02T13:11:42.995Z</time></trkpt><trkpt lat="43.29228" lon="12.8898883"><ele>704.0</ele><time>2026-05-02T13:11:44.994Z</time></trkpt><trkpt lat="43.2922083" lon="12.8898367"><ele>704.0</ele><time>2026-05-02T13:11:47.994Z</time></trkpt><trkpt lat="43.2921633" lon="12.8897567"><ele>704.0</ele><time>2026-05-02T13:11:50.993Z</time></trkpt><trkpt lat="43.292155" lon="12.8896367"><ele>704.0</ele><time>2026-05-02T13:11:52.992Z</time></trkpt><trkpt lat="43.29215" lon="12.8894767"><ele>704.0</ele><time>2026-05-02T13:11:54.993Z</time></trkpt><trkpt lat="43.2921317" lon="12.8893167"><ele>700.3333333333333</ele><time>2026-05-02T13:11:56.995Z</time></trkpt><trkpt lat="43.292115" lon="12.8892317"><ele>696.6666666666666</ele><time>2026-05-02T13:11:57.995Z</time></trkpt><trkpt lat="43.2920733" lon="12.8891083"><ele>693.0</ele><time>2026-05-02T13:11:59.994Z</time></trkpt><trkpt lat="43.2920267" lon="12.8889967"><ele>689.3333333333334</ele><time>2026-05-02T13:12:02.994Z</time></trkpt><trkpt lat="43.2920067" lon="12.8888733"><ele>685.6666666666667</ele><time>2026-05-02T13:12:04.993Z</time></trkpt><trkpt lat="43.2919617" lon="12.8887533"><ele>682.0</ele><time>2026-05-02T13:12:08.999Z</time></trkpt><trkpt lat="43.2919217" lon="12.8886483"><ele>682.0</ele><time>2026-05-02T13:12:10.994Z</time></trkpt><trkpt lat="43.2918883" lon="12.888515"><ele>682.0</ele><time>2026-05-02T13:12:12.993Z</time></trkpt><trkpt lat="43.2918667" lon="12.888375"><ele>682.0</ele><time>2026-05-02T13:12:14.994Z</time></trkpt><trkpt lat="43.2918267" lon="12.8882767"><ele>682.0</ele><time>2026-05-02T13:12:15.994Z</time></trkpt><trkpt lat="43.2917733" lon="12.8881617"><ele>682.0</ele><time>2026-05-02T13:12:17.994Z</time></trkpt><trkpt lat="43.2917217" lon="12.8879933"><ele>678.6666666666667</ele><time>2026-05-02T13:12:19.994Z</time></trkpt><trkpt lat="43.2916767" lon="12.8878333"><ele>675.3333333333334</ele><time>2026-05-02T13:12:21.994Z</time></trkpt><trkpt lat="43.2916633" lon="12.88774"><ele>672.0</ele><time>2026-05-02T13:12:22.992Z</time></trkpt><trkpt lat="43.2916617" lon="12.8876417"><ele>668.6666666666666</ele><time>2026-05-02T13:12:23.993Z</time></trkpt><trkpt lat="43.29167" lon="12.8875367"><ele>665.3333333333333</ele><time>2026-05-02T13:12:24.994Z</time></trkpt><trkpt lat="43.29167" lon="12.887445"><ele>662.0</ele><time>2026-05-02T13:12:25.993Z</time></trkpt><trkpt lat="43.291665" lon="12.8873117"><ele>659.3333333333333</ele><time>2026-05-02T13:12:27.993Z</time></trkpt><trkpt lat="43.2915733" lon="12.88717"><ele>656.6666666666666</ele><time>2026-05-02T13:12:29.993Z</time></trkpt><trkpt lat="43.2915233" lon="12.8870433"><ele>654.0</ele><time>2026-05-02T13:12:31.992Z</time></trkpt><trkpt lat="43.29148" lon="12.886975"><ele>651.3333333333334</ele><time>2026-05-02T13:12:32.994Z</time></trkpt><trkpt lat="43.291445" lon="12.8868983"><ele>648.6666666666667</ele><time>2026-05-02T13:12:33.998Z</time></trkpt><trkpt lat="43.2914117" lon="12.88681"><ele>646.0</ele><time>2026-05-02T13:12:34.993Z</time></trkpt><trkpt lat="43.2913867" lon="12.88671"><ele>639.1999999999999</ele><time>2026-05-02T13:12:35.994Z</time></trkpt><trkpt lat="43.29134" lon="12.88654"><ele>632.4</ele><time>2026-05-02T13:12:37.993Z</time></trkpt><trkpt lat="43.29131" lon="12.8864617"><ele>625.6</ele><time>2026-05-02T13:12:38.995Z</time></trkpt><trkpt lat="43.2912717" lon="12.88636"><ele>618.8</ele><time>2026-05-02T13:12:40.992Z</time></trkpt><trkpt lat="43.2912767" lon="12.8861917"><ele>612.0</ele><time>2026-05-02T13:12:52.993Z</time></trkpt><trkpt lat="43.2912833" lon="12.8860867"><ele>612.0</ele><time>2026-05-02T13:12:57.991Z</time></trkpt><trkpt lat="43.2912883" lon="12.8859933"><ele>612.0</ele><time>2026-05-02T13:12:59.993Z</time></trkpt><trkpt lat="43.2912933" lon="12.885895"><ele>612.0</ele><time>2026-05-02T13:13:01.992Z</time></trkpt><trkpt lat="43.291285" lon="12.8857883"><ele>612.0</ele><time>2026-05-02T13:13:03.993Z</time></trkpt><trkpt lat="43.2912683" lon="12.8856983"><ele>612.0</ele><time>2026-05-02T13:13:05.994Z</time></trkpt><trkpt lat="43.2912367" lon="12.88559"><ele>612.0</ele><time>2026-05-02T13:13:07.993Z</time></trkpt><trkpt lat="43.29122" lon="12.8854933"><ele>612.0</ele><time>2026-05-02T13:13:09.992Z</time></trkpt><trkpt lat="43.2912433" lon="12.8853783"><ele>604.6666666666666</ele><time>2026-05-02T13:13:11.993Z</time></trkpt><trkpt lat="43.2912333" lon="12.88529"><ele>597.3333333333334</ele><time>2026-05-02T13:13:13.992Z</time></trkpt><trkpt lat="43.2911983" lon="12.8852083"><ele>590.0</ele><time>2026-05-02T13:13:15.994Z</time></trkpt><trkpt lat="43.291175" lon="12.8850967"><ele>582.6666666666667</ele><time>2026-05-02T13:13:17.993Z</time></trkpt><trkpt lat="43.2911633" lon="12.8850083"><ele>575.3333333333334</ele><time>2026-05-02T13:13:18.994Z</time></trkpt><trkpt lat="43.2911467" lon="12.88492"><ele>568.0</ele><time>2026-05-02T13:13:19.992Z</time></trkpt><trkpt lat="43.2910917" lon="12.8848"><ele>560.4</ele><time>2026-05-02T13:13:21.993Z</time></trkpt><trkpt lat="43.2910233" lon="12.8846933"><ele>552.8</ele><time>2026-05-02T13:13:23.994Z</time></trkpt><trkpt lat="43.2909367" lon="12.8846717"><ele>545.2</ele><time>2026-05-02T13:13:25.992Z</time></trkpt><trkpt lat="43.2908117" lon="12.884655"><ele>537.6</ele><time>2026-05-02T13:13:27.99Z</time></trkpt><trkpt lat="43.290735" lon="12.8845917"><ele>530.0</ele><time>2026-05-02T13:13:28.991Z</time></trkpt><trkpt lat="43.2906583" lon="12.88461"><ele>527.6</ele><time>2026-05-02T13:13:29.993Z</time></trkpt><trkpt lat="43.2905733" lon="12.8846317"><ele>525.2</ele><time>2026-05-02T13:13:30.994Z</time></trkpt><trkpt lat="43.2904817" lon="12.88466"><ele>522.8</ele><time>2026-05-02T13:13:31.993Z</time></trkpt><trkpt lat="43.2903867" lon="12.884685"><ele>520.4</ele><time>2026-05-02T13:13:32.995Z</time></trkpt><trkpt lat="43.2902833" lon="12.8847283"><ele>518.0</ele><time>2026-05-02T13:13:33.994Z</time></trkpt><trkpt lat="43.2901767" lon="12.8847717"><ele>518.0</ele><time>2026-05-02T13:13:34.994Z</time></trkpt><trkpt lat="43.29008" lon="12.8848183"><ele>518.0</ele><time>2026-05-02T13:13:35.992Z</time></trkpt><trkpt lat="43.2899817" lon="12.8848667"><ele>518.0</ele><time>2026-05-02T13:13:36.994Z</time></trkpt><trkpt lat="43.2898883" lon="12.88491"><ele>518.0</ele><time>2026-05-02T13:13:37.993Z</time></trkpt><trkpt lat="43.2897983" lon="12.8849567"><ele>518.0</ele><time>2026-05-02T13:13:38.993Z</time></trkpt><trkpt lat="43.2897" lon="12.8849933"><ele>515.8</ele><time>2026-05-02T13:13:39.994Z</time></trkpt><trkpt lat="43.2896067" lon="12.8850317"><ele>513.5999999999999</ele><time>2026-05-02T13:13:40.993Z</time></trkpt><trkpt lat="43.2895083" lon="12.8850483"><ele>511.40000000000003</ele><time>2026-05-02T13:13:41.993Z</time></trkpt><trkpt lat="43.2894117" lon="12.88506"><ele>509.20000000000005</ele><time>2026-05-02T13:13:42.994Z</time></trkpt><trkpt lat="43.2893183" lon="12.88506"><ele>507.0</ele><time>2026-05-02T13:13:43.994Z</time></trkpt><trkpt lat="43.2892217" lon="12.88507"><ele>506.40000000000003</ele><time>2026-05-02T13:13:44.994Z</time></trkpt><trkpt lat="43.2891333" lon="12.8850983"><ele>505.80000000000007</ele><time>2026-05-02T13:13:45.992Z</time></trkpt><trkpt lat="43.2890383" lon="12.8851333"><ele>505.2</ele><time>2026-05-02T13:13:46.994Z</time></trkpt><trkpt lat="43.2889517" lon="12.885185"><ele>504.6</ele><time>2026-05-02T13:13:47.995Z</time></trkpt><trkpt lat="43.2888833" lon="12.88526"><ele>504.0</ele><time>2026-05-02T13:13:48.996Z</time></trkpt><trkpt lat="43.2888217" lon="12.88536"><ele>504.0</ele><time>2026-05-02T13:13:49.994Z</time></trkpt><trkpt lat="43.2887717" lon="12.8854967"><ele>504.0</ele><time>2026-05-02T13:13:50.994Z</time></trkpt><trkpt lat="43.2887233" lon="12.8856483"><ele>504.0</ele><time>2026-05-02T13:13:51.993Z</time></trkpt><trkpt lat="43.288675" lon="12.8858033"><ele>504.0</ele><time>2026-05-02T13:13:52.993Z</time></trkpt><trkpt lat="43.2886283" lon="12.885935"><ele>510.0</ele><time>2026-05-02T13:13:53.993Z</time></trkpt><trkpt lat="43.2885733" lon="12.8860433"><ele>516.0</ele><time>2026-05-02T13:13:54.994Z</time></trkpt><trkpt lat="43.2885" lon="12.8861417"><ele>522.0</ele><time>2026-05-02T13:13:55.992Z</time></trkpt><trkpt lat="43.2884183" lon="12.886245"><ele>528.0</ele><time>2026-05-02T13:13:56.995Z</time></trkpt><trkpt lat="43.288335" lon="12.8863383"><ele>534.0</ele><time>2026-05-02T13:13:57.994Z</time></trkpt><trkpt lat="43.2882433" lon="12.8864333"><ele>534.0</ele><time>2026-05-02T13:13:58.994Z</time></trkpt><trkpt lat="43.2881467" lon="12.88652"><ele>534.0</ele><time>2026-05-02T13:13:59.993Z</time></trkpt><trkpt lat="43.2880517" lon="12.886595"><ele>534.0</ele><time>2026-05-02T13:14:00.994Z</time></trkpt><trkpt lat="43.2879583" lon="12.8866817"><ele>534.0</ele><time>2026-05-02T13:14:01.994Z</time></trkpt><trkpt lat="43.2878733" lon="12.8867817"><ele>537.25</ele><time>2026-05-02T13:14:02.994Z</time></trkpt><trkpt lat="43.2877817" lon="12.8868467"><ele>540.5</ele><time>2026-05-02T13:14:03.994Z</time></trkpt><trkpt lat="43.28768" lon="12.8869083"><ele>543.75</ele><time>2026-05-02T13:14:04.993Z</time></trkpt><trkpt lat="43.2875633" lon="12.88696"><ele>547.0</ele><time>2026-05-02T13:14:05.993Z</time></trkpt><trkpt lat="43.2874483" lon="12.8870117"><ele>547.0</ele><time>2026-05-02T13:14:06.995Z</time></trkpt><trkpt lat="43.28733" lon="12.88704"><ele>547.0</ele><time>2026-05-02T13:14:07.993Z</time></trkpt><trkpt lat="43.287215" lon="12.8870617"><ele>547.0</ele><time>2026-05-02T13:14:08.995Z</time></trkpt><trkpt lat="43.2870967" lon="12.8870783"><ele>547.0</ele><time>2026-05-02T13:14:09.994Z</time></trkpt><trkpt lat="43.28699" lon="12.8870967"><ele>541.6</ele><time>2026-05-02T13:14:10.993Z</time></trkpt><trkpt lat="43.2868867" lon="12.887115"><ele>536.2</ele><time>2026-05-02T13:14:11.993Z</time></trkpt><trkpt lat="43.286775" lon="12.8871117"><ele>530.8</ele><time>2026-05-02T13:14:12.994Z</time></trkpt><trkpt lat="43.2866683" lon="12.88711"><ele>525.4</ele><time>2026-05-02T13:14:13.993Z</time></trkpt><trkpt lat="43.2865617" lon="12.8871067"><ele>520.0</ele><time>2026-05-02T13:14:14.994Z</time></trkpt><trkpt lat="43.286465" lon="12.8871067"><ele>518.1666666666667</ele><time>2026-05-02T13:14:15.993Z</time></trkpt><trkpt lat="43.2863817" lon="12.887115"><ele>516.3333333333334</ele><time>2026-05-02T13:14:16.994Z</time></trkpt><trkpt lat="43.2862917" lon="12.887155"><ele>514.5</ele><time>2026-05-02T13:14:18.994Z</time></trkpt><trkpt lat="43.2862733" lon="12.8872433"><ele>512.6666666666666</ele><time>2026-05-02T13:14:21.994Z</time></trkpt><trkpt lat="43.2862983" lon="12.887345"><ele>510.8333333333333</ele><time>2026-05-02T13:14:23.994Z</time></trkpt><trkpt lat="43.286315" lon="12.8874333"><ele>509.0</ele><time>2026-05-02T13:14:24.994Z</time></trkpt><trkpt lat="43.2863367" lon="12.8875433"><ele>513.2</ele><time>2026-05-02T13:14:25.995Z</time></trkpt><trkpt lat="43.2863617" lon="12.887665"><ele>517.4</ele><time>2026-05-02T13:14:26.995Z</time></trkpt><trkpt lat="43.2863933" lon="12.88779"><ele>521.6</ele><time>2026-05-02T13:14:27.993Z</time></trkpt><trkpt lat="43.2864117" lon="12.88792"><ele>525.8</ele><time>2026-05-02T13:14:28.994Z</time></trkpt><trkpt lat="43.2864233" lon="12.8880433"><ele>530.0</ele><time>2026-05-02T13:14:29.994Z</time></trkpt><trkpt lat="43.28643" lon="12.8881767"><ele>530.0</ele><time>2026-05-02T13:14:30.995Z</time></trkpt><trkpt lat="43.2864083" lon="12.8883067"><ele>530.0</ele><time>2026-05-02T13:14:31.994Z</time></trkpt><trkpt lat="43.286405" lon="12.888445"><ele>530.0</ele><time>2026-05-02T13:14:32.995Z</time></trkpt><trkpt lat="43.2864117" lon="12.888575"><ele>530.0</ele><time>2026-05-02T13:14:33.995Z</time></trkpt><trkpt lat="43.2864167" lon="12.8887117"><ele>530.0</ele><time>2026-05-02T13:14:34.994Z</time></trkpt><trkpt lat="43.2864183" lon="12.888865"><ele>532.6</ele><time>2026-05-02T13:14:35.994Z</time></trkpt><trkpt lat="43.2864233" lon="12.88901"><ele>535.2</ele><time>2026-05-02T13:14:36.994Z</time></trkpt><trkpt lat="43.2864333" lon="12.8891383"><ele>537.8</ele><time>2026-05-02T13:14:37.994Z</time></trkpt><trkpt lat="43.2864583" lon="12.8892467"><ele>540.4</ele><time>2026-05-02T13:14:38.995Z</time></trkpt><trkpt lat="43.2864967" lon="12.88936"><ele>543.0</ele><time>2026-05-02T13:14:39.995Z</time></trkpt><trkpt lat="43.2865483" lon="12.8894767"><ele>544.0</ele><time>2026-05-02T13:14:40.994Z</time></trkpt><trkpt lat="43.2865983" lon="12.8896117"><ele>545.0</ele><time>2026-05-02T13:14:41.995Z</time></trkpt><trkpt lat="43.2866417" lon="12.8897433"><ele>546.0</ele><time>2026-05-02T13:14:42.994Z</time></trkpt><trkpt lat="43.28668" lon="12.8898783"><ele>547.0</ele><time>2026-05-02T13:14:43.995Z</time></trkpt><trkpt lat="43.2867167" lon="12.8899917"><ele>548.0</ele><time>2026-05-02T13:14:44.995Z</time></trkpt><trkpt lat="43.28674" lon="12.8900883"><ele>550.0</ele><time>2026-05-02T13:14:45.994Z</time></trkpt><trkpt lat="43.286775" lon="12.89024"><ele>552.0</ele><time>2026-05-02T13:14:47.995Z</time></trkpt><trkpt lat="43.2868283" lon="12.8903867"><ele>554.0</ele><time>2026-05-02T13:15:42.995Z</time></trkpt><trkpt lat="43.286865" lon="12.8905"><ele>556.0</ele><time>2026-05-02T13:15:45.993Z</time></trkpt><trkpt lat="43.28694" lon="12.890565"><ele>558.0</ele><time>2026-05-02T13:15:47.993Z</time></trkpt><trkpt lat="43.2870167" lon="12.8906133"><ele>558.0</ele><time>2026-05-02T13:15:49.994Z</time></trkpt><trkpt lat="43.2871317" lon="12.8906633"><ele>558.0</ele><time>2026-05-02T13:15:51.993Z</time></trkpt><trkpt lat="43.287215" lon="12.8907033"><ele>558.0</ele><time>2026-05-02T13:15:52.993Z</time></trkpt><trkpt lat="43.2873267" lon="12.8907383"><ele>558.0</ele><time>2026-05-02T13:15:53.994Z</time></trkpt><trkpt lat="43.2874467" lon="12.890775"><ele>558.0</ele><time>2026-05-02T13:15:54.993Z</time></trkpt><trkpt lat="43.2875717" lon="12.890825"><ele>560.0</ele><time>2026-05-02T13:15:55.994Z</time></trkpt><trkpt lat="43.2877067" lon="12.8908633"><ele>562.0</ele><time>2026-05-02T13:15:56.994Z</time></trkpt><trkpt lat="43.287835" lon="12.8909167"><ele>564.0</ele><time>2026-05-02T13:15:57.995Z</time></trkpt><trkpt lat="43.2879633" lon="12.8909683"><ele>566.0</ele><time>2026-05-02T13:15:58.993Z</time></trkpt><trkpt lat="43.288075" lon="12.89101"><ele>574.4</ele><time>2026-05-02T13:15:59.995Z</time></trkpt><trkpt lat="43.2881733" lon="12.891095"><ele>582.8</ele><time>2026-05-02T13:16:00.995Z</time></trkpt><trkpt lat="43.28826" lon="12.891175"><ele>591.1999999999999</ele><time>2026-05-02T13:16:01.994Z</time></trkpt><trkpt lat="43.288345" lon="12.8912567"><ele>599.6</ele><time>2026-05-02T13:16:02.996Z</time></trkpt><trkpt lat="43.288425" lon="12.891335"><ele>608.0</ele><time>2026-05-02T13:16:03.994Z</time></trkpt><trkpt lat="43.2885" lon="12.89142"><ele>608.0</ele><time>2026-05-02T13:16:04.995Z</time></trkpt><trkpt lat="43.2885667" lon="12.8915167"><ele>608.0</ele><time>2026-05-02T13:16:05.994Z</time></trkpt><trkpt lat="43.2886367" lon="12.8915883"><ele>608.0</ele><time>2026-05-02T13:16:06.995Z</time></trkpt><trkpt lat="43.2887017" lon="12.891655"><ele>608.0</ele><time>2026-05-02T13:16:07.994Z</time></trkpt><trkpt lat="43.2887667" lon="12.89171"><ele>608.0</ele><time>2026-05-02T13:16:08.996Z</time></trkpt><trkpt lat="43.2888333" lon="12.8917817"><ele>608.0</ele><time>2026-05-02T13:16:09.994Z</time></trkpt><trkpt lat="43.2888767" lon="12.8918617"><ele>612.0</ele><time>2026-05-02T13:16:10.995Z</time></trkpt><trkpt lat="43.2889167" lon="12.8919467"><ele>616.0</ele><time>2026-05-02T13:16:11.994Z</time></trkpt><trkpt lat="43.2889667" lon="12.89201"><ele>620.0</ele><time>2026-05-02T13:16:12.995Z</time></trkpt><trkpt lat="43.289055" lon="12.89213"><ele>624.0</ele><time>2026-05-02T13:16:14.993Z</time></trkpt><trkpt lat="43.28911" lon="12.892225"><ele>628.0</ele><time>2026-05-02T13:16:15.994Z</time></trkpt><trkpt lat="43.2891433" lon="12.8923067"><ele>632.0</ele><time>2026-05-02T13:16:16.995Z</time></trkpt><trkpt lat="43.2891867" lon="12.8924017"><ele>635.0</ele><time>2026-05-02T13:16:17.995Z</time></trkpt><trkpt lat="43.2892333" lon="12.8924883"><ele>638.0</ele><time>2026-05-02T13:16:18.994Z</time></trkpt><trkpt lat="43.2892767" lon="12.8925733"><ele>641.0</ele><time>2026-05-02T13:16:19.994Z</time></trkpt><trkpt lat="43.289355" lon="12.8926917"><ele>644.0</ele><time>2026-05-02T13:16:21.994Z</time></trkpt><trkpt lat="43.28944" lon="12.8927917"><ele>647.0</ele><time>2026-05-02T13:16:23.994Z</time></trkpt><trkpt lat="43.2895317" lon="12.892935"><ele>650.3333333333333</ele><time>2026-05-02T13:16:25.993Z</time></trkpt><trkpt lat="43.289585" lon="12.893"><ele>653.6666666666666</ele><time>2026-05-02T13:16:26.995Z</time></trkpt><trkpt lat="43.2896917" lon="12.8930383"><ele>657.0</ele><time>2026-05-02T13:16:28.994Z</time></trkpt><trkpt lat="43.2897683" lon="12.89306"><ele>660.3333333333334</ele><time>2026-05-02T13:16:30.995Z</time></trkpt><trkpt lat="43.28984" lon="12.89308"><ele>663.6666666666667</ele><time>2026-05-02T13:16:32.995Z</time></trkpt><trkpt lat="43.289915" lon="12.8931483"><ele>667.0</ele><time>2026-05-02T13:16:34.988Z</time></trkpt><trkpt lat="43.2899583" lon="12.8932817"><ele>667.1666666666667</ele><time>2026-05-02T13:16:36.995Z</time></trkpt><trkpt lat="43.290005" lon="12.8933433"><ele>667.3333333333334</ele><time>2026-05-02T13:16:37.994Z</time></trkpt><trkpt lat="43.290065" lon="12.8934033"><ele>667.5</ele><time>2026-05-02T13:16:38.993Z</time></trkpt><trkpt lat="43.290145" lon="12.8934583"><ele>667.6666666666666</ele><time>2026-05-02T13:16:39.995Z</time></trkpt><trkpt lat="43.2902333" lon="12.8935133"><ele>667.8333333333333</ele><time>2026-05-02T13:16:40.99Z</time></trkpt><trkpt lat="43.2903083" lon="12.8935833"><ele>668.0</ele><time>2026-05-02T13:16:41.992Z</time></trkpt><trkpt lat="43.2903683" lon="12.89368"><ele>668.0</ele><time>2026-05-02T13:16:42.994Z</time></trkpt><trkpt lat="43.2904167" lon="12.89378"><ele>668.0</ele><time>2026-05-02T13:16:43.994Z</time></trkpt><trkpt lat="43.2904517" lon="12.8938833"><ele>668.0</ele><time>2026-05-02T13:16:44.995Z</time></trkpt><trkpt lat="43.290485" lon="12.89399"><ele>668.0</ele><time>2026-05-02T13:16:45.994Z</time></trkpt><trkpt lat="43.29051" lon="12.894095"><ele>668.0</ele><time>2026-05-02T13:16:46.994Z</time></trkpt><trkpt lat="43.290445" lon="12.8942633"><ele>669.1666666666666</ele><time>2026-05-02T13:16:48.995Z</time></trkpt><trkpt lat="43.2903767" lon="12.894365"><ele>670.3333333333333</ele><time>2026-05-02T13:16:49.995Z</time></trkpt><trkpt lat="43.2903217" lon="12.8944483"><ele>671.5</ele><time>2026-05-02T13:16:50.996Z</time></trkpt><trkpt lat="43.2902783" lon="12.894525"><ele>672.6666666666666</ele><time>2026-05-02T13:16:51.995Z</time></trkpt><trkpt lat="43.2902383" lon="12.894635"><ele>673.8333333333334</ele><time>2026-05-02T13:16:53.995Z</time></trkpt><trkpt lat="43.29029" lon="12.8947317"><ele>675.0</ele><time>2026-05-02T13:17:19.994Z</time></trkpt><trkpt lat="43.290395" lon="12.8947717"><ele>675.0</ele><time>2026-05-02T13:17:21.993Z</time></trkpt><trkpt lat="43.290455" lon="12.8948133"><ele>675.0</ele><time>2026-05-02T13:17:22.994Z</time></trkpt><trkpt lat="43.2905183" lon="12.89487"><ele>675.0</ele><time>2026-05-02T13:17:23.994Z</time></trkpt><trkpt lat="43.2905967" lon="12.8949567"><ele>675.0</ele><time>2026-05-02T13:17:24.993Z</time></trkpt><trkpt lat="43.29067" lon="12.89504"><ele>675.0</ele><time>2026-05-02T13:17:25.993Z</time></trkpt><trkpt lat="43.2907383" lon="12.8951033"><ele>675.0</ele><time>2026-05-02T13:17:26.994Z</time></trkpt><trkpt lat="43.2908067" lon="12.8951483"><ele>670.6</ele><time>2026-05-02T13:17:27.994Z</time></trkpt><trkpt lat="43.290935" lon="12.8951433"><ele>666.2</ele><time>2026-05-02T13:17:29.993Z</time></trkpt><trkpt lat="43.291015" lon="12.89512"><ele>661.8</ele><time>2026-05-02T13:17:30.993Z</time></trkpt><trkpt lat="43.2911183" lon="12.8950667"><ele>657.4</ele><time>2026-05-02T13:17:31.994Z</time></trkpt><trkpt lat="43.2912267" lon="12.8950167"><ele>653.0</ele><time>2026-05-02T13:17:32.994Z</time></trkpt><trkpt lat="43.2913317" lon="12.8949867"><ele>652.4</ele><time>2026-05-02T13:17:33.994Z</time></trkpt><trkpt lat="43.29143" lon="12.8950117"><ele>651.8</ele><time>2026-05-02T13:17:34.999Z</time></trkpt><trkpt lat="43.2915217" lon="12.8950733"><ele>651.2</ele><time>2026-05-02T13:17:35.993Z</time></trkpt><trkpt lat="43.2916183" lon="12.89516"><ele>650.6</ele><time>2026-05-02T13:17:36.994Z</time></trkpt><trkpt lat="43.2917133" lon="12.89525"><ele>650.0</ele><time>2026-05-02T13:17:37.994Z</time></trkpt><trkpt lat="43.2918067" lon="12.8953367"><ele>645.5</ele><time>2026-05-02T13:17:38.996Z</time></trkpt><trkpt lat="43.2918983" lon="12.89543"><ele>641.0</ele><time>2026-05-02T13:17:39.994Z</time></trkpt><trkpt lat="43.2919883" lon="12.8955267"><ele>636.5</ele><time>2026-05-02T13:17:40.993Z</time></trkpt><trkpt lat="43.2920783" lon="12.8956233"><ele>632.0</ele><time>2026-05-02T13:17:41.993Z</time></trkpt><trkpt lat="43.292165" lon="12.895715"><ele>632.0</ele><time>2026-05-02T13:17:42.993Z</time></trkpt><trkpt lat="43.2922467" lon="12.8958"><ele>632.0</ele><time>2026-05-02T13:17:43.993Z</time></trkpt><trkpt lat="43.2923267" lon="12.8958833"><ele>632.0</ele><time>2026-05-02T13:17:44.994Z</time></trkpt><trkpt lat="43.2924083" lon="12.895975"><ele>632.0</ele><time>2026-05-02T13:17:45.993Z</time></trkpt><trkpt lat="43.2924883" lon="12.8960583"><ele>632.0</ele><time>2026-05-02T13:17:46.994Z</time></trkpt><trkpt lat="43.2925617" lon="12.8961217"><ele>629.0</ele><time>2026-05-02T13:17:47.994Z</time></trkpt><trkpt lat="43.2926283" lon="12.8961833"><ele>626.0</ele><time>2026-05-02T13:17:48.994Z</time></trkpt><trkpt lat="43.2927083" lon="12.896245"><ele>623.0</ele><time>2026-05-02T13:17:50.995Z</time></trkpt><trkpt lat="43.29266" lon="12.8963033"><ele>620.0</ele><time>2026-05-02T13:17:54.991Z</time></trkpt><trkpt lat="43.2925833" lon="12.8963017"><ele>617.0</ele><time>2026-05-02T13:17:56.995Z</time></trkpt><trkpt lat="43.29249" lon="12.8962833"><ele>614.0</ele><time>2026-05-02T13:17:58.995Z</time></trkpt><trkpt lat="43.2923933" lon="12.8962733"><ele>614.0</ele><time>2026-05-02T13:18:00.993Z</time></trkpt><trkpt lat="43.29232" lon="12.8962917"><ele>614.0</ele><time>2026-05-02T13:18:03.993Z</time></trkpt><trkpt lat="43.2923517" lon="12.89637"><ele>614.0</ele><time>2026-05-02T13:18:07.994Z</time></trkpt><trkpt lat="43.2923917" lon="12.89647"><ele>614.0</ele><time>2026-05-02T13:18:11.993Z</time></trkpt><trkpt lat="43.292435" lon="12.8966033"><ele>614.0</ele><time>2026-05-02T13:18:13.992Z</time></trkpt><trkpt lat="43.2924917" lon="12.8967317"><ele>614.0</ele><time>2026-05-02T13:18:15.992Z</time></trkpt><trkpt lat="43.2925517" lon="12.8968317"><ele>610.8</ele><time>2026-05-02T13:18:17.992Z</time></trkpt><trkpt lat="43.2926533" lon="12.8969067"><ele>607.5999999999999</ele><time>2026-05-02T13:18:19.994Z</time></trkpt><trkpt lat="43.292725" lon="12.8969367"><ele>604.4</ele><time>2026-05-02T13:18:20.996Z</time></trkpt><trkpt lat="43.2928283" lon="12.897015"><ele>601.1999999999999</ele><time>2026-05-02T13:18:22.992Z</time></trkpt><trkpt lat="43.2929117" lon="12.8970533"><ele>598.0</ele><time>2026-05-02T13:18:24.994Z</time></trkpt><trkpt lat="43.2930467" lon="12.89702"><ele>595.2857142857142</ele><time>2026-05-02T13:18:26.993Z</time></trkpt><trkpt lat="43.293115" lon="12.897005"><ele>592.5714285714286</ele><time>2026-05-02T13:18:27.994Z</time></trkpt><trkpt lat="43.293185" lon="12.8969967"><ele>589.8571428571429</ele><time>2026-05-02T13:18:28.993Z</time></trkpt><trkpt lat="43.2932617" lon="12.896975"><ele>587.1428571428571</ele><time>2026-05-02T13:18:29.993Z</time></trkpt><trkpt lat="43.29334" lon="12.8969567"><ele>584.4285714285714</ele><time>2026-05-02T13:18:30.994Z</time></trkpt><trkpt lat="43.293405" lon="12.8969367"><ele>581.7142857142857</ele><time>2026-05-02T13:18:31.993Z</time></trkpt><trkpt lat="43.29347" lon="12.896925"><ele>579.0</ele><time>2026-05-02T13:18:32.994Z</time></trkpt><trkpt lat="43.2935933" lon="12.8969317"><ele>579.0</ele><time>2026-05-02T13:18:34.994Z</time></trkpt><trkpt lat="43.2936633" lon="12.8969533"><ele>579.0</ele><time>2026-05-02T13:18:35.992Z</time></trkpt><trkpt lat="43.293735" lon="12.8969833"><ele>579.0</ele><time>2026-05-02T13:18:36.993Z</time></trkpt><trkpt lat="43.29381" lon="12.8970133"><ele>579.0</ele><time>2026-05-02T13:18:37.993Z</time></trkpt><trkpt lat="43.293875" lon="12.8970367"><ele>579.0</ele><time>2026-05-02T13:18:38.994Z</time></trkpt><trkpt lat="43.293965" lon="12.8970617"><ele>579.0</ele><time>2026-05-02T13:18:40.992Z</time></trkpt><trkpt lat="43.2940317" lon="12.8971433"><ele>579.0</ele><time>2026-05-02T13:18:43.993Z</time></trkpt><trkpt lat="43.2940767" lon="12.8972417"><ele>579.0</ele><time>2026-05-02T13:18:46.993Z</time></trkpt><trkpt lat="43.2940483" lon="12.8973283"><ele>579.0</ele><time>2026-05-02T13:18:48.994Z</time></trkpt><trkpt lat="43.29395" lon="12.8973867"><ele>579.0</ele><time>2026-05-02T13:18:51.993Z</time></trkpt><trkpt lat="43.2939017" lon="12.8974933"><ele>579.0</ele><time>2026-05-02T13:18:53.993Z</time></trkpt><trkpt lat="43.29388" lon="12.8975967"><ele>579.0</ele><time>2026-05-02T13:18:55.994Z</time></trkpt><trkpt lat="43.2938133" lon="12.8976717"><ele>576.4</ele><time>2026-05-02T13:18:57.992Z</time></trkpt><trkpt lat="43.2937183" lon="12.8977783"><ele>573.8</ele><time>2026-05-02T13:18:59.993Z</time></trkpt><trkpt lat="43.2937317" lon="12.89791"><ele>571.2</ele><time>2026-05-02T13:19:01.994Z</time></trkpt><trkpt lat="43.2937833" lon="12.8979733"><ele>568.6</ele><time>2026-05-02T13:19:02.994Z</time></trkpt><trkpt lat="43.2938367" lon="12.8980217"><ele>566.0</ele><time>2026-05-02T13:19:03.993Z</time></trkpt><trkpt lat="43.2939383" lon="12.8980567"><ele>560.6</ele><time>2026-05-02T13:19:05.993Z</time></trkpt><trkpt lat="43.2940217" lon="12.8980633"><ele>555.2</ele><time>2026-05-02T13:19:07.995Z</time></trkpt><trkpt lat="43.2941133" lon="12.8980683"><ele>549.8</ele><time>2026-05-02T13:19:09.997Z</time></trkpt><trkpt lat="43.29423" lon="12.8980833"><ele>544.4</ele><time>2026-05-02T13:19:11.994Z</time></trkpt><trkpt lat="43.2943533" lon="12.8981183"><ele>539.0</ele><time>2026-05-02T13:19:13.994Z</time></trkpt><trkpt lat="43.2944167" lon="12.89816"><ele>539.0</ele><time>2026-05-02T13:19:14.994Z</time></trkpt><trkpt lat="43.2944817" lon="12.8982267"><ele>539.0</ele><time>2026-05-02T13:19:15.994Z</time></trkpt><trkpt lat="43.2945383" lon="12.8982983"><ele>539.0</ele><time>2026-05-02T13:19:16.994Z</time></trkpt><trkpt lat="43.2946067" lon="12.8984133"><ele>539.0</ele><time>2026-05-02T13:19:18.994Z</time></trkpt><trkpt lat="43.294595" lon="12.898545"><ele>539.0</ele><time>2026-05-02T13:19:20.993Z</time></trkpt><trkpt lat="43.2945883" lon="12.8986433"><ele>539.0</ele><time>2026-05-02T13:19:21.993Z</time></trkpt><trkpt lat="43.29458" lon="12.8987417"><ele>537.3333333333333</ele><time>2026-05-02T13:19:22.993Z</time></trkpt><trkpt lat="43.29458" lon="12.898835"><ele>535.6666666666666</ele><time>2026-05-02T13:19:23.993Z</time></trkpt><trkpt lat="43.29458" lon="12.898995"><ele>534.0</ele><time>2026-05-02T13:19:25.993Z</time></trkpt><trkpt lat="43.29458" lon="12.899095"><ele>532.3333333333334</ele><time>2026-05-02T13:19:44.995Z</time></trkpt><trkpt lat="43.2944817" lon="12.8991283"><ele>530.6666666666667</ele><time>2026-05-02T13:20:26.994Z</time></trkpt><trkpt lat="43.2944867" lon="12.899225"><ele>529.0</ele><time>2026-05-02T13:20:30.994Z</time></trkpt><trkpt lat="43.2945033" lon="12.899315"><ele>528.3333333333334</ele><time>2026-05-02T13:20:33.992Z</time></trkpt><trkpt lat="43.2944733" lon="12.899395"><ele>527.6666666666667</ele><time>2026-05-02T13:20:35.992Z</time></trkpt><trkpt lat="43.29443" lon="12.8994883"><ele>527.0</ele><time>2026-05-02T13:20:37.994Z</time></trkpt><trkpt lat="43.29442" lon="12.899645"><ele>526.3333333333334</ele><time>2026-05-02T13:20:40.993Z</time></trkpt><trkpt lat="43.2944617" lon="12.8997883"><ele>525.6666666666666</ele><time>2026-05-02T13:20:42.994Z</time></trkpt><trkpt lat="43.2945083" lon="12.8998583"><ele>525.0</ele><time>2026-05-02T13:20:43.994Z</time></trkpt><trkpt lat="43.2945533" lon="12.8999233"><ele>525.0</ele><time>2026-05-02T13:20:44.994Z</time></trkpt><trkpt lat="43.2946083" lon="12.8999967"><ele>525.0</ele><time>2026-05-02T13:20:45.992Z</time></trkpt><trkpt lat="43.2946633" lon="12.90007"><ele>525.0</ele><time>2026-05-02T13:20:46.993Z</time></trkpt><trkpt lat="43.2947083" lon="12.900205"><ele>525.0</ele><time>2026-05-02T13:20:47.992Z</time></trkpt><trkpt lat="43.29481" lon="12.9004467"><ele>519.6</ele><time>2026-05-02T13:20:48.994Z</time></trkpt><trkpt lat="43.2948567" lon="12.900555"><ele>514.2</ele><time>2026-05-02T13:20:49.995Z</time></trkpt><trkpt lat="43.2949083" lon="12.90065"><ele>508.79999999999995</ele><time>2026-05-02T13:20:50.995Z</time></trkpt><trkpt lat="43.2949567" lon="12.9007483"><ele>503.4</ele><time>2026-05-02T13:20:51.993Z</time></trkpt><trkpt lat="43.29499" lon="12.9008367"><ele>498.0</ele><time>2026-05-02T13:20:52.993Z</time></trkpt><trkpt lat="43.2950483" lon="12.9009917"><ele>498.0</ele><time>2026-05-02T13:20:54.993Z</time></trkpt><trkpt lat="43.295105" lon="12.9011133"><ele>497.99999999999994</ele><time>2026-05-02T13:20:56.994Z</time></trkpt><trkpt lat="43.2952" lon="12.901215"><ele>497.99999999999994</ele><time>2026-05-02T13:20:58.994Z</time></trkpt><trkpt lat="43.29528" lon="12.901325"><ele>498.0</ele><time>2026-05-02T13:21:00.995Z</time></trkpt><trkpt lat="43.29533" lon="12.901385"><ele>498.0</ele><time>2026-05-02T13:21:01.992Z</time></trkpt><trkpt lat="43.295375" lon="12.9014517"><ele>498.0</ele><time>2026-05-02T13:21:02.993Z</time></trkpt><trkpt lat="43.2954167" lon="12.9015267"><ele>498.0</ele><time>2026-05-02T13:21:03.994Z</time></trkpt><trkpt lat="43.2954583" lon="12.9015967"><ele>498.0</ele><time>2026-05-02T13:21:04.994Z</time></trkpt><trkpt lat="43.2955017" lon="12.9017733"><ele>498.0</ele><time>2026-05-02T13:21:06.994Z</time></trkpt><trkpt lat="43.295525" lon="12.9018933"><ele>498.0</ele><time>2026-05-02T13:21:07.993Z</time></trkpt><trkpt lat="43.2955667" lon="12.9019917"><ele>498.0</ele><time>2026-05-02T13:21:08.995Z</time></trkpt><trkpt lat="43.2955933" lon="12.9020817"><ele>494.79999999999995</ele><time>2026-05-02T13:21:09.994Z</time></trkpt><trkpt lat="43.29565" lon="12.9021867"><ele>491.59999999999997</ele><time>2026-05-02T13:21:11.994Z</time></trkpt><trkpt lat="43.2956517" lon="12.90229"><ele>488.40000000000003</ele><time>2026-05-02T13:21:15.993Z</time></trkpt><trkpt lat="43.29564" lon="12.9023983"><ele>485.20000000000005</ele><time>2026-05-02T13:21:17.993Z</time></trkpt><trkpt lat="43.2956317" lon="12.90254"><ele>482.0</ele><time>2026-05-02T13:21:19.994Z</time></trkpt><trkpt lat="43.29566" lon="12.9026783"><ele>480.66666666666663</ele><time>2026-05-02T13:21:21.993Z</time></trkpt><trkpt lat="43.2957267" lon="12.902815"><ele>479.3333333333333</ele><time>2026-05-02T13:21:23.993Z</time></trkpt><trkpt lat="43.295765" lon="12.9029"><ele>478.0</ele><time>2026-05-02T13:21:24.992Z</time></trkpt><trkpt lat="43.295795" lon="12.9029817"><ele>476.66666666666663</ele><time>2026-05-02T13:21:25.992Z</time></trkpt><trkpt lat="43.29584" lon="12.9030733"><ele>475.3333333333333</ele><time>2026-05-02T13:21:26.993Z</time></trkpt><trkpt lat="43.2958783" lon="12.9031583"><ele>474.0</ele><time>2026-05-02T13:21:27.992Z</time></trkpt><trkpt lat="43.2959217" lon="12.9032383"><ele>474.0</ele><time>2026-05-02T13:21:28.993Z</time></trkpt><trkpt lat="43.29599" lon="12.9033533"><ele>474.0</ele><time>2026-05-02T13:21:30.993Z</time></trkpt><trkpt lat="43.296055" lon="12.9034617"><ele>474.0</ele><time>2026-05-02T13:21:32.993Z</time></trkpt><trkpt lat="43.2960817" lon="12.9035883"><ele>474.0</ele><time>2026-05-02T13:21:34.993Z</time></trkpt><trkpt lat="43.296105" lon="12.9037133"><ele>474.0</ele><time>2026-05-02T13:21:36.996Z</time></trkpt><trkpt lat="43.2961283" lon="12.9038533"><ele>474.25</ele><time>2026-05-02T13:21:38.994Z</time></trkpt><trkpt lat="43.2961517" lon="12.90402"><ele>474.5</ele><time>2026-05-02T13:21:40.993Z</time></trkpt><trkpt lat="43.2962083" lon="12.9041717"><ele>474.75</ele><time>2026-05-02T13:21:42.995Z</time></trkpt><trkpt lat="43.2962667" lon="12.9042967"><ele>475.0</ele><time>2026-05-02T13:21:44.994Z</time></trkpt><trkpt lat="43.2963167" lon="12.9044183"><ele>475.0</ele><time>2026-05-02T13:21:46.993Z</time></trkpt><trkpt lat="43.296365" lon="12.9045417"><ele>475.0</ele><time>2026-05-02T13:21:48.994Z</time></trkpt><trkpt lat="43.2964433" lon="12.9047083"><ele>475.0</ele><time>2026-05-02T13:21:50.994Z</time></trkpt><trkpt lat="43.29649" lon="12.904785"><ele>475.0</ele><time>2026-05-02T13:21:51.993Z</time></trkpt><trkpt lat="43.2965283" lon="12.90486"><ele>475.0</ele><time>2026-05-02T13:21:52.995Z</time></trkpt><trkpt lat="43.296595" lon="12.90502"><ele>472.1666666666667</ele><time>2026-05-02T13:21:54.992Z</time></trkpt><trkpt lat="43.2966267" lon="12.9050967"><ele>469.33333333333337</ele><time>2026-05-02T13:21:55.993Z</time></trkpt><trkpt lat="43.2966567" lon="12.90518"><ele>466.5</ele><time>2026-05-02T13:21:56.994Z</time></trkpt><trkpt lat="43.2966883" lon="12.905275"><ele>463.66666666666663</ele><time>2026-05-02T13:21:57.993Z</time></trkpt><trkpt lat="43.2967517" lon="12.905415"><ele>460.8333333333333</ele><time>2026-05-02T13:21:59.994Z</time></trkpt><trkpt lat="43.2968033" lon="12.9055333"><ele>458.0</ele><time>2026-05-02T13:22:01.993Z</time></trkpt><trkpt lat="43.296835" lon="12.9056167"><ele>457.99999999999994</ele><time>2026-05-02T13:22:03.992Z</time></trkpt><trkpt lat="43.296875" lon="12.905715"><ele>458.0</ele><time>2026-05-02T13:22:06.993Z</time></trkpt><trkpt lat="43.2969317" lon="12.90582"><ele>458.0</ele><time>2026-05-02T13:22:13.992Z</time></trkpt><trkpt lat="43.2969867" lon="12.905905"><ele>458.0</ele><time>2026-05-02T13:22:15.993Z</time></trkpt><trkpt lat="43.2970467" lon="12.9059883"><ele>457.99999999999994</ele><time>2026-05-02T13:22:17.993Z</time></trkpt><trkpt lat="43.2970967" lon="12.9060517"><ele>458.0</ele><time>2026-05-02T13:22:19.993Z</time></trkpt><trkpt lat="43.2971483" lon="12.90614"><ele>456.66666666666663</ele><time>2026-05-02T13:22:21.993Z</time></trkpt><trkpt lat="43.297195" lon="12.90623"><ele>455.3333333333333</ele><time>2026-05-02T13:22:24.992Z</time></trkpt><trkpt lat="43.297235" lon="12.9063"><ele>454.0</ele><time>2026-05-02T13:22:26.993Z</time></trkpt><trkpt lat="43.2972917" lon="12.9064"><ele>452.66666666666663</ele><time>2026-05-02T13:22:28.993Z</time></trkpt><trkpt lat="43.29739" lon="12.906435"><ele>451.3333333333333</ele><time>2026-05-02T13:22:30.993Z</time></trkpt><trkpt lat="43.2974767" lon="12.9064917"><ele>450.0</ele><time>2026-05-02T13:22:32.993Z</time></trkpt><trkpt lat="43.297545" lon="12.9066383"><ele>449.1666666666667</ele><time>2026-05-02T13:22:34.993Z</time></trkpt><trkpt lat="43.2975783" lon="12.9067217"><ele>448.33333333333337</ele><time>2026-05-02T13:22:35.992Z</time></trkpt><trkpt lat="43.2976233" lon="12.9067967"><ele>447.5</ele><time>2026-05-02T13:22:36.994Z</time></trkpt><trkpt lat="43.29766" lon="12.90687"><ele>446.6666666666667</ele><time>2026-05-02T13:22:37.993Z</time></trkpt><trkpt lat="43.29772" lon="12.9069483"><ele>445.83333333333337</ele><time>2026-05-02T13:22:39.994Z</time></trkpt><trkpt lat="43.29767" lon="12.9070133"><ele>445.0</ele><time>2026-05-02T13:24:18.994Z</time></trkpt><trkpt lat="43.2975717" lon="12.90701"><ele>445.0</ele><time>2026-05-02T13:24:21.989Z</time></trkpt><trkpt lat="43.297475" lon="12.9070167"><ele>445.0</ele><time>2026-05-02T13:24:23.989Z</time></trkpt><trkpt lat="43.297395" lon="12.9070217"><ele>445.0</ele><time>2026-05-02T13:24:25.993Z</time></trkpt><trkpt lat="43.297275" lon="12.9070117"><ele>445.0</ele><time>2026-05-02T13:24:27.993Z</time></trkpt><trkpt lat="43.2971983" lon="12.90698"><ele>445.0</ele><time>2026-05-02T13:24:28.992Z</time></trkpt><trkpt lat="43.297105" lon="12.906935"><ele>446.25</ele><time>2026-05-02T13:24:29.992Z</time></trkpt><trkpt lat="43.2969933" lon="12.9068817"><ele>447.5</ele><time>2026-05-02T13:24:30.992Z</time></trkpt><trkpt lat="43.296875" lon="12.9068267"><ele>448.75</ele><time>2026-05-02T13:24:31.994Z</time></trkpt><trkpt lat="43.2967667" lon="12.9067733"><ele>450.0</ele><time>2026-05-02T13:24:32.994Z</time></trkpt><trkpt lat="43.296655" lon="12.9067267"><ele>450.0</ele><time>2026-05-02T13:24:33.992Z</time></trkpt><trkpt lat="43.2965367" lon="12.9066833"><ele>450.0</ele><time>2026-05-02T13:24:34.992Z</time></trkpt><trkpt lat="43.29644" lon="12.9066433"><ele>450.0</ele><time>2026-05-02T13:24:35.993Z</time></trkpt><trkpt lat="43.29636" lon="12.906595"><ele>450.0</ele><time>2026-05-02T13:24:36.993Z</time></trkpt><trkpt lat="43.2962817" lon="12.9065317"><ele>450.0</ele><time>2026-05-02T13:24:37.993Z</time></trkpt><trkpt lat="43.2962117" lon="12.9064433"><ele>452.0</ele><time>2026-05-02T13:24:38.993Z</time></trkpt><trkpt lat="43.29615" lon="12.906325"><ele>454.0</ele><time>2026-05-02T13:24:39.992Z</time></trkpt><trkpt lat="43.296115" lon="12.9062017"><ele>456.0</ele><time>2026-05-02T13:24:40.994Z</time></trkpt><trkpt lat="43.2960933" lon="12.90611"><ele>458.0</ele><time>2026-05-02T13:24:41.993Z</time></trkpt><trkpt lat="43.2960933" lon="12.9060167"><ele>460.0</ele><time>2026-05-02T13:24:45.993Z</time></trkpt><trkpt lat="43.2960667" lon="12.9059367"><ele>462.0</ele><time>2026-05-02T13:24:48.993Z</time></trkpt><trkpt lat="43.2959633" lon="12.9058383"><ele>462.0</ele><time>2026-05-02T13:24:50.993Z</time></trkpt><trkpt lat="43.2958917" lon="12.9058"><ele>462.0</ele><time>2026-05-02T13:24:51.993Z</time></trkpt><trkpt lat="43.2958317" lon="12.905765"><ele>462.0</ele><time>2026-05-02T13:24:52.995Z</time></trkpt><trkpt lat="43.295765" lon="12.905715"><ele>462.0</ele><time>2026-05-02T13:24:53.995Z</time></trkpt><trkpt lat="43.29569" lon="12.90565"><ele>462.0</ele><time>2026-05-02T13:24:54.994Z</time></trkpt><trkpt lat="43.2956067" lon="12.9055833"><ele>462.0</ele><time>2026-05-02T13:24:55.991Z</time></trkpt><trkpt lat="43.2955217" lon="12.9055233"><ele>465.6</ele><time>2026-05-02T13:24:56.994Z</time></trkpt><trkpt lat="43.295425" lon="12.9054583"><ele>469.20000000000005</ele><time>2026-05-02T13:24:57.993Z</time></trkpt><trkpt lat="43.29533" lon="12.9053733"><ele>472.8</ele><time>2026-05-02T13:24:58.992Z</time></trkpt><trkpt lat="43.295245" lon="12.9052983"><ele>476.4</ele><time>2026-05-02T13:24:59.992Z</time></trkpt><trkpt lat="43.295165" lon="12.9052317"><ele>480.0</ele><time>2026-05-02T13:25:00.993Z</time></trkpt><trkpt lat="43.295075" lon="12.905185"><ele>480.0</ele><time>2026-05-02T13:25:01.992Z</time></trkpt><trkpt lat="43.2949817" lon="12.9051483"><ele>480.0</ele><time>2026-05-02T13:25:02.994Z</time></trkpt><trkpt lat="43.2948683" lon="12.9051217"><ele>480.0</ele><time>2026-05-02T13:25:03.992Z</time></trkpt><trkpt lat="43.294755" lon="12.9050933"><ele>480.0</ele><time>2026-05-02T13:25:04.994Z</time></trkpt><trkpt lat="43.2946567" lon="12.905065"><ele>480.0</ele><time>2026-05-02T13:25:05.994Z</time></trkpt><trkpt lat="43.2945583" lon="12.90503"><ele>481.2</ele><time>2026-05-02T13:25:06.993Z</time></trkpt><trkpt lat="43.2944633" lon="12.9049967"><ele>482.4</ele><time>2026-05-02T13:25:07.993Z</time></trkpt><trkpt lat="43.2943733" lon="12.9049717"><ele>483.6</ele><time>2026-05-02T13:25:08.996Z</time></trkpt><trkpt lat="43.2942883" lon="12.9049333"><ele>484.8</ele><time>2026-05-02T13:25:09.992Z</time></trkpt><trkpt lat="43.29419" lon="12.9048833"><ele>486.0</ele><time>2026-05-02T13:25:10.993Z</time></trkpt><trkpt lat="43.2940967" lon="12.9048167"><ele>486.0</ele><time>2026-05-02T13:25:11.994Z</time></trkpt><trkpt lat="43.2940133" lon="12.9047483"><ele>486.0</ele><time>2026-05-02T13:25:12.994Z</time></trkpt><trkpt lat="43.29393" lon="12.904665"><ele>486.0</ele><time>2026-05-02T13:25:13.993Z</time></trkpt><trkpt lat="43.2938633" lon="12.9045767"><ele>486.0</ele><time>2026-05-02T13:25:14.994Z</time></trkpt><trkpt lat="43.2937933" lon="12.9045167"><ele>486.0</ele><time>2026-05-02T13:25:15.993Z</time></trkpt><trkpt lat="43.2937017" lon="12.9044867"><ele>490.20000000000005</ele><time>2026-05-02T13:25:16.993Z</time></trkpt><trkpt lat="43.29361" lon="12.9044617"><ele>494.40000000000003</ele><time>2026-05-02T13:25:17.996Z</time></trkpt><trkpt lat="43.293515" lon="12.9044183"><ele>498.6</ele><time>2026-05-02T13:25:18.992Z</time></trkpt><trkpt lat="43.293425" lon="12.9043783"><ele>502.8</ele><time>2026-05-02T13:25:19.994Z</time></trkpt><trkpt lat="43.2933417" lon="12.904355"><ele>507.0</ele><time>2026-05-02T13:25:20.994Z</time></trkpt><trkpt lat="43.2932667" lon="12.90431"><ele>507.0</ele><time>2026-05-02T13:25:21.994Z</time></trkpt><trkpt lat="43.2931917" lon="12.90425"><ele>507.0</ele><time>2026-05-02T13:25:22.994Z</time></trkpt><trkpt lat="43.293125" lon="12.9042"><ele>507.0</ele><time>2026-05-02T13:25:23.993Z</time></trkpt><trkpt lat="43.2930433" lon="12.9041317"><ele>507.0</ele><time>2026-05-02T13:25:25.993Z</time></trkpt><trkpt lat="43.2929833" lon="12.9040783"><ele>507.0</ele><time>2026-05-02T13:25:28.993Z</time></trkpt><trkpt lat="43.2929117" lon="12.90404"><ele>507.0</ele><time>2026-05-02T13:25:30.992Z</time></trkpt><trkpt lat="43.2928417" lon="12.9039983"><ele>509.5</ele><time>2026-05-02T13:25:33.993Z</time></trkpt><trkpt lat="43.29277" lon="12.9039617"><ele>512.0</ele><time>2026-05-02T13:25:36.993Z</time></trkpt><trkpt lat="43.2926917" lon="12.9038817"><ele>514.5</ele><time>2026-05-02T13:25:38.996Z</time></trkpt><trkpt lat="43.2926333" lon="12.9038117"><ele>517.0</ele><time>2026-05-02T13:25:40.994Z</time></trkpt><trkpt lat="43.292585" lon="12.903725"><ele>519.5</ele><time>2026-05-02T13:25:42.993Z</time></trkpt><trkpt lat="43.2925317" lon="12.9036517"><ele>522.0</ele><time>2026-05-02T13:25:44.994Z</time></trkpt><trkpt lat="43.2924617" lon="12.9035683"><ele>522.0</ele><time>2026-05-02T13:25:46.992Z</time></trkpt><trkpt lat="43.2923883" lon="12.9034967"><ele>522.0</ele><time>2026-05-02T13:25:48.993Z</time></trkpt><trkpt lat="43.2923283" lon="12.903435"><ele>522.0</ele><time>2026-05-02T13:25:50.994Z</time></trkpt><trkpt lat="43.2922517" lon="12.90342"><ele>522.0</ele><time>2026-05-02T13:25:53.994Z</time></trkpt><trkpt lat="43.2921933" lon="12.903345"><ele>522.0</ele><time>2026-05-02T13:26:01.994Z</time></trkpt><trkpt lat="43.2921333" lon="12.9032967"><ele>522.0</ele><time>2026-05-02T13:26:04.994Z</time></trkpt><trkpt lat="43.292" lon="12.9031217"><ele>526.0</ele><time>2026-05-02T13:26:28.993Z</time></trkpt><trkpt lat="43.291955" lon="12.903025"><ele>530.0</ele><time>2026-05-02T13:26:32.994Z</time></trkpt><trkpt lat="43.2919133" lon="12.9029483"><ele>534.0</ele><time>2026-05-02T13:26:37.993Z</time></trkpt><trkpt lat="43.29185" lon="12.9028817"><ele>538.0</ele><time>2026-05-02T13:26:43.993Z</time></trkpt><trkpt lat="43.2917583" lon="12.90284"><ele>542.0</ele><time>2026-05-02T13:26:46.993Z</time></trkpt><trkpt lat="43.291665" lon="12.902815"><ele>546.0</ele><time>2026-05-02T13:26:53.994Z</time></trkpt><trkpt lat="43.2916017" lon="12.9027567"><ele>546.0</ele><time>2026-05-02T13:26:56.994Z</time></trkpt><trkpt lat="43.29151" lon="12.9026817"><ele>546.0</ele><time>2026-05-02T13:27:00.994Z</time></trkpt><trkpt lat="43.2914433" lon="12.90261"><ele>546.0</ele><time>2026-05-02T13:27:02.994Z</time></trkpt><trkpt lat="43.291355" lon="12.9025567"><ele>546.0</ele><time>2026-05-02T13:27:04.993Z</time></trkpt><trkpt lat="43.2912567" lon="12.9024933"><ele>546.0</ele><time>2026-05-02T13:27:06.993Z</time></trkpt><trkpt lat="43.2911617" lon="12.9024133"><ele>549.6666666666666</ele><time>2026-05-02T13:27:08.994Z</time></trkpt><trkpt lat="43.2910717" lon="12.902395"><ele>553.3333333333334</ele><time>2026-05-02T13:27:09.992Z</time></trkpt><trkpt lat="43.2910067" lon="12.9023767"><ele>557.0</ele><time>2026-05-02T13:27:10.993Z</time></trkpt><trkpt lat="43.290905" lon="12.9023533"><ele>560.6666666666667</ele><time>2026-05-02T13:27:12.992Z</time></trkpt><trkpt lat="43.29082" lon="12.9022983"><ele>564.3333333333334</ele><time>2026-05-02T13:27:14.994Z</time></trkpt><trkpt lat="43.2907733" lon="12.90222"><ele>568.0</ele><time>2026-05-02T13:27:16.993Z</time></trkpt><trkpt lat="43.2908517" lon="12.9021967"><ele>568.0</ele><time>2026-05-02T13:27:19.992Z</time></trkpt><trkpt lat="43.290855" lon="12.90208"><ele>568.0</ele><time>2026-05-02T13:27:23.993Z</time></trkpt><trkpt lat="43.2908133" lon="12.9019983"><ele>568.0</ele><time>2026-05-02T13:27:25.993Z</time></trkpt><trkpt lat="43.2907533" lon="12.9019583"><ele>568.0</ele><time>2026-05-02T13:27:28.993Z</time></trkpt><trkpt lat="43.2906817" lon="12.9019167"><ele>568.0</ele><time>2026-05-02T13:27:31.992Z</time></trkpt><trkpt lat="43.2906117" lon="12.9018883"><ele>568.0</ele><time>2026-05-02T13:27:33.993Z</time></trkpt><trkpt lat="43.2905217" lon="12.90182"><ele>571.1666666666667</ele><time>2026-05-02T13:27:35.992Z</time></trkpt><trkpt lat="43.2904617" lon="12.901765"><ele>574.3333333333334</ele><time>2026-05-02T13:27:36.993Z</time></trkpt><trkpt lat="43.2904067" lon="12.9017133"><ele>577.5</ele><time>2026-05-02T13:27:37.992Z</time></trkpt><trkpt lat="43.2903467" lon="12.9016567"><ele>580.6666666666666</ele><time>2026-05-02T13:27:38.994Z</time></trkpt><trkpt lat="43.2902767" lon="12.9015917"><ele>583.8333333333333</ele><time>2026-05-02T13:27:39.993Z</time></trkpt><trkpt lat="43.2902117" lon="12.9015183"><ele>587.0</ele><time>2026-05-02T13:27:40.993Z</time></trkpt><trkpt lat="43.2901283" lon="12.9014267"><ele>589.3333333333333</ele><time>2026-05-02T13:27:41.993Z</time></trkpt><trkpt lat="43.2900517" lon="12.9013433"><ele>591.6666666666666</ele><time>2026-05-02T13:27:42.994Z</time></trkpt><trkpt lat="43.289985" lon="12.901285"><ele>594.0</ele><time>2026-05-02T13:27:43.993Z</time></trkpt><trkpt lat="43.28992" lon="12.9012433"><ele>596.3333333333334</ele><time>2026-05-02T13:27:44.993Z</time></trkpt><trkpt lat="43.28987" lon="12.90119"><ele>598.6666666666667</ele><time>2026-05-02T13:27:45.993Z</time></trkpt><trkpt lat="43.2897933" lon="12.9011267"><ele>601.0</ele><time>2026-05-02T13:27:47.993Z</time></trkpt><trkpt lat="43.2897267" lon="12.9010917"><ele>607.1666666666667</ele><time>2026-05-02T13:27:50.994Z</time></trkpt><trkpt lat="43.2896767" lon="12.90115"><ele>613.3333333333334</ele><time>2026-05-02T13:27:53.993Z</time></trkpt><trkpt lat="43.2896183" lon="12.9012833"><ele>619.5</ele><time>2026-05-02T13:29:45.993Z</time></trkpt><trkpt lat="43.2895617" lon="12.9013917"><ele>625.6666666666666</ele><time>2026-05-02T13:37:10.993Z</time></trkpt><trkpt lat="43.289475" lon="12.9013433"><ele>631.8333333333333</ele><time>2026-05-02T13:38:05.995Z</time></trkpt><trkpt lat="43.2894167" lon="12.9013917"><ele>638.0</ele><time>2026-05-02T13:38:07.994Z</time></trkpt><trkpt lat="43.2893217" lon="12.901385"><ele>638.0</ele><time>2026-05-02T13:38:10.994Z</time></trkpt><trkpt lat="43.2892367" lon="12.9013817"><ele>638.0</ele><time>2026-05-02T13:38:12.994Z</time></trkpt><trkpt lat="43.2891683" lon="12.9013717"><ele>638.0</ele><time>2026-05-02T13:38:14.989Z</time></trkpt><trkpt lat="43.2890683" lon="12.9013983"><ele>638.0</ele><time>2026-05-02T13:38:17.993Z</time></trkpt><trkpt lat="43.2889933" lon="12.9014083"><ele>638.0</ele><time>2026-05-02T13:38:19.994Z</time></trkpt><trkpt lat="43.2888883" lon="12.9013733"><ele>638.0</ele><time>2026-05-02T13:38:21.994Z</time></trkpt><trkpt lat="43.2888217" lon="12.9013417"><ele>644.1666666666666</ele><time>2026-05-02T13:38:22.993Z</time></trkpt><trkpt lat="43.2887367" lon="12.9013367"><ele>650.3333333333333</ele><time>2026-05-02T13:38:24.993Z</time></trkpt><trkpt lat="43.2886467" lon="12.9013983"><ele>656.5</ele><time>2026-05-02T13:38:26.996Z</time></trkpt><trkpt lat="43.2885833" lon="12.90145"><ele>662.6666666666666</ele><time>2026-05-02T13:38:27.994Z</time></trkpt><trkpt lat="43.28851" lon="12.9015033"><ele>668.8333333333334</ele><time>2026-05-02T13:38:29.994Z</time></trkpt><trkpt lat="43.288455" lon="12.90146"><ele>675.0</ele><time>2026-05-02T13:38:31.993Z</time></trkpt><trkpt lat="43.28843" lon="12.9013667"><ele>675.0</ele><time>2026-05-02T13:38:33.994Z</time></trkpt><trkpt lat="43.2884867" lon="12.9011867"><ele>675.0</ele><time>2026-05-02T13:38:35.993Z</time></trkpt><trkpt lat="43.288535" lon="12.9010733"><ele>675.0</ele><time>2026-05-02T13:38:36.993Z</time></trkpt><trkpt lat="43.28853" lon="12.9009433"><ele>675.0</ele><time>2026-05-02T13:38:37.994Z</time></trkpt><trkpt lat="43.28855" lon="12.9008267"><ele>675.0</ele><time>2026-05-02T13:38:38.994Z</time></trkpt><trkpt lat="43.2885617" lon="12.90071"><ele>678.2</ele><time>2026-05-02T13:38:39.994Z</time></trkpt><trkpt lat="43.2885617" lon="12.9006017"><ele>681.4</ele><time>2026-05-02T13:38:40.993Z</time></trkpt><trkpt lat="43.2885483" lon="12.9004833"><ele>684.5999999999999</ele><time>2026-05-02T13:38:41.993Z</time></trkpt><trkpt lat="43.2885317" lon="12.9003433"><ele>687.8</ele><time>2026-05-02T13:38:42.994Z</time></trkpt><trkpt lat="43.288505" lon="12.9001983"><ele>691.0</ele><time>2026-05-02T13:38:43.993Z</time></trkpt><trkpt lat="43.2884833" lon="12.9000733"><ele>692.3333333333334</ele><time>2026-05-02T13:38:44.995Z</time></trkpt><trkpt lat="43.2884617" lon="12.8999583"><ele>693.6666666666667</ele><time>2026-05-02T13:38:45.994Z</time></trkpt><trkpt lat="43.2884183" lon="12.8998683"><ele>695.0</ele><time>2026-05-02T13:38:46.993Z</time></trkpt><trkpt lat="43.2883833" lon="12.899795"><ele>696.3333333333334</ele><time>2026-05-02T13:38:47.993Z</time></trkpt><trkpt lat="43.2883267" lon="12.8997467"><ele>697.6666666666666</ele><time>2026-05-02T13:38:48.994Z</time></trkpt><trkpt lat="43.28825" lon="12.8996617"><ele>699.0</ele><time>2026-05-02T13:38:50.994Z</time></trkpt><trkpt lat="43.2881917" lon="12.8996083"><ele>699.0</ele><time>2026-05-02T13:38:53.994Z</time></trkpt><trkpt lat="43.2881167" lon="12.8996967"><ele>699.0</ele><time>2026-05-02T13:39:15.995Z</time></trkpt><trkpt lat="43.2881367" lon="12.8998067"><ele>699.0</ele><time>2026-05-02T13:39:17.993Z</time></trkpt><trkpt lat="43.2881333" lon="12.8999383"><ele>699.0</ele><time>2026-05-02T13:39:19.994Z</time></trkpt><trkpt lat="43.28811" lon="12.9000883"><ele>699.0</ele><time>2026-05-02T13:39:21.994Z</time></trkpt><trkpt lat="43.2880867" lon="12.90028"><ele>697.4000000000001</ele><time>2026-05-02T13:39:23.994Z</time></trkpt><trkpt lat="43.288095" lon="12.9004267"><ele>695.8</ele><time>2026-05-02T13:39:24.996Z</time></trkpt><trkpt lat="43.2880783" lon="12.9005583"><ele>694.2</ele><time>2026-05-02T13:39:25.993Z</time></trkpt><trkpt lat="43.28805" lon="12.9006733"><ele>692.5999999999999</ele><time>2026-05-02T13:39:26.995Z</time></trkpt><trkpt lat="43.2880217" lon="12.9007883"><ele>691.0</ele><time>2026-05-02T13:39:27.995Z</time></trkpt><trkpt lat="43.2879967" lon="12.90092"><ele>695.75</ele><time>2026-05-02T13:39:28.995Z</time></trkpt><trkpt lat="43.287955" lon="12.9010317"><ele>700.5</ele><time>2026-05-02T13:39:29.994Z</time></trkpt><trkpt lat="43.2879133" lon="12.901145"><ele>705.25</ele><time>2026-05-02T13:39:30.996Z</time></trkpt><trkpt lat="43.2878183" lon="12.9013033"><ele>710.0</ele><time>2026-05-02T13:39:31.994Z</time></trkpt><trkpt lat="43.28773" lon="12.9014917"><ele>710.0</ele><time>2026-05-02T13:39:32.995Z</time></trkpt><trkpt lat="43.2876433" lon="12.9017183"><ele>710.0</ele><time>2026-05-02T13:39:33.994Z</time></trkpt><trkpt lat="43.28755" lon="12.9019433"><ele>710.0</ele><time>2026-05-02T13:39:34.993Z</time></trkpt><trkpt lat="43.2874667" lon="12.902175"><ele>711.0</ele><time>2026-05-02T13:39:35.993Z</time></trkpt><trkpt lat="43.2873883" lon="12.9023967"><ele>712.0</ele><time>2026-05-02T13:39:36.992Z</time></trkpt><trkpt lat="43.2873183" lon="12.9025733"><ele>713.0</ele><time>2026-05-02T13:39:37.996Z</time></trkpt><trkpt lat="43.287255" lon="12.90274"><ele>713.0</ele><time>2026-05-02T13:39:38.994Z</time></trkpt><trkpt lat="43.2872033" lon="12.902895"><ele>713.0</ele><time>2026-05-02T13:39:39.994Z</time></trkpt><trkpt lat="43.2871717" lon="12.9030267"><ele>713.0</ele><time>2026-05-02T13:39:40.993Z</time></trkpt><trkpt lat="43.2871283" lon="12.9031533"><ele>713.0</ele><time>2026-05-02T13:39:41.994Z</time></trkpt><trkpt lat="43.28707" lon="12.9032983"><ele>713.0</ele><time>2026-05-02T13:39:42.993Z</time></trkpt><trkpt lat="43.28702" lon="12.903445"><ele>713.4</ele><time>2026-05-02T13:39:43.994Z</time></trkpt><trkpt lat="43.2869783" lon="12.9035967"><ele>713.8</ele><time>2026-05-02T13:39:44.995Z</time></trkpt><trkpt lat="43.28696" lon="12.903735"><ele>714.2</ele><time>2026-05-02T13:39:45.994Z</time></trkpt><trkpt lat="43.2869667" lon="12.9038583"><ele>714.6</ele><time>2026-05-02T13:39:46.995Z</time></trkpt><trkpt lat="43.28699" lon="12.90397"><ele>715.0</ele><time>2026-05-02T13:39:47.993Z</time></trkpt><trkpt lat="43.2870233" lon="12.9040783"><ele>715.0</ele><time>2026-05-02T13:39:48.994Z</time></trkpt><trkpt lat="43.2870717" lon="12.9041883"><ele>715.0</ele><time>2026-05-02T13:39:49.994Z</time></trkpt><trkpt lat="43.287135" lon="12.904295"><ele>715.0</ele><time>2026-05-02T13:39:50.994Z</time></trkpt><trkpt lat="43.2872083" lon="12.9044017"><ele>715.0</ele><time>2026-05-02T13:39:51.99Z</time></trkpt><trkpt lat="43.2873167" lon="12.9044917"><ele>715.0</ele><time>2026-05-02T13:39:52.988Z</time></trkpt><trkpt lat="43.287435" lon="12.9045783"><ele>712.0</ele><time>2026-05-02T13:39:53.994Z</time></trkpt><trkpt lat="43.28757" lon="12.9046567"><ele>709.0</ele><time>2026-05-02T13:39:54.994Z</time></trkpt><trkpt lat="43.2876867" lon="12.9047267"><ele>706.0</ele><time>2026-05-02T13:39:55.993Z</time></trkpt><trkpt lat="43.2877883" lon="12.9047967"><ele>703.0</ele><time>2026-05-02T13:39:56.995Z</time></trkpt><trkpt lat="43.287895" lon="12.9048917"><ele>703.0</ele><time>2026-05-02T13:39:57.993Z</time></trkpt><trkpt lat="43.28799" lon="12.9049933"><ele>703.0</ele><time>2026-05-02T13:39:58.994Z</time></trkpt><trkpt lat="43.2880817" lon="12.9051"><ele>703.0</ele><time>2026-05-02T13:39:59.993Z</time></trkpt><trkpt lat="43.2881783" lon="12.905195"><ele>703.0</ele><time>2026-05-02T13:40:00.994Z</time></trkpt><trkpt lat="43.288285" lon="12.90529"><ele>704.0</ele><time>2026-05-02T13:40:01.994Z</time></trkpt><trkpt lat="43.288405" lon="12.9053783"><ele>705.0</ele><time>2026-05-02T13:40:02.99Z</time></trkpt><trkpt lat="43.2885333" lon="12.905465"><ele>706.0</ele><time>2026-05-02T13:40:03.994Z</time></trkpt><trkpt lat="43.2886683" lon="12.9055517"><ele>707.0</ele><time>2026-05-02T13:40:04.995Z</time></trkpt><trkpt lat="43.2888033" lon="12.9056333"><ele>707.0</ele><time>2026-05-02T13:40:05.994Z</time></trkpt><trkpt lat="43.2889283" lon="12.9057167"><ele>707.0</ele><time>2026-05-02T13:40:06.996Z</time></trkpt><trkpt lat="43.28905" lon="12.90581"><ele>707.0</ele><time>2026-05-02T13:40:07.995Z</time></trkpt><trkpt lat="43.2891733" lon="12.9059133"><ele>707.0</ele><time>2026-05-02T13:40:08.994Z</time></trkpt><trkpt lat="43.2892983" lon="12.9060267"><ele>707.0</ele><time>2026-05-02T13:40:09.998Z</time></trkpt><trkpt lat="43.2894217" lon="12.9061483"><ele>707.0</ele><time>2026-05-02T13:40:10.994Z</time></trkpt><trkpt lat="43.2895517" lon="12.90628"><ele>707.0</ele><time>2026-05-02T13:40:11.995Z</time></trkpt><trkpt lat="43.28968" lon="12.9064167"><ele>707.5</ele><time>2026-05-02T13:40:12.993Z</time></trkpt><trkpt lat="43.2897983" lon="12.906545"><ele>708.0</ele><time>2026-05-02T13:40:13.995Z</time></trkpt><trkpt lat="43.2899133" lon="12.9066533"><ele>708.5</ele><time>2026-05-02T13:40:14.994Z</time></trkpt><trkpt lat="43.2900317" lon="12.9067417"><ele>709.0</ele><time>2026-05-02T13:40:15.994Z</time></trkpt><trkpt lat="43.290155" lon="12.9068417"><ele>709.0</ele><time>2026-05-02T13:40:16.994Z</time></trkpt><trkpt lat="43.2902783" lon="12.906935"><ele>709.0</ele><time>2026-05-02T13:40:17.994Z</time></trkpt><trkpt lat="43.290395" lon="12.9070217"><ele>709.0</ele><time>2026-05-02T13:40:18.993Z</time></trkpt><trkpt lat="43.2905067" lon="12.9070967"><ele>709.0</ele><time>2026-05-02T13:40:19.995Z</time></trkpt><trkpt lat="43.2906217" lon="12.9071733"><ele>701.75</ele><time>2026-05-02T13:40:20.993Z</time></trkpt><trkpt lat="43.2907383" lon="12.907235"><ele>694.5</ele><time>2026-05-02T13:40:21.994Z</time></trkpt><trkpt lat="43.2908667" lon="12.907295"><ele>687.25</ele><time>2026-05-02T13:40:22.993Z</time></trkpt><trkpt lat="43.291005" lon="12.90736"><ele>680.0</ele><time>2026-05-02T13:40:23.994Z</time></trkpt><trkpt lat="43.2911367" lon="12.9074283"><ele>680.0</ele><time>2026-05-02T13:40:24.995Z</time></trkpt><trkpt lat="43.2912767" lon="12.90749"><ele>680.0</ele><time>2026-05-02T13:40:25.994Z</time></trkpt><trkpt lat="43.2914117" lon="12.9075517"><ele>680.0</ele><time>2026-05-02T13:40:26.995Z</time></trkpt><trkpt lat="43.2915417" lon="12.9076083"><ele>680.0</ele><time>2026-05-02T13:40:27.989Z</time></trkpt><trkpt lat="43.2916583" lon="12.90767"><ele>679.0</ele><time>2026-05-02T13:40:28.993Z</time></trkpt><trkpt lat="43.29177" lon="12.9077417"><ele>678.0</ele><time>2026-05-02T13:40:29.994Z</time></trkpt><trkpt lat="43.29188" lon="12.9078233"><ele>677.0</ele><time>2026-05-02T13:40:30.994Z</time></trkpt><trkpt lat="43.2919933" lon="12.9079167"><ele>676.0</ele><time>2026-05-02T13:40:31.994Z</time></trkpt><trkpt lat="43.2920967" lon="12.908015"><ele>676.0</ele><time>2026-05-02T13:40:32.994Z</time></trkpt><trkpt lat="43.2921917" lon="12.9081333"><ele>676.0</ele><time>2026-05-02T13:40:33.995Z</time></trkpt><trkpt lat="43.29229" lon="12.9082567"><ele>676.0</ele><time>2026-05-02T13:40:34.994Z</time></trkpt><trkpt lat="43.2923983" lon="12.90837"><ele>676.0</ele><time>2026-05-02T13:40:35.995Z</time></trkpt><trkpt lat="43.2925" lon="12.90848"><ele>674.25</ele><time>2026-05-02T13:40:36.994Z</time></trkpt><trkpt lat="43.2925983" lon="12.9085967"><ele>672.5</ele><time>2026-05-02T13:40:37.994Z</time></trkpt><trkpt lat="43.2927" lon="12.9087017"><ele>670.75</ele><time>2026-05-02T13:40:38.993Z</time></trkpt><trkpt lat="43.2928117" lon="12.9088017"><ele>669.0</ele><time>2026-05-02T13:40:39.994Z</time></trkpt><trkpt lat="43.2929367" lon="12.908915"><ele>669.0</ele><time>2026-05-02T13:40:40.993Z</time></trkpt><trkpt lat="43.293065" lon="12.9090333"><ele>669.0</ele><time>2026-05-02T13:40:41.994Z</time></trkpt><trkpt lat="43.29319" lon="12.9091383"><ele>669.0</ele><time>2026-05-02T13:40:42.995Z</time></trkpt><trkpt lat="43.2933083" lon="12.9092317"><ele>669.0</ele><time>2026-05-02T13:40:43.994Z</time></trkpt><trkpt lat="43.2934233" lon="12.909315"><ele>667.25</ele><time>2026-05-02T13:40:44.995Z</time></trkpt><trkpt lat="43.293535" lon="12.9093967"><ele>665.5</ele><time>2026-05-02T13:40:45.994Z</time></trkpt><trkpt lat="43.2936433" lon="12.9094783"><ele>663.75</ele><time>2026-05-02T13:40:46.994Z</time></trkpt><trkpt lat="43.2937583" lon="12.9095717"><ele>662.0</ele><time>2026-05-02T13:40:47.994Z</time></trkpt><trkpt lat="43.2938683" lon="12.9096617"><ele>654.0</ele><time>2026-05-02T13:40:48.994Z</time></trkpt><trkpt lat="43.2939767" lon="12.9097467"><ele>646.0</ele><time>2026-05-02T13:40:49.994Z</time></trkpt><trkpt lat="43.294085" lon="12.9098217"><ele>638.0</ele><time>2026-05-02T13:40:50.994Z</time></trkpt><trkpt lat="43.2941883" lon="12.9098983"><ele>630.0</ele><time>2026-05-02T13:40:51.994Z</time></trkpt><trkpt lat="43.2942983" lon="12.9099783"><ele>633.25</ele><time>2026-05-02T13:40:52.994Z</time></trkpt><trkpt lat="43.2944017" lon="12.9100883"><ele>636.5</ele><time>2026-05-02T13:40:53.995Z</time></trkpt><trkpt lat="43.29451" lon="12.9101883"><ele>639.75</ele><time>2026-05-02T13:40:54.993Z</time></trkpt><trkpt lat="43.29461" lon="12.9103083"><ele>643.0</ele><time>2026-05-02T13:40:55.994Z</time></trkpt><trkpt lat="43.29471" lon="12.91043"><ele>639.25</ele><time>2026-05-02T13:40:56.996Z</time></trkpt><trkpt lat="43.2948033" lon="12.9105533"><ele>635.5</ele><time>2026-05-02T13:40:57.993Z</time></trkpt><trkpt lat="43.2948967" lon="12.910675"><ele>631.75</ele><time>2026-05-02T13:40:58.994Z</time></trkpt><trkpt lat="43.2949867" lon="12.9108017"><ele>628.0</ele><time>2026-05-02T13:40:59.994Z</time></trkpt><trkpt lat="43.2950733" lon="12.9109267"><ele>628.0</ele><time>2026-05-02T13:41:00.993Z</time></trkpt><trkpt lat="43.2951617" lon="12.911045"><ele>628.0</ele><time>2026-05-02T13:41:01.994Z</time></trkpt><trkpt lat="43.2952467" lon="12.9111533"><ele>628.0</ele><time>2026-05-02T13:41:02.995Z</time></trkpt><trkpt lat="43.2953283" lon="12.9112417"><ele>628.0</ele><time>2026-05-02T13:41:03.994Z</time></trkpt><trkpt lat="43.2954" lon="12.9113267"><ele>628.0</ele><time>2026-05-02T13:41:04.993Z</time></trkpt><trkpt lat="43.2954717" lon="12.9114283"><ele>628.0</ele><time>2026-05-02T13:41:05.994Z</time></trkpt><trkpt lat="43.2955383" lon="12.9115583"><ele>628.0</ele><time>2026-05-02T13:41:06.994Z</time></trkpt><trkpt lat="43.2956067" lon="12.9116917"><ele>628.0</ele><time>2026-05-02T13:41:07.993Z</time></trkpt><trkpt lat="43.2956717" lon="12.9118267"><ele>628.0</ele><time>2026-05-02T13:41:08.996Z</time></trkpt><trkpt lat="43.2957417" lon="12.911975"><ele>622.0</ele><time>2026-05-02T13:41:09.994Z</time></trkpt><trkpt lat="43.2958" lon="12.912105"><ele>616.0</ele><time>2026-05-02T13:41:10.993Z</time></trkpt><trkpt lat="43.2958417" lon="12.9122283"><ele>610.0</ele><time>2026-05-02T13:41:11.994Z</time></trkpt><trkpt lat="43.2958883" lon="12.9123733"><ele>604.0</ele><time>2026-05-02T13:41:12.993Z</time></trkpt><trkpt lat="43.29592" lon="12.912545"><ele>605.75</ele><time>2026-05-02T13:41:13.994Z</time></trkpt><trkpt lat="43.2959483" lon="12.91273"><ele>607.5</ele><time>2026-05-02T13:41:14.995Z</time></trkpt><trkpt lat="43.2959867" lon="12.9129117"><ele>609.25</ele><time>2026-05-02T13:41:15.995Z</time></trkpt><trkpt lat="43.29603" lon="12.9131017"><ele>611.0</ele><time>2026-05-02T13:41:16.994Z</time></trkpt><trkpt lat="43.2960817" lon="12.913285"><ele>612.25</ele><time>2026-05-02T13:41:17.994Z</time></trkpt><trkpt lat="43.2961417" lon="12.9134517"><ele>613.5</ele><time>2026-05-02T13:41:18.994Z</time></trkpt><trkpt lat="43.2962" lon="12.9135983"><ele>614.75</ele><time>2026-05-02T13:41:19.994Z</time></trkpt><trkpt lat="43.2962433" lon="12.9137333"><ele>616.0</ele><time>2026-05-02T13:41:20.994Z</time></trkpt><trkpt lat="43.296275" lon="12.91388"><ele>616.0</ele><time>2026-05-02T13:41:21.995Z</time></trkpt><trkpt lat="43.2962967" lon="12.914035"><ele>616.0</ele><time>2026-05-02T13:41:22.994Z</time></trkpt><trkpt lat="43.2963183" lon="12.914175"><ele>616.0</ele><time>2026-05-02T13:41:23.991Z</time></trkpt><trkpt lat="43.2963283" lon="12.9143183"><ele>616.0</ele><time>2026-05-02T13:41:24.995Z</time></trkpt><trkpt lat="43.296355" lon="12.9144633"><ele>616.0</ele><time>2026-05-02T13:41:25.994Z</time></trkpt><trkpt lat="43.29638" lon="12.9146033"><ele>617.8</ele><time>2026-05-02T13:41:26.995Z</time></trkpt><trkpt lat="43.2963833" lon="12.9147383"><ele>619.6</ele><time>2026-05-02T13:41:27.993Z</time></trkpt><trkpt lat="43.296385" lon="12.914885"><ele>621.4</ele><time>2026-05-02T13:41:28.993Z</time></trkpt><trkpt lat="43.2963683" lon="12.9150183"><ele>623.2</ele><time>2026-05-02T13:41:29.995Z</time></trkpt><trkpt lat="43.2963767" lon="12.9151533"><ele>625.0</ele><time>2026-05-02T13:41:30.995Z</time></trkpt><trkpt lat="43.296395" lon="12.9152717"><ele>618.6</ele><time>2026-05-02T13:41:31.995Z</time></trkpt><trkpt lat="43.2964283" lon="12.9153783"><ele>612.2</ele><time>2026-05-02T13:41:32.994Z</time></trkpt><trkpt lat="43.2964833" lon="12.9154633"><ele>605.8</ele><time>2026-05-02T13:41:33.993Z</time></trkpt><trkpt lat="43.29655" lon="12.91555"><ele>599.4</ele><time>2026-05-02T13:41:34.995Z</time></trkpt><trkpt lat="43.2966317" lon="12.91564"><ele>593.0</ele><time>2026-05-02T13:41:35.993Z</time></trkpt><trkpt lat="43.2967283" lon="12.915745"><ele>593.0</ele><time>2026-05-02T13:41:36.993Z</time></trkpt><trkpt lat="43.29683" lon="12.91586"><ele>593.0</ele><time>2026-05-02T13:41:37.995Z</time></trkpt><trkpt lat="43.2969367" lon="12.915975"><ele>593.0</ele><time>2026-05-02T13:41:38.994Z</time></trkpt><trkpt lat="43.2970517" lon="12.9160883"><ele>593.0</ele><time>2026-05-02T13:41:39.993Z</time></trkpt><trkpt lat="43.2971617" lon="12.9161983"><ele>586.75</ele><time>2026-05-02T13:41:40.992Z</time></trkpt><trkpt lat="43.2972683" lon="12.9163083"><ele>580.5</ele><time>2026-05-02T13:41:41.992Z</time></trkpt><trkpt lat="43.297375" lon="12.916415"><ele>574.25</ele><time>2026-05-02T13:41:42.994Z</time></trkpt><trkpt lat="43.2974833" lon="12.9165183"><ele>568.0</ele><time>2026-05-02T13:41:43.994Z</time></trkpt><trkpt lat="43.2975867" lon="12.9166283"><ele>572.25</ele><time>2026-05-02T13:41:44.995Z</time></trkpt><trkpt lat="43.29769" lon="12.9167467"><ele>576.5</ele><time>2026-05-02T13:41:45.995Z</time></trkpt><trkpt lat="43.2978" lon="12.916875"><ele>580.75</ele><time>2026-05-02T13:41:46.994Z</time></trkpt><trkpt lat="43.2979033" lon="12.917005"><ele>585.0</ele><time>2026-05-02T13:41:47.994Z</time></trkpt><trkpt lat="43.298005" lon="12.917135"><ele>577.5</ele><time>2026-05-02T13:41:48.995Z</time></trkpt><trkpt lat="43.2981" lon="12.917255"><ele>570.0</ele><time>2026-05-02T13:41:49.994Z</time></trkpt><trkpt lat="43.2981783" lon="12.917375"><ele>562.5</ele><time>2026-05-02T13:41:50.994Z</time></trkpt><trkpt lat="43.29827" lon="12.9175017"><ele>555.0</ele><time>2026-05-02T13:41:51.993Z</time></trkpt><trkpt lat="43.298365" lon="12.9176283"><ele>555.0</ele><time>2026-05-02T13:41:52.993Z</time></trkpt><trkpt lat="43.2984683" lon="12.91774"><ele>555.0</ele><time>2026-05-02T13:41:53.993Z</time></trkpt><trkpt lat="43.2985683" lon="12.9178317"><ele>555.0</ele><time>2026-05-02T13:41:54.994Z</time></trkpt><trkpt lat="43.2986683" lon="12.9178967"><ele>555.0</ele><time>2026-05-02T13:41:55.995Z</time></trkpt><trkpt lat="43.298755" lon="12.917945"><ele>555.0</ele><time>2026-05-02T13:41:56.995Z</time></trkpt><trkpt lat="43.2988417" lon="12.9179833"><ele>555.0</ele><time>2026-05-02T13:41:57.988Z</time></trkpt><trkpt lat="43.2989283" lon="12.9180233"><ele>555.0</ele><time>2026-05-02T13:41:58.993Z</time></trkpt><trkpt lat="43.2990217" lon="12.9180733"><ele>555.0</ele><time>2026-05-02T13:41:59.991Z</time></trkpt><trkpt lat="43.29911" lon="12.91812"><ele>555.0</ele><time>2026-05-02T13:42:00.993Z</time></trkpt><trkpt lat="43.299195" lon="12.9181733"><ele>550.1666666666666</ele><time>2026-05-02T13:42:01.993Z</time></trkpt><trkpt lat="43.2992717" lon="12.918225"><ele>545.3333333333334</ele><time>2026-05-02T13:42:02.989Z</time></trkpt><trkpt lat="43.2993467" lon="12.9182767"><ele>540.5</ele><time>2026-05-02T13:42:03.99Z</time></trkpt><trkpt lat="43.29942" lon="12.9183333"><ele>535.6666666666667</ele><time>2026-05-02T13:42:04.99Z</time></trkpt><trkpt lat="43.2994867" lon="12.9183833"><ele>530.8333333333334</ele><time>2026-05-02T13:42:05.993Z</time></trkpt><trkpt lat="43.29954" lon="12.9184317"><ele>526.0</ele><time>2026-05-02T13:42:06.989Z</time></trkpt><trkpt lat="43.299635" lon="12.918525"><ele>526.0</ele><time>2026-05-02T13:42:08.994Z</time></trkpt><trkpt lat="43.299725" lon="12.9186083"><ele>526.0</ele><time>2026-05-02T13:42:10.995Z</time></trkpt><trkpt lat="43.2998333" lon="12.9187017"><ele>526.0</ele><time>2026-05-02T13:42:12.993Z</time></trkpt><trkpt lat="43.299885" lon="12.918765"><ele>526.0</ele><time>2026-05-02T13:42:13.994Z</time></trkpt><trkpt lat="43.299935" lon="12.9188217"><ele>526.0</ele><time>2026-05-02T13:42:14.994Z</time></trkpt><trkpt lat="43.2999917" lon="12.918875"><ele>526.0</ele><time>2026-05-02T13:42:15.993Z</time></trkpt><trkpt lat="43.3000467" lon="12.9189383"><ele>522.3333333333334</ele><time>2026-05-02T13:42:16.992Z</time></trkpt><trkpt lat="43.3000833" lon="12.9190217"><ele>518.6666666666667</ele><time>2026-05-02T13:42:17.992Z</time></trkpt><trkpt lat="43.3001267" lon="12.9190983"><ele>515.0</ele><time>2026-05-02T13:42:18.992Z</time></trkpt><trkpt lat="43.300185" lon="12.91918"><ele>511.33333333333337</ele><time>2026-05-02T13:42:19.993Z</time></trkpt><trkpt lat="43.300245" lon="12.9192667"><ele>507.6666666666667</ele><time>2026-05-02T13:42:20.994Z</time></trkpt><trkpt lat="43.3003033" lon="12.91935"><ele>504.0</ele><time>2026-05-02T13:42:21.994Z</time></trkpt><trkpt lat="43.3003567" lon="12.9194283"><ele>502.2857142857143</ele><time>2026-05-02T13:42:22.993Z</time></trkpt><trkpt lat="43.30041" lon="12.9195067"><ele>500.57142857142856</ele><time>2026-05-02T13:42:23.993Z</time></trkpt><trkpt lat="43.3004583" lon="12.9195817"><ele>498.8571428571429</ele><time>2026-05-02T13:42:24.993Z</time></trkpt><trkpt lat="43.30051" lon="12.9196467"><ele>497.14285714285717</ele><time>2026-05-02T13:42:25.993Z</time></trkpt><trkpt lat="43.3005667" lon="12.91971"><ele>495.42857142857144</ele><time>2026-05-02T13:42:26.995Z</time></trkpt><trkpt lat="43.30062" lon="12.9197783"><ele>493.7142857142858</ele><time>2026-05-02T13:42:27.99Z</time></trkpt><trkpt lat="43.3006767" lon="12.9198367"><ele>492.00000000000006</ele><time>2026-05-02T13:42:28.993Z</time></trkpt><trkpt lat="43.3007567" lon="12.9199083"><ele>491.7142857142858</ele><time>2026-05-02T13:42:30.994Z</time></trkpt><trkpt lat="43.3008233" lon="12.919955"><ele>491.42857142857144</ele><time>2026-05-02T13:42:33.995Z</time></trkpt><trkpt lat="43.3008683" lon="12.9200217"><ele>491.14285714285717</ele><time>2026-05-02T13:42:35.994Z</time></trkpt><trkpt lat="43.30092" lon="12.9200733"><ele>490.8571428571429</ele><time>2026-05-02T13:42:36.992Z</time></trkpt><trkpt lat="43.3009833" lon="12.9201217"><ele>490.57142857142856</ele><time>2026-05-02T13:42:37.993Z</time></trkpt><trkpt lat="43.3010433" lon="12.920165"><ele>490.2857142857143</ele><time>2026-05-02T13:42:38.993Z</time></trkpt><trkpt lat="43.3011033" lon="12.9202017"><ele>490.0</ele><time>2026-05-02T13:42:39.993Z</time></trkpt><trkpt lat="43.3012067" lon="12.9202683"><ele>486.6666666666667</ele><time>2026-05-02T13:42:41.993Z</time></trkpt><trkpt lat="43.301275" lon="12.92033"><ele>483.33333333333337</ele><time>2026-05-02T13:42:43.993Z</time></trkpt><trkpt lat="43.3013033" lon="12.920435"><ele>480.0</ele><time>2026-05-02T13:42:45.993Z</time></trkpt><trkpt lat="43.3013167" lon="12.9205383"><ele>476.66666666666663</ele><time>2026-05-02T13:42:48.992Z</time></trkpt><trkpt lat="43.301225" lon="12.9205633"><ele>473.3333333333333</ele><time>2026-05-02T13:42:50.995Z</time></trkpt><trkpt lat="43.30114" lon="12.9205817"><ele>470.0</ele><time>2026-05-02T13:42:51.993Z</time></trkpt><trkpt lat="43.3010667" lon="12.9205967"><ele>469.99999999999994</ele><time>2026-05-02T13:42:52.993Z</time></trkpt><trkpt lat="43.3010033" lon="12.92061"><ele>470.0</ele><time>2026-05-02T13:42:53.992Z</time></trkpt><trkpt lat="43.300905" lon="12.9206083"><ele>470.0</ele><time>2026-05-02T13:42:55.994Z</time></trkpt><trkpt lat="43.3008233" lon="12.920595"><ele>470.0</ele><time>2026-05-02T13:42:57.994Z</time></trkpt><trkpt lat="43.300755" lon="12.9205767"><ele>469.99999999999994</ele><time>2026-05-02T13:42:59.993Z</time></trkpt><trkpt lat="43.3006683" lon="12.920505"><ele>470.0</ele><time>2026-05-02T13:43:02.995Z</time></trkpt><trkpt lat="43.3005667" lon="12.9203983"><ele>469.4</ele><time>2026-05-02T13:43:04.992Z</time></trkpt><trkpt lat="43.3004933" lon="12.9203267"><ele>468.8</ele><time>2026-05-02T13:43:05.993Z</time></trkpt><trkpt lat="43.300415" lon="12.9202467"><ele>468.20000000000005</ele><time>2026-05-02T13:43:06.994Z</time></trkpt><trkpt lat="43.3003367" lon="12.92016"><ele>467.6</ele><time>2026-05-02T13:43:07.994Z</time></trkpt><trkpt lat="43.3002767" lon="12.9200683"><ele>467.0</ele><time>2026-05-02T13:43:08.994Z</time></trkpt><trkpt lat="43.3002083" lon="12.919965"><ele>472.0</ele><time>2026-05-02T13:43:09.994Z</time></trkpt><trkpt lat="43.3001383" lon="12.91986"><ele>477.00000000000006</ele><time>2026-05-02T13:43:10.993Z</time></trkpt><trkpt lat="43.3000883" lon="12.919755"><ele>482.00000000000006</ele><time>2026-05-02T13:43:11.993Z</time></trkpt><trkpt lat="43.30002" lon="12.9196483"><ele>487.0</ele><time>2026-05-02T13:43:12.993Z</time></trkpt><trkpt lat="43.2999483" lon="12.9195583"><ele>492.0</ele><time>2026-05-02T13:43:13.994Z</time></trkpt><trkpt lat="43.2998817" lon="12.91949"><ele>492.0</ele><time>2026-05-02T13:43:14.994Z</time></trkpt><trkpt lat="43.29982" lon="12.9194317"><ele>492.0</ele><time>2026-05-02T13:43:15.994Z</time></trkpt><trkpt lat="43.299755" lon="12.9193683"><ele>492.0</ele><time>2026-05-02T13:43:16.993Z</time></trkpt><trkpt lat="43.2997" lon="12.9192933"><ele>492.0</ele><time>2026-05-02T13:43:17.992Z</time></trkpt><trkpt lat="43.299635" lon="12.91921"><ele>492.0</ele><time>2026-05-02T13:43:18.992Z</time></trkpt><trkpt lat="43.2995967" lon="12.9191183"><ele>492.0</ele><time>2026-05-02T13:43:19.994Z</time></trkpt><trkpt lat="43.2995467" lon="12.919035"><ele>498.8</ele><time>2026-05-02T13:43:20.994Z</time></trkpt><trkpt lat="43.299485" lon="12.9189633"><ele>505.6</ele><time>2026-05-02T13:43:21.992Z</time></trkpt><trkpt lat="43.299445" lon="12.9188917"><ele>512.4000000000001</ele><time>2026-05-02T13:43:22.993Z</time></trkpt><trkpt lat="43.2993717" lon="12.9187967"><ele>519.2</ele><time>2026-05-02T13:43:24.994Z</time></trkpt><trkpt lat="43.2992783" lon="12.9187133"><ele>526.0</ele><time>2026-05-02T13:43:26.995Z</time></trkpt><trkpt lat="43.2991833" lon="12.9186683"><ele>526.0</ele><time>2026-05-02T13:43:28.992Z</time></trkpt><trkpt lat="43.2990667" lon="12.9186483"><ele>526.0</ele><time>2026-05-02T13:43:30.994Z</time></trkpt><trkpt lat="43.298995" lon="12.9186233"><ele>526.0</ele><time>2026-05-02T13:43:31.993Z</time></trkpt><trkpt lat="43.2989133" lon="12.9185783"><ele>526.0</ele><time>2026-05-02T13:43:32.994Z</time></trkpt><trkpt lat="43.2988433" lon="12.9185217"><ele>526.0</ele><time>2026-05-02T13:43:33.993Z</time></trkpt><trkpt lat="43.2987967" lon="12.91845"><ele>526.0</ele><time>2026-05-02T13:43:34.994Z</time></trkpt><trkpt lat="43.2987167" lon="12.918345"><ele>529.8333333333334</ele><time>2026-05-02T13:43:36.994Z</time></trkpt><trkpt lat="43.2986117" lon="12.9183017"><ele>533.6666666666667</ele><time>2026-05-02T13:43:38.995Z</time></trkpt><trkpt lat="43.2985467" lon="12.91834"><ele>537.5</ele><time>2026-05-02T13:43:39.993Z</time></trkpt><trkpt lat="43.2984733" lon="12.918385"><ele>541.3333333333334</ele><time>2026-05-02T13:43:40.995Z</time></trkpt><trkpt lat="43.2983933" lon="12.9184317"><ele>545.1666666666666</ele><time>2026-05-02T13:43:41.994Z</time></trkpt><trkpt lat="43.29831" lon="12.9184917"><ele>549.0</ele><time>2026-05-02T13:43:42.994Z</time></trkpt><trkpt lat="43.2982333" lon="12.9185683"><ele>549.0</ele><time>2026-05-02T13:43:43.995Z</time></trkpt><trkpt lat="43.2981533" lon="12.918655"><ele>549.0</ele><time>2026-05-02T13:43:44.996Z</time></trkpt><trkpt lat="43.2980867" lon="12.9187267"><ele>549.0</ele><time>2026-05-02T13:43:45.991Z</time></trkpt><trkpt lat="43.2980183" lon="12.918795"><ele>549.0</ele><time>2026-05-02T13:43:46.995Z</time></trkpt><trkpt lat="43.297915" lon="12.9187667"><ele>549.0</ele><time>2026-05-02T13:43:48.995Z</time></trkpt><trkpt lat="43.2979233" lon="12.9185933"><ele>557.0</ele><time>2026-05-02T13:43:50.994Z</time></trkpt><trkpt lat="43.2978917" lon="12.9184783"><ele>565.0</ele><time>2026-05-02T13:43:51.994Z</time></trkpt><trkpt lat="43.29786" lon="12.9183533"><ele>573.0</ele><time>2026-05-02T13:43:52.994Z</time></trkpt><trkpt lat="43.2978083" lon="12.9182317"><ele>581.0</ele><time>2026-05-02T13:43:53.993Z</time></trkpt><trkpt lat="43.297705" lon="12.9180917"><ele>589.0</ele><time>2026-05-02T13:43:54.992Z</time></trkpt><trkpt lat="43.2976133" lon="12.917965"><ele>589.4</ele><time>2026-05-02T13:43:55.994Z</time></trkpt><trkpt lat="43.2975233" lon="12.917855"><ele>589.8</ele><time>2026-05-02T13:43:56.995Z</time></trkpt><trkpt lat="43.29744" lon="12.91776"><ele>590.2</ele><time>2026-05-02T13:43:57.989Z</time></trkpt><trkpt lat="43.2973733" lon="12.91768"><ele>590.6</ele><time>2026-05-02T13:43:58.994Z</time></trkpt><trkpt lat="43.2972967" lon="12.9176033"><ele>591.0</ele><time>2026-05-02T13:43:59.992Z</time></trkpt><trkpt lat="43.2972317" lon="12.91755"><ele>595.8333333333334</ele><time>2026-05-02T13:44:00.993Z</time></trkpt><trkpt lat="43.29717" lon="12.91751"><ele>600.6666666666666</ele><time>2026-05-02T13:44:01.993Z</time></trkpt><trkpt lat="43.2970733" lon="12.91746"><ele>605.5</ele><time>2026-05-02T13:44:03.993Z</time></trkpt><trkpt lat="43.29703" lon="12.91756"><ele>610.3333333333333</ele><time>2026-05-02T13:44:06.993Z</time></trkpt><trkpt lat="43.2969683" lon="12.9176333"><ele>615.1666666666666</ele><time>2026-05-02T13:44:08.993Z</time></trkpt><trkpt lat="43.2968767" lon="12.9176067"><ele>620.0</ele><time>2026-05-02T13:44:10.994Z</time></trkpt><trkpt lat="43.2967983" lon="12.9175217"><ele>620.0</ele><time>2026-05-02T13:44:12.994Z</time></trkpt><trkpt lat="43.2967467" lon="12.9174617"><ele>620.0</ele><time>2026-05-02T13:44:13.994Z</time></trkpt><trkpt lat="43.2966817" lon="12.9173967"><ele>620.0</ele><time>2026-05-02T13:44:14.994Z</time></trkpt><trkpt lat="43.2965917" lon="12.91732"><ele>620.0</ele><time>2026-05-02T13:44:15.993Z</time></trkpt><trkpt lat="43.2964833" lon="12.9172283"><ele>620.0</ele><time>2026-05-02T13:44:16.992Z</time></trkpt><trkpt lat="43.2963817" lon="12.91715"><ele>628.0</ele><time>2026-05-02T13:44:17.992Z</time></trkpt><trkpt lat="43.2962867" lon="12.9170683"><ele>636.0</ele><time>2026-05-02T13:44:18.993Z</time></trkpt><trkpt lat="43.2961983" lon="12.9169867"><ele>644.0</ele><time>2026-05-02T13:44:19.992Z</time></trkpt><trkpt lat="43.2961033" lon="12.916895"><ele>652.0</ele><time>2026-05-02T13:44:20.994Z</time></trkpt><trkpt lat="43.2960083" lon="12.9167983"><ele>651.2</ele><time>2026-05-02T13:44:21.993Z</time></trkpt><trkpt lat="43.2959233" lon="12.916705"><ele>650.4000000000001</ele><time>2026-05-02T13:44:22.993Z</time></trkpt><trkpt lat="43.29585" lon="12.9166133"><ele>649.5999999999999</ele><time>2026-05-02T13:44:23.995Z</time></trkpt><trkpt lat="43.29574" lon="12.916525"><ele>648.8</ele><time>2026-05-02T13:44:24.994Z</time></trkpt><trkpt lat="43.2956533" lon="12.9164383"><ele>648.0</ele><time>2026-05-02T13:44:25.993Z</time></trkpt><trkpt lat="43.295615" lon="12.916345"><ele>653.4</ele><time>2026-05-02T13:44:26.995Z</time></trkpt><trkpt lat="43.2955381" lon="12.9162318"><ele>658.8</ele><time>2026-05-02T13:44:27.993Z</time></trkpt><trkpt lat="43.2954963" lon="12.9161001"><ele>664.2</ele><time>2026-05-02T13:44:28.994Z</time></trkpt><trkpt lat="43.2954489" lon="12.9159608"><ele>669.6</ele><time>2026-05-02T13:44:29.994Z</time></trkpt><trkpt lat="43.295396" lon="12.9158234"><ele>675.0</ele><time>2026-05-02T13:44:30.995Z</time></trkpt><trkpt lat="43.2953361" lon="12.9156821"><ele>675.0</ele><time>2026-05-02T13:44:31.994Z</time></trkpt><trkpt lat="43.2952737" lon="12.9155471"><ele>675.0</ele><time>2026-05-02T13:44:32.994Z</time></trkpt><trkpt lat="43.295221" lon="12.9154288"><ele>675.0</ele><time>2026-05-02T13:44:33.992Z</time></trkpt><trkpt lat="43.2951765" lon="12.9153135"><ele>675.0</ele><time>2026-05-02T13:44:34.991Z</time></trkpt><trkpt lat="43.2951234" lon="12.9151933"><ele>675.0</ele><time>2026-05-02T13:44:35.994Z</time></trkpt><trkpt lat="43.2950583" lon="12.9150653"><ele>672.5</ele><time>2026-05-02T13:44:36.993Z</time></trkpt><trkpt lat="43.2949808" lon="12.9149235"><ele>670.0</ele><time>2026-05-02T13:44:37.994Z</time></trkpt><trkpt lat="43.2948914" lon="12.9147673"><ele>667.5</ele><time>2026-05-02T13:44:38.993Z</time></trkpt><trkpt lat="43.294797" lon="12.9146017"><ele>665.0</ele><time>2026-05-02T13:44:39.992Z</time></trkpt><trkpt lat="43.2947122" lon="12.9144397"><ele>671.75</ele><time>2026-05-02T13:44:40.991Z</time></trkpt><trkpt lat="43.2946377" lon="12.9142877"><ele>678.5</ele><time>2026-05-02T13:44:41.993Z</time></trkpt><trkpt lat="43.2945612" lon="12.9141418"><ele>685.25</ele><time>2026-05-02T13:44:42.993Z</time></trkpt><trkpt lat="43.2944816" lon="12.9140046"><ele>692.0</ele><time>2026-05-02T13:44:43.993Z</time></trkpt><trkpt lat="43.294411" lon="12.9138846"><ele>692.0</ele><time>2026-05-02T13:44:44.993Z</time></trkpt><trkpt lat="43.2943413" lon="12.9137762"><ele>692.0</ele><time>2026-05-02T13:44:45.993Z</time></trkpt><trkpt lat="43.2942716" lon="12.9136555"><ele>692.0</ele><time>2026-05-02T13:44:46.993Z</time></trkpt><trkpt lat="43.2942005" lon="12.913515"><ele>692.0</ele><time>2026-05-02T13:44:47.993Z</time></trkpt><trkpt lat="43.2941233" lon="12.9133648"><ele>690.0</ele><time>2026-05-02T13:44:48.994Z</time></trkpt><trkpt lat="43.2940372" lon="12.9132175"><ele>688.0</ele><time>2026-05-02T13:44:49.993Z</time></trkpt><trkpt lat="43.2939532" lon="12.9130793"><ele>686.0</ele><time>2026-05-02T13:44:50.993Z</time></trkpt><trkpt lat="43.2938587" lon="12.9129437"><ele>684.0</ele><time>2026-05-02T13:44:51.992Z</time></trkpt><trkpt lat="43.2937501" lon="12.9128124"><ele>689.5</ele><time>2026-05-02T13:44:52.994Z</time></trkpt><trkpt lat="43.2936422" lon="12.9126926"><ele>695.0</ele><time>2026-05-02T13:44:53.992Z</time></trkpt><trkpt lat="43.2935534" lon="12.9125787"><ele>700.5</ele><time>2026-05-02T13:44:54.993Z</time></trkpt><trkpt lat="43.2934759" lon="12.9124445"><ele>706.0</ele><time>2026-05-02T13:44:55.993Z</time></trkpt><trkpt lat="43.2934019" lon="12.9122826"><ele>706.0</ele><time>2026-05-02T13:44:56.993Z</time></trkpt><trkpt lat="43.2933256" lon="12.9121193"><ele>706.0</ele><time>2026-05-02T13:44:57.988Z</time></trkpt><trkpt lat="43.2932466" lon="12.9119676"><ele>706.0</ele><time>2026-05-02T13:44:58.993Z</time></trkpt><trkpt lat="43.2931538" lon="12.9118248"><ele>706.0</ele><time>2026-05-02T13:44:59.994Z</time></trkpt><trkpt lat="43.2930494" lon="12.9116924"><ele>710.75</ele><time>2026-05-02T13:45:00.994Z</time></trkpt><trkpt lat="43.2929395" lon="12.9115658"><ele>715.5</ele><time>2026-05-02T13:45:01.993Z</time></trkpt><trkpt lat="43.2928274" lon="12.9114418"><ele>720.25</ele><time>2026-05-02T13:45:02.994Z</time></trkpt><trkpt lat="43.2927091" lon="12.9113194"><ele>725.0</ele><time>2026-05-02T13:45:03.993Z</time></trkpt><trkpt lat="43.2925884" lon="12.9112022"><ele>725.0</ele><time>2026-05-02T13:45:04.993Z</time></trkpt><trkpt lat="43.2924663" lon="12.9110925"><ele>725.0</ele><time>2026-05-02T13:45:05.994Z</time></trkpt><trkpt lat="43.2923453" lon="12.9109822"><ele>725.0</ele><time>2026-05-02T13:45:06.993Z</time></trkpt><trkpt lat="43.2922375" lon="12.9108763"><ele>725.0</ele><time>2026-05-02T13:45:07.993Z</time></trkpt><trkpt lat="43.2921345" lon="12.9107832"><ele>728.0</ele><time>2026-05-02T13:45:08.994Z</time></trkpt><trkpt lat="43.2920348" lon="12.9107039"><ele>731.0</ele><time>2026-05-02T13:45:09.993Z</time></trkpt><trkpt lat="43.2919275" lon="12.9106337"><ele>734.0</ele><time>2026-05-02T13:45:10.993Z</time></trkpt><trkpt lat="43.2918155" lon="12.9105625"><ele>737.0</ele><time>2026-05-02T13:45:11.994Z</time></trkpt><trkpt lat="43.2917047" lon="12.9104963"><ele>737.0</ele><time>2026-05-02T13:45:12.993Z</time></trkpt><trkpt lat="43.2916025" lon="12.9104432"><ele>737.0</ele><time>2026-05-02T13:45:13.994Z</time></trkpt><trkpt lat="43.2915036" lon="12.9104077"><ele>737.0</ele><time>2026-05-02T13:45:14.994Z</time></trkpt><trkpt lat="43.291399" lon="12.9103783"><ele>737.0</ele><time>2026-05-02T13:45:15.994Z</time></trkpt><trkpt lat="43.2912874" lon="12.9103323"><ele>737.0</ele><time>2026-05-02T13:45:16.993Z</time></trkpt><trkpt lat="43.291185" lon="12.9102819"><ele>739.1666666666666</ele><time>2026-05-02T13:45:17.994Z</time></trkpt><trkpt lat="43.2910979" lon="12.9102408"><ele>741.3333333333333</ele><time>2026-05-02T13:45:18.995Z</time></trkpt><trkpt lat="43.2910205" lon="12.9102146"><ele>743.5</ele><time>2026-05-02T13:45:19.994Z</time></trkpt><trkpt lat="43.2909449" lon="12.910181"><ele>745.6666666666666</ele><time>2026-05-02T13:45:20.995Z</time></trkpt><trkpt lat="43.2908734" lon="12.9101313"><ele>747.8333333333334</ele><time>2026-05-02T13:45:21.994Z</time></trkpt><trkpt lat="43.2907867" lon="12.9100788"><ele>750.0</ele><time>2026-05-02T13:45:22.994Z</time></trkpt><trkpt lat="43.2907036" lon="12.9100283"><ele>750.0</ele><time>2026-05-02T13:45:23.994Z</time></trkpt><trkpt lat="43.2906261" lon="12.909982"><ele>750.0</ele><time>2026-05-02T13:45:24.995Z</time></trkpt><trkpt lat="43.2905585" lon="12.9099399"><ele>750.0</ele><time>2026-05-02T13:45:25.989Z</time></trkpt><trkpt lat="43.2904921" lon="12.9099184"><ele>750.0</ele><time>2026-05-02T13:45:26.994Z</time></trkpt><trkpt lat="43.2903828" lon="12.9099133"><ele>750.0</ele><time>2026-05-02T13:45:28.993Z</time></trkpt><trkpt lat="43.2902676" lon="12.9099563"><ele>753.0</ele><time>2026-05-02T13:45:30.993Z</time></trkpt><trkpt lat="43.2901808" lon="12.9100248"><ele>756.0</ele><time>2026-05-02T13:45:32.995Z</time></trkpt><trkpt lat="43.2901101" lon="12.9100679"><ele>759.0</ele><time>2026-05-02T13:45:34.994Z</time></trkpt><trkpt lat="43.2900073" lon="12.910036"><ele>762.0</ele><time>2026-05-02T13:45:36.994Z</time></trkpt><trkpt lat="43.2899571" lon="12.9099095"><ele>765.0</ele><time>2026-05-02T13:45:38.992Z</time></trkpt><trkpt lat="43.2899242" lon="12.9098279"><ele>765.0</ele><time>2026-05-02T13:45:39.994Z</time></trkpt><trkpt lat="43.2898966" lon="12.9097464"><ele>765.0</ele><time>2026-05-02T13:45:40.994Z</time></trkpt><trkpt lat="43.2898419" lon="12.909601"><ele>765.0</ele><time>2026-05-02T13:45:42.993Z</time></trkpt><trkpt lat="43.2898132" lon="12.9095232"><ele>765.0</ele><time>2026-05-02T13:45:43.992Z</time></trkpt><trkpt lat="43.2897872" lon="12.9094396"><ele>765.0</ele><time>2026-05-02T13:45:44.994Z</time></trkpt><trkpt lat="43.2897633" lon="12.9093513"><ele>765.0</ele><time>2026-05-02T13:45:45.994Z</time></trkpt><trkpt lat="43.2897245" lon="12.9092593"><ele>765.8571428571429</ele><time>2026-05-02T13:45:46.993Z</time></trkpt><trkpt lat="43.2896883" lon="12.9091666"><ele>766.7142857142858</ele><time>2026-05-02T13:45:47.993Z</time></trkpt><trkpt lat="43.2896517" lon="12.909086"><ele>767.5714285714287</ele><time>2026-05-02T13:45:48.994Z</time></trkpt><trkpt lat="43.2896149" lon="12.9090106"><ele>768.4285714285714</ele><time>2026-05-02T13:45:49.994Z</time></trkpt><trkpt lat="43.2895833" lon="12.9089348"><ele>769.2857142857142</ele><time>2026-05-02T13:45:50.994Z</time></trkpt><trkpt lat="43.2895494" lon="12.9088611"><ele>770.1428571428572</ele><time>2026-05-02T13:45:51.994Z</time></trkpt><trkpt lat="43.2895013" lon="12.9088035"><ele>771.0</ele><time>2026-05-02T13:45:52.994Z</time></trkpt><trkpt lat="43.2894056" lon="12.9087485"><ele>771.0</ele><time>2026-05-02T13:45:53.992Z</time></trkpt><trkpt lat="43.2893284" lon="12.9087088"><ele>771.0</ele><time>2026-05-02T13:45:54.994Z</time></trkpt><trkpt lat="43.2892605" lon="12.9086994"><ele>771.0</ele><time>2026-05-02T13:45:55.993Z</time></trkpt><trkpt lat="43.2892054" lon="12.9087471"><ele>771.0</ele><time>2026-05-02T13:45:56.992Z</time></trkpt><trkpt lat="43.2891234" lon="12.9088483"><ele>771.0</ele><time>2026-05-02T13:45:58.993Z</time></trkpt><trkpt lat="43.2890417" lon="12.9088667"><ele>771.0</ele><time>2026-05-02T13:46:00.993Z</time></trkpt><trkpt lat="43.2889882" lon="12.9087966"><ele>771.0</ele><time>2026-05-02T13:46:01.993Z</time></trkpt><trkpt lat="43.2889274" lon="12.9086806"><ele>771.0</ele><time>2026-05-02T13:46:02.994Z</time></trkpt><trkpt lat="43.2888681" lon="12.9085633"><ele>771.0</ele><time>2026-05-02T13:46:03.993Z</time></trkpt><trkpt lat="43.2888196" lon="12.908458"><ele>771.0</ele><time>2026-05-02T13:46:04.995Z</time></trkpt><trkpt lat="43.2887858" lon="12.9083653"><ele>771.0</ele><time>2026-05-02T13:46:05.992Z</time></trkpt><trkpt lat="43.2887571" lon="12.9082759"><ele>771.0</ele><time>2026-05-02T13:46:06.993Z</time></trkpt><trkpt lat="43.2887305" lon="12.9081941"><ele>771.0</ele><time>2026-05-02T13:46:07.993Z</time></trkpt><trkpt lat="43.2886871" lon="12.9081109"><ele>771.0</ele><time>2026-05-02T13:46:08.995Z</time></trkpt><trkpt lat="43.2886296" lon="12.9080288"><ele>771.0</ele><time>2026-05-02T13:46:09.992Z</time></trkpt><trkpt lat="43.2885644" lon="12.9079512"><ele>771.0</ele><time>2026-05-02T13:46:10.993Z</time></trkpt><trkpt lat="43.2885028" lon="12.9078871"><ele>771.0</ele><time>2026-05-02T13:46:11.994Z</time></trkpt><trkpt lat="43.2884286" lon="12.9078282"><ele>771.0</ele><time>2026-05-02T13:46:13.993Z</time></trkpt><trkpt lat="43.28837" lon="12.9077767"><ele>771.0</ele><time>2026-05-02T13:55:40.995Z</time></trkpt><trkpt lat="43.28832" lon="12.9076467"><ele>771.0</ele><time>2026-05-02T13:55:42.992Z</time></trkpt><trkpt lat="43.2882667" lon="12.9075383"><ele>771.0</ele><time>2026-05-02T13:55:44.994Z</time></trkpt><trkpt lat="43.2882317" lon="12.9074017"><ele>771.0</ele><time>2026-05-02T13:55:46.993Z</time></trkpt><trkpt lat="43.2881417" lon="12.907265"><ele>771.0</ele><time>2026-05-02T13:55:48.993Z</time></trkpt><trkpt lat="43.28806" lon="12.9072083"><ele>771.0</ele><time>2026-05-02T13:55:49.993Z</time></trkpt><trkpt lat="43.2879767" lon="12.90717"><ele>771.0</ele><time>2026-05-02T13:55:50.993Z</time></trkpt><trkpt lat="43.2879117" lon="12.907155"><ele>771.0</ele><time>2026-05-02T13:55:51.994Z</time></trkpt><trkpt lat="43.287935" lon="12.9072517"><ele>771.0</ele><time>2026-05-02T13:56:09.994Z</time></trkpt><trkpt lat="43.2879883" lon="12.9074167"><ele>771.0</ele><time>2026-05-02T13:56:11.995Z</time></trkpt><trkpt lat="43.2879983" lon="12.9075283"><ele>771.0</ele><time>2026-05-02T13:56:12.995Z</time></trkpt><trkpt lat="43.2879917" lon="12.9076483"><ele>768.6666666666666</ele><time>2026-05-02T13:56:13.994Z</time></trkpt><trkpt lat="43.2879783" lon="12.90777"><ele>766.3333333333334</ele><time>2026-05-02T13:56:14.994Z</time></trkpt><trkpt lat="43.2879683" lon="12.9078933"><ele>764.0</ele><time>2026-05-02T13:56:15.995Z</time></trkpt><trkpt lat="43.287965" lon="12.9080083"><ele>761.6666666666667</ele><time>2026-05-02T13:56:16.993Z</time></trkpt><trkpt lat="43.2879617" lon="12.908105"><ele>759.3333333333334</ele><time>2026-05-02T13:56:17.994Z</time></trkpt><trkpt lat="43.2879567" lon="12.908225"><ele>757.0</ele><time>2026-05-02T13:56:19.994Z</time></trkpt><trkpt lat="43.287955" lon="12.90832"><ele>751.3333333333334</ele><time>2026-05-02T13:56:22.994Z</time></trkpt><trkpt lat="43.2879567" lon="12.9084183"><ele>745.6666666666667</ele><time>2026-05-02T13:56:27.993Z</time></trkpt><trkpt lat="43.2879617" lon="12.9085533"><ele>740.0</ele><time>2026-05-02T13:56:29.994Z</time></trkpt><trkpt lat="43.287975" lon="12.9086533"><ele>734.3333333333334</ele><time>2026-05-02T13:56:30.995Z</time></trkpt><trkpt lat="43.2880017" lon="12.9087683"><ele>728.6666666666666</ele><time>2026-05-02T13:56:31.993Z</time></trkpt><trkpt lat="43.288035" lon="12.9088767"><ele>723.0</ele><time>2026-05-02T13:56:32.994Z</time></trkpt><trkpt lat="43.2880767" lon="12.9089683"><ele>723.4</ele><time>2026-05-02T13:56:33.993Z</time></trkpt><trkpt lat="43.288125" lon="12.9090567"><ele>723.8</ele><time>2026-05-02T13:56:34.992Z</time></trkpt><trkpt lat="43.28818" lon="12.9091617"><ele>724.2</ele><time>2026-05-02T13:56:35.994Z</time></trkpt><trkpt lat="43.28824" lon="12.909275"><ele>724.6</ele><time>2026-05-02T13:56:36.992Z</time></trkpt><trkpt lat="43.2883033" lon="12.909385"><ele>725.0</ele><time>2026-05-02T13:56:37.992Z</time></trkpt><trkpt lat="43.28837" lon="12.9094917"><ele>725.0</ele><time>2026-05-02T13:56:38.994Z</time></trkpt><trkpt lat="43.2884333" lon="12.909595"><ele>725.0</ele><time>2026-05-02T13:56:39.993Z</time></trkpt><trkpt lat="43.2884883" lon="12.909685"><ele>725.0</ele><time>2026-05-02T13:56:40.992Z</time></trkpt><trkpt lat="43.2885367" lon="12.9097733"><ele>725.0</ele><time>2026-05-02T13:56:41.994Z</time></trkpt><trkpt lat="43.2885733" lon="12.9098783"><ele>725.0</ele><time>2026-05-02T13:56:42.993Z</time></trkpt><trkpt lat="43.288615" lon="12.9099717"><ele>725.0</ele><time>2026-05-02T13:56:43.993Z</time></trkpt><trkpt lat="43.28866" lon="12.910055"><ele>724.8</ele><time>2026-05-02T13:56:44.994Z</time></trkpt><trkpt lat="43.2887" lon="12.9101317"><ele>724.6</ele><time>2026-05-02T13:56:45.993Z</time></trkpt><trkpt lat="43.2887467" lon="12.91028"><ele>724.4000000000001</ele><time>2026-05-02T13:56:47.994Z</time></trkpt><trkpt lat="43.2888283" lon="12.9104383"><ele>724.2</ele><time>2026-05-02T13:56:49.994Z</time></trkpt><trkpt lat="43.2888783" lon="12.9105333"><ele>724.0</ele><time>2026-05-02T13:56:50.994Z</time></trkpt><trkpt lat="43.2889317" lon="12.9106267"><ele>724.0</ele><time>2026-05-02T13:56:51.993Z</time></trkpt><trkpt lat="43.2889883" lon="12.9107083"><ele>724.0</ele><time>2026-05-02T13:56:52.992Z</time></trkpt><trkpt lat="43.2890617" lon="12.9107817"><ele>724.0</ele><time>2026-05-02T13:56:53.993Z</time></trkpt><trkpt lat="43.2891367" lon="12.91085"><ele>724.0</ele><time>2026-05-02T13:56:54.994Z</time></trkpt><trkpt lat="43.2892083" lon="12.910935"><ele>724.0</ele><time>2026-05-02T13:56:55.992Z</time></trkpt><trkpt lat="43.2892767" lon="12.91103"><ele>719.0</ele><time>2026-05-02T13:56:56.993Z</time></trkpt><trkpt lat="43.28935" lon="12.9111183"><ele>714.0</ele><time>2026-05-02T13:56:57.994Z</time></trkpt><trkpt lat="43.289415" lon="12.9112083"><ele>709.0</ele><time>2026-05-02T13:56:58.993Z</time></trkpt><trkpt lat="43.289485" lon="12.9112883"><ele>704.0</ele><time>2026-05-02T13:56:59.989Z</time></trkpt><trkpt lat="43.289545" lon="12.91138"><ele>699.0</ele><time>2026-05-02T13:57:00.993Z</time></trkpt><trkpt lat="43.2896033" lon="12.9114767"><ele>699.0</ele><time>2026-05-02T13:57:01.993Z</time></trkpt><trkpt lat="43.2896583" lon="12.9115633"><ele>699.0</ele><time>2026-05-02T13:57:02.993Z</time></trkpt><trkpt lat="43.2897167" lon="12.9116533"><ele>699.0</ele><time>2026-05-02T13:57:03.992Z</time></trkpt><trkpt lat="43.2897733" lon="12.9117517"><ele>699.0</ele><time>2026-05-02T13:57:04.994Z</time></trkpt><trkpt lat="43.2898383" lon="12.9118567"><ele>699.0</ele><time>2026-05-02T13:57:05.994Z</time></trkpt><trkpt lat="43.2898983" lon="12.9119717"><ele>697.6666666666666</ele><time>2026-05-02T13:57:06.993Z</time></trkpt><trkpt lat="43.2899533" lon="12.912075"><ele>696.3333333333334</ele><time>2026-05-02T13:57:07.993Z</time></trkpt><trkpt lat="43.2899983" lon="12.9121967"><ele>695.0</ele><time>2026-05-02T13:57:08.995Z</time></trkpt><trkpt lat="43.2900467" lon="12.912285"><ele>693.6666666666667</ele><time>2026-05-02T13:57:09.993Z</time></trkpt><trkpt lat="43.2901017" lon="12.9123617"><ele>692.3333333333334</ele><time>2026-05-02T13:57:10.994Z</time></trkpt><trkpt lat="43.290155" lon="12.9124567"><ele>691.0</ele><time>2026-05-02T13:57:11.993Z</time></trkpt><trkpt lat="43.2902133" lon="12.9125467"><ele>685.0</ele><time>2026-05-02T13:57:12.994Z</time></trkpt><trkpt lat="43.290265" lon="12.9126733"><ele>679.0</ele><time>2026-05-02T13:57:13.994Z</time></trkpt><trkpt lat="43.29032" lon="12.9127933"><ele>673.0</ele><time>2026-05-02T13:57:14.994Z</time></trkpt><trkpt lat="43.2903783" lon="12.9129133"><ele>667.0</ele><time>2026-05-02T13:57:15.993Z</time></trkpt><trkpt lat="43.2904317" lon="12.91303"><ele>661.0</ele><time>2026-05-02T13:57:16.994Z</time></trkpt><trkpt lat="43.29049" lon="12.9131567"><ele>661.0</ele><time>2026-05-02T13:57:17.992Z</time></trkpt><trkpt lat="43.2905567" lon="12.9132717"><ele>661.0</ele><time>2026-05-02T13:57:18.993Z</time></trkpt><trkpt lat="43.2906083" lon="12.91341"><ele>661.0</ele><time>2026-05-02T13:57:19.992Z</time></trkpt><trkpt lat="43.2906533" lon="12.91357"><ele>661.0</ele><time>2026-05-02T13:57:20.994Z</time></trkpt><trkpt lat="43.290695" lon="12.9137333"><ele>659.5</ele><time>2026-05-02T13:57:21.994Z</time></trkpt><trkpt lat="43.290725" lon="12.9138983"><ele>658.0</ele><time>2026-05-02T13:57:22.993Z</time></trkpt><trkpt lat="43.2907517" lon="12.9140733"><ele>656.5</ele><time>2026-05-02T13:57:23.992Z</time></trkpt><trkpt lat="43.2907817" lon="12.9142517"><ele>655.0</ele><time>2026-05-02T13:57:24.992Z</time></trkpt><trkpt lat="43.2908133" lon="12.914425"><ele>655.0</ele><time>2026-05-02T13:57:25.992Z</time></trkpt><trkpt lat="43.2908417" lon="12.9146067"><ele>655.0</ele><time>2026-05-02T13:57:26.995Z</time></trkpt><trkpt lat="43.2908733" lon="12.9147767"><ele>655.0</ele><time>2026-05-02T13:57:27.993Z</time></trkpt><trkpt lat="43.2908967" lon="12.9149317"><ele>655.0</ele><time>2026-05-02T13:57:28.993Z</time></trkpt><trkpt lat="43.2909183" lon="12.91508"><ele>651.2</ele><time>2026-05-02T13:57:29.994Z</time></trkpt><trkpt lat="43.290945" lon="12.9152183"><ele>647.4</ele><time>2026-05-02T13:57:30.995Z</time></trkpt><trkpt lat="43.2909867" lon="12.9153483"><ele>643.6</ele><time>2026-05-02T13:57:31.993Z</time></trkpt><trkpt lat="43.2910383" lon="12.9154833"><ele>639.8</ele><time>2026-05-02T13:57:32.994Z</time></trkpt><trkpt lat="43.2910867" lon="12.9156133"><ele>636.0</ele><time>2026-05-02T13:57:33.992Z</time></trkpt><trkpt lat="43.29113" lon="12.9157367"><ele>636.0</ele><time>2026-05-02T13:57:34.992Z</time></trkpt><trkpt lat="43.2911717" lon="12.9158583"><ele>636.0</ele><time>2026-05-02T13:57:35.993Z</time></trkpt><trkpt lat="43.2912217" lon="12.91599"><ele>636.0</ele><time>2026-05-02T13:57:36.993Z</time></trkpt><trkpt lat="43.2912817" lon="12.9161317"><ele>636.0</ele><time>2026-05-02T13:57:37.994Z</time></trkpt><trkpt lat="43.291355" lon="12.9162817"><ele>637.75</ele><time>2026-05-02T13:57:38.995Z</time></trkpt><trkpt lat="43.2914367" lon="12.91643"><ele>639.5</ele><time>2026-05-02T13:57:39.992Z</time></trkpt><trkpt lat="43.2915133" lon="12.9165683"><ele>641.25</ele><time>2026-05-02T13:57:40.993Z</time></trkpt><trkpt lat="43.29159" lon="12.9167133"><ele>643.0</ele><time>2026-05-02T13:57:41.992Z</time></trkpt><trkpt lat="43.29167" lon="12.9168667"><ele>637.0</ele><time>2026-05-02T13:57:42.992Z</time></trkpt><trkpt lat="43.2917483" lon="12.9170233"><ele>631.0</ele><time>2026-05-02T13:57:43.99Z</time></trkpt><trkpt lat="43.29182" lon="12.9171733"><ele>625.0</ele><time>2026-05-02T13:57:44.996Z</time></trkpt><trkpt lat="43.291885" lon="12.917305"><ele>619.0</ele><time>2026-05-02T13:57:45.993Z</time></trkpt><trkpt lat="43.2919517" lon="12.91741"><ele>619.0</ele><time>2026-05-02T13:57:46.994Z</time></trkpt><trkpt lat="43.2920283" lon="12.9175"><ele>619.0</ele><time>2026-05-02T13:57:47.994Z</time></trkpt><trkpt lat="43.292105" lon="12.9176083"><ele>619.0</ele><time>2026-05-02T13:57:48.993Z</time></trkpt><trkpt lat="43.2921833" lon="12.91774"><ele>619.0</ele><time>2026-05-02T13:57:49.992Z</time></trkpt><trkpt lat="43.2922483" lon="12.9178933"><ele>620.0</ele><time>2026-05-02T13:57:50.994Z</time></trkpt><trkpt lat="43.2923017" lon="12.91805"><ele>621.0</ele><time>2026-05-02T13:57:51.993Z</time></trkpt><trkpt lat="43.2923517" lon="12.9181983"><ele>622.0</ele><time>2026-05-02T13:57:52.994Z</time></trkpt><trkpt lat="43.2923983" lon="12.918335"><ele>623.0</ele><time>2026-05-02T13:57:53.994Z</time></trkpt><trkpt lat="43.292435" lon="12.9184783"><ele>618.6</ele><time>2026-05-02T13:57:54.993Z</time></trkpt><trkpt lat="43.2924683" lon="12.9186167"><ele>614.1999999999999</ele><time>2026-05-02T13:57:55.994Z</time></trkpt><trkpt lat="43.2924983" lon="12.918745"><ele>609.8</ele><time>2026-05-02T13:57:56.995Z</time></trkpt><trkpt lat="43.2925417" lon="12.9188617"><ele>605.4</ele><time>2026-05-02T13:57:57.992Z</time></trkpt><trkpt lat="43.29259" lon="12.918975"><ele>601.0</ele><time>2026-05-02T13:57:58.993Z</time></trkpt><trkpt lat="43.2926267" lon="12.9190967"><ele>597.0</ele><time>2026-05-02T13:57:59.992Z</time></trkpt><trkpt lat="43.2926567" lon="12.9192467"><ele>593.0</ele><time>2026-05-02T13:58:00.993Z</time></trkpt><trkpt lat="43.292685" lon="12.9194167"><ele>589.0</ele><time>2026-05-02T13:58:01.993Z</time></trkpt><trkpt lat="43.29273" lon="12.9195883"><ele>585.0</ele><time>2026-05-02T13:58:02.993Z</time></trkpt><trkpt lat="43.2927717" lon="12.9197667"><ele>585.0</ele><time>2026-05-02T13:58:03.992Z</time></trkpt><trkpt lat="43.2928233" lon="12.9199417"><ele>585.0</ele><time>2026-05-02T13:58:04.993Z</time></trkpt><trkpt lat="43.29288" lon="12.9201167"><ele>585.0</ele><time>2026-05-02T13:58:05.995Z</time></trkpt><trkpt lat="43.29293" lon="12.920275"><ele>585.0</ele><time>2026-05-02T13:58:06.992Z</time></trkpt><trkpt lat="43.2929767" lon="12.9204133"><ele>586.5</ele><time>2026-05-02T13:58:07.993Z</time></trkpt><trkpt lat="43.2930383" lon="12.9205417"><ele>588.0</ele><time>2026-05-02T13:58:08.994Z</time></trkpt><trkpt lat="43.29312" lon="12.9206617"><ele>589.5</ele><time>2026-05-02T13:58:09.993Z</time></trkpt><trkpt lat="43.293205" lon="12.920785"><ele>591.0</ele><time>2026-05-02T13:58:10.992Z</time></trkpt><trkpt lat="43.2932883" lon="12.920915"><ele>586.8</ele><time>2026-05-02T13:58:11.993Z</time></trkpt><trkpt lat="43.2933667" lon="12.9210283"><ele>582.6</ele><time>2026-05-02T13:58:12.994Z</time></trkpt><trkpt lat="43.293435" lon="12.9211267"><ele>578.4</ele><time>2026-05-02T13:58:13.994Z</time></trkpt><trkpt lat="43.2935" lon="12.9212117"><ele>574.2</ele><time>2026-05-02T13:58:14.995Z</time></trkpt><trkpt lat="43.2935533" lon="12.92128"><ele>570.0</ele><time>2026-05-02T13:58:15.994Z</time></trkpt><trkpt lat="43.29362" lon="12.92138"><ele>570.0</ele><time>2026-05-02T13:58:17.995Z</time></trkpt><trkpt lat="43.2936917" lon="12.9214983"><ele>570.0</ele><time>2026-05-02T13:58:53.993Z</time></trkpt><trkpt lat="43.2937633" lon="12.9216033"><ele>570.0</ele><time>2026-05-02T13:58:55.993Z</time></trkpt><trkpt lat="43.2938433" lon="12.921685"><ele>570.0</ele><time>2026-05-02T13:58:56.994Z</time></trkpt><trkpt lat="43.2939383" lon="12.9217717"><ele>570.0</ele><time>2026-05-02T13:58:57.993Z</time></trkpt><trkpt lat="43.2940317" lon="12.9218583"><ele>567.3333333333334</ele><time>2026-05-02T13:58:58.993Z</time></trkpt><trkpt lat="43.2941067" lon="12.9219367"><ele>564.6666666666666</ele><time>2026-05-02T13:58:59.994Z</time></trkpt><trkpt lat="43.2941567" lon="12.92201"><ele>562.0</ele><time>2026-05-02T13:59:00.993Z</time></trkpt><trkpt lat="43.2941167" lon="12.9220967"><ele>559.3333333333333</ele><time>2026-05-02T13:59:04.993Z</time></trkpt><trkpt lat="43.2940917" lon="12.92222"><ele>556.6666666666666</ele><time>2026-05-02T13:59:07.995Z</time></trkpt><trkpt lat="43.2940917" lon="12.92235"><ele>554.0</ele><time>2026-05-02T13:59:09.993Z</time></trkpt><trkpt lat="43.2940967" lon="12.9225117"><ele>550.8571428571429</ele><time>2026-05-02T13:59:11.993Z</time></trkpt><trkpt lat="43.2941033" lon="12.922605"><ele>547.7142857142857</ele><time>2026-05-02T13:59:12.995Z</time></trkpt><trkpt lat="43.29411" lon="12.9227017"><ele>544.5714285714286</ele><time>2026-05-02T13:59:13.995Z</time></trkpt><trkpt lat="43.294115" lon="12.9227933"><ele>541.4285714285714</ele><time>2026-05-02T13:59:14.994Z</time></trkpt><trkpt lat="43.29411" lon="12.922895"><ele>538.2857142857142</ele><time>2026-05-02T13:59:15.994Z</time></trkpt><trkpt lat="43.2941083" lon="12.9229933"><ele>535.1428571428571</ele><time>2026-05-02T13:59:16.993Z</time></trkpt><trkpt lat="43.29411" lon="12.92308"><ele>532.0</ele><time>2026-05-02T13:59:17.994Z</time></trkpt><trkpt lat="43.29412" lon="12.9231667"><ele>532.0</ele><time>2026-05-02T13:59:18.994Z</time></trkpt><trkpt lat="43.2941367" lon="12.9232517"><ele>532.0</ele><time>2026-05-02T13:59:19.994Z</time></trkpt><trkpt lat="43.2941867" lon="12.92338"><ele>532.0</ele><time>2026-05-02T13:59:21.995Z</time></trkpt><trkpt lat="43.2942283" lon="12.92351"><ele>532.0</ele><time>2026-05-02T13:59:23.995Z</time></trkpt><trkpt lat="43.2942533" lon="12.9236733"><ele>532.0</ele><time>2026-05-02T13:59:25.994Z</time></trkpt><trkpt lat="43.2942533" lon="12.9237783"><ele>528.6</ele><time>2026-05-02T13:59:26.995Z</time></trkpt><trkpt lat="43.2942533" lon="12.9238767"><ele>525.2</ele><time>2026-05-02T13:59:27.994Z</time></trkpt><trkpt lat="43.294245" lon="12.923995"><ele>521.8</ele><time>2026-05-02T13:59:28.994Z</time></trkpt><trkpt lat="43.2942283" lon="12.92415"><ele>518.4</ele><time>2026-05-02T13:59:29.994Z</time></trkpt><trkpt lat="43.2942167" lon="12.92431"><ele>515.0</ele><time>2026-05-02T13:59:30.994Z</time></trkpt><trkpt lat="43.2942183" lon="12.9244667"><ele>512.2</ele><time>2026-05-02T13:59:31.994Z</time></trkpt><trkpt lat="43.2942183" lon="12.9246117"><ele>509.4</ele><time>2026-05-02T13:59:32.996Z</time></trkpt><trkpt lat="43.2942217" lon="12.9247383"><ele>506.6</ele><time>2026-05-02T13:59:33.994Z</time></trkpt><trkpt lat="43.2941983" lon="12.9248833"><ele>503.8</ele><time>2026-05-02T13:59:34.992Z</time></trkpt><trkpt lat="43.2941683" lon="12.9250467"><ele>501.0</ele><time>2026-05-02T13:59:35.996Z</time></trkpt><trkpt lat="43.29414" lon="12.9252033"><ele>497.4</ele><time>2026-05-02T13:59:36.995Z</time></trkpt><trkpt lat="43.2941133" lon="12.92536"><ele>493.8</ele><time>2026-05-02T13:59:37.995Z</time></trkpt><trkpt lat="43.2940867" lon="12.925515"><ele>490.19999999999993</ele><time>2026-05-02T13:59:38.995Z</time></trkpt><trkpt lat="43.29406" lon="12.9256483"><ele>486.59999999999997</ele><time>2026-05-02T13:59:39.996Z</time></trkpt><trkpt lat="43.2940333" lon="12.9257583"><ele>483.0</ele><time>2026-05-02T13:59:40.993Z</time></trkpt><trkpt lat="43.294" lon="12.92585"><ele>479.8333333333333</ele><time>2026-05-02T13:59:41.992Z</time></trkpt><trkpt lat="43.293955" lon="12.9259267"><ele>476.66666666666663</ele><time>2026-05-02T13:59:42.993Z</time></trkpt><trkpt lat="43.293895" lon="12.9259767"><ele>473.5</ele><time>2026-05-02T13:59:43.994Z</time></trkpt><trkpt lat="43.2938333" lon="12.926015"><ele>470.3333333333333</ele><time>2026-05-02T13:59:44.996Z</time></trkpt><trkpt lat="43.2937683" lon="12.9260417"><ele>467.16666666666663</ele><time>2026-05-02T13:59:45.994Z</time></trkpt><trkpt lat="43.293705" lon="12.9260417"><ele>464.0</ele><time>2026-05-02T13:59:46.993Z</time></trkpt><trkpt lat="43.2935883" lon="12.9260433"><ele>463.16666666666663</ele><time>2026-05-02T13:59:48.994Z</time></trkpt><trkpt lat="43.293515" lon="12.926035"><ele>462.3333333333333</ele><time>2026-05-02T13:59:49.993Z</time></trkpt><trkpt lat="43.2934383" lon="12.92602"><ele>461.5</ele><time>2026-05-02T13:59:50.995Z</time></trkpt><trkpt lat="43.293365" lon="12.9259867"><ele>460.66666666666663</ele><time>2026-05-02T13:59:51.994Z</time></trkpt><trkpt lat="43.29328" lon="12.9259283"><ele>459.8333333333333</ele><time>2026-05-02T13:59:52.994Z</time></trkpt><trkpt lat="43.2932" lon="12.92587"><ele>459.0</ele><time>2026-05-02T13:59:53.994Z</time></trkpt><trkpt lat="43.2931233" lon="12.925815"><ele>459.4</ele><time>2026-05-02T13:59:54.994Z</time></trkpt><trkpt lat="43.293045" lon="12.9257517"><ele>459.79999999999995</ele><time>2026-05-02T13:59:55.994Z</time></trkpt><trkpt lat="43.2929683" lon="12.92567"><ele>460.20000000000005</ele><time>2026-05-02T13:59:56.995Z</time></trkpt><trkpt lat="43.2928983" lon="12.9255683"><ele>460.6</ele><time>2026-05-02T13:59:57.995Z</time></trkpt><trkpt lat="43.2928183" lon="12.9254383"><ele>461.0</ele><time>2026-05-02T13:59:58.994Z</time></trkpt><trkpt lat="43.29274" lon="12.92529"><ele>461.0</ele><time>2026-05-02T13:59:59.993Z</time></trkpt><trkpt lat="43.2926617" lon="12.9251483"><ele>461.0</ele><time>2026-05-02T14:00:00.993Z</time></trkpt><trkpt lat="43.2925867" lon="12.9250117"><ele>461.0</ele><time>2026-05-02T14:00:01.988Z</time></trkpt><trkpt lat="43.2925133" lon="12.924875"><ele>461.0</ele><time>2026-05-02T14:00:02.992Z</time></trkpt><trkpt lat="43.2924417" lon="12.9247467"><ele>461.0</ele><time>2026-05-02T14:00:03.991Z</time></trkpt><trkpt lat="43.292385" lon="12.9246217"><ele>461.0</ele><time>2026-05-02T14:00:04.992Z</time></trkpt><trkpt lat="43.2923317" lon="12.9245167"><ele>461.0</ele><time>2026-05-02T14:00:05.994Z</time></trkpt><trkpt lat="43.2922933" lon="12.9244067"><ele>461.0</ele><time>2026-05-02T14:00:06.995Z</time></trkpt><trkpt lat="43.2922533" lon="12.92429"><ele>461.0</ele><time>2026-05-02T14:00:07.994Z</time></trkpt><trkpt lat="43.2922233" lon="12.92416"><ele>461.0</ele><time>2026-05-02T14:00:08.994Z</time></trkpt><trkpt lat="43.2921967" lon="12.9240333"><ele>461.0</ele><time>2026-05-02T14:00:09.993Z</time></trkpt><trkpt lat="43.292175" lon="12.9239133"><ele>461.0</ele><time>2026-05-02T14:00:10.995Z</time></trkpt><trkpt lat="43.29215" lon="12.9237717"><ele>461.0</ele><time>2026-05-02T14:00:11.994Z</time></trkpt><trkpt lat="43.2921233" lon="12.9236483"><ele>461.0</ele><time>2026-05-02T14:00:12.995Z</time></trkpt><trkpt lat="43.2921017" lon="12.9235317"><ele>461.0</ele><time>2026-05-02T14:00:13.993Z</time></trkpt><trkpt lat="43.29208" lon="12.9234133"><ele>461.0</ele><time>2026-05-02T14:00:14.995Z</time></trkpt><trkpt lat="43.2920567" lon="12.9232867"><ele>461.0</ele><time>2026-05-02T14:00:15.995Z</time></trkpt><trkpt lat="43.2920283" lon="12.9231633"><ele>461.0</ele><time>2026-05-02T14:00:16.993Z</time></trkpt><trkpt lat="43.2920017" lon="12.9230417"><ele>461.0</ele><time>2026-05-02T14:00:17.994Z</time></trkpt><trkpt lat="43.2919817" lon="12.9229183"><ele>462.99999999999994</ele><time>2026-05-02T14:00:18.994Z</time></trkpt><trkpt lat="43.2919633" lon="12.922805"><ele>465.0</ele><time>2026-05-02T14:00:19.994Z</time></trkpt><trkpt lat="43.2919467" lon="12.9226967"><ele>467.0</ele><time>2026-05-02T14:00:20.994Z</time></trkpt><trkpt lat="43.2919217" lon="12.9226"><ele>469.0</ele><time>2026-05-02T14:00:21.993Z</time></trkpt><trkpt lat="43.2918883" lon="12.9225033"><ele>470.99999999999994</ele><time>2026-05-02T14:00:22.994Z</time></trkpt><trkpt lat="43.2918583" lon="12.922395"><ele>473.0</ele><time>2026-05-02T14:00:23.994Z</time></trkpt><trkpt lat="43.2918317" lon="12.9222867"><ele>476.3333333333333</ele><time>2026-05-02T14:00:24.995Z</time></trkpt><trkpt lat="43.2917933" lon="12.92218"><ele>479.66666666666663</ele><time>2026-05-02T14:00:25.994Z</time></trkpt><trkpt lat="43.2917617" lon="12.9220717"><ele>483.0</ele><time>2026-05-02T14:00:26.994Z</time></trkpt><trkpt lat="43.2917317" lon="12.9219733"><ele>486.33333333333337</ele><time>2026-05-02T14:00:27.993Z</time></trkpt><trkpt lat="43.2917033" lon="12.9218767"><ele>489.6666666666667</ele><time>2026-05-02T14:00:28.992Z</time></trkpt><trkpt lat="43.2916783" lon="12.92179"><ele>493.0</ele><time>2026-05-02T14:00:29.994Z</time></trkpt><trkpt lat="43.291645" lon="12.9216983"><ele>491.1666666666667</ele><time>2026-05-02T14:00:30.994Z</time></trkpt><trkpt lat="43.29162" lon="12.9216117"><ele>489.33333333333337</ele><time>2026-05-02T14:00:31.993Z</time></trkpt><trkpt lat="43.2915867" lon="12.9215233"><ele>487.5</ele><time>2026-05-02T14:00:32.996Z</time></trkpt><trkpt lat="43.291545" lon="12.921425"><ele>485.66666666666663</ele><time>2026-05-02T14:00:33.993Z</time></trkpt><trkpt lat="43.291505" lon="12.9213167"><ele>483.8333333333333</ele><time>2026-05-02T14:00:34.993Z</time></trkpt><trkpt lat="43.2914617" lon="12.9212133"><ele>482.0</ele><time>2026-05-02T14:00:35.993Z</time></trkpt><trkpt lat="43.2914233" lon="12.9211083"><ele>482.0</ele><time>2026-05-02T14:00:36.993Z</time></trkpt><trkpt lat="43.29138" lon="12.9209967"><ele>482.00000000000006</ele><time>2026-05-02T14:00:37.988Z</time></trkpt><trkpt lat="43.291335" lon="12.9208767"><ele>482.00000000000006</ele><time>2026-05-02T14:00:38.995Z</time></trkpt><trkpt lat="43.2912833" lon="12.92075"><ele>482.0</ele><time>2026-05-02T14:00:39.993Z</time></trkpt><trkpt lat="43.291235" lon="12.9206217"><ele>482.0</ele><time>2026-05-02T14:00:40.993Z</time></trkpt><trkpt lat="43.291195" lon="12.9205083"><ele>484.99999999999994</ele><time>2026-05-02T14:00:41.994Z</time></trkpt><trkpt lat="43.2911617" lon="12.920405"><ele>488.0</ele><time>2026-05-02T14:00:42.995Z</time></trkpt><trkpt lat="43.291125" lon="12.9202983"><ele>491.0</ele><time>2026-05-02T14:00:43.993Z</time></trkpt><trkpt lat="43.2910883" lon="12.9201983"><ele>494.0</ele><time>2026-05-02T14:00:44.994Z</time></trkpt><trkpt lat="43.29105" lon="12.9201033"><ele>496.99999999999994</ele><time>2026-05-02T14:00:45.994Z</time></trkpt><trkpt lat="43.291015" lon="12.9200117"><ele>500.0</ele><time>2026-05-02T14:00:46.994Z</time></trkpt><trkpt lat="43.290975" lon="12.9199117"><ele>502.8333333333333</ele><time>2026-05-02T14:00:47.992Z</time></trkpt><trkpt lat="43.29094" lon="12.919825"><ele>505.66666666666663</ele><time>2026-05-02T14:00:48.995Z</time></trkpt><trkpt lat="43.2909133" lon="12.9197383"><ele>508.5</ele><time>2026-05-02T14:00:49.993Z</time></trkpt><trkpt lat="43.29088" lon="12.9196517"><ele>511.33333333333337</ele><time>2026-05-02T14:00:50.994Z</time></trkpt><trkpt lat="43.290835" lon="12.9195683"><ele>514.1666666666667</ele><time>2026-05-02T14:00:51.993Z</time></trkpt><trkpt lat="43.2907783" lon="12.9194667"><ele>517.0</ele><time>2026-05-02T14:00:52.993Z</time></trkpt><trkpt lat="43.2907267" lon="12.91936"><ele>517.0</ele><time>2026-05-02T14:00:53.992Z</time></trkpt><trkpt lat="43.29068" lon="12.91925"><ele>517.0</ele><time>2026-05-02T14:00:54.994Z</time></trkpt><trkpt lat="43.2906233" lon="12.9191267"><ele>517.0</ele><time>2026-05-02T14:00:55.994Z</time></trkpt><trkpt lat="43.2905683" lon="12.9189933"><ele>517.0</ele><time>2026-05-02T14:00:56.993Z</time></trkpt><trkpt lat="43.2905117" lon="12.9188733"><ele>517.0</ele><time>2026-05-02T14:00:57.993Z</time></trkpt><trkpt lat="43.2904583" lon="12.9187767"><ele>516.0</ele><time>2026-05-02T14:00:58.992Z</time></trkpt><trkpt lat="43.29041" lon="12.91869"><ele>515.0</ele><time>2026-05-02T14:00:59.995Z</time></trkpt><trkpt lat="43.2903833" lon="12.91861"><ele>514.0</ele><time>2026-05-02T14:01:00.994Z</time></trkpt><trkpt lat="43.290335" lon="12.91851"><ele>513.0</ele><time>2026-05-02T14:01:02.988Z</time></trkpt><trkpt lat="43.2902617" lon="12.9184567"><ele>512.0</ele><time>2026-05-02T14:01:04.995Z</time></trkpt><trkpt lat="43.2901717" lon="12.9184283"><ele>511.0</ele><time>2026-05-02T14:01:06.991Z</time></trkpt><trkpt lat="43.2901017" lon="12.9184467"><ele>511.00000000000006</ele><time>2026-05-02T14:01:07.993Z</time></trkpt><trkpt lat="43.2900233" lon="12.918465"><ele>511.0</ele><time>2026-05-02T14:01:08.996Z</time></trkpt><trkpt lat="43.2899333" lon="12.9184867"><ele>511.0</ele><time>2026-05-02T14:01:09.991Z</time></trkpt><trkpt lat="43.2898317" lon="12.9185067"><ele>511.0</ele><time>2026-05-02T14:01:10.994Z</time></trkpt><trkpt lat="43.2897533" lon="12.918525"><ele>511.00000000000006</ele><time>2026-05-02T14:01:11.992Z</time></trkpt><trkpt lat="43.2896767" lon="12.91857"><ele>511.0</ele><time>2026-05-02T14:01:12.987Z</time></trkpt><trkpt lat="43.2895983" lon="12.9186467"><ele>511.00000000000006</ele><time>2026-05-02T14:01:13.992Z</time></trkpt><trkpt lat="43.2895267" lon="12.9187317"><ele>511.0</ele><time>2026-05-02T14:01:14.994Z</time></trkpt><trkpt lat="43.289465" lon="12.9188133"><ele>511.0</ele><time>2026-05-02T14:01:15.989Z</time></trkpt><trkpt lat="43.28941" lon="12.9188867"><ele>511.0</ele><time>2026-05-02T14:01:16.992Z</time></trkpt><trkpt lat="43.2893517" lon="12.918945"><ele>511.00000000000006</ele><time>2026-05-02T14:01:17.993Z</time></trkpt><trkpt lat="43.289285" lon="12.919"><ele>511.0</ele><time>2026-05-02T14:01:18.994Z</time></trkpt><trkpt lat="43.289215" lon="12.91903"><ele>511.00000000000006</ele><time>2026-05-02T14:01:19.991Z</time></trkpt><trkpt lat="43.2891417" lon="12.91907"><ele>511.0</ele><time>2026-05-02T14:01:20.995Z</time></trkpt><trkpt lat="43.2890767" lon="12.919095"><ele>511.0</ele><time>2026-05-02T14:01:21.995Z</time></trkpt><trkpt lat="43.289005" lon="12.9191217"><ele>511.0</ele><time>2026-05-02T14:01:22.994Z</time></trkpt><trkpt lat="43.28891" lon="12.9190567"><ele>511.00000000000006</ele><time>2026-05-02T14:01:24.994Z</time></trkpt><trkpt lat="43.2888167" lon="12.9189733"><ele>511.0</ele><time>2026-05-02T14:01:26.994Z</time></trkpt><trkpt lat="43.2887517" lon="12.9189433"><ele>507.0</ele><time>2026-05-02T14:01:27.993Z</time></trkpt><trkpt lat="43.288665" lon="12.918975"><ele>503.0</ele><time>2026-05-02T14:01:28.994Z</time></trkpt><trkpt lat="43.28857" lon="12.9190617"><ele>499.0</ele><time>2026-05-02T14:01:29.993Z</time></trkpt><trkpt lat="43.288505" lon="12.9191533"><ele>495.0</ele><time>2026-05-02T14:01:30.994Z</time></trkpt><trkpt lat="43.28846" lon="12.9192683"><ele>491.0</ele><time>2026-05-02T14:01:31.993Z</time></trkpt><trkpt lat="43.2884417" lon="12.91941"><ele>491.0</ele><time>2026-05-02T14:01:32.995Z</time></trkpt><trkpt lat="43.28845" lon="12.9196"><ele>491.0</ele><time>2026-05-02T14:01:33.995Z</time></trkpt><trkpt lat="43.28847" lon="12.9197933"><ele>491.0</ele><time>2026-05-02T14:01:34.993Z</time></trkpt><trkpt lat="43.2884883" lon="12.919985"><ele>491.0</ele><time>2026-05-02T14:01:35.994Z</time></trkpt><trkpt lat="43.2885017" lon="12.92017"><ele>490.0</ele><time>2026-05-02T14:01:36.994Z</time></trkpt><trkpt lat="43.2885133" lon="12.92035"><ele>489.0</ele><time>2026-05-02T14:01:37.994Z</time></trkpt><trkpt lat="43.288515" lon="12.9205283"><ele>488.0</ele><time>2026-05-02T14:01:38.994Z</time></trkpt><trkpt lat="43.288515" lon="12.9206983"><ele>487.0</ele><time>2026-05-02T14:01:39.994Z</time></trkpt><trkpt lat="43.2885183" lon="12.9208667"><ele>485.20000000000005</ele><time>2026-05-02T14:01:40.989Z</time></trkpt><trkpt lat="43.2885333" lon="12.9210317"><ele>483.40000000000003</ele><time>2026-05-02T14:01:41.992Z</time></trkpt><trkpt lat="43.2885583" lon="12.9211883"><ele>481.59999999999997</ele><time>2026-05-02T14:01:42.994Z</time></trkpt><trkpt lat="43.28858" lon="12.921325"><ele>479.79999999999995</ele><time>2026-05-02T14:01:43.993Z</time></trkpt><trkpt lat="43.2886" lon="12.9214333"><ele>478.0</ele><time>2026-05-02T14:01:44.994Z</time></trkpt><trkpt lat="43.2886083" lon="12.92154"><ele>478.0</ele><time>2026-05-02T14:01:45.997Z</time></trkpt><trkpt lat="43.2886" lon="12.9216567"><ele>477.99999999999994</ele><time>2026-05-02T14:01:46.992Z</time></trkpt><trkpt lat="43.2885917" lon="12.9218"><ele>477.99999999999994</ele><time>2026-05-02T14:01:47.993Z</time></trkpt><trkpt lat="43.2885883" lon="12.921945"><ele>478.0</ele><time>2026-05-02T14:01:48.993Z</time></trkpt><trkpt lat="43.2885817" lon="12.9220883"><ele>478.0</ele><time>2026-05-02T14:01:49.993Z</time></trkpt><trkpt lat="43.288575" lon="12.9222367"><ele>475.0</ele><time>2026-05-02T14:01:50.993Z</time></trkpt><trkpt lat="43.2885817" lon="12.9223883"><ele>472.0</ele><time>2026-05-02T14:01:51.994Z</time></trkpt><trkpt lat="43.288605" lon="12.9225533"><ele>469.0</ele><time>2026-05-02T14:01:52.993Z</time></trkpt><trkpt lat="43.28863" lon="12.9227333"><ele>466.0</ele><time>2026-05-02T14:01:53.993Z</time></trkpt><trkpt lat="43.2886617" lon="12.9229"><ele>462.75</ele><time>2026-05-02T14:01:54.994Z</time></trkpt><trkpt lat="43.2887017" lon="12.9230533"><ele>459.5</ele><time>2026-05-02T14:01:55.992Z</time></trkpt><trkpt lat="43.2887333" lon="12.92321"><ele>456.25</ele><time>2026-05-02T14:01:56.993Z</time></trkpt><trkpt lat="43.2887617" lon="12.9233517"><ele>453.0</ele><time>2026-05-02T14:01:57.993Z</time></trkpt><trkpt lat="43.2887883" lon="12.923495"><ele>453.0</ele><time>2026-05-02T14:01:58.994Z</time></trkpt><trkpt lat="43.2888233" lon="12.9236283"><ele>452.99999999999994</ele><time>2026-05-02T14:01:59.993Z</time></trkpt><trkpt lat="43.2888583" lon="12.923765"><ele>452.99999999999994</ele><time>2026-05-02T14:02:00.994Z</time></trkpt><trkpt lat="43.2889" lon="12.9238967"><ele>453.0</ele><time>2026-05-02T14:02:01.994Z</time></trkpt><trkpt lat="43.288955" lon="12.924025"><ele>453.0</ele><time>2026-05-02T14:02:02.995Z</time></trkpt><trkpt lat="43.2890167" lon="12.9241467"><ele>449.8333333333333</ele><time>2026-05-02T14:02:03.994Z</time></trkpt><trkpt lat="43.2890717" lon="12.92426"><ele>446.66666666666663</ele><time>2026-05-02T14:02:04.994Z</time></trkpt><trkpt lat="43.2891167" lon="12.9243383"><ele>443.5</ele><time>2026-05-02T14:02:05.994Z</time></trkpt><trkpt lat="43.2891483" lon="12.9244367"><ele>440.3333333333333</ele><time>2026-05-02T14:02:06.995Z</time></trkpt><trkpt lat="43.2891817" lon="12.9245317"><ele>437.16666666666663</ele><time>2026-05-02T14:02:07.995Z</time></trkpt><trkpt lat="43.2892167" lon="12.9246233"><ele>434.0</ele><time>2026-05-02T14:02:08.994Z</time></trkpt><trkpt lat="43.28926" lon="12.92472"><ele>434.0</ele><time>2026-05-02T14:02:09.993Z</time></trkpt><trkpt lat="43.2893017" lon="12.9248133"><ele>434.0</ele><time>2026-05-02T14:02:11.001Z</time></trkpt><trkpt lat="43.2893433" lon="12.9248967"><ele>434.0</ele><time>2026-05-02T14:02:11.993Z</time></trkpt><trkpt lat="43.2894" lon="12.9249583"><ele>434.0</ele><time>2026-05-02T14:02:12.996Z</time></trkpt><trkpt lat="43.28945" lon="12.92503"><ele>434.0</ele><time>2026-05-02T14:02:13.995Z</time></trkpt><trkpt lat="43.2895117" lon="12.9250883"><ele>434.0</ele><time>2026-05-02T14:02:14.995Z</time></trkpt><trkpt lat="43.28957" lon="12.9251383"><ele>434.0</ele><time>2026-05-02T14:02:15.995Z</time></trkpt><trkpt lat="43.2896267" lon="12.9251983"><ele>430.6</ele><time>2026-05-02T14:02:16.993Z</time></trkpt><trkpt lat="43.2897083" lon="12.92529"><ele>427.2</ele><time>2026-05-02T14:02:18.994Z</time></trkpt><trkpt lat="43.2896433" lon="12.9253633"><ele>423.8</ele><time>2026-05-02T14:02:21.993Z</time></trkpt><trkpt lat="43.2895567" lon="12.9253617"><ele>420.40000000000003</ele><time>2026-05-02T14:02:22.994Z</time></trkpt><trkpt lat="43.2894383" lon="12.9253567"><ele>417.0</ele><time>2026-05-02T14:02:23.995Z</time></trkpt><trkpt lat="43.2893317" lon="12.9253567"><ele>417.0</ele><time>2026-05-02T14:02:24.993Z</time></trkpt><trkpt lat="43.2892383" lon="12.9253467"><ele>417.0</ele><time>2026-05-02T14:02:25.994Z</time></trkpt><trkpt lat="43.289145" lon="12.9253267"><ele>417.0</ele><time>2026-05-02T14:02:26.994Z</time></trkpt><trkpt lat="43.2890667" lon="12.925295"><ele>417.0</ele><time>2026-05-02T14:02:27.993Z</time></trkpt><trkpt lat="43.2889933" lon="12.9252583"><ele>417.0</ele><time>2026-05-02T14:02:28.995Z</time></trkpt><trkpt lat="43.2889133" lon="12.925215"><ele>417.0</ele><time>2026-05-02T14:02:30.993Z</time></trkpt><trkpt lat="43.2888367" lon="12.9252417"><ele>417.0</ele><time>2026-05-02T14:02:53.992Z</time></trkpt><trkpt lat="43.2888783" lon="12.925335"><ele>417.0</ele><time>2026-05-02T14:04:52.988Z</time></trkpt><trkpt lat="43.2889167" lon="12.9254217"><ele>417.0</ele><time>2026-05-02T14:04:55.993Z</time></trkpt><trkpt lat="43.2889767" lon="12.9255133"><ele>417.0</ele><time>2026-05-02T14:04:58.994Z</time></trkpt><trkpt lat="43.2890233" lon="12.925575"><ele>417.0</ele><time>2026-05-02T14:05:00.996Z</time></trkpt><trkpt lat="43.2890783" lon="12.9256383"><ele>417.0</ele><time>2026-05-02T14:05:02.996Z</time></trkpt><trkpt lat="43.2890667" lon="12.92573"><ele>417.0</ele><time>2026-05-02T14:05:06.994Z</time></trkpt><trkpt lat="43.2889883" lon="12.92581"><ele>417.0</ele><time>2026-05-02T14:05:08.996Z</time></trkpt><trkpt lat="43.288935" lon="12.9258867"><ele>417.0</ele><time>2026-05-02T14:05:09.995Z</time></trkpt><trkpt lat="43.2888833" lon="12.9259917"><ele>417.0</ele><time>2026-05-02T14:05:10.994Z</time></trkpt><trkpt lat="43.2888333" lon="12.9261167"><ele>417.0</ele><time>2026-05-02T14:05:11.995Z</time></trkpt><trkpt lat="43.2887917" lon="12.9262383"><ele>417.0</ele><time>2026-05-02T14:05:12.994Z</time></trkpt><trkpt lat="43.2887667" lon="12.9263517"><ele>418.3333333333333</ele><time>2026-05-02T14:05:13.994Z</time></trkpt><trkpt lat="43.2887467" lon="12.9264617"><ele>419.66666666666663</ele><time>2026-05-02T14:05:14.995Z</time></trkpt><trkpt lat="43.28872" lon="12.9265683"><ele>421.0</ele><time>2026-05-02T14:05:15.993Z</time></trkpt><trkpt lat="43.2886833" lon="12.92666"><ele>422.3333333333333</ele><time>2026-05-02T14:05:16.994Z</time></trkpt><trkpt lat="43.28859" lon="12.9267233"><ele>423.66666666666663</ele><time>2026-05-02T14:05:18.995Z</time></trkpt><trkpt lat="43.288515" lon="12.9266317"><ele>425.0</ele><time>2026-05-02T14:05:19.994Z</time></trkpt><trkpt lat="43.28846" lon="12.926535"><ele>425.0</ele><time>2026-05-02T14:05:20.995Z</time></trkpt><trkpt lat="43.28839" lon="12.9264533"><ele>425.0</ele><time>2026-05-02T14:05:21.994Z</time></trkpt><trkpt lat="43.2883167" lon="12.92636"><ele>425.0</ele><time>2026-05-02T14:05:22.995Z</time></trkpt><trkpt lat="43.2882483" lon="12.92626"><ele>425.0</ele><time>2026-05-02T14:05:23.994Z</time></trkpt><trkpt lat="43.288185" lon="12.9261717"><ele>425.0</ele><time>2026-05-02T14:05:24.996Z</time></trkpt><trkpt lat="43.28812" lon="12.9261"><ele>424.99999999999994</ele><time>2026-05-02T14:05:25.994Z</time></trkpt><trkpt lat="43.2880867" lon="12.9261867"><ele>425.0</ele><time>2026-05-02T14:05:28.994Z</time></trkpt><trkpt lat="43.2881067" lon="12.9263233"><ele>425.0</ele><time>2026-05-02T14:05:30.989Z</time></trkpt><trkpt lat="43.28814" lon="12.9264033"><ele>425.0</ele><time>2026-05-02T14:05:31.995Z</time></trkpt><trkpt lat="43.2881867" lon="12.9265167"><ele>424.99999999999994</ele><time>2026-05-02T14:05:32.995Z</time></trkpt><trkpt lat="43.2882517" lon="12.9266383"><ele>425.0</ele><time>2026-05-02T14:05:33.993Z</time></trkpt><trkpt lat="43.288305" lon="12.926775"><ele>425.16666666666663</ele><time>2026-05-02T14:05:34.994Z</time></trkpt><trkpt lat="43.2883617" lon="12.9268917"><ele>425.3333333333333</ele><time>2026-05-02T14:05:35.994Z</time></trkpt><trkpt lat="43.2884017" lon="12.9269917"><ele>425.5</ele><time>2026-05-02T14:05:36.995Z</time></trkpt><trkpt lat="43.2883617" lon="12.9270883"><ele>425.66666666666663</ele><time>2026-05-02T14:05:38.995Z</time></trkpt><trkpt lat="43.2882917" lon="12.9271183"><ele>425.8333333333333</ele><time>2026-05-02T14:05:39.995Z</time></trkpt><trkpt lat="43.2882183" lon="12.9271467"><ele>426.0</ele><time>2026-05-02T14:05:40.994Z</time></trkpt><trkpt lat="43.2881367" lon="12.9271767"><ele>430.8333333333333</ele><time>2026-05-02T14:05:41.996Z</time></trkpt><trkpt lat="43.2880583" lon="12.9272017"><ele>435.66666666666663</ele><time>2026-05-02T14:05:42.994Z</time></trkpt><trkpt lat="43.28798" lon="12.9272283"><ele>440.5</ele><time>2026-05-02T14:05:43.995Z</time></trkpt><trkpt lat="43.2879033" lon="12.9272517"><ele>445.3333333333333</ele><time>2026-05-02T14:05:44.993Z</time></trkpt><trkpt lat="43.2878267" lon="12.9272717"><ele>450.16666666666663</ele><time>2026-05-02T14:05:45.994Z</time></trkpt><trkpt lat="43.287755" lon="12.927295"><ele>455.0</ele><time>2026-05-02T14:05:46.995Z</time></trkpt><trkpt lat="43.2876817" lon="12.927325"><ele>455.0</ele><time>2026-05-02T14:05:47.994Z</time></trkpt><trkpt lat="43.2875933" lon="12.9273617"><ele>455.0</ele><time>2026-05-02T14:05:48.995Z</time></trkpt><trkpt lat="43.28751" lon="12.9274167"><ele>455.0</ele><time>2026-05-02T14:05:49.995Z</time></trkpt><trkpt lat="43.2874283" lon="12.9274967"><ele>455.0</ele><time>2026-05-02T14:05:50.995Z</time></trkpt><trkpt lat="43.287345" lon="12.9276017"><ele>455.0</ele><time>2026-05-02T14:05:51.994Z</time></trkpt><trkpt lat="43.287255" lon="12.927725"><ele>463.5</ele><time>2026-05-02T14:05:52.995Z</time></trkpt><trkpt lat="43.2871733" lon="12.9278667"><ele>472.0</ele><time>2026-05-02T14:05:53.994Z</time></trkpt><trkpt lat="43.2870967" lon="12.92801"><ele>480.5</ele><time>2026-05-02T14:05:54.995Z</time></trkpt><trkpt lat="43.2870383" lon="12.92817"><ele>489.0</ele><time>2026-05-02T14:05:55.995Z</time></trkpt><trkpt lat="43.2869867" lon="12.9283333"><ele>488.25</ele><time>2026-05-02T14:05:56.995Z</time></trkpt><trkpt lat="43.28694" lon="12.9284933"><ele>487.5</ele><time>2026-05-02T14:05:57.993Z</time></trkpt><trkpt lat="43.2868967" lon="12.9286583"><ele>486.75</ele><time>2026-05-02T14:05:58.994Z</time></trkpt><trkpt lat="43.28685" lon="12.92884"><ele>486.0</ele><time>2026-05-02T14:05:59.994Z</time></trkpt><trkpt lat="43.286805" lon="12.9290233"><ele>486.0</ele><time>2026-05-02T14:06:00.994Z</time></trkpt><trkpt lat="43.2867633" lon="12.9292033"><ele>486.0</ele><time>2026-05-02T14:06:01.994Z</time></trkpt><trkpt lat="43.2867133" lon="12.9293717"><ele>486.0</ele><time>2026-05-02T14:06:02.994Z</time></trkpt><trkpt lat="43.286675" lon="12.929525"><ele>486.0</ele><time>2026-05-02T14:06:03.993Z</time></trkpt><trkpt lat="43.28664" lon="12.929655"><ele>485.8</ele><time>2026-05-02T14:06:04.994Z</time></trkpt><trkpt lat="43.286575" lon="12.9297367"><ele>485.6</ele><time>2026-05-02T14:06:05.994Z</time></trkpt><trkpt lat="43.28649" lon="12.9297967"><ele>485.4</ele><time>2026-05-02T14:06:06.995Z</time></trkpt><trkpt lat="43.2863933" lon="12.9298667"><ele>485.2</ele><time>2026-05-02T14:06:07.993Z</time></trkpt><trkpt lat="43.2862883" lon="12.92993"><ele>485.0</ele><time>2026-05-02T14:06:08.995Z</time></trkpt><trkpt lat="43.286175" lon="12.9299917"><ele>486.2</ele><time>2026-05-02T14:06:09.994Z</time></trkpt><trkpt lat="43.2860667" lon="12.9300483"><ele>487.4</ele><time>2026-05-02T14:06:10.994Z</time></trkpt><trkpt lat="43.2859633" lon="12.9300867"><ele>488.6</ele><time>2026-05-02T14:06:11.994Z</time></trkpt><trkpt lat="43.2858667" lon="12.930135"><ele>489.8</ele><time>2026-05-02T14:06:12.995Z</time></trkpt><trkpt lat="43.2857833" lon="12.9301617"><ele>491.0</ele><time>2026-05-02T14:06:13.994Z</time></trkpt><trkpt lat="43.285705" lon="12.93018"><ele>490.99999999999994</ele><time>2026-05-02T14:06:14.996Z</time></trkpt><trkpt lat="43.2856333" lon="12.9301833"><ele>491.0</ele><time>2026-05-02T14:06:15.993Z</time></trkpt><trkpt lat="43.285545" lon="12.930175"><ele>491.0</ele><time>2026-05-02T14:06:16.994Z</time></trkpt><trkpt lat="43.2854533" lon="12.9301633"><ele>491.0</ele><time>2026-05-02T14:06:17.996Z</time></trkpt><trkpt lat="43.28536" lon="12.9301467"><ele>490.99999999999994</ele><time>2026-05-02T14:06:18.994Z</time></trkpt><trkpt lat="43.2852667" lon="12.93015"><ele>491.0</ele><time>2026-05-02T14:06:19.994Z</time></trkpt><trkpt lat="43.2851767" lon="12.9301583"><ele>490.99999999999994</ele><time>2026-05-02T14:06:20.996Z</time></trkpt><trkpt lat="43.2850983" lon="12.930165"><ele>491.0</ele><time>2026-05-02T14:06:21.993Z</time></trkpt><trkpt lat="43.28502" lon="12.9301583"><ele>491.0</ele><time>2026-05-02T14:06:22.994Z</time></trkpt><trkpt lat="43.284935" lon="12.930145"><ele>491.0</ele><time>2026-05-02T14:06:23.995Z</time></trkpt><trkpt lat="43.284865" lon="12.9301283"><ele>490.99999999999994</ele><time>2026-05-02T14:06:24.996Z</time></trkpt><trkpt lat="43.2847533" lon="12.9300883"><ele>491.0</ele><time>2026-05-02T14:06:26.995Z</time></trkpt><trkpt lat="43.2847433" lon="12.929975"><ele>495.16666666666663</ele><time>2026-05-02T14:06:29.995Z</time></trkpt><trkpt lat="43.284775" lon="12.9298967"><ele>499.3333333333333</ele><time>2026-05-02T14:06:31.993Z</time></trkpt><trkpt lat="43.28483" lon="12.9298167"><ele>503.5</ele><time>2026-05-02T14:06:34.994Z</time></trkpt><trkpt lat="43.2848817" lon="12.9296867"><ele>507.66666666666663</ele><time>2026-05-02T14:06:37.993Z</time></trkpt><trkpt lat="43.2849033" lon="12.929595"><ele>511.8333333333333</ele><time>2026-05-02T14:06:38.995Z</time></trkpt><trkpt lat="43.28492" lon="12.9294983"><ele>516.0</ele><time>2026-05-02T14:06:39.995Z</time></trkpt><trkpt lat="43.2849317" lon="12.929385"><ele>516.0</ele><time>2026-05-02T14:06:40.996Z</time></trkpt><trkpt lat="43.284945" lon="12.9292817"><ele>516.0</ele><time>2026-05-02T14:06:41.994Z</time></trkpt><trkpt lat="43.28496" lon="12.9291733"><ele>516.0</ele><time>2026-05-02T14:06:42.994Z</time></trkpt><trkpt lat="43.2849783" lon="12.9290567"><ele>516.0</ele><time>2026-05-02T14:06:43.993Z</time></trkpt><trkpt lat="43.285" lon="12.92894"><ele>516.0</ele><time>2026-05-02T14:06:44.997Z</time></trkpt><trkpt lat="43.2850217" lon="12.9288267"><ele>516.0</ele><time>2026-05-02T14:06:45.994Z</time></trkpt><trkpt lat="43.285045" lon="12.9287117"><ele>519.8333333333334</ele><time>2026-05-02T14:06:46.993Z</time></trkpt><trkpt lat="43.2850633" lon="12.9285983"><ele>523.6666666666666</ele><time>2026-05-02T14:06:47.993Z</time></trkpt><trkpt lat="43.2850717" lon="12.92848"><ele>527.5</ele><time>2026-05-02T14:06:48.995Z</time></trkpt><trkpt lat="43.285075" lon="12.9283583"><ele>531.3333333333333</ele><time>2026-05-02T14:06:49.993Z</time></trkpt><trkpt lat="43.2850733" lon="12.9282367"><ele>535.1666666666666</ele><time>2026-05-02T14:06:50.994Z</time></trkpt><trkpt lat="43.28507" lon="12.9281233"><ele>539.0</ele><time>2026-05-02T14:06:51.994Z</time></trkpt><trkpt lat="43.2850467" lon="12.9280067"><ele>542.6</ele><time>2026-05-02T14:06:52.993Z</time></trkpt><trkpt lat="43.2850233" lon="12.9278833"><ele>546.2</ele><time>2026-05-02T14:06:53.996Z</time></trkpt><trkpt lat="43.2849633" lon="12.92776"><ele>549.8000000000001</ele><time>2026-05-02T14:06:54.995Z</time></trkpt><trkpt lat="43.2848867" lon="12.92766"><ele>553.4</ele><time>2026-05-02T14:06:55.994Z</time></trkpt><trkpt lat="43.2848217" lon="12.92758"><ele>557.0</ele><time>2026-05-02T14:06:56.994Z</time></trkpt><trkpt lat="43.2847633" lon="12.9275167"><ele>559.8333333333333</ele><time>2026-05-02T14:06:57.994Z</time></trkpt><trkpt lat="43.2846983" lon="12.9274767"><ele>562.6666666666666</ele><time>2026-05-02T14:06:58.993Z</time></trkpt><trkpt lat="43.284635" lon="12.9274617"><ele>565.5</ele><time>2026-05-02T14:06:59.994Z</time></trkpt><trkpt lat="43.28454" lon="12.9275433"><ele>568.3333333333334</ele><time>2026-05-02T14:07:00.994Z</time></trkpt><trkpt lat="43.2844483" lon="12.9276117"><ele>571.1666666666667</ele><time>2026-05-02T14:07:01.994Z</time></trkpt><trkpt lat="43.284365" lon="12.927655"><ele>574.0</ele><time>2026-05-02T14:07:02.995Z</time></trkpt><trkpt lat="43.2842933" lon="12.9276733"><ele>574.0</ele><time>2026-05-02T14:07:03.995Z</time></trkpt><trkpt lat="43.284165" lon="12.9276517"><ele>574.0</ele><time>2026-05-02T14:07:05.994Z</time></trkpt><trkpt lat="43.2840967" lon="12.927575"><ele>574.0</ele><time>2026-05-02T14:07:06.994Z</time></trkpt><trkpt lat="43.2839983" lon="12.9274917"><ele>574.0</ele><time>2026-05-02T14:07:07.995Z</time></trkpt><trkpt lat="43.283905" lon="12.9274083"><ele>574.0</ele><time>2026-05-02T14:07:08.995Z</time></trkpt><trkpt lat="43.2837983" lon="12.92731"><ele>580.75</ele><time>2026-05-02T14:07:09.994Z</time></trkpt><trkpt lat="43.2836933" lon="12.927215"><ele>587.5</ele><time>2026-05-02T14:07:10.995Z</time></trkpt><trkpt lat="43.2835967" lon="12.9271183"><ele>594.25</ele><time>2026-05-02T14:07:11.995Z</time></trkpt><trkpt lat="43.2835117" lon="12.9270167"><ele>601.0</ele><time>2026-05-02T14:07:12.994Z</time></trkpt><trkpt lat="43.2834083" lon="12.92693"><ele>601.0</ele><time>2026-05-02T14:07:13.995Z</time></trkpt><trkpt lat="43.2832917" lon="12.9268467"><ele>601.0</ele><time>2026-05-02T14:07:14.995Z</time></trkpt><trkpt lat="43.2831617" lon="12.9267517"><ele>601.0</ele><time>2026-05-02T14:07:15.995Z</time></trkpt><trkpt lat="43.2830367" lon="12.9266533"><ele>601.0</ele><time>2026-05-02T14:07:16.994Z</time></trkpt><trkpt lat="43.28292" lon="12.92657"><ele>607.0</ele><time>2026-05-02T14:07:17.993Z</time></trkpt><trkpt lat="43.2827933" lon="12.9265083"><ele>613.0</ele><time>2026-05-02T14:07:18.993Z</time></trkpt><trkpt lat="43.282665" lon="12.926455"><ele>619.0</ele><time>2026-05-02T14:07:19.994Z</time></trkpt><trkpt lat="43.2825467" lon="12.92641"><ele>625.0</ele><time>2026-05-02T14:07:20.996Z</time></trkpt><trkpt lat="43.282445" lon="12.9263717"><ele>625.0</ele><time>2026-05-02T14:07:21.995Z</time></trkpt><trkpt lat="43.2823483" lon="12.926315"><ele>625.0</ele><time>2026-05-02T14:07:22.993Z</time></trkpt><trkpt lat="43.282235" lon="12.9262533"><ele>625.0</ele><time>2026-05-02T14:07:23.995Z</time></trkpt><trkpt lat="43.2821217" lon="12.92619"><ele>625.0</ele><time>2026-05-02T14:07:24.994Z</time></trkpt><trkpt lat="43.2820117" lon="12.926135"><ele>626.0</ele><time>2026-05-02T14:07:25.994Z</time></trkpt><trkpt lat="43.2818883" lon="12.9260667"><ele>627.0</ele><time>2026-05-02T14:07:26.995Z</time></trkpt><trkpt lat="43.2817717" lon="12.925995"><ele>628.0</ele><time>2026-05-02T14:07:27.994Z</time></trkpt><trkpt lat="43.2816917" lon="12.925915"><ele>629.0</ele><time>2026-05-02T14:07:28.995Z</time></trkpt><trkpt lat="43.28163" lon="12.9258167"><ele>630.6</ele><time>2026-05-02T14:07:29.993Z</time></trkpt><trkpt lat="43.2815683" lon="12.9257183"><ele>632.2</ele><time>2026-05-02T14:07:30.995Z</time></trkpt><trkpt lat="43.2815117" lon="12.9256433"><ele>633.8000000000001</ele><time>2026-05-02T14:07:31.993Z</time></trkpt><trkpt lat="43.2814333" lon="12.92559"><ele>635.4</ele><time>2026-05-02T14:07:32.994Z</time></trkpt><trkpt lat="43.2813583" lon="12.92552"><ele>637.0</ele><time>2026-05-02T14:07:33.993Z</time></trkpt><trkpt lat="43.2812767" lon="12.92542"><ele>637.0</ele><time>2026-05-02T14:07:34.994Z</time></trkpt><trkpt lat="43.2812117" lon="12.9252933"><ele>637.0</ele><time>2026-05-02T14:07:35.994Z</time></trkpt><trkpt lat="43.28115" lon="12.9251517"><ele>637.0</ele><time>2026-05-02T14:07:36.994Z</time></trkpt><trkpt lat="43.2810817" lon="12.9250167"><ele>637.0</ele><time>2026-05-02T14:07:37.993Z</time></trkpt><trkpt lat="43.2810133" lon="12.9249017"><ele>639.8</ele><time>2026-05-02T14:07:38.995Z</time></trkpt><trkpt lat="43.2809433" lon="12.9248233"><ele>642.6</ele><time>2026-05-02T14:07:39.994Z</time></trkpt><trkpt lat="43.2808833" lon="12.9247583"><ele>645.4</ele><time>2026-05-02T14:07:40.993Z</time></trkpt><trkpt lat="43.2808083" lon="12.9247017"><ele>648.1999999999999</ele><time>2026-05-02T14:07:41.993Z</time></trkpt><trkpt lat="43.2807117" lon="12.9246483"><ele>651.0</ele><time>2026-05-02T14:07:42.994Z</time></trkpt><trkpt lat="43.2805967" lon="12.9245933"><ele>651.0</ele><time>2026-05-02T14:07:43.994Z</time></trkpt><trkpt lat="43.28048" lon="12.9245383"><ele>651.0</ele><time>2026-05-02T14:07:44.994Z</time></trkpt><trkpt lat="43.280375" lon="12.9244783"><ele>651.0</ele><time>2026-05-02T14:07:45.995Z</time></trkpt><trkpt lat="43.2802833" lon="12.92442"><ele>651.0</ele><time>2026-05-02T14:07:46.994Z</time></trkpt><trkpt lat="43.2801933" lon="12.9243433"><ele>651.0</ele><time>2026-05-02T14:07:47.994Z</time></trkpt><trkpt lat="43.2800933" lon="12.9242767"><ele>651.0</ele><time>2026-05-02T14:07:48.994Z</time></trkpt><trkpt lat="43.2799933" lon="12.9242317"><ele>651.0</ele><time>2026-05-02T14:07:49.994Z</time></trkpt><trkpt lat="43.27991" lon="12.9242"><ele>651.0</ele><time>2026-05-02T14:07:50.994Z</time></trkpt><trkpt lat="43.2798333" lon="12.9241817"><ele>651.0</ele><time>2026-05-02T14:07:52.994Z</time></trkpt><trkpt lat="43.279825" lon="12.9242917"><ele>651.0</ele><time>2026-05-02T14:08:02.993Z</time></trkpt><trkpt lat="43.279855" lon="12.9243883"><ele>651.0</ele><time>2026-05-02T14:08:04.995Z</time></trkpt><trkpt lat="43.27991" lon="12.9245233"><ele>651.0</ele><time>2026-05-02T14:08:06.994Z</time></trkpt><trkpt lat="43.2799483" lon="12.9246017"><ele>651.0</ele><time>2026-05-02T14:08:07.994Z</time></trkpt><trkpt lat="43.2799883" lon="12.9246767"><ele>651.0</ele><time>2026-05-02T14:08:08.995Z</time></trkpt><trkpt lat="43.280025" lon="12.9247533"><ele>651.0</ele><time>2026-05-02T14:08:09.994Z</time></trkpt><trkpt lat="43.2800517" lon="12.9248333"><ele>651.0</ele><time>2026-05-02T14:08:10.994Z</time></trkpt><trkpt lat="43.2801117" lon="12.9249817"><ele>651.0</ele><time>2026-05-02T14:08:12.994Z</time></trkpt><trkpt lat="43.2801367" lon="12.9250883"><ele>649.0</ele><time>2026-05-02T14:08:13.994Z</time></trkpt><trkpt lat="43.2801583" lon="12.9252017"><ele>647.0</ele><time>2026-05-02T14:08:14.994Z</time></trkpt><trkpt lat="43.2801883" lon="12.9253033"><ele>645.0</ele><time>2026-05-02T14:08:15.993Z</time></trkpt><trkpt lat="43.2802167" lon="12.9253933"><ele>643.0</ele><time>2026-05-02T14:08:16.994Z</time></trkpt><trkpt lat="43.280235" lon="12.9254933"><ele>641.0</ele><time>2026-05-02T14:08:17.995Z</time></trkpt><trkpt lat="43.2802533" lon="12.9255967"><ele>639.0</ele><time>2026-05-02T14:08:18.995Z</time></trkpt><trkpt lat="43.2802783" lon="12.9256867"><ele>639.0000000000001</ele><time>2026-05-02T14:08:19.995Z</time></trkpt><trkpt lat="43.2802883" lon="12.925775"><ele>639.0</ele><time>2026-05-02T14:08:20.996Z</time></trkpt><trkpt lat="43.2802967" lon="12.9258733"><ele>639.0</ele><time>2026-05-02T14:08:21.994Z</time></trkpt><trkpt lat="43.280295" lon="12.9259783"><ele>639.0</ele><time>2026-05-02T14:08:22.993Z</time></trkpt><trkpt lat="43.280295" lon="12.9260883"><ele>639.0</ele><time>2026-05-02T14:08:23.994Z</time></trkpt><trkpt lat="43.28032" lon="12.9261733"><ele>639.0000000000001</ele><time>2026-05-02T14:08:24.993Z</time></trkpt><trkpt lat="43.2803467" lon="12.9262667"><ele>639.0</ele><time>2026-05-02T14:08:25.995Z</time></trkpt><trkpt lat="43.2804167" lon="12.9264233"><ele>636.1666666666666</ele><time>2026-05-02T14:08:27.993Z</time></trkpt><trkpt lat="43.2804617" lon="12.926495"><ele>633.3333333333334</ele><time>2026-05-02T14:08:28.993Z</time></trkpt><trkpt lat="43.2805133" lon="12.92659"><ele>630.5</ele><time>2026-05-02T14:08:29.994Z</time></trkpt><trkpt lat="43.28057" lon="12.9266717"><ele>627.6666666666667</ele><time>2026-05-02T14:08:30.994Z</time></trkpt><trkpt lat="43.2806217" lon="12.9267467"><ele>624.8333333333334</ele><time>2026-05-02T14:08:31.995Z</time></trkpt><trkpt lat="43.2806883" lon="12.9268867"><ele>622.0</ele><time>2026-05-02T14:08:33.994Z</time></trkpt><trkpt lat="43.280705" lon="12.9269833"><ele>619.0</ele><time>2026-05-02T14:08:34.995Z</time></trkpt><trkpt lat="43.2807233" lon="12.927095"><ele>616.0</ele><time>2026-05-02T14:08:35.994Z</time></trkpt><trkpt lat="43.2807467" lon="12.9271983"><ele>613.0</ele><time>2026-05-02T14:08:36.994Z</time></trkpt><trkpt lat="43.2807733" lon="12.927295"><ele>610.0</ele><time>2026-05-02T14:08:37.991Z</time></trkpt><trkpt lat="43.280805" lon="12.9273833"><ele>607.0</ele><time>2026-05-02T14:08:38.997Z</time></trkpt><trkpt lat="43.280835" lon="12.9274683"><ele>604.0</ele><time>2026-05-02T14:08:39.994Z</time></trkpt><trkpt lat="43.2808517" lon="12.927555"><ele>601.0</ele><time>2026-05-02T14:08:40.994Z</time></trkpt><trkpt lat="43.2808533" lon="12.9277233"><ele>597.5</ele><time>2026-05-02T14:08:42.994Z</time></trkpt><trkpt lat="43.2808583" lon="12.927855"><ele>594.0</ele><time>2026-05-02T14:08:44.995Z</time></trkpt><trkpt lat="43.2807667" lon="12.9278817"><ele>590.5</ele><time>2026-05-02T14:08:49.993Z</time></trkpt><trkpt lat="43.2807067" lon="12.9278433"><ele>587.0</ele><time>2026-05-02T14:08:50.994Z</time></trkpt><trkpt lat="43.2806417" lon="12.9277883"><ele>583.5</ele><time>2026-05-02T14:08:51.993Z</time></trkpt><trkpt lat="43.28057" lon="12.9277133"><ele>580.0</ele><time>2026-05-02T14:08:52.994Z</time></trkpt><trkpt lat="43.28048" lon="12.927635"><ele>584.6</ele><time>2026-05-02T14:08:53.994Z</time></trkpt><trkpt lat="43.2803917" lon="12.92755"><ele>589.2</ele><time>2026-05-02T14:08:54.991Z</time></trkpt><trkpt lat="43.2802983" lon="12.9274583"><ele>593.8</ele><time>2026-05-02T14:08:55.993Z</time></trkpt><trkpt lat="43.2802183" lon="12.9273717"><ele>598.4</ele><time>2026-05-02T14:08:56.995Z</time></trkpt><trkpt lat="43.2801367" lon="12.9273067"><ele>603.0</ele><time>2026-05-02T14:08:57.994Z</time></trkpt><trkpt lat="43.2800583" lon="12.92725"><ele>603.0</ele><time>2026-05-02T14:08:58.993Z</time></trkpt><trkpt lat="43.279975" lon="12.927185"><ele>603.0</ele><time>2026-05-02T14:08:59.995Z</time></trkpt><trkpt lat="43.2798917" lon="12.927115"><ele>603.0</ele><time>2026-05-02T14:09:00.995Z</time></trkpt><trkpt lat="43.2798067" lon="12.927045"><ele>603.0</ele><time>2026-05-02T14:09:01.994Z</time></trkpt><trkpt lat="43.279725" lon="12.926965"><ele>603.0</ele><time>2026-05-02T14:09:02.994Z</time></trkpt><trkpt lat="43.2796533" lon="12.926875"><ele>603.1999999999999</ele><time>2026-05-02T14:09:03.994Z</time></trkpt><trkpt lat="43.27958" lon="12.9267867"><ele>603.4</ele><time>2026-05-02T14:09:04.994Z</time></trkpt><trkpt lat="43.2795033" lon="12.9267"><ele>603.5999999999999</ele><time>2026-05-02T14:09:05.995Z</time></trkpt><trkpt lat="43.2794267" lon="12.9266117"><ele>603.8</ele><time>2026-05-02T14:09:06.994Z</time></trkpt><trkpt lat="43.2793533" lon="12.92652"><ele>604.0</ele><time>2026-05-02T14:09:07.993Z</time></trkpt><trkpt lat="43.2792767" lon="12.926425"><ele>607.5</ele><time>2026-05-02T14:09:08.995Z</time></trkpt><trkpt lat="43.2791967" lon="12.9263233"><ele>611.0</ele><time>2026-05-02T14:09:09.995Z</time></trkpt><trkpt lat="43.2791133" lon="12.92622"><ele>614.5</ele><time>2026-05-02T14:09:10.994Z</time></trkpt><trkpt lat="43.2790183" lon="12.9261117"><ele>618.0</ele><time>2026-05-02T14:09:11.995Z</time></trkpt><trkpt lat="43.2789333" lon="12.9260033"><ele>621.8</ele><time>2026-05-02T14:09:12.994Z</time></trkpt><trkpt lat="43.2788467" lon="12.9258817"><ele>625.5999999999999</ele><time>2026-05-02T14:09:13.995Z</time></trkpt><trkpt lat="43.2787733" lon="12.9257717"><ele>629.4000000000001</ele><time>2026-05-02T14:09:14.997Z</time></trkpt><trkpt lat="43.2787117" lon="12.9256583"><ele>633.2</ele><time>2026-05-02T14:09:15.994Z</time></trkpt><trkpt lat="43.2786417" lon="12.92555"><ele>637.0</ele><time>2026-05-02T14:09:16.995Z</time></trkpt><trkpt lat="43.27857" lon="12.9254383"><ele>637.0</ele><time>2026-05-02T14:09:17.994Z</time></trkpt><trkpt lat="43.278505" lon="12.925325"><ele>637.0</ele><time>2026-05-02T14:09:18.994Z</time></trkpt><trkpt lat="43.2784567" lon="12.925215"><ele>637.0</ele><time>2026-05-02T14:09:19.993Z</time></trkpt><trkpt lat="43.2783983" lon="12.9250983"><ele>637.0</ele><time>2026-05-02T14:09:20.995Z</time></trkpt><trkpt lat="43.27834" lon="12.9249833"><ele>637.0</ele><time>2026-05-02T14:09:21.994Z</time></trkpt><trkpt lat="43.2782817" lon="12.92488"><ele>637.5</ele><time>2026-05-02T14:09:22.994Z</time></trkpt><trkpt lat="43.27822" lon="12.9247833"><ele>638.0</ele><time>2026-05-02T14:09:23.994Z</time></trkpt><trkpt lat="43.2781767" lon="12.9246833"><ele>638.5</ele><time>2026-05-02T14:09:24.993Z</time></trkpt><trkpt lat="43.2781283" lon="12.9245817"><ele>639.0</ele><time>2026-05-02T14:09:25.994Z</time></trkpt><trkpt lat="43.27809" lon="12.9244733"><ele>639.5</ele><time>2026-05-02T14:09:26.995Z</time></trkpt><trkpt lat="43.2780383" lon="12.9243683"><ele>640.0</ele><time>2026-05-02T14:09:27.994Z</time></trkpt><trkpt lat="43.2779733" lon="12.92426"><ele>645.75</ele><time>2026-05-02T14:09:28.996Z</time></trkpt><trkpt lat="43.2779033" lon="12.92415"><ele>651.5</ele><time>2026-05-02T14:09:29.994Z</time></trkpt><trkpt lat="43.277835" lon="12.9240367"><ele>657.25</ele><time>2026-05-02T14:09:30.994Z</time></trkpt><trkpt lat="43.2777667" lon="12.923915"><ele>663.0</ele><time>2026-05-02T14:09:31.995Z</time></trkpt><trkpt lat="43.277685" lon="12.9237783"><ele>663.0</ele><time>2026-05-02T14:09:32.995Z</time></trkpt><trkpt lat="43.2776067" lon="12.9236383"><ele>663.0</ele><time>2026-05-02T14:09:33.995Z</time></trkpt><trkpt lat="43.2775267" lon="12.9234983"><ele>663.0</ele><time>2026-05-02T14:09:34.994Z</time></trkpt><trkpt lat="43.2774567" lon="12.9233733"><ele>663.0</ele><time>2026-05-02T14:09:35.995Z</time></trkpt><trkpt lat="43.2773967" lon="12.923265"><ele>665.5</ele><time>2026-05-02T14:09:36.995Z</time></trkpt><trkpt lat="43.2773567" lon="12.9231633"><ele>668.0</ele><time>2026-05-02T14:09:37.994Z</time></trkpt><trkpt lat="43.27732" lon="12.9230617"><ele>670.5</ele><time>2026-05-02T14:09:38.995Z</time></trkpt><trkpt lat="43.2772917" lon="12.922955"><ele>673.0</ele><time>2026-05-02T14:09:39.996Z</time></trkpt><trkpt lat="43.2772767" lon="12.92287"><ele>675.5</ele><time>2026-05-02T14:09:40.994Z</time></trkpt><trkpt lat="43.27724" lon="12.9227633"><ele>678.0</ele><time>2026-05-02T14:09:42.992Z</time></trkpt><trkpt lat="43.2771633" lon="12.9226533"><ele>678.0</ele><time>2026-05-02T14:09:54.993Z</time></trkpt><trkpt lat="43.27708" lon="12.9226333"><ele>678.0</ele><time>2026-05-02T14:09:55.994Z</time></trkpt><trkpt lat="43.2769817" lon="12.9226183"><ele>678.0</ele><time>2026-05-02T14:09:56.996Z</time></trkpt><trkpt lat="43.27688" lon="12.9225933"><ele>678.0</ele><time>2026-05-02T14:09:57.993Z</time></trkpt><trkpt lat="43.27676" lon="12.922555"><ele>678.0</ele><time>2026-05-02T14:09:58.993Z</time></trkpt><trkpt lat="43.27663" lon="12.9225283"><ele>684.0</ele><time>2026-05-02T14:09:59.992Z</time></trkpt><trkpt lat="43.27649" lon="12.922505"><ele>690.0</ele><time>2026-05-02T14:10:00.996Z</time></trkpt><trkpt lat="43.276365" lon="12.92249"><ele>696.0</ele><time>2026-05-02T14:10:01.994Z</time></trkpt><trkpt lat="43.2762383" lon="12.92248"><ele>702.0</ele><time>2026-05-02T14:10:02.994Z</time></trkpt><trkpt lat="43.2761133" lon="12.9224667"><ele>705.5</ele><time>2026-05-02T14:10:03.994Z</time></trkpt><trkpt lat="43.275985" lon="12.9224533"><ele>709.0</ele><time>2026-05-02T14:10:04.995Z</time></trkpt><trkpt lat="43.2758717" lon="12.92242"><ele>712.5</ele><time>2026-05-02T14:10:05.997Z</time></trkpt><trkpt lat="43.275765" lon="12.9223683"><ele>716.0</ele><time>2026-05-02T14:10:06.995Z</time></trkpt><trkpt lat="43.2756483" lon="12.9223017"><ele>718.4</ele><time>2026-05-02T14:10:07.993Z</time></trkpt><trkpt lat="43.275535" lon="12.9222467"><ele>720.8</ele><time>2026-05-02T14:10:08.997Z</time></trkpt><trkpt lat="43.2754217" lon="12.9222217"><ele>723.1999999999999</ele><time>2026-05-02T14:10:09.995Z</time></trkpt><trkpt lat="43.2753167" lon="12.9222267"><ele>725.5999999999999</ele><time>2026-05-02T14:10:10.993Z</time></trkpt><trkpt lat="43.27523" lon="12.9222333"><ele>728.0</ele><time>2026-05-02T14:10:11.995Z</time></trkpt><trkpt lat="43.2751317" lon="12.9222383"><ele>728.0</ele><time>2026-05-02T14:10:12.994Z</time></trkpt><trkpt lat="43.275035" lon="12.9222433"><ele>728.0</ele><time>2026-05-02T14:10:13.995Z</time></trkpt><trkpt lat="43.2749333" lon="12.9222583"><ele>728.0</ele><time>2026-05-02T14:10:14.997Z</time></trkpt><trkpt lat="43.2748417" lon="12.9222717"><ele>728.0</ele><time>2026-05-02T14:10:15.993Z</time></trkpt><trkpt lat="43.2747417" lon="12.9222867"><ele>728.0</ele><time>2026-05-02T14:10:16.994Z</time></trkpt><trkpt lat="43.2746333" lon="12.92231"><ele>730.0</ele><time>2026-05-02T14:10:17.994Z</time></trkpt><trkpt lat="43.2745083" lon="12.922335"><ele>732.0</ele><time>2026-05-02T14:10:18.994Z</time></trkpt><trkpt lat="43.2743817" lon="12.922345"><ele>734.0</ele><time>2026-05-02T14:10:19.993Z</time></trkpt><trkpt lat="43.27425" lon="12.922355"><ele>736.0</ele><time>2026-05-02T14:10:20.995Z</time></trkpt><trkpt lat="43.27414" lon="12.92238"><ele>736.0</ele><time>2026-05-02T14:10:21.995Z</time></trkpt><trkpt lat="43.274035" lon="12.9223983"><ele>736.0</ele><time>2026-05-02T14:10:22.993Z</time></trkpt><trkpt lat="43.2739183" lon="12.922415"><ele>736.0</ele><time>2026-05-02T14:10:23.994Z</time></trkpt><trkpt lat="43.2738" lon="12.9224267"><ele>736.0</ele><time>2026-05-02T14:10:24.999Z</time></trkpt><trkpt lat="43.2736633" lon="12.9224567"><ele>738.25</ele><time>2026-05-02T14:10:25.993Z</time></trkpt><trkpt lat="43.27354" lon="12.9224767"><ele>740.5</ele><time>2026-05-02T14:10:26.995Z</time></trkpt><trkpt lat="43.2734183" lon="12.9224983"><ele>742.75</ele><time>2026-05-02T14:10:27.993Z</time></trkpt><trkpt lat="43.2732967" lon="12.92252"><ele>745.0</ele><time>2026-05-02T14:10:28.994Z</time></trkpt><trkpt lat="43.27317" lon="12.9225683"><ele>739.0</ele><time>2026-05-02T14:10:29.994Z</time></trkpt><trkpt lat="43.273045" lon="12.9226167"><ele>733.0</ele><time>2026-05-02T14:10:30.995Z</time></trkpt><trkpt lat="43.2729283" lon="12.9226483"><ele>727.0</ele><time>2026-05-02T14:10:31.994Z</time></trkpt><trkpt lat="43.2728133" lon="12.9226917"><ele>721.0</ele><time>2026-05-02T14:10:32.996Z</time></trkpt><trkpt lat="43.272695" lon="12.92274"><ele>721.0</ele><time>2026-05-02T14:10:33.993Z</time></trkpt><trkpt lat="43.2725567" lon="12.9228033"><ele>721.0</ele><time>2026-05-02T14:10:34.994Z</time></trkpt><trkpt lat="43.2724067" lon="12.9228717"><ele>721.0</ele><time>2026-05-02T14:10:35.993Z</time></trkpt><trkpt lat="43.272285" lon="12.92293"><ele>721.0</ele><time>2026-05-02T14:10:36.994Z</time></trkpt><trkpt lat="43.27217" lon="12.9229983"><ele>718.8333333333334</ele><time>2026-05-02T14:10:37.995Z</time></trkpt><trkpt lat="43.27207" lon="12.9230683"><ele>716.6666666666667</ele><time>2026-05-02T14:10:38.995Z</time></trkpt><trkpt lat="43.2719933" lon="12.9231567"><ele>714.5</ele><time>2026-05-02T14:10:39.994Z</time></trkpt><trkpt lat="43.2719317" lon="12.9232333"><ele>712.3333333333334</ele><time>2026-05-02T14:10:40.993Z</time></trkpt><trkpt lat="43.2718733" lon="12.923315"><ele>710.1666666666666</ele><time>2026-05-02T14:10:41.994Z</time></trkpt><trkpt lat="43.2718267" lon="12.9233867"><ele>708.0</ele><time>2026-05-02T14:10:42.993Z</time></trkpt><trkpt lat="43.27178" lon="12.9234683"><ele>708.0</ele><time>2026-05-02T14:10:43.994Z</time></trkpt><trkpt lat="43.2717367" lon="12.9235517"><ele>708.0</ele><time>2026-05-02T14:10:44.994Z</time></trkpt><trkpt lat="43.2716983" lon="12.92363"><ele>708.0</ele><time>2026-05-02T14:10:45.993Z</time></trkpt><trkpt lat="43.2716167" lon="12.92375"><ele>708.0</ele><time>2026-05-02T14:10:47.994Z</time></trkpt><trkpt lat="43.2715667" lon="12.923815"><ele>708.0</ele><time>2026-05-02T14:10:48.995Z</time></trkpt><trkpt lat="43.2715133" lon="12.9238783"><ele>708.0</ele><time>2026-05-02T14:10:49.993Z</time></trkpt><trkpt lat="43.2714533" lon="12.9239533"><ele>709.3333333333334</ele><time>2026-05-02T14:10:50.995Z</time></trkpt><trkpt lat="43.2713967" lon="12.9240233"><ele>710.6666666666666</ele><time>2026-05-02T14:10:51.993Z</time></trkpt><trkpt lat="43.27135" lon="12.9241067"><ele>712.0</ele><time>2026-05-02T14:10:52.993Z</time></trkpt><trkpt lat="43.2713" lon="12.9241983"><ele>713.3333333333333</ele><time>2026-05-02T14:10:53.994Z</time></trkpt><trkpt lat="43.271255" lon="12.9242867"><ele>714.6666666666666</ele><time>2026-05-02T14:10:54.995Z</time></trkpt><trkpt lat="43.2712067" lon="12.9243683"><ele>716.0</ele><time>2026-05-02T14:10:55.995Z</time></trkpt><trkpt lat="43.27115" lon="12.924445"><ele>711.5</ele><time>2026-05-02T14:10:56.995Z</time></trkpt><trkpt lat="43.2710867" lon="12.924515"><ele>707.0</ele><time>2026-05-02T14:10:57.993Z</time></trkpt><trkpt lat="43.2710233" lon="12.9245783"><ele>702.5</ele><time>2026-05-02T14:10:58.994Z</time></trkpt><trkpt lat="43.2709633" lon="12.92463"><ele>698.0</ele><time>2026-05-02T14:10:59.994Z</time></trkpt><trkpt lat="43.2709017" lon="12.9246867"><ele>693.5</ele><time>2026-05-02T14:11:00.994Z</time></trkpt><trkpt lat="43.270855" lon="12.9247933"><ele>689.0</ele><time>2026-05-02T14:11:03.993Z</time></trkpt><trkpt lat="43.2708417" lon="12.92492"><ele>684.6</ele><time>2026-05-02T14:11:05.994Z</time></trkpt><trkpt lat="43.2708233" lon="12.925065"><ele>680.2</ele><time>2026-05-02T14:11:07.993Z</time></trkpt><trkpt lat="43.2707883" lon="12.92522"><ele>675.8000000000001</ele><time>2026-05-02T14:11:09.993Z</time></trkpt><trkpt lat="43.2707583" lon="12.925395"><ele>671.4000000000001</ele><time>2026-05-02T14:11:11.995Z</time></trkpt><trkpt lat="43.270735" lon="12.92548"><ele>667.0</ele><time>2026-05-02T14:11:12.995Z</time></trkpt><trkpt lat="43.2706983" lon="12.9256067"><ele>667.0</ele><time>2026-05-02T14:11:14.994Z</time></trkpt><trkpt lat="43.2706833" lon="12.925745"><ele>667.0</ele><time>2026-05-02T14:11:16.993Z</time></trkpt><trkpt lat="43.2706683" lon="12.9259"><ele>667.0</ele><time>2026-05-02T14:11:18.994Z</time></trkpt><trkpt lat="43.2706583" lon="12.926035"><ele>667.0</ele><time>2026-05-02T14:11:20.995Z</time></trkpt><trkpt lat="43.2706533" lon="12.9261783"><ele>667.0</ele><time>2026-05-02T14:11:22.994Z</time></trkpt><trkpt lat="43.2706517" lon="12.926335"><ele>663.1666666666667</ele><time>2026-05-02T14:11:24.994Z</time></trkpt><trkpt lat="43.2706233" lon="12.9264883"><ele>659.3333333333334</ele><time>2026-05-02T14:11:26.995Z</time></trkpt><trkpt lat="43.27061" lon="12.9265783"><ele>655.5</ele><time>2026-05-02T14:11:27.994Z</time></trkpt><trkpt lat="43.2705883" lon="12.9266733"><ele>651.6666666666666</ele><time>2026-05-02T14:11:28.994Z</time></trkpt><trkpt lat="43.2705417" lon="12.926775"><ele>647.8333333333333</ele><time>2026-05-02T14:11:30.995Z</time></trkpt><trkpt lat="43.27049" lon="12.9268383"><ele>644.0</ele><time>2026-05-02T14:11:32.995Z</time></trkpt><trkpt lat="43.270425" lon="12.92687"><ele>641.0</ele><time>2026-05-02T14:11:34.994Z</time></trkpt><trkpt lat="43.2703483" lon="12.9268833"><ele>638.0</ele><time>2026-05-02T14:11:37.993Z</time></trkpt><trkpt lat="43.2702783" lon="12.9269317"><ele>635.0</ele><time>2026-05-02T14:11:39.994Z</time></trkpt><trkpt lat="43.27017" lon="12.9269783"><ele>632.0</ele><time>2026-05-02T14:11:41.993Z</time></trkpt><trkpt lat="43.2701033" lon="12.92699"><ele>629.0</ele><time>2026-05-02T14:11:42.993Z</time></trkpt><trkpt lat="43.270025" lon="12.9270133"><ele>626.0</ele><time>2026-05-02T14:11:43.994Z</time></trkpt><trkpt lat="43.26994" lon="12.9270233"><ele>626.0</ele><time>2026-05-02T14:11:44.996Z</time></trkpt><trkpt lat="43.2698633" lon="12.92702"><ele>626.0</ele><time>2026-05-02T14:11:45.995Z</time></trkpt><trkpt lat="43.2697867" lon="12.9270183"><ele>626.0</ele><time>2026-05-02T14:11:46.993Z</time></trkpt><trkpt lat="43.2697017" lon="12.927065"><ele>626.0</ele><time>2026-05-02T14:11:47.996Z</time></trkpt><trkpt lat="43.2696233" lon="12.9271133"><ele>626.0</ele><time>2026-05-02T14:11:49.993Z</time></trkpt><trkpt lat="43.2695767" lon="12.927215"><ele>626.0</ele><time>2026-05-02T14:11:51.995Z</time></trkpt><trkpt lat="43.2695083" lon="12.9273133"><ele>622.1666666666666</ele><time>2026-05-02T14:11:53.996Z</time></trkpt><trkpt lat="43.2694617" lon="12.9273883"><ele>618.3333333333333</ele><time>2026-05-02T14:11:54.995Z</time></trkpt><trkpt lat="43.2694167" lon="12.9274667"><ele>614.5</ele><time>2026-05-02T14:11:55.993Z</time></trkpt><trkpt lat="43.2693817" lon="12.9275617"><ele>610.6666666666666</ele><time>2026-05-02T14:11:56.994Z</time></trkpt><trkpt lat="43.26935" lon="12.927675"><ele>606.8333333333334</ele><time>2026-05-02T14:11:57.994Z</time></trkpt><trkpt lat="43.26932" lon="12.927805"><ele>603.0</ele><time>2026-05-02T14:11:58.99Z</time></trkpt><trkpt lat="43.2693" lon="12.927915"><ele>603.0</ele><time>2026-05-02T14:11:59.993Z</time></trkpt><trkpt lat="43.2692933" lon="12.9280333"><ele>603.0</ele><time>2026-05-02T14:12:00.993Z</time></trkpt><trkpt lat="43.2692967" lon="12.9281567"><ele>603.0</ele><time>2026-05-02T14:12:01.994Z</time></trkpt><trkpt lat="43.2693083" lon="12.9283"><ele>603.0</ele><time>2026-05-02T14:12:02.995Z</time></trkpt><trkpt lat="43.269305" lon="12.9284567"><ele>603.0</ele><time>2026-05-02T14:12:03.993Z</time></trkpt><trkpt lat="43.2693033" lon="12.9285917"><ele>602.8</ele><time>2026-05-02T14:12:04.993Z</time></trkpt><trkpt lat="43.2692817" lon="12.9287233"><ele>602.5999999999999</ele><time>2026-05-02T14:12:05.996Z</time></trkpt><trkpt lat="43.26926" lon="12.928855"><ele>602.4000000000001</ele><time>2026-05-02T14:12:06.993Z</time></trkpt><trkpt lat="43.2692467" lon="12.9289967"><ele>602.2</ele><time>2026-05-02T14:12:07.994Z</time></trkpt><trkpt lat="43.2692433" lon="12.9291617"><ele>602.0</ele><time>2026-05-02T14:12:08.995Z</time></trkpt><trkpt lat="43.2692433" lon="12.9293367"><ele>601.5</ele><time>2026-05-02T14:12:09.994Z</time></trkpt><trkpt lat="43.2692467" lon="12.9295"><ele>601.0</ele><time>2026-05-02T14:12:10.993Z</time></trkpt><trkpt lat="43.2692583" lon="12.9296533"><ele>600.5</ele><time>2026-05-02T14:12:11.994Z</time></trkpt><trkpt lat="43.2692817" lon="12.92981"><ele>600.0</ele><time>2026-05-02T14:12:12.994Z</time></trkpt><trkpt lat="43.26931" lon="12.929965"><ele>597.6</ele><time>2026-05-02T14:12:13.992Z</time></trkpt><trkpt lat="43.26934" lon="12.9301183"><ele>595.2</ele><time>2026-05-02T14:12:14.994Z</time></trkpt><trkpt lat="43.2693683" lon="12.93026"><ele>592.8</ele><time>2026-05-02T14:12:15.992Z</time></trkpt><trkpt lat="43.2694017" lon="12.930385"><ele>590.4</ele><time>2026-05-02T14:12:16.994Z</time></trkpt><trkpt lat="43.2694383" lon="12.930495"><ele>588.0</ele><time>2026-05-02T14:12:17.993Z</time></trkpt><trkpt lat="43.269485" lon="12.93059"><ele>588.0</ele><time>2026-05-02T14:12:18.996Z</time></trkpt><trkpt lat="43.2695467" lon="12.930675"><ele>588.0</ele><time>2026-05-02T14:12:19.993Z</time></trkpt><trkpt lat="43.2696133" lon="12.9307433"><ele>588.0</ele><time>2026-05-02T14:12:20.994Z</time></trkpt><trkpt lat="43.2696733" lon="12.9308133"><ele>588.0</ele><time>2026-05-02T14:12:21.994Z</time></trkpt><trkpt lat="43.269725" lon="12.93087"><ele>588.0</ele><time>2026-05-02T14:12:22.994Z</time></trkpt><trkpt lat="43.269765" lon="12.93094"><ele>588.0</ele><time>2026-05-02T14:12:23.994Z</time></trkpt><trkpt lat="43.2698283" lon="12.9310367"><ele>588.0</ele><time>2026-05-02T14:12:25.994Z</time></trkpt><trkpt lat="43.2699083" lon="12.931065"><ele>588.0</ele><time>2026-05-02T14:12:27.996Z</time></trkpt><trkpt lat="43.2699267" lon="12.9311767"><ele>588.0</ele><time>2026-05-02T14:12:30.995Z</time></trkpt><trkpt lat="43.2699417" lon="12.9313267"><ele>588.0</ele><time>2026-05-02T14:12:32.995Z</time></trkpt><trkpt lat="43.2700417" lon="12.9314317"><ele>588.0</ele><time>2026-05-02T14:12:34.993Z</time></trkpt><trkpt lat="43.2701167" lon="12.9314883"><ele>588.0</ele><time>2026-05-02T14:12:36.995Z</time></trkpt><trkpt lat="43.2701217" lon="12.9315817"><ele>588.0</ele><time>2026-05-02T14:12:38.995Z</time></trkpt><trkpt lat="43.2701233" lon="12.9316717"><ele>588.0</ele><time>2026-05-02T14:12:39.995Z</time></trkpt><trkpt lat="43.2701833" lon="12.9318"><ele>588.0</ele><time>2026-05-02T14:12:41.995Z</time></trkpt><trkpt lat="43.2702417" lon="12.93185"><ele>588.0</ele><time>2026-05-02T14:12:42.993Z</time></trkpt><trkpt lat="43.2703083" lon="12.931875"><ele>588.0</ele><time>2026-05-02T14:12:43.994Z</time></trkpt><trkpt lat="43.2703717" lon="12.9318883"><ele>588.0</ele><time>2026-05-02T14:12:44.995Z</time></trkpt><trkpt lat="43.2704467" lon="12.9319433"><ele>584.6666666666666</ele><time>2026-05-02T14:12:46.994Z</time></trkpt><trkpt lat="43.270425" lon="12.9320317"><ele>581.3333333333334</ele><time>2026-05-02T14:12:48.995Z</time></trkpt><trkpt lat="43.2704217" lon="12.9321483"><ele>578.0</ele><time>2026-05-02T14:12:50.995Z</time></trkpt><trkpt lat="43.2704733" lon="12.9322383"><ele>574.6666666666667</ele><time>2026-05-02T14:12:52.994Z</time></trkpt><trkpt lat="43.2705533" lon="12.93228"><ele>571.3333333333334</ele><time>2026-05-02T14:12:54.996Z</time></trkpt><trkpt lat="43.2705533" lon="12.9323917"><ele>568.0</ele><time>2026-05-02T14:12:58.994Z</time></trkpt><trkpt lat="43.2704717" lon="12.9324783"><ele>568.0</ele><time>2026-05-02T14:13:00.995Z</time></trkpt><trkpt lat="43.270375" lon="12.932555"><ele>568.0</ele><time>2026-05-02T14:13:01.994Z</time></trkpt><trkpt lat="43.2702867" lon="12.9325933"><ele>568.0</ele><time>2026-05-02T14:13:03.994Z</time></trkpt><trkpt lat="43.270165" lon="12.9325717"><ele>568.0</ele><time>2026-05-02T14:13:05.993Z</time></trkpt><trkpt lat="43.2700983" lon="12.93254"><ele>568.0</ele><time>2026-05-02T14:13:06.995Z</time></trkpt><trkpt lat="43.2700167" lon="12.9325267"><ele>568.0</ele><time>2026-05-02T14:13:07.993Z</time></trkpt><trkpt lat="43.2699233" lon="12.932515"><ele>568.0</ele><time>2026-05-02T14:13:08.995Z</time></trkpt><trkpt lat="43.269835" lon="12.932505"><ele>568.0</ele><time>2026-05-02T14:13:09.994Z</time></trkpt><trkpt lat="43.2697367" lon="12.932495"><ele>568.0</ele><time>2026-05-02T14:13:10.994Z</time></trkpt><trkpt lat="43.2696367" lon="12.9324833"><ele>568.0</ele><time>2026-05-02T14:13:11.995Z</time></trkpt><trkpt lat="43.2695367" lon="12.9324667"><ele>565.1999999999999</ele><time>2026-05-02T14:13:12.993Z</time></trkpt><trkpt lat="43.2694433" lon="12.93245"><ele>562.4</ele><time>2026-05-02T14:13:13.995Z</time></trkpt><trkpt lat="43.2693417" lon="12.9324283"><ele>559.5999999999999</ele><time>2026-05-02T14:13:14.993Z</time></trkpt><trkpt lat="43.26924" lon="12.9324117"><ele>556.8</ele><time>2026-05-02T14:13:15.993Z</time></trkpt><trkpt lat="43.2691417" lon="12.932395"><ele>554.0</ele><time>2026-05-02T14:13:16.994Z</time></trkpt><trkpt lat="43.2690417" lon="12.9323717"><ele>554.0</ele><time>2026-05-02T14:13:17.993Z</time></trkpt><trkpt lat="43.268945" lon="12.932355"><ele>554.0</ele><time>2026-05-02T14:13:18.994Z</time></trkpt><trkpt lat="43.268855" lon="12.9323267"><ele>554.0</ele><time>2026-05-02T14:13:19.993Z</time></trkpt><trkpt lat="43.2687733" lon="12.9323033"><ele>554.0</ele><time>2026-05-02T14:13:20.994Z</time></trkpt><trkpt lat="43.2686933" lon="12.9322767"><ele>554.0</ele><time>2026-05-02T14:13:21.993Z</time></trkpt><trkpt lat="43.2686117" lon="12.9322483"><ele>554.0</ele><time>2026-05-02T14:13:22.994Z</time></trkpt><trkpt lat="43.268545" lon="12.9322083"><ele>549.8</ele><time>2026-05-02T14:13:23.994Z</time></trkpt><trkpt lat="43.2684417" lon="12.9321417"><ele>545.5999999999999</ele><time>2026-05-02T14:13:25.994Z</time></trkpt><trkpt lat="43.2684117" lon="12.9322333"><ele>541.4</ele><time>2026-05-02T14:13:29.993Z</time></trkpt><trkpt lat="43.2684583" lon="12.9323183"><ele>537.1999999999999</ele><time>2026-05-02T14:13:30.993Z</time></trkpt><trkpt lat="43.2685167" lon="12.932435"><ele>533.0</ele><time>2026-05-02T14:13:31.994Z</time></trkpt><trkpt lat="43.2685717" lon="12.9325433"><ele>529.6</ele><time>2026-05-02T14:13:32.995Z</time></trkpt><trkpt lat="43.268615" lon="12.9326283"><ele>526.1999999999999</ele><time>2026-05-02T14:13:33.994Z</time></trkpt><trkpt lat="43.2686667" lon="12.932705"><ele>522.8</ele><time>2026-05-02T14:13:35.994Z</time></trkpt><trkpt lat="43.2685967" lon="12.9327033"><ele>519.4</ele><time>2026-05-02T14:13:38.995Z</time></trkpt><trkpt lat="43.2684583" lon="12.9327167"><ele>516.0</ele><time>2026-05-02T14:13:40.994Z</time></trkpt><trkpt lat="43.2683633" lon="12.932725"><ele>516.0</ele><time>2026-05-02T14:13:41.995Z</time></trkpt><trkpt lat="43.2682667" lon="12.9327367"><ele>516.0</ele><time>2026-05-02T14:13:42.994Z</time></trkpt><trkpt lat="43.2681633" lon="12.9327633"><ele>516.0</ele><time>2026-05-02T14:13:43.995Z</time></trkpt><trkpt lat="43.26803" lon="12.932815"><ele>516.0</ele><time>2026-05-02T14:13:44.996Z</time></trkpt><trkpt lat="43.26791" lon="12.9328667"><ele>514.4</ele><time>2026-05-02T14:13:45.995Z</time></trkpt><trkpt lat="43.2678017" lon="12.9329233"><ele>512.8</ele><time>2026-05-02T14:13:46.994Z</time></trkpt><trkpt lat="43.2677267" lon="12.9329883"><ele>511.19999999999993</ele><time>2026-05-02T14:13:47.993Z</time></trkpt><trkpt lat="43.26765" lon="12.933055"><ele>509.59999999999997</ele><time>2026-05-02T14:13:48.993Z</time></trkpt><trkpt lat="43.2675683" lon="12.933125"><ele>508.0</ele><time>2026-05-02T14:13:49.994Z</time></trkpt><trkpt lat="43.2674817" lon="12.9331933"><ele>508.00000000000006</ele><time>2026-05-02T14:13:50.994Z</time></trkpt><trkpt lat="43.2674033" lon="12.9332617"><ele>508.0</ele><time>2026-05-02T14:13:51.994Z</time></trkpt><trkpt lat="43.267335" lon="12.9333333"><ele>508.0</ele><time>2026-05-02T14:13:52.992Z</time></trkpt><trkpt lat="43.2672717" lon="12.9334"><ele>508.0</ele><time>2026-05-02T14:13:53.994Z</time></trkpt><trkpt lat="43.2672083" lon="12.933465"><ele>508.00000000000006</ele><time>2026-05-02T14:13:54.993Z</time></trkpt><trkpt lat="43.2671467" lon="12.933535"><ele>508.0</ele><time>2026-05-02T14:13:55.993Z</time></trkpt><trkpt lat="43.2670833" lon="12.9336133"><ele>506.2</ele><time>2026-05-02T14:13:56.994Z</time></trkpt><trkpt lat="43.2670183" lon="12.9336983"><ele>504.4</ele><time>2026-05-02T14:13:57.993Z</time></trkpt><trkpt lat="43.266955" lon="12.93379"><ele>502.59999999999997</ele><time>2026-05-02T14:13:58.994Z</time></trkpt><trkpt lat="43.2668883" lon="12.9338817"><ele>500.79999999999995</ele><time>2026-05-02T14:13:59.993Z</time></trkpt><trkpt lat="43.2668133" lon="12.9339783"><ele>499.0</ele><time>2026-05-02T14:14:00.992Z</time></trkpt><trkpt lat="43.2667483" lon="12.9340783"><ele>499.0</ele><time>2026-05-02T14:14:01.993Z</time></trkpt><trkpt lat="43.2666833" lon="12.9341783"><ele>499.0</ele><time>2026-05-02T14:14:02.994Z</time></trkpt><trkpt lat="43.26662" lon="12.9342783"><ele>499.0</ele><time>2026-05-02T14:14:03.994Z</time></trkpt><trkpt lat="43.26656" lon="12.93439"><ele>499.0</ele><time>2026-05-02T14:14:04.993Z</time></trkpt><trkpt lat="43.2664967" lon="12.9345017"><ele>499.0</ele><time>2026-05-02T14:14:05.993Z</time></trkpt><trkpt lat="43.2664333" lon="12.9346217"><ele>497.25</ele><time>2026-05-02T14:14:06.993Z</time></trkpt><trkpt lat="43.2663717" lon="12.9347433"><ele>495.5</ele><time>2026-05-02T14:14:07.994Z</time></trkpt><trkpt lat="43.2663067" lon="12.9348683"><ele>493.75</ele><time>2026-05-02T14:14:08.993Z</time></trkpt><trkpt lat="43.26624" lon="12.9350017"><ele>492.0</ele><time>2026-05-02T14:14:09.993Z</time></trkpt><trkpt lat="43.2661733" lon="12.9351383"><ele>492.0</ele><time>2026-05-02T14:14:10.993Z</time></trkpt><trkpt lat="43.2661033" lon="12.9352833"><ele>492.0</ele><time>2026-05-02T14:14:11.994Z</time></trkpt><trkpt lat="43.266035" lon="12.9354333"><ele>492.0</ele><time>2026-05-02T14:14:12.994Z</time></trkpt><trkpt lat="43.2659717" lon="12.9355817"><ele>492.0</ele><time>2026-05-02T14:14:13.993Z</time></trkpt><trkpt lat="43.2659117" lon="12.9357283"><ele>492.0</ele><time>2026-05-02T14:14:14.994Z</time></trkpt><trkpt lat="43.2658517" lon="12.9358733"><ele>492.0</ele><time>2026-05-02T14:14:15.994Z</time></trkpt><trkpt lat="43.2657967" lon="12.9360183"><ele>492.0</ele><time>2026-05-02T14:14:16.993Z</time></trkpt><trkpt lat="43.2657333" lon="12.93616"><ele>492.0</ele><time>2026-05-02T14:14:17.993Z</time></trkpt><trkpt lat="43.26566" lon="12.93629"><ele>488.5</ele><time>2026-05-02T14:14:18.994Z</time></trkpt><trkpt lat="43.2655717" lon="12.9363983"><ele>485.0</ele><time>2026-05-02T14:14:19.994Z</time></trkpt><trkpt lat="43.2654683" lon="12.9364733"><ele>481.5</ele><time>2026-05-02T14:14:20.994Z</time></trkpt><trkpt lat="43.2653467" lon="12.9365067"><ele>478.0</ele><time>2026-05-02T14:14:21.993Z</time></trkpt><trkpt lat="43.2652233" lon="12.9365033"><ele>478.0</ele><time>2026-05-02T14:14:22.995Z</time></trkpt><trkpt lat="43.26511" lon="12.9364917"><ele>477.99999999999994</ele><time>2026-05-02T14:14:23.994Z</time></trkpt><trkpt lat="43.26501" lon="12.93649"><ele>477.99999999999994</ele><time>2026-05-02T14:14:24.994Z</time></trkpt><trkpt lat="43.2649317" lon="12.9364833"><ele>478.0</ele><time>2026-05-02T14:14:25.992Z</time></trkpt><trkpt lat="43.2648433" lon="12.9364333"><ele>478.0</ele><time>2026-05-02T14:14:27.993Z</time></trkpt><trkpt lat="43.2648533" lon="12.9363367"><ele>478.0</ele><time>2026-05-02T14:14:29.993Z</time></trkpt><trkpt lat="43.2649033" lon="12.9362783"><ele>477.99999999999994</ele><time>2026-05-02T14:14:30.993Z</time></trkpt><trkpt lat="43.26498" lon="12.9361983"><ele>477.99999999999994</ele><time>2026-05-02T14:14:31.993Z</time></trkpt><trkpt lat="43.265055" lon="12.936115"><ele>478.0</ele><time>2026-05-02T14:14:32.995Z</time></trkpt><trkpt lat="43.2651233" lon="12.9360267"><ele>478.0</ele><time>2026-05-02T14:14:33.992Z</time></trkpt><trkpt lat="43.2651883" lon="12.9359267"><ele>477.0</ele><time>2026-05-02T14:14:34.993Z</time></trkpt><trkpt lat="43.2652517" lon="12.935825"><ele>475.99999999999994</ele><time>2026-05-02T14:14:35.993Z</time></trkpt><trkpt lat="43.2653183" lon="12.9357217"><ele>474.99999999999994</ele><time>2026-05-02T14:14:36.994Z</time></trkpt><trkpt lat="43.2653883" lon="12.9356183"><ele>474.0</ele><time>2026-05-02T14:14:37.994Z</time></trkpt><trkpt lat="43.2654583" lon="12.9355233"><ele>473.0</ele><time>2026-05-02T14:14:38.996Z</time></trkpt><trkpt lat="43.2655267" lon="12.93543"><ele>473.0</ele><time>2026-05-02T14:14:39.993Z</time></trkpt><trkpt lat="43.2655967" lon="12.9353267"><ele>472.99999999999994</ele><time>2026-05-02T14:14:40.994Z</time></trkpt><trkpt lat="43.2656583" lon="12.9352083"><ele>472.99999999999994</ele><time>2026-05-02T14:14:41.994Z</time></trkpt><trkpt lat="43.26572" lon="12.9350767"><ele>473.0</ele><time>2026-05-02T14:14:42.994Z</time></trkpt><trkpt lat="43.26578" lon="12.93494"><ele>473.0</ele><time>2026-05-02T14:14:43.993Z</time></trkpt><trkpt lat="43.26584" lon="12.9348033"><ele>475.75</ele><time>2026-05-02T14:14:44.995Z</time></trkpt><trkpt lat="43.2659083" lon="12.9346717"><ele>478.5</ele><time>2026-05-02T14:14:45.994Z</time></trkpt><trkpt lat="43.265975" lon="12.9345433"><ele>481.25</ele><time>2026-05-02T14:14:46.995Z</time></trkpt><trkpt lat="43.2660433" lon="12.934415"><ele>484.0</ele><time>2026-05-02T14:14:47.995Z</time></trkpt><trkpt lat="43.26611" lon="12.9342867"><ele>482.5</ele><time>2026-05-02T14:14:48.994Z</time></trkpt><trkpt lat="43.2661767" lon="12.9341583"><ele>481.0</ele><time>2026-05-02T14:14:49.994Z</time></trkpt><trkpt lat="43.2662417" lon="12.9340267"><ele>479.5</ele><time>2026-05-02T14:14:50.995Z</time></trkpt><trkpt lat="43.266305" lon="12.9338933"><ele>478.0</ele><time>2026-05-02T14:14:51.993Z</time></trkpt><trkpt lat="43.2663633" lon="12.9337567"><ele>478.0</ele><time>2026-05-02T14:14:52.993Z</time></trkpt><trkpt lat="43.266415" lon="12.9336233"><ele>477.99999999999994</ele><time>2026-05-02T14:14:53.995Z</time></trkpt><trkpt lat="43.26646" lon="12.9334933"><ele>477.99999999999994</ele><time>2026-05-02T14:14:54.995Z</time></trkpt><trkpt lat="43.2665067" lon="12.9333667"><ele>478.0</ele><time>2026-05-02T14:14:55.994Z</time></trkpt><trkpt lat="43.2665583" lon="12.9332367"><ele>478.0</ele><time>2026-05-02T14:14:56.994Z</time></trkpt><trkpt lat="43.266615" lon="12.9330983"><ele>479.0</ele><time>2026-05-02T14:14:57.994Z</time></trkpt><trkpt lat="43.2666767" lon="12.93296"><ele>480.0</ele><time>2026-05-02T14:14:58.994Z</time></trkpt><trkpt lat="43.2667367" lon="12.932825"><ele>481.0</ele><time>2026-05-02T14:14:59.993Z</time></trkpt><trkpt lat="43.2667933" lon="12.93268"><ele>482.0</ele><time>2026-05-02T14:15:00.995Z</time></trkpt><trkpt lat="43.2668567" lon="12.9325417"><ele>482.0</ele><time>2026-05-02T14:15:01.993Z</time></trkpt><trkpt lat="43.2669217" lon="12.9324033"><ele>482.0</ele><time>2026-05-02T14:15:02.994Z</time></trkpt><trkpt lat="43.2669867" lon="12.9322583"><ele>482.0</ele><time>2026-05-02T14:15:03.994Z</time></trkpt><trkpt lat="43.2670533" lon="12.9321183"><ele>482.0</ele><time>2026-05-02T14:15:04.994Z</time></trkpt><trkpt lat="43.2671233" lon="12.9319917"><ele>482.0</ele><time>2026-05-02T14:15:05.995Z</time></trkpt><trkpt lat="43.2671917" lon="12.9318717"><ele>482.00000000000006</ele><time>2026-05-02T14:15:06.994Z</time></trkpt><trkpt lat="43.2672367" lon="12.931745"><ele>482.00000000000006</ele><time>2026-05-02T14:15:07.994Z</time></trkpt><trkpt lat="43.26726" lon="12.9315967"><ele>482.0</ele><time>2026-05-02T14:15:08.994Z</time></trkpt><trkpt lat="43.2672633" lon="12.9314433"><ele>482.0</ele><time>2026-05-02T14:15:09.993Z</time></trkpt><trkpt lat="43.2672567" lon="12.93129"><ele>482.0</ele><time>2026-05-02T14:15:10.992Z</time></trkpt><trkpt lat="43.267255" lon="12.9311233"><ele>482.0</ele><time>2026-05-02T14:15:11.994Z</time></trkpt><trkpt lat="43.2672517" lon="12.9309617"><ele>482.0</ele><time>2026-05-02T14:15:12.994Z</time></trkpt><trkpt lat="43.2672333" lon="12.9308067"><ele>482.0</ele><time>2026-05-02T14:15:13.994Z</time></trkpt><trkpt lat="43.2672167" lon="12.9306467"><ele>482.0</ele><time>2026-05-02T14:15:14.994Z</time></trkpt><trkpt lat="43.2671983" lon="12.9304833"><ele>482.0</ele><time>2026-05-02T14:15:15.994Z</time></trkpt><trkpt lat="43.2671783" lon="12.930325"><ele>482.0</ele><time>2026-05-02T14:15:16.993Z</time></trkpt><trkpt lat="43.2671617" lon="12.93017"><ele>482.0</ele><time>2026-05-02T14:15:17.993Z</time></trkpt><trkpt lat="43.2671433" lon="12.9300317"><ele>483.20000000000005</ele><time>2026-05-02T14:15:18.994Z</time></trkpt><trkpt lat="43.2671117" lon="12.929905"><ele>484.40000000000003</ele><time>2026-05-02T14:15:19.994Z</time></trkpt><trkpt lat="43.2670833" lon="12.9297817"><ele>485.59999999999997</ele><time>2026-05-02T14:15:20.995Z</time></trkpt><trkpt lat="43.2670717" lon="12.92967"><ele>486.79999999999995</ele><time>2026-05-02T14:15:21.993Z</time></trkpt><trkpt lat="43.2670683" lon="12.9295517"><ele>488.0</ele><time>2026-05-02T14:15:22.994Z</time></trkpt><trkpt lat="43.2670867" lon="12.9294117"><ele>488.0</ele><time>2026-05-02T14:15:23.994Z</time></trkpt><trkpt lat="43.2671167" lon="12.9292617"><ele>487.99999999999994</ele><time>2026-05-02T14:15:24.994Z</time></trkpt><trkpt lat="43.2671517" lon="12.9291117"><ele>487.99999999999994</ele><time>2026-05-02T14:15:25.994Z</time></trkpt><trkpt lat="43.2671733" lon="12.9289717"><ele>488.0</ele><time>2026-05-02T14:15:26.996Z</time></trkpt><trkpt lat="43.267185" lon="12.9288383"><ele>488.0</ele><time>2026-05-02T14:15:27.993Z</time></trkpt><trkpt lat="43.26718" lon="12.9287083"><ele>488.2</ele><time>2026-05-02T14:15:28.992Z</time></trkpt><trkpt lat="43.2671717" lon="12.9285717"><ele>488.4</ele><time>2026-05-02T14:15:29.994Z</time></trkpt><trkpt lat="43.2671783" lon="12.9284383"><ele>488.59999999999997</ele><time>2026-05-02T14:15:30.995Z</time></trkpt><trkpt lat="43.2671933" lon="12.9283"><ele>488.79999999999995</ele><time>2026-05-02T14:15:31.993Z</time></trkpt><trkpt lat="43.2672233" lon="12.928155"><ele>489.0</ele><time>2026-05-02T14:15:32.995Z</time></trkpt><trkpt lat="43.2672483" lon="12.9280133"><ele>489.0</ele><time>2026-05-02T14:15:33.994Z</time></trkpt><trkpt lat="43.2672683" lon="12.9278817"><ele>489.0</ele><time>2026-05-02T14:15:34.993Z</time></trkpt><trkpt lat="43.2672717" lon="12.92775"><ele>489.0</ele><time>2026-05-02T14:15:35.995Z</time></trkpt><trkpt lat="43.2672633" lon="12.927625"><ele>489.0</ele><time>2026-05-02T14:15:36.994Z</time></trkpt><trkpt lat="43.26725" lon="12.9274933"><ele>489.0</ele><time>2026-05-02T14:15:37.994Z</time></trkpt><trkpt lat="43.26723" lon="12.9273583"><ele>489.75</ele><time>2026-05-02T14:15:38.995Z</time></trkpt><trkpt lat="43.267195" lon="12.9272083"><ele>490.5</ele><time>2026-05-02T14:15:39.993Z</time></trkpt><trkpt lat="43.2671633" lon="12.9270417"><ele>491.25</ele><time>2026-05-02T14:15:40.993Z</time></trkpt><trkpt lat="43.26713" lon="12.92686"><ele>492.0</ele><time>2026-05-02T14:15:41.995Z</time></trkpt><trkpt lat="43.2670883" lon="12.9266717"><ele>492.5</ele><time>2026-05-02T14:15:42.994Z</time></trkpt><trkpt lat="43.2670483" lon="12.926495"><ele>493.0</ele><time>2026-05-02T14:15:43.993Z</time></trkpt><trkpt lat="43.2670167" lon="12.9263233"><ele>493.5</ele><time>2026-05-02T14:15:44.995Z</time></trkpt><trkpt lat="43.266985" lon="12.9261533"><ele>494.0</ele><time>2026-05-02T14:15:45.993Z</time></trkpt><trkpt lat="43.26696" lon="12.9259917"><ele>494.5</ele><time>2026-05-02T14:15:46.993Z</time></trkpt><trkpt lat="43.2669233" lon="12.9258317"><ele>495.0</ele><time>2026-05-02T14:15:47.995Z</time></trkpt><trkpt lat="43.2668717" lon="12.9256817"><ele>495.5</ele><time>2026-05-02T14:15:48.995Z</time></trkpt><trkpt lat="43.2668217" lon="12.9255417"><ele>496.0</ele><time>2026-05-02T14:15:49.994Z</time></trkpt><trkpt lat="43.2667683" lon="12.9253967"><ele>496.0</ele><time>2026-05-02T14:15:50.994Z</time></trkpt><trkpt lat="43.2667117" lon="12.9252433"><ele>496.0</ele><time>2026-05-02T14:15:51.993Z</time></trkpt><trkpt lat="43.26665" lon="12.92509"><ele>496.0</ele><time>2026-05-02T14:15:52.993Z</time></trkpt><trkpt lat="43.26659" lon="12.924945"><ele>496.0</ele><time>2026-05-02T14:15:53.994Z</time></trkpt><trkpt lat="43.2665433" lon="12.9248117"><ele>498.0</ele><time>2026-05-02T14:15:54.994Z</time></trkpt><trkpt lat="43.2665217" lon="12.9246783"><ele>500.0</ele><time>2026-05-02T14:15:55.994Z</time></trkpt><trkpt lat="43.2665033" lon="12.92453"><ele>502.0</ele><time>2026-05-02T14:15:56.995Z</time></trkpt><trkpt lat="43.2664933" lon="12.9243617"><ele>504.0</ele><time>2026-05-02T14:15:57.993Z</time></trkpt><trkpt lat="43.2664883" lon="12.92418"><ele>505.5</ele><time>2026-05-02T14:15:58.994Z</time></trkpt><trkpt lat="43.2664883" lon="12.9239883"><ele>507.0</ele><time>2026-05-02T14:15:59.993Z</time></trkpt><trkpt lat="43.2664883" lon="12.923795"><ele>508.5</ele><time>2026-05-02T14:16:00.995Z</time></trkpt><trkpt lat="43.26648" lon="12.9236133"><ele>510.0</ele><time>2026-05-02T14:16:01.994Z</time></trkpt><trkpt lat="43.26648" lon="12.92344"><ele>510.5</ele><time>2026-05-02T14:16:02.994Z</time></trkpt><trkpt lat="43.2664767" lon="12.923275"><ele>511.0</ele><time>2026-05-02T14:16:03.993Z</time></trkpt><trkpt lat="43.2664583" lon="12.9231117"><ele>511.5</ele><time>2026-05-02T14:16:04.993Z</time></trkpt><trkpt lat="43.2664367" lon="12.9229483"><ele>512.0</ele><time>2026-05-02T14:16:05.994Z</time></trkpt><trkpt lat="43.2664133" lon="12.92279"><ele>512.0</ele><time>2026-05-02T14:16:06.994Z</time></trkpt><trkpt lat="43.2663917" lon="12.92264"><ele>512.0</ele><time>2026-05-02T14:16:07.995Z</time></trkpt><trkpt lat="43.2663617" lon="12.9224917"><ele>512.0</ele><time>2026-05-02T14:16:08.995Z</time></trkpt><trkpt lat="43.2663133" lon="12.9223533"><ele>512.0</ele><time>2026-05-02T14:16:09.994Z</time></trkpt><trkpt lat="43.2662467" lon="12.9222333"><ele>512.0</ele><time>2026-05-02T14:16:10.994Z</time></trkpt><trkpt lat="43.2661767" lon="12.922125"><ele>512.2</ele><time>2026-05-02T14:16:11.994Z</time></trkpt><trkpt lat="43.266105" lon="12.9220167"><ele>512.4000000000001</ele><time>2026-05-02T14:16:12.995Z</time></trkpt><trkpt lat="43.2660383" lon="12.9219017"><ele>512.5999999999999</ele><time>2026-05-02T14:16:13.994Z</time></trkpt><trkpt lat="43.2659783" lon="12.9217767"><ele>512.8</ele><time>2026-05-02T14:16:14.995Z</time></trkpt><trkpt lat="43.265915" lon="12.9216567"><ele>513.0</ele><time>2026-05-02T14:16:15.996Z</time></trkpt><trkpt lat="43.265845" lon="12.9215467"><ele>513.0</ele><time>2026-05-02T14:16:16.996Z</time></trkpt><trkpt lat="43.2657733" lon="12.92145"><ele>513.0</ele><time>2026-05-02T14:16:17.996Z</time></trkpt><trkpt lat="43.2657117" lon="12.9213583"><ele>513.0</ele><time>2026-05-02T14:16:18.996Z</time></trkpt><trkpt lat="43.265665" lon="12.9212617"><ele>513.0</ele><time>2026-05-02T14:16:19.997Z</time></trkpt><trkpt lat="43.2656233" lon="12.9211567"><ele>513.0</ele><time>2026-05-02T14:16:20.997Z</time></trkpt><trkpt lat="43.2655933" lon="12.921035"><ele>515.75</ele><time>2026-05-02T14:16:21.995Z</time></trkpt><trkpt lat="43.2655683" lon="12.9209"><ele>518.5</ele><time>2026-05-02T14:16:22.995Z</time></trkpt><trkpt lat="43.2655417" lon="12.92075"><ele>521.25</ele><time>2026-05-02T14:16:23.996Z</time></trkpt><trkpt lat="43.2655217" lon="12.9205867"><ele>524.0</ele><time>2026-05-02T14:16:24.997Z</time></trkpt><trkpt lat="43.2655033" lon="12.92041"><ele>524.0</ele><time>2026-05-02T14:16:25.997Z</time></trkpt><trkpt lat="43.2654917" lon="12.9202217"><ele>524.0</ele><time>2026-05-02T14:16:26.998Z</time></trkpt><trkpt lat="43.2654933" lon="12.9200333"><ele>524.0</ele><time>2026-05-02T14:16:27.996Z</time></trkpt><trkpt lat="43.265485" lon="12.919855"><ele>524.0</ele><time>2026-05-02T14:16:28.995Z</time></trkpt><trkpt lat="43.265465" lon="12.9196833"><ele>523.0</ele><time>2026-05-02T14:16:29.997Z</time></trkpt><trkpt lat="43.2654433" lon="12.9195117"><ele>522.0</ele><time>2026-05-02T14:16:30.996Z</time></trkpt><trkpt lat="43.265415" lon="12.919335"><ele>521.0</ele><time>2026-05-02T14:16:31.996Z</time></trkpt><trkpt lat="43.2653867" lon="12.91916"><ele>520.0</ele><time>2026-05-02T14:16:32.997Z</time></trkpt><trkpt lat="43.26535" lon="12.918995"><ele>520.0</ele><time>2026-05-02T14:16:33.998Z</time></trkpt><trkpt lat="43.26531" lon="12.91884"><ele>520.0</ele><time>2026-05-02T14:16:34.996Z</time></trkpt><trkpt lat="43.2652633" lon="12.9186983"><ele>520.0</ele><time>2026-05-02T14:16:35.996Z</time></trkpt><trkpt lat="43.2652183" lon="12.9185667"><ele>520.0</ele><time>2026-05-02T14:16:36.998Z</time></trkpt><trkpt lat="43.2651817" lon="12.9184317"><ele>520.0</ele><time>2026-05-02T14:16:37.996Z</time></trkpt><trkpt lat="43.2651567" lon="12.91828"><ele>521.0</ele><time>2026-05-02T14:16:38.998Z</time></trkpt><trkpt lat="43.2651433" lon="12.9181183"><ele>522.0</ele><time>2026-05-02T14:16:39.995Z</time></trkpt><trkpt lat="43.2651367" lon="12.9179467"><ele>523.0</ele><time>2026-05-02T14:16:40.997Z</time></trkpt><trkpt lat="43.265145" lon="12.9177933"><ele>524.0</ele><time>2026-05-02T14:16:41.993Z</time></trkpt><trkpt lat="43.265175" lon="12.9176567"><ele>524.2</ele><time>2026-05-02T14:16:42.996Z</time></trkpt><trkpt lat="43.265215" lon="12.9175233"><ele>524.4</ele><time>2026-05-02T14:16:43.995Z</time></trkpt><trkpt lat="43.265245" lon="12.9173867"><ele>524.6</ele><time>2026-05-02T14:16:44.995Z</time></trkpt><trkpt lat="43.2652583" lon="12.917245"><ele>524.8</ele><time>2026-05-02T14:16:45.994Z</time></trkpt><trkpt lat="43.2652517" lon="12.9171"><ele>525.0</ele><time>2026-05-02T14:16:46.995Z</time></trkpt><trkpt lat="43.26523" lon="12.9169467"><ele>525.0</ele><time>2026-05-02T14:16:47.993Z</time></trkpt><trkpt lat="43.2652067" lon="12.9167917"><ele>525.0</ele><time>2026-05-02T14:16:48.994Z</time></trkpt><trkpt lat="43.2651883" lon="12.916635"><ele>525.0</ele><time>2026-05-02T14:16:49.994Z</time></trkpt><trkpt lat="43.2651833" lon="12.91648"><ele>525.0</ele><time>2026-05-02T14:16:50.995Z</time></trkpt><trkpt lat="43.2651833" lon="12.916325"><ele>525.2</ele><time>2026-05-02T14:16:51.995Z</time></trkpt><trkpt lat="43.26518" lon="12.9161733"><ele>525.4</ele><time>2026-05-02T14:16:52.993Z</time></trkpt><trkpt lat="43.2651633" lon="12.91603"><ele>525.6</ele><time>2026-05-02T14:16:53.995Z</time></trkpt><trkpt lat="43.2651283" lon="12.9159067"><ele>525.8</ele><time>2026-05-02T14:16:54.994Z</time></trkpt><trkpt lat="43.2650667" lon="12.915805"><ele>526.0</ele><time>2026-05-02T14:16:55.993Z</time></trkpt><trkpt lat="43.2649817" lon="12.915715"><ele>526.6</ele><time>2026-05-02T14:16:56.995Z</time></trkpt><trkpt lat="43.2649" lon="12.9156317"><ele>527.2</ele><time>2026-05-02T14:16:57.994Z</time></trkpt><trkpt lat="43.264825" lon="12.9155217"><ele>527.8</ele><time>2026-05-02T14:16:58.995Z</time></trkpt><trkpt lat="43.264755" lon="12.9154"><ele>528.4</ele><time>2026-05-02T14:16:59.993Z</time></trkpt><trkpt lat="43.2646883" lon="12.91528"><ele>529.0</ele><time>2026-05-02T14:17:00.995Z</time></trkpt><trkpt lat="43.2646217" lon="12.9151717"><ele>530.8</ele><time>2026-05-02T14:17:01.994Z</time></trkpt><trkpt lat="43.26457" lon="12.9150667"><ele>532.5999999999999</ele><time>2026-05-02T14:17:02.995Z</time></trkpt><trkpt lat="43.2645217" lon="12.91495"><ele>534.4</ele><time>2026-05-02T14:17:03.994Z</time></trkpt><trkpt lat="43.2644817" lon="12.9148217"><ele>536.1999999999999</ele><time>2026-05-02T14:17:04.993Z</time></trkpt><trkpt lat="43.2644483" lon="12.9146867"><ele>538.0</ele><time>2026-05-02T14:17:05.993Z</time></trkpt><trkpt lat="43.2644283" lon="12.91455"><ele>538.0</ele><time>2026-05-02T14:17:06.994Z</time></trkpt><trkpt lat="43.264415" lon="12.9144133"><ele>538.0</ele><time>2026-05-02T14:17:07.993Z</time></trkpt><trkpt lat="43.2644" lon="12.9142683"><ele>538.0</ele><time>2026-05-02T14:17:08.995Z</time></trkpt><trkpt lat="43.2643767" lon="12.91413"><ele>538.0</ele><time>2026-05-02T14:17:09.99Z</time></trkpt><trkpt lat="43.264345" lon="12.9139917"><ele>538.0</ele><time>2026-05-02T14:17:10.993Z</time></trkpt><trkpt lat="43.2643067" lon="12.9138517"><ele>537.1999999999999</ele><time>2026-05-02T14:17:11.993Z</time></trkpt><trkpt lat="43.26426" lon="12.9137117"><ele>536.4</ele><time>2026-05-02T14:17:12.995Z</time></trkpt><trkpt lat="43.264215" lon="12.9135783"><ele>535.5999999999999</ele><time>2026-05-02T14:17:13.994Z</time></trkpt><trkpt lat="43.2641817" lon="12.9134517"><ele>534.8</ele><time>2026-05-02T14:17:14.995Z</time></trkpt><trkpt lat="43.26417" lon="12.9133117"><ele>534.0</ele><time>2026-05-02T14:17:15.993Z</time></trkpt><trkpt lat="43.2641683" lon="12.9131533"><ele>534.25</ele><time>2026-05-02T14:17:16.994Z</time></trkpt><trkpt lat="43.2641683" lon="12.912985"><ele>534.5</ele><time>2026-05-02T14:17:17.996Z</time></trkpt><trkpt lat="43.2641717" lon="12.9128217"><ele>534.75</ele><time>2026-05-02T14:17:18.994Z</time></trkpt><trkpt lat="43.2641767" lon="12.9126617"><ele>535.0</ele><time>2026-05-02T14:17:19.993Z</time></trkpt><trkpt lat="43.2641833" lon="12.91251"><ele>535.0</ele><time>2026-05-02T14:17:20.996Z</time></trkpt><trkpt lat="43.2641833" lon="12.91237"><ele>535.0</ele><time>2026-05-02T14:17:21.994Z</time></trkpt><trkpt lat="43.2641783" lon="12.9122483"><ele>535.0</ele><time>2026-05-02T14:17:22.994Z</time></trkpt><trkpt lat="43.264175" lon="12.9121367"><ele>535.0</ele><time>2026-05-02T14:17:23.995Z</time></trkpt><trkpt lat="43.2641667" lon="12.912025"><ele>535.0</ele><time>2026-05-02T14:17:24.994Z</time></trkpt><trkpt lat="43.264155" lon="12.9119083"><ele>535.0</ele><time>2026-05-02T14:17:25.994Z</time></trkpt><trkpt lat="43.2641517" lon="12.9117833"><ele>536.0</ele><time>2026-05-02T14:17:26.994Z</time></trkpt><trkpt lat="43.2641617" lon="12.9116517"><ele>537.0</ele><time>2026-05-02T14:17:27.995Z</time></trkpt><trkpt lat="43.26418" lon="12.911505"><ele>538.0</ele><time>2026-05-02T14:17:28.993Z</time></trkpt><trkpt lat="43.264195" lon="12.91135"><ele>539.0</ele><time>2026-05-02T14:17:29.994Z</time></trkpt><trkpt lat="43.264205" lon="12.9111967"><ele>540.0</ele><time>2026-05-02T14:17:30.994Z</time></trkpt><trkpt lat="43.2642067" lon="12.91105"><ele>540.2</ele><time>2026-05-02T14:17:31.994Z</time></trkpt><trkpt lat="43.2642067" lon="12.910905"><ele>540.4</ele><time>2026-05-02T14:17:32.996Z</time></trkpt><trkpt lat="43.2642067" lon="12.910775"><ele>540.6</ele><time>2026-05-02T14:17:33.994Z</time></trkpt><trkpt lat="43.264205" lon="12.9106667"><ele>540.8</ele><time>2026-05-02T14:17:34.995Z</time></trkpt><trkpt lat="43.2641917" lon="12.9105183"><ele>541.0</ele><time>2026-05-02T14:17:36.993Z</time></trkpt><trkpt lat="43.264175" lon="12.9103667"><ele>541.0</ele><time>2026-05-02T14:17:38.995Z</time></trkpt><trkpt lat="43.264175" lon="12.9101967"><ele>541.0</ele><time>2026-05-02T14:17:40.994Z</time></trkpt><trkpt lat="43.2641683" lon="12.9101067"><ele>541.0</ele><time>2026-05-02T14:17:41.993Z</time></trkpt><trkpt lat="43.26415" lon="12.9100183"><ele>541.0</ele><time>2026-05-02T14:17:42.993Z</time></trkpt><trkpt lat="43.26412" lon="12.9099333"><ele>541.0</ele><time>2026-05-02T14:17:43.992Z</time></trkpt><trkpt lat="43.2640533" lon="12.9097817"><ele>542.0</ele><time>2026-05-02T14:17:45.994Z</time></trkpt><trkpt lat="43.264005" lon="12.9096967"><ele>543.0</ele><time>2026-05-02T14:17:46.994Z</time></trkpt><trkpt lat="43.2639667" lon="12.9096033"><ele>544.0</ele><time>2026-05-02T14:17:47.994Z</time></trkpt><trkpt lat="43.2639317" lon="12.909505"><ele>545.0</ele><time>2026-05-02T14:17:48.994Z</time></trkpt><trkpt lat="43.2639" lon="12.9094083"><ele>546.0</ele><time>2026-05-02T14:17:49.994Z</time></trkpt><trkpt lat="43.26386" lon="12.909315"><ele>547.0</ele><time>2026-05-02T14:17:50.994Z</time></trkpt><trkpt lat="43.2638217" lon="12.90922"><ele>551.0</ele><time>2026-05-02T14:17:51.993Z</time></trkpt><trkpt lat="43.2637867" lon="12.9091217"><ele>555.0</ele><time>2026-05-02T14:17:52.994Z</time></trkpt><trkpt lat="43.2637433" lon="12.90902"><ele>559.0</ele><time>2026-05-02T14:17:53.995Z</time></trkpt><trkpt lat="43.2636783" lon="12.90893"><ele>563.0</ele><time>2026-05-02T14:17:54.996Z</time></trkpt><trkpt lat="43.263595" lon="12.908845"><ele>567.0</ele><time>2026-05-02T14:17:55.993Z</time></trkpt><trkpt lat="43.2635133" lon="12.9087633"><ele>567.0</ele><time>2026-05-02T14:17:56.995Z</time></trkpt><trkpt lat="43.26342" lon="12.9086683"><ele>567.0</ele><time>2026-05-02T14:17:57.994Z</time></trkpt><trkpt lat="43.2633267" lon="12.9085633"><ele>567.0</ele><time>2026-05-02T14:17:58.995Z</time></trkpt><trkpt lat="43.2632483" lon="12.90845"><ele>567.0</ele><time>2026-05-02T14:17:59.995Z</time></trkpt><trkpt lat="43.2631833" lon="12.9083367"><ele>563.8000000000001</ele><time>2026-05-02T14:18:00.994Z</time></trkpt><trkpt lat="43.2631617" lon="12.908215"><ele>560.6</ele><time>2026-05-02T14:18:01.995Z</time></trkpt><trkpt lat="43.263155" lon="12.908085"><ele>557.4000000000001</ele><time>2026-05-02T14:18:02.995Z</time></trkpt><trkpt lat="43.2631617" lon="12.90795"><ele>554.2</ele><time>2026-05-02T14:18:03.993Z</time></trkpt><trkpt lat="43.2631783" lon="12.90782"><ele>551.0</ele><time>2026-05-02T14:18:04.993Z</time></trkpt><trkpt lat="43.2632067" lon="12.9077"><ele>551.0</ele><time>2026-05-02T14:18:05.993Z</time></trkpt><trkpt lat="43.26324" lon="12.9075933"><ele>551.0</ele><time>2026-05-02T14:18:06.998Z</time></trkpt><trkpt lat="43.2632883" lon="12.9074983"><ele>551.0</ele><time>2026-05-02T14:18:07.993Z</time></trkpt><trkpt lat="43.2633467" lon="12.9074067"><ele>551.0</ele><time>2026-05-02T14:18:08.995Z</time></trkpt><trkpt lat="43.26341" lon="12.9073083"><ele>551.0</ele><time>2026-05-02T14:18:09.993Z</time></trkpt><trkpt lat="43.2634733" lon="12.9072017"><ele>550.0</ele><time>2026-05-02T14:18:10.994Z</time></trkpt><trkpt lat="43.2635467" lon="12.9070933"><ele>549.0</ele><time>2026-05-02T14:18:11.994Z</time></trkpt><trkpt lat="43.26362" lon="12.9069817"><ele>548.0</ele><time>2026-05-02T14:18:12.993Z</time></trkpt><trkpt lat="43.2636933" lon="12.90687"><ele>547.0</ele><time>2026-05-02T14:18:13.993Z</time></trkpt><trkpt lat="43.2637683" lon="12.9067633"><ele>546.0</ele><time>2026-05-02T14:18:14.994Z</time></trkpt><trkpt lat="43.2638517" lon="12.9066533"><ele>548.5</ele><time>2026-05-02T14:18:15.993Z</time></trkpt><trkpt lat="43.26394" lon="12.9065467"><ele>551.0</ele><time>2026-05-02T14:18:16.993Z</time></trkpt><trkpt lat="43.2640317" lon="12.9064417"><ele>553.5</ele><time>2026-05-02T14:18:17.993Z</time></trkpt><trkpt lat="43.2641233" lon="12.90634"><ele>556.0</ele><time>2026-05-02T14:18:18.993Z</time></trkpt><trkpt lat="43.2642167" lon="12.906235"><ele>556.0</ele><time>2026-05-02T14:18:19.995Z</time></trkpt><trkpt lat="43.264315" lon="12.9061233"><ele>556.0</ele><time>2026-05-02T14:18:20.995Z</time></trkpt><trkpt lat="43.2644167" lon="12.90601"><ele>556.0</ele><time>2026-05-02T14:18:21.993Z</time></trkpt><trkpt lat="43.2645183" lon="12.9058967"><ele>556.0</ele><time>2026-05-02T14:18:22.993Z</time></trkpt><trkpt lat="43.2646167" lon="12.905785"><ele>556.0</ele><time>2026-05-02T14:18:23.995Z</time></trkpt><trkpt lat="43.264715" lon="12.9056783"><ele>556.0</ele><time>2026-05-02T14:18:24.989Z</time></trkpt><trkpt lat="43.2648083" lon="12.9055717"><ele>556.0</ele><time>2026-05-02T14:18:25.993Z</time></trkpt><trkpt lat="43.264905" lon="12.9054617"><ele>556.0</ele><time>2026-05-02T14:18:26.993Z</time></trkpt><trkpt lat="43.2650083" lon="12.905345"><ele>558.25</ele><time>2026-05-02T14:18:27.995Z</time></trkpt><trkpt lat="43.26511" lon="12.905225"><ele>560.5</ele><time>2026-05-02T14:18:28.993Z</time></trkpt><trkpt lat="43.2652183" lon="12.9051017"><ele>562.75</ele><time>2026-05-02T14:18:29.994Z</time></trkpt><trkpt lat="43.265325" lon="12.9049733"><ele>565.0</ele><time>2026-05-02T14:18:30.993Z</time></trkpt><trkpt lat="43.2654367" lon="12.9048383"><ele>565.0</ele><time>2026-05-02T14:18:31.994Z</time></trkpt><trkpt lat="43.265545" lon="12.9046933"><ele>565.0</ele><time>2026-05-02T14:18:32.994Z</time></trkpt><trkpt lat="43.2656483" lon="12.90454"><ele>565.0</ele><time>2026-05-02T14:18:33.994Z</time></trkpt><trkpt lat="43.2657533" lon="12.90439"><ele>567.0</ele><time>2026-05-02T14:18:34.994Z</time></trkpt><trkpt lat="43.2658583" lon="12.9042383"><ele>569.0</ele><time>2026-05-02T14:18:35.995Z</time></trkpt><trkpt lat="43.265965" lon="12.9040967"><ele>571.0</ele><time>2026-05-02T14:18:36.995Z</time></trkpt><trkpt lat="43.2660767" lon="12.9039533"><ele>571.0</ele><time>2026-05-02T14:18:37.994Z</time></trkpt><trkpt lat="43.26619" lon="12.9038067"><ele>571.0</ele><time>2026-05-02T14:18:38.994Z</time></trkpt><trkpt lat="43.2663017" lon="12.9036617"><ele>571.0</ele><time>2026-05-02T14:18:39.992Z</time></trkpt><trkpt lat="43.266415" lon="12.90352"><ele>574.6666666666667</ele><time>2026-05-02T14:18:40.993Z</time></trkpt><trkpt lat="43.2665333" lon="12.9033833"><ele>578.3333333333334</ele><time>2026-05-02T14:18:41.995Z</time></trkpt><trkpt lat="43.2666567" lon="12.9032517"><ele>582.0</ele><time>2026-05-02T14:18:42.995Z</time></trkpt><trkpt lat="43.2667817" lon="12.9031283"><ele>582.0</ele><time>2026-05-02T14:18:43.994Z</time></trkpt><trkpt lat="43.2669083" lon="12.9030033"><ele>582.0</ele><time>2026-05-02T14:18:44.995Z</time></trkpt><trkpt lat="43.26703" lon="12.902875"><ele>582.0</ele><time>2026-05-02T14:18:45.993Z</time></trkpt><trkpt lat="43.26715" lon="12.9027567"><ele>582.0</ele><time>2026-05-02T14:18:46.993Z</time></trkpt><trkpt lat="43.2672683" lon="12.9026417"><ele>582.0</ele><time>2026-05-02T14:18:47.995Z</time></trkpt><trkpt lat="43.267385" lon="12.9025217"><ele>582.0</ele><time>2026-05-02T14:18:48.992Z</time></trkpt><trkpt lat="43.2675017" lon="12.9024083"><ele>582.0</ele><time>2026-05-02T14:18:49.993Z</time></trkpt><trkpt lat="43.2676117" lon="12.902295"><ele>584.25</ele><time>2026-05-02T14:18:50.993Z</time></trkpt><trkpt lat="43.2677217" lon="12.9021783"><ele>586.5</ele><time>2026-05-02T14:18:51.995Z</time></trkpt><trkpt lat="43.2678267" lon="12.9020767"><ele>588.75</ele><time>2026-05-02T14:18:52.993Z</time></trkpt><trkpt lat="43.2679267" lon="12.901985"><ele>591.0</ele><time>2026-05-02T14:18:53.994Z</time></trkpt><trkpt lat="43.268015" lon="12.901905"><ele>591.0</ele><time>2026-05-02T14:18:54.994Z</time></trkpt><trkpt lat="43.268075" lon="12.90183"><ele>591.0</ele><time>2026-05-02T14:18:55.993Z</time></trkpt><trkpt lat="43.2681217" lon="12.9016933"><ele>591.0</ele><time>2026-05-02T14:18:57.993Z</time></trkpt><trkpt lat="43.2680383" lon="12.901585"><ele>591.0</ele><time>2026-05-02T14:18:59.994Z</time></trkpt><trkpt lat="43.2679933" lon="12.9015183"><ele>591.0</ele><time>2026-05-02T14:19:00.995Z</time></trkpt><trkpt lat="43.26793" lon="12.9013983"><ele>592.5</ele><time>2026-05-02T14:19:02.994Z</time></trkpt><trkpt lat="43.2678417" lon="12.901305"><ele>594.0</ele><time>2026-05-02T14:19:04.99Z</time></trkpt><trkpt lat="43.267775" lon="12.9011933"><ele>595.5</ele><time>2026-05-02T14:19:06.995Z</time></trkpt><trkpt lat="43.2677517" lon="12.9009767"><ele>597.0</ele><time>2026-05-02T14:19:08.996Z</time></trkpt><trkpt lat="43.2677417" lon="12.900855"><ele>599.8000000000001</ele><time>2026-05-02T14:19:09.994Z</time></trkpt><trkpt lat="43.2677233" lon="12.90074"><ele>602.6</ele><time>2026-05-02T14:19:10.993Z</time></trkpt><trkpt lat="43.2677167" lon="12.9006317"><ele>605.4000000000001</ele><time>2026-05-02T14:19:11.994Z</time></trkpt><trkpt lat="43.2677" lon="12.900505"><ele>608.2</ele><time>2026-05-02T14:19:12.996Z</time></trkpt><trkpt lat="43.2676767" lon="12.9003533"><ele>611.0</ele><time>2026-05-02T14:19:13.993Z</time></trkpt><trkpt lat="43.2676633" lon="12.9001983"><ele>611.8333333333333</ele><time>2026-05-02T14:19:14.991Z</time></trkpt><trkpt lat="43.26764" lon="12.9000633"><ele>612.6666666666666</ele><time>2026-05-02T14:19:15.994Z</time></trkpt><trkpt lat="43.26762" lon="12.8999617"><ele>613.5</ele><time>2026-05-02T14:19:16.994Z</time></trkpt><trkpt lat="43.2675683" lon="12.8998383"><ele>614.3333333333334</ele><time>2026-05-02T14:19:18.994Z</time></trkpt><trkpt lat="43.26754" lon="12.8997417"><ele>615.1666666666667</ele><time>2026-05-02T14:19:20.995Z</time></trkpt><trkpt lat="43.2675383" lon="12.8996333"><ele>616.0</ele><time>2026-05-02T14:19:22.994Z</time></trkpt><trkpt lat="43.2675433" lon="12.8995033"><ele>616.0</ele><time>2026-05-02T14:19:24.993Z</time></trkpt><trkpt lat="43.2675267" lon="12.899365"><ele>616.0</ele><time>2026-05-02T14:19:26.995Z</time></trkpt><trkpt lat="43.2675133" lon="12.8992133"><ele>616.0</ele><time>2026-05-02T14:19:28.994Z</time></trkpt><trkpt lat="43.26748" lon="12.8990467"><ele>616.0</ele><time>2026-05-02T14:19:30.994Z</time></trkpt><trkpt lat="43.2674433" lon="12.8989017"><ele>617.2</ele><time>2026-05-02T14:19:32.995Z</time></trkpt><trkpt lat="43.2674367" lon="12.898785"><ele>618.4000000000001</ele><time>2026-05-02T14:19:34.995Z</time></trkpt><trkpt lat="43.2674367" lon="12.8986383"><ele>619.6</ele><time>2026-05-02T14:19:36.994Z</time></trkpt><trkpt lat="43.2674433" lon="12.8984633"><ele>620.8000000000001</ele><time>2026-05-02T14:19:38.995Z</time></trkpt><trkpt lat="43.267445" lon="12.8983767"><ele>622.0</ele><time>2026-05-02T14:19:39.999Z</time></trkpt><trkpt lat="43.2674483" lon="12.8982817"><ele>623.6</ele><time>2026-05-02T14:19:40.993Z</time></trkpt><trkpt lat="43.2674433" lon="12.8981817"><ele>625.2</ele><time>2026-05-02T14:19:41.994Z</time></trkpt><trkpt lat="43.2674417" lon="12.8980833"><ele>626.8</ele><time>2026-05-02T14:19:42.994Z</time></trkpt><trkpt lat="43.2674317" lon="12.8979917"><ele>628.4</ele><time>2026-05-02T14:19:43.993Z</time></trkpt><trkpt lat="43.2673983" lon="12.8978383"><ele>630.0</ele><time>2026-05-02T14:19:45.994Z</time></trkpt><trkpt lat="43.2673567" lon="12.8976767"><ele>632.0</ele><time>2026-05-02T14:19:47.994Z</time></trkpt><trkpt lat="43.2673067" lon="12.8975367"><ele>634.0</ele><time>2026-05-02T14:19:49.994Z</time></trkpt><trkpt lat="43.26724" lon="12.897425"><ele>636.0</ele><time>2026-05-02T14:19:51.994Z</time></trkpt><trkpt lat="43.2671567" lon="12.8973083"><ele>638.0</ele><time>2026-05-02T14:19:53.996Z</time></trkpt><trkpt lat="43.2671083" lon="12.897215"><ele>640.0</ele><time>2026-05-02T14:19:55.994Z</time></trkpt><trkpt lat="43.2670783" lon="12.8971383"><ele>642.6</ele><time>2026-05-02T14:19:57.994Z</time></trkpt><trkpt lat="43.2670033" lon="12.8970633"><ele>645.2</ele><time>2026-05-02T14:20:00.995Z</time></trkpt><trkpt lat="43.266955" lon="12.89699"><ele>647.8</ele><time>2026-05-02T14:20:02.995Z</time></trkpt><trkpt lat="43.26691" lon="12.8968733"><ele>650.4</ele><time>2026-05-02T14:20:04.994Z</time></trkpt><trkpt lat="43.2668683" lon="12.896735"><ele>653.0</ele><time>2026-05-02T14:20:06.994Z</time></trkpt><trkpt lat="43.2668083" lon="12.89663"><ele>654.1428571428572</ele><time>2026-05-02T14:20:08.995Z</time></trkpt><trkpt lat="43.2667733" lon="12.89652"><ele>655.2857142857143</ele><time>2026-05-02T14:20:10.994Z</time></trkpt><trkpt lat="43.2667533" lon="12.8964217"><ele>656.4285714285714</ele><time>2026-05-02T14:20:13.994Z</time></trkpt><trkpt lat="43.26677" lon="12.8963383"><ele>657.5714285714287</ele><time>2026-05-02T14:20:16.995Z</time></trkpt><trkpt lat="43.2667883" lon="12.8962483"><ele>658.7142857142858</ele><time>2026-05-02T14:20:19.993Z</time></trkpt><trkpt lat="43.2668067" lon="12.8961583"><ele>659.8571428571429</ele><time>2026-05-02T14:20:22.994Z</time></trkpt><trkpt lat="43.26685" lon="12.8960883"><ele>661.0</ele><time>2026-05-02T14:20:24.994Z</time></trkpt><trkpt lat="43.2669067" lon="12.8959817"><ele>665.4</ele><time>2026-05-02T14:20:26.993Z</time></trkpt><trkpt lat="43.266965" lon="12.8958917"><ele>669.8</ele><time>2026-05-02T14:20:28.993Z</time></trkpt><trkpt lat="43.2670014" lon="12.8957799"><ele>674.1999999999999</ele><time>2026-05-02T14:20:31.993Z</time></trkpt><trkpt lat="43.266943" lon="12.8957024"><ele>678.5999999999999</ele><time>2026-05-02T14:20:35.994Z</time></trkpt><trkpt lat="43.266847" lon="12.8957174"><ele>683.0</ele><time>2026-05-02T14:20:37.994Z</time></trkpt><trkpt lat="43.2667115" lon="12.8957518"><ele>683.0</ele><time>2026-05-02T14:20:39.994Z</time></trkpt><trkpt lat="43.266623" lon="12.8957819"><ele>683.0</ele><time>2026-05-02T14:20:40.994Z</time></trkpt><trkpt lat="43.2665482" lon="12.8958182"><ele>683.0</ele><time>2026-05-02T14:20:41.994Z</time></trkpt><trkpt lat="43.2664788" lon="12.8958718"><ele>683.0</ele><time>2026-05-02T14:20:42.996Z</time></trkpt><trkpt lat="43.2664119" lon="12.8959282"><ele>683.0</ele><time>2026-05-02T14:20:43.994Z</time></trkpt><trkpt lat="43.266346" lon="12.8959888"><ele>683.0</ele><time>2026-05-02T14:20:44.995Z</time></trkpt><trkpt lat="43.2662786" lon="12.8960512"><ele>686.8333333333333</ele><time>2026-05-02T14:20:45.994Z</time></trkpt><trkpt lat="43.2662193" lon="12.8961116"><ele>690.6666666666666</ele><time>2026-05-02T14:20:46.994Z</time></trkpt><trkpt lat="43.2661619" lon="12.8961711"><ele>694.5</ele><time>2026-05-02T14:20:47.994Z</time></trkpt><trkpt lat="43.2661105" lon="12.8962262"><ele>698.3333333333334</ele><time>2026-05-02T14:20:48.995Z</time></trkpt><trkpt lat="43.266015" lon="12.8963159"><ele>702.1666666666667</ele><time>2026-05-02T14:20:50.995Z</time></trkpt><trkpt lat="43.2659592" lon="12.896376"><ele>706.0</ele><time>2026-05-02T14:20:51.994Z</time></trkpt><trkpt lat="43.2658799" lon="12.8965072"><ele>706.0</ele><time>2026-05-02T14:20:53.995Z</time></trkpt><trkpt lat="43.2658385" lon="12.8965746"><ele>706.0</ele><time>2026-05-02T14:20:54.995Z</time></trkpt><trkpt lat="43.265774" lon="12.8966659"><ele>706.0</ele><time>2026-05-02T14:20:56.996Z</time></trkpt><trkpt lat="43.2657236" lon="12.896731"><ele>706.0</ele><time>2026-05-02T14:21:00.996Z</time></trkpt><trkpt lat="43.26573" lon="12.8968667"><ele>706.0</ele><time>2026-05-02T14:21:17.994Z</time></trkpt><trkpt lat="43.265705" lon="12.8969483"><ele>706.0</ele><time>2026-05-02T14:21:27.994Z</time></trkpt><trkpt lat="43.2656783" lon="12.897045"><ele>705.5</ele><time>2026-05-02T14:21:29.993Z</time></trkpt><trkpt lat="43.2656417" lon="12.8971267"><ele>705.0</ele><time>2026-05-02T14:21:32.995Z</time></trkpt><trkpt lat="43.2655767" lon="12.8971917"><ele>704.5</ele><time>2026-05-02T14:21:36.994Z</time></trkpt><trkpt lat="43.2655433" lon="12.897265"><ele>704.0</ele><time>2026-05-02T14:21:42.994Z</time></trkpt><trkpt lat="43.2654617" lon="12.8973267"><ele>703.5</ele><time>2026-05-02T14:25:31.994Z</time></trkpt><trkpt lat="43.26537" lon="12.8973867"><ele>703.0</ele><time>2026-05-02T14:25:33.993Z</time></trkpt><trkpt lat="43.2652867" lon="12.89743"><ele>708.8</ele><time>2026-05-02T14:25:35.994Z</time></trkpt><trkpt lat="43.2651983" lon="12.8974733"><ele>714.5999999999999</ele><time>2026-05-02T14:25:37.989Z</time></trkpt><trkpt lat="43.2650967" lon="12.8975133"><ele>720.4000000000001</ele><time>2026-05-02T14:25:39.994Z</time></trkpt><trkpt lat="43.2649717" lon="12.8975983"><ele>726.2</ele><time>2026-05-02T14:25:41.993Z</time></trkpt><trkpt lat="43.2649017" lon="12.89766"><ele>732.0</ele><time>2026-05-02T14:25:42.993Z</time></trkpt><trkpt lat="43.2648183" lon="12.8977367"><ele>736.5</ele><time>2026-05-02T14:25:43.994Z</time></trkpt><trkpt lat="43.2647367" lon="12.8978133"><ele>741.0</ele><time>2026-05-02T14:25:44.995Z</time></trkpt><trkpt lat="43.264655" lon="12.8978817"><ele>745.5</ele><time>2026-05-02T14:25:45.994Z</time></trkpt><trkpt lat="43.2645883" lon="12.8979417"><ele>750.0</ele><time>2026-05-02T14:25:46.993Z</time></trkpt><trkpt lat="43.26453" lon="12.8980067"><ele>754.5</ele><time>2026-05-02T14:25:47.993Z</time></trkpt><trkpt lat="43.2644733" lon="12.8980683"><ele>759.0</ele><time>2026-05-02T14:25:48.994Z</time></trkpt><trkpt lat="43.2644167" lon="12.898125"><ele>759.0</ele><time>2026-05-02T14:25:49.994Z</time></trkpt><trkpt lat="43.2643667" lon="12.8981817"><ele>759.0</ele><time>2026-05-02T14:25:50.994Z</time></trkpt><trkpt lat="43.2642667" lon="12.8982917"><ele>759.0</ele><time>2026-05-02T14:25:52.992Z</time></trkpt><trkpt lat="43.264215" lon="12.8983517"><ele>759.0</ele><time>2026-05-02T14:25:53.994Z</time></trkpt><trkpt lat="43.2641567" lon="12.8984117"><ele>759.0</ele><time>2026-05-02T14:25:54.995Z</time></trkpt><trkpt lat="43.26408" lon="12.8985783"><ele>760.3333333333334</ele><time>2026-05-02T14:25:55.993Z</time></trkpt><trkpt lat="43.264035" lon="12.898665"><ele>761.6666666666666</ele><time>2026-05-02T14:25:56.994Z</time></trkpt><trkpt lat="43.2640167" lon="12.8987567"><ele>763.0</ele><time>2026-05-02T14:25:57.993Z</time></trkpt><trkpt lat="43.2640033" lon="12.89885"><ele>764.3333333333333</ele><time>2026-05-02T14:25:58.994Z</time></trkpt><trkpt lat="43.263985" lon="12.899025"><ele>765.6666666666666</ele><time>2026-05-02T14:26:00.995Z</time></trkpt><trkpt lat="43.263975" lon="12.8991333"><ele>767.0</ele><time>2026-05-02T14:26:01.992Z</time></trkpt><trkpt lat="43.26399" lon="12.8992333"><ele>769.8</ele><time>2026-05-02T14:26:02.994Z</time></trkpt><trkpt lat="43.2640183" lon="12.89937"><ele>772.6</ele><time>2026-05-02T14:26:03.993Z</time></trkpt><trkpt lat="43.2640417" lon="12.89951"><ele>775.4</ele><time>2026-05-02T14:26:04.993Z</time></trkpt><trkpt lat="43.26407" lon="12.8996683"><ele>778.1999999999999</ele><time>2026-05-02T14:26:05.992Z</time></trkpt><trkpt lat="43.2640883" lon="12.8997817"><ele>781.0</ele><time>2026-05-02T14:26:06.994Z</time></trkpt><trkpt lat="43.264135" lon="12.8999033"><ele>780.9999999999999</ele><time>2026-05-02T14:26:07.993Z</time></trkpt><trkpt lat="43.26417" lon="12.9000183"><ele>781.0</ele><time>2026-05-02T14:26:08.993Z</time></trkpt><trkpt lat="43.2642283" lon="12.90016"><ele>781.0</ele><time>2026-05-02T14:26:09.994Z</time></trkpt><trkpt lat="43.2642617" lon="12.9002583"><ele>781.0</ele><time>2026-05-02T14:26:10.993Z</time></trkpt><trkpt lat="43.264285" lon="12.90035"><ele>780.9999999999999</ele><time>2026-05-02T14:26:11.993Z</time></trkpt><trkpt lat="43.2642933" lon="12.900445"><ele>781.0</ele><time>2026-05-02T14:26:12.994Z</time></trkpt><trkpt lat="43.264305" lon="12.9005383"><ele>780.8333333333333</ele><time>2026-05-02T14:26:13.993Z</time></trkpt><trkpt lat="43.264285" lon="12.900625"><ele>780.6666666666666</ele><time>2026-05-02T14:26:14.995Z</time></trkpt><trkpt lat="43.2642" lon="12.900675"><ele>780.5</ele><time>2026-05-02T14:26:15.994Z</time></trkpt><trkpt lat="43.2641367" lon="12.9007283"><ele>780.3333333333333</ele><time>2026-05-02T14:26:16.993Z</time></trkpt><trkpt lat="43.2640817" lon="12.9007717"><ele>780.1666666666666</ele><time>2026-05-02T14:26:17.991Z</time></trkpt><trkpt lat="43.26398" lon="12.900755"><ele>780.0</ele><time>2026-05-02T14:26:18.995Z</time></trkpt><trkpt lat="43.26391" lon="12.9007233"><ele>784.4</ele><time>2026-05-02T14:26:19.994Z</time></trkpt><trkpt lat="43.263825" lon="12.9007233"><ele>788.8</ele><time>2026-05-02T14:26:20.995Z</time></trkpt><trkpt lat="43.2637083" lon="12.9007533"><ele>793.2</ele><time>2026-05-02T14:26:22.993Z</time></trkpt><trkpt lat="43.2636417" lon="12.9007533"><ele>797.6</ele><time>2026-05-02T14:26:23.99Z</time></trkpt><trkpt lat="43.2635233" lon="12.9007367"><ele>802.0</ele><time>2026-05-02T14:26:25.994Z</time></trkpt><trkpt lat="43.263435" lon="12.9007467"><ele>802.0</ele><time>2026-05-02T14:26:26.994Z</time></trkpt><trkpt lat="43.263335" lon="12.90076"><ele>802.0</ele><time>2026-05-02T14:26:27.994Z</time></trkpt><trkpt lat="43.2632333" lon="12.900785"><ele>802.0</ele><time>2026-05-02T14:26:28.994Z</time></trkpt><trkpt lat="43.2631283" lon="12.9008217"><ele>802.0</ele><time>2026-05-02T14:26:29.995Z</time></trkpt><trkpt lat="43.2630183" lon="12.9008583"><ele>802.0</ele><time>2026-05-02T14:26:30.994Z</time></trkpt><trkpt lat="43.2629017" lon="12.90088"><ele>805.0</ele><time>2026-05-02T14:26:31.993Z</time></trkpt><trkpt lat="43.26282" lon="12.9008633"><ele>808.0</ele><time>2026-05-02T14:26:32.995Z</time></trkpt><trkpt lat="43.2627117" lon="12.9008583"><ele>811.0</ele><time>2026-05-02T14:26:33.995Z</time></trkpt><trkpt lat="43.26262" lon="12.9008383"><ele>814.0</ele><time>2026-05-02T14:26:34.993Z</time></trkpt><trkpt lat="43.2625333" lon="12.9008033"><ele>817.0</ele><time>2026-05-02T14:26:35.993Z</time></trkpt><trkpt lat="43.262465" lon="12.9007533"><ele>817.0</ele><time>2026-05-02T14:26:36.991Z</time></trkpt><trkpt lat="43.2623983" lon="12.9007117"><ele>817.0</ele><time>2026-05-02T14:26:37.993Z</time></trkpt><trkpt lat="43.2623017" lon="12.90061"><ele>817.0</ele><time>2026-05-02T14:26:39.994Z</time></trkpt><trkpt lat="43.2622417" lon="12.90053"><ele>817.0</ele><time>2026-05-02T14:26:40.993Z</time></trkpt><trkpt lat="43.262165" lon="12.90045"><ele>817.0</ele><time>2026-05-02T14:26:41.989Z</time></trkpt><trkpt lat="43.262095" lon="12.90038"><ele>816.6666666666666</ele><time>2026-05-02T14:26:42.995Z</time></trkpt><trkpt lat="43.2620367" lon="12.9003167"><ele>816.3333333333333</ele><time>2026-05-02T14:26:43.993Z</time></trkpt><trkpt lat="43.2619933" lon="12.9002367"><ele>816.0</ele><time>2026-05-02T14:26:44.995Z</time></trkpt><trkpt lat="43.2619583" lon="12.9001367"><ele>815.6666666666667</ele><time>2026-05-02T14:26:45.994Z</time></trkpt><trkpt lat="43.26193" lon="12.9000383"><ele>815.3333333333334</ele><time>2026-05-02T14:26:46.993Z</time></trkpt><trkpt lat="43.26191" lon="12.8999333"><ele>815.0</ele><time>2026-05-02T14:26:47.993Z</time></trkpt><trkpt lat="43.261905" lon="12.899825"><ele>816.6666666666667</ele><time>2026-05-02T14:26:48.995Z</time></trkpt><trkpt lat="43.2619217" lon="12.899715"><ele>818.3333333333334</ele><time>2026-05-02T14:26:49.994Z</time></trkpt><trkpt lat="43.2619567" lon="12.8996033"><ele>820.0</ele><time>2026-05-02T14:26:50.994Z</time></trkpt><trkpt lat="43.262005" lon="12.8995067"><ele>821.6666666666667</ele><time>2026-05-02T14:26:51.994Z</time></trkpt><trkpt lat="43.262055" lon="12.8994017"><ele>823.3333333333334</ele><time>2026-05-02T14:26:52.994Z</time></trkpt><trkpt lat="43.262105" lon="12.8992917"><ele>825.0</ele><time>2026-05-02T14:26:53.994Z</time></trkpt><trkpt lat="43.262145" lon="12.89919"><ele>825.1666666666666</ele><time>2026-05-02T14:26:54.995Z</time></trkpt><trkpt lat="43.2621933" lon="12.8991083"><ele>825.3333333333333</ele><time>2026-05-02T14:26:55.994Z</time></trkpt><trkpt lat="43.2622433" lon="12.8990417"><ele>825.5</ele><time>2026-05-02T14:26:56.995Z</time></trkpt><trkpt lat="43.2623017" lon="12.898975"><ele>825.6666666666666</ele><time>2026-05-02T14:26:57.994Z</time></trkpt><trkpt lat="43.262375" lon="12.898895"><ele>825.8333333333333</ele><time>2026-05-02T14:26:58.993Z</time></trkpt><trkpt lat="43.262455" lon="12.8988067"><ele>826.0</ele><time>2026-05-02T14:26:59.993Z</time></trkpt><trkpt lat="43.2625417" lon="12.8987217"><ele>824.1666666666666</ele><time>2026-05-02T14:27:00.993Z</time></trkpt><trkpt lat="43.26263" lon="12.8986367"><ele>822.3333333333333</ele><time>2026-05-02T14:27:01.994Z</time></trkpt><trkpt lat="43.2627133" lon="12.89856"><ele>820.5</ele><time>2026-05-02T14:27:02.996Z</time></trkpt><trkpt lat="43.2627883" lon="12.8984917"><ele>818.6666666666667</ele><time>2026-05-02T14:27:03.993Z</time></trkpt><trkpt lat="43.2628433" lon="12.8984417"><ele>816.8333333333334</ele><time>2026-05-02T14:27:04.992Z</time></trkpt><trkpt lat="43.262905" lon="12.89838"><ele>815.0</ele><time>2026-05-02T14:27:05.993Z</time></trkpt><trkpt lat="43.2629683" lon="12.8983067"><ele>814.25</ele><time>2026-05-02T14:27:06.993Z</time></trkpt><trkpt lat="43.26304" lon="12.8981933"><ele>813.5</ele><time>2026-05-02T14:27:07.993Z</time></trkpt><trkpt lat="43.2631133" lon="12.8980433"><ele>812.75</ele><time>2026-05-02T14:27:08.994Z</time></trkpt><trkpt lat="43.2631783" lon="12.8979"><ele>812.0</ele><time>2026-05-02T14:27:09.993Z</time></trkpt><trkpt lat="43.2632317" lon="12.8977567"><ele>810.5</ele><time>2026-05-02T14:27:10.994Z</time></trkpt><trkpt lat="43.263265" lon="12.89761"><ele>809.0</ele><time>2026-05-02T14:27:11.993Z</time></trkpt><trkpt lat="43.2632967" lon="12.8974567"><ele>807.5</ele><time>2026-05-02T14:27:12.996Z</time></trkpt><trkpt lat="43.263335" lon="12.8972883"><ele>806.0</ele><time>2026-05-02T14:27:13.995Z</time></trkpt><trkpt lat="43.2633817" lon="12.8971283"><ele>806.0000000000001</ele><time>2026-05-02T14:27:14.996Z</time></trkpt><trkpt lat="43.2634167" lon="12.89698"><ele>806.0</ele><time>2026-05-02T14:27:15.996Z</time></trkpt><trkpt lat="43.2634383" lon="12.8968483"><ele>806.0</ele><time>2026-05-02T14:27:16.994Z</time></trkpt><trkpt lat="43.2634617" lon="12.8967317"><ele>806.0</ele><time>2026-05-02T14:27:17.994Z</time></trkpt><trkpt lat="43.2634917" lon="12.8966367"><ele>806.0000000000001</ele><time>2026-05-02T14:27:18.994Z</time></trkpt><trkpt lat="43.26353" lon="12.8965517"><ele>806.0</ele><time>2026-05-02T14:27:19.996Z</time></trkpt><trkpt lat="43.2635767" lon="12.89648"><ele>806.1666666666667</ele><time>2026-05-02T14:27:20.994Z</time></trkpt><trkpt lat="43.26364" lon="12.89642"><ele>806.3333333333334</ele><time>2026-05-02T14:27:21.995Z</time></trkpt><trkpt lat="43.2637217" lon="12.8963717"><ele>806.5</ele><time>2026-05-02T14:27:22.995Z</time></trkpt><trkpt lat="43.26381" lon="12.8963067"><ele>806.6666666666667</ele><time>2026-05-02T14:27:23.994Z</time></trkpt><trkpt lat="43.26388" lon="12.896235"><ele>806.8333333333334</ele><time>2026-05-02T14:27:24.994Z</time></trkpt><trkpt lat="43.2639367" lon="12.89616"><ele>807.0</ele><time>2026-05-02T14:27:25.994Z</time></trkpt><trkpt lat="43.263985" lon="12.89607"><ele>805.2857142857143</ele><time>2026-05-02T14:27:26.996Z</time></trkpt><trkpt lat="43.2640267" lon="12.8959883"><ele>803.5714285714286</ele><time>2026-05-02T14:27:27.992Z</time></trkpt><trkpt lat="43.2640683" lon="12.8959"><ele>801.8571428571429</ele><time>2026-05-02T14:27:28.995Z</time></trkpt><trkpt lat="43.264105" lon="12.895815"><ele>800.1428571428571</ele><time>2026-05-02T14:27:29.996Z</time></trkpt><trkpt lat="43.2641533" lon="12.8957283"><ele>798.4285714285714</ele><time>2026-05-02T14:27:30.995Z</time></trkpt><trkpt lat="43.2641867" lon="12.895645"><ele>796.7142857142858</ele><time>2026-05-02T14:27:31.995Z</time></trkpt><trkpt lat="43.26423" lon="12.8955567"><ele>795.0</ele><time>2026-05-02T14:27:32.991Z</time></trkpt><trkpt lat="43.2642667" lon="12.8954783"><ele>795.0</ele><time>2026-05-02T14:27:33.994Z</time></trkpt><trkpt lat="43.2642967" lon="12.8953483"><ele>795.0</ele><time>2026-05-02T14:27:35.994Z</time></trkpt><trkpt lat="43.2643383" lon="12.8951683"><ele>795.0</ele><time>2026-05-02T14:27:37.994Z</time></trkpt><trkpt lat="43.2643717" lon="12.8950767"><ele>795.0</ele><time>2026-05-02T14:27:38.994Z</time></trkpt><trkpt lat="43.2643967" lon="12.894995"><ele>795.0</ele><time>2026-05-02T14:27:39.995Z</time></trkpt><trkpt lat="43.26442" lon="12.8948867"><ele>793.4</ele><time>2026-05-02T14:27:40.995Z</time></trkpt><trkpt lat="43.264455" lon="12.8947817"><ele>791.8</ele><time>2026-05-02T14:27:41.994Z</time></trkpt><trkpt lat="43.2644833" lon="12.8946517"><ele>790.2</ele><time>2026-05-02T14:27:42.993Z</time></trkpt><trkpt lat="43.2645133" lon="12.8945267"><ele>788.6</ele><time>2026-05-02T14:27:43.994Z</time></trkpt><trkpt lat="43.2645417" lon="12.894405"><ele>787.0</ele><time>2026-05-02T14:27:44.995Z</time></trkpt><trkpt lat="43.2645833" lon="12.8943133"><ele>787.1666666666666</ele><time>2026-05-02T14:27:45.995Z</time></trkpt><trkpt lat="43.2646317" lon="12.894205"><ele>787.3333333333333</ele><time>2026-05-02T14:27:46.994Z</time></trkpt><trkpt lat="43.2646833" lon="12.8941133"><ele>787.5</ele><time>2026-05-02T14:27:47.995Z</time></trkpt><trkpt lat="43.2647433" lon="12.8940367"><ele>787.6666666666667</ele><time>2026-05-02T14:27:48.994Z</time></trkpt><trkpt lat="43.2648133" lon="12.893965"><ele>787.8333333333334</ele><time>2026-05-02T14:27:49.994Z</time></trkpt><trkpt lat="43.2648933" lon="12.8939017"><ele>788.0</ele><time>2026-05-02T14:27:50.995Z</time></trkpt><trkpt lat="43.26495" lon="12.8937667"><ele>788.0000000000001</ele><time>2026-05-02T14:27:52.994Z</time></trkpt><trkpt lat="43.264985" lon="12.89369"><ele>788.0</ele><time>2026-05-02T14:27:53.995Z</time></trkpt><trkpt lat="43.26503" lon="12.89355"><ele>788.0</ele><time>2026-05-02T14:27:55.995Z</time></trkpt><trkpt lat="43.2650617" lon="12.89346"><ele>788.0</ele><time>2026-05-02T14:27:56.994Z</time></trkpt><trkpt lat="43.265105" lon="12.893375"><ele>788.0000000000001</ele><time>2026-05-02T14:27:57.993Z</time></trkpt><trkpt lat="43.2651567" lon="12.8932783"><ele>788.0</ele><time>2026-05-02T14:27:58.993Z</time></trkpt><trkpt lat="43.2652183" lon="12.893195"><ele>787.5999999999999</ele><time>2026-05-02T14:27:59.993Z</time></trkpt><trkpt lat="43.2652983" lon="12.8931083"><ele>787.1999999999999</ele><time>2026-05-02T14:28:00.993Z</time></trkpt><trkpt lat="43.265405" lon="12.8930383"><ele>786.8</ele><time>2026-05-02T14:28:01.995Z</time></trkpt><trkpt lat="43.2655117" lon="12.8930033"><ele>786.4</ele><time>2026-05-02T14:28:02.995Z</time></trkpt><trkpt lat="43.265615" lon="12.8929583"><ele>786.0</ele><time>2026-05-02T14:28:03.995Z</time></trkpt><trkpt lat="43.2657167" lon="12.8929133"><ele>787.5</ele><time>2026-05-02T14:28:04.994Z</time></trkpt><trkpt lat="43.2658117" lon="12.8928983"><ele>789.0</ele><time>2026-05-02T14:28:05.993Z</time></trkpt><trkpt lat="43.2658883" lon="12.8928883"><ele>790.5</ele><time>2026-05-02T14:28:06.994Z</time></trkpt><trkpt lat="43.2659567" lon="12.892875"><ele>792.0</ele><time>2026-05-02T14:28:07.994Z</time></trkpt><trkpt lat="43.2660267" lon="12.8927567"><ele>793.5</ele><time>2026-05-02T14:28:09.993Z</time></trkpt><trkpt lat="43.266035" lon="12.89267"><ele>795.0</ele><time>2026-05-02T14:28:10.994Z</time></trkpt><trkpt lat="43.26606" lon="12.89253"><ele>795.6666666666666</ele><time>2026-05-02T14:28:12.995Z</time></trkpt><trkpt lat="43.266065" lon="12.8924233"><ele>796.3333333333333</ele><time>2026-05-02T14:28:14.993Z</time></trkpt><trkpt lat="43.2660483" lon="12.89233"><ele>797.0</ele><time>2026-05-02T14:28:17.994Z</time></trkpt><trkpt lat="43.265975" lon="12.8921933"><ele>797.6666666666666</ele><time>2026-05-02T14:29:48.996Z</time></trkpt><trkpt lat="43.2659217" lon="12.89211"><ele>798.3333333333333</ele><time>2026-05-02T14:29:49.994Z</time></trkpt><trkpt lat="43.2658733" lon="12.892015"><ele>799.0</ele><time>2026-05-02T14:29:50.995Z</time></trkpt><trkpt lat="43.2658383" lon="12.8919117"><ele>798.9999999999999</ele><time>2026-05-02T14:29:51.994Z</time></trkpt><trkpt lat="43.2658083" lon="12.8918033"><ele>799.0</ele><time>2026-05-02T14:29:52.995Z</time></trkpt><trkpt lat="43.26578" lon="12.89169"><ele>799.0</ele><time>2026-05-02T14:29:53.995Z</time></trkpt><trkpt lat="43.2657733" lon="12.8915917"><ele>799.0</ele><time>2026-05-02T14:29:54.995Z</time></trkpt><trkpt lat="43.2658117" lon="12.891465"><ele>798.9999999999999</ele><time>2026-05-02T14:29:56.995Z</time></trkpt><trkpt lat="43.265865" lon="12.8913917"><ele>799.0</ele><time>2026-05-02T14:29:58.994Z</time></trkpt><trkpt lat="43.2658483" lon="12.8913017"><ele>802.8333333333333</ele><time>2026-05-02T14:30:00.994Z</time></trkpt><trkpt lat="43.2657533" lon="12.8912683"><ele>806.6666666666666</ele><time>2026-05-02T14:30:02.994Z</time></trkpt><trkpt lat="43.2656783" lon="12.8912333"><ele>810.5</ele><time>2026-05-02T14:30:03.993Z</time></trkpt><trkpt lat="43.2656017" lon="12.8912017"><ele>814.3333333333333</ele><time>2026-05-02T14:30:04.994Z</time></trkpt><trkpt lat="43.265525" lon="12.8911783"><ele>818.1666666666666</ele><time>2026-05-02T14:30:05.994Z</time></trkpt><trkpt lat="43.2654567" lon="12.8911667"><ele>822.0</ele><time>2026-05-02T14:30:06.995Z</time></trkpt><trkpt lat="43.2653933" lon="12.8911217"><ele>822.0</ele><time>2026-05-02T14:30:07.995Z</time></trkpt><trkpt lat="43.2653233" lon="12.8910633"><ele>822.0</ele><time>2026-05-02T14:30:08.994Z</time></trkpt><trkpt lat="43.2652617" lon="12.8909967"><ele>822.0</ele><time>2026-05-02T14:30:09.994Z</time></trkpt><trkpt lat="43.265205" lon="12.8909167"><ele>822.0</ele><time>2026-05-02T14:30:10.994Z</time></trkpt><trkpt lat="43.2651833" lon="12.8908317"><ele>822.0</ele><time>2026-05-02T14:30:11.994Z</time></trkpt><trkpt lat="43.26516" lon="12.89073"><ele>822.0</ele><time>2026-05-02T14:30:12.995Z</time></trkpt><trkpt lat="43.2651417" lon="12.8906383"><ele>827.5</ele><time>2026-05-02T14:30:13.994Z</time></trkpt><trkpt lat="43.265175" lon="12.89056"><ele>833.0</ele><time>2026-05-02T14:30:14.995Z</time></trkpt><trkpt lat="43.2651917" lon="12.8904683"><ele>838.5</ele><time>2026-05-02T14:30:15.995Z</time></trkpt><trkpt lat="43.2652133" lon="12.8903633"><ele>844.0</ele><time>2026-05-02T14:30:16.995Z</time></trkpt><trkpt lat="43.265245" lon="12.890235"><ele>849.5</ele><time>2026-05-02T14:30:17.993Z</time></trkpt><trkpt lat="43.2652967" lon="12.8900783"><ele>855.0</ele><time>2026-05-02T14:30:18.995Z</time></trkpt><trkpt lat="43.2653833" lon="12.8898667"><ele>859.25</ele><time>2026-05-02T14:30:19.994Z</time></trkpt><trkpt lat="43.265455" lon="12.8896933"><ele>863.5</ele><time>2026-05-02T14:30:20.997Z</time></trkpt><trkpt lat="43.2655683" lon="12.8895267"><ele>867.75</ele><time>2026-05-02T14:30:21.994Z</time></trkpt><trkpt lat="43.2656367" lon="12.8893667"><ele>872.0</ele><time>2026-05-02T14:30:22.995Z</time></trkpt><trkpt lat="43.2657283" lon="12.889205"><ele>877.6</ele><time>2026-05-02T14:30:23.995Z</time></trkpt><trkpt lat="43.2658083" lon="12.8890667"><ele>883.2</ele><time>2026-05-02T14:30:24.995Z</time></trkpt><trkpt lat="43.2658667" lon="12.88897"><ele>888.8</ele><time>2026-05-02T14:30:25.993Z</time></trkpt><trkpt lat="43.2659167" lon="12.8888967"><ele>894.4</ele><time>2026-05-02T14:30:26.994Z</time></trkpt><trkpt lat="43.2659933" lon="12.888825"><ele>900.0</ele><time>2026-05-02T14:30:28.994Z</time></trkpt><trkpt lat="43.26607" lon="12.888725"><ele>900.0</ele><time>2026-05-02T14:30:30.996Z</time></trkpt><trkpt lat="43.2661233" lon="12.888615"><ele>900.0</ele><time>2026-05-02T14:30:32.996Z</time></trkpt><trkpt lat="43.2661667" lon="12.888475"><ele>900.0</ele><time>2026-05-02T14:30:34.994Z</time></trkpt><trkpt lat="43.2661917" lon="12.8883733"><ele>900.0</ele><time>2026-05-02T14:30:35.995Z</time></trkpt><trkpt lat="43.2662167" lon="12.8882517"><ele>900.0</ele><time>2026-05-02T14:30:36.996Z</time></trkpt><trkpt lat="43.2662333" lon="12.8881233"><ele>902.1666666666666</ele><time>2026-05-02T14:30:37.995Z</time></trkpt><trkpt lat="43.266245" lon="12.8880033"><ele>904.3333333333333</ele><time>2026-05-02T14:30:38.996Z</time></trkpt><trkpt lat="43.2662583" lon="12.88789"><ele>906.5</ele><time>2026-05-02T14:30:39.994Z</time></trkpt><trkpt lat="43.26628" lon="12.8877817"><ele>908.6666666666666</ele><time>2026-05-02T14:30:40.995Z</time></trkpt><trkpt lat="43.2663017" lon="12.8876633"><ele>910.8333333333333</ele><time>2026-05-02T14:30:41.995Z</time></trkpt><trkpt lat="43.2663217" lon="12.8875533"><ele>913.0</ele><time>2026-05-02T14:30:42.994Z</time></trkpt><trkpt lat="43.266345" lon="12.8874517"><ele>912.9999999999999</ele><time>2026-05-02T14:30:43.996Z</time></trkpt><trkpt lat="43.2663667" lon="12.8873533"><ele>913.0</ele><time>2026-05-02T14:30:44.997Z</time></trkpt><trkpt lat="43.2663883" lon="12.88726"><ele>913.0</ele><time>2026-05-02T14:30:45.995Z</time></trkpt><trkpt lat="43.26641" lon="12.88717"><ele>913.0</ele><time>2026-05-02T14:30:46.994Z</time></trkpt><trkpt lat="43.266435" lon="12.8870867"><ele>912.9999999999999</ele><time>2026-05-02T14:30:47.995Z</time></trkpt><trkpt lat="43.2664567" lon="12.887"><ele>913.0</ele><time>2026-05-02T14:30:48.995Z</time></trkpt><trkpt lat="43.26649" lon="12.8868417"><ele>913.1666666666666</ele><time>2026-05-02T14:30:50.996Z</time></trkpt><trkpt lat="43.2664817" lon="12.8866717"><ele>913.3333333333333</ele><time>2026-05-02T14:30:52.993Z</time></trkpt><trkpt lat="43.2664433" lon="12.8865083"><ele>913.5</ele><time>2026-05-02T14:30:54.994Z</time></trkpt><trkpt lat="43.266415" lon="12.8864283"><ele>913.6666666666667</ele><time>2026-05-02T14:30:55.994Z</time></trkpt><trkpt lat="43.2663867" lon="12.8863467"><ele>913.8333333333334</ele><time>2026-05-02T14:30:56.995Z</time></trkpt><trkpt lat="43.26636" lon="12.8862633"><ele>914.0</ele><time>2026-05-02T14:30:57.994Z</time></trkpt><trkpt lat="43.2663333" lon="12.886175"><ele>915.3333333333334</ele><time>2026-05-02T14:30:58.994Z</time></trkpt><trkpt lat="43.2663033" lon="12.8860833"><ele>916.6666666666667</ele><time>2026-05-02T14:30:59.994Z</time></trkpt><trkpt lat="43.2662817" lon="12.8859883"><ele>918.0</ele><time>2026-05-02T14:31:00.995Z</time></trkpt><trkpt lat="43.266265" lon="12.8858967"><ele>919.3333333333333</ele><time>2026-05-02T14:31:01.995Z</time></trkpt><trkpt lat="43.2662517" lon="12.8858083"><ele>920.6666666666666</ele><time>2026-05-02T14:31:02.996Z</time></trkpt><trkpt lat="43.2662433" lon="12.88572"><ele>922.0</ele><time>2026-05-02T14:31:03.996Z</time></trkpt><trkpt lat="43.2662567" lon="12.8855567"><ele>922.6666666666666</ele><time>2026-05-02T14:31:05.996Z</time></trkpt><trkpt lat="43.2662883" lon="12.8854817"><ele>923.3333333333333</ele><time>2026-05-02T14:31:06.995Z</time></trkpt><trkpt lat="43.26638" lon="12.8853633"><ele>924.0</ele><time>2026-05-02T14:31:08.997Z</time></trkpt><trkpt lat="43.2664433" lon="12.8853183"><ele>924.6666666666667</ele><time>2026-05-02T14:31:09.994Z</time></trkpt><trkpt lat="43.2665217" lon="12.8852783"><ele>925.3333333333334</ele><time>2026-05-02T14:31:10.995Z</time></trkpt><trkpt lat="43.26661" lon="12.885245"><ele>926.0</ele><time>2026-05-02T14:31:11.996Z</time></trkpt><trkpt lat="43.266705" lon="12.8852267"><ele>923.8</ele><time>2026-05-02T14:31:12.995Z</time></trkpt><trkpt lat="43.2668" lon="12.885215"><ele>921.5999999999999</ele><time>2026-05-02T14:31:13.996Z</time></trkpt><trkpt lat="43.2669" lon="12.8852033"><ele>919.4</ele><time>2026-05-02T14:31:14.99Z</time></trkpt><trkpt lat="43.2669983" lon="12.8851883"><ele>917.2</ele><time>2026-05-02T14:31:15.994Z</time></trkpt><trkpt lat="43.2670917" lon="12.8851683"><ele>915.0</ele><time>2026-05-02T14:31:16.996Z</time></trkpt><trkpt lat="43.2671867" lon="12.88514"><ele>912.5</ele><time>2026-05-02T14:31:17.997Z</time></trkpt><trkpt lat="43.2672867" lon="12.8851"><ele>910.0</ele><time>2026-05-02T14:31:18.995Z</time></trkpt><trkpt lat="43.267395" lon="12.8850567"><ele>907.5</ele><time>2026-05-02T14:31:19.997Z</time></trkpt><trkpt lat="43.26751" lon="12.8850117"><ele>905.0</ele><time>2026-05-02T14:31:21Z</time></trkpt><trkpt lat="43.267625" lon="12.884975"><ele>904.0</ele><time>2026-05-02T14:31:22Z</time></trkpt><trkpt lat="43.267735" lon="12.8849367"><ele>903.0</ele><time>2026-05-02T14:31:22.996Z</time></trkpt><trkpt lat="43.2678433" lon="12.8848933"><ele>902.0</ele><time>2026-05-02T14:31:23.998Z</time></trkpt><trkpt lat="43.2679533" lon="12.88484"><ele>901.0</ele><time>2026-05-02T14:31:24.997Z</time></trkpt><trkpt lat="43.268065" lon="12.8847817"><ele>897.75</ele><time>2026-05-02T14:31:25.996Z</time></trkpt><trkpt lat="43.2681733" lon="12.8847217"><ele>894.5</ele><time>2026-05-02T14:31:26.999Z</time></trkpt><trkpt lat="43.2682833" lon="12.88466"><ele>891.25</ele><time>2026-05-02T14:31:27.996Z</time></trkpt><trkpt lat="43.2683967" lon="12.8845933"><ele>888.0</ele><time>2026-05-02T14:31:28.996Z</time></trkpt><trkpt lat="43.26851" lon="12.8845233"><ele>888.0</ele><time>2026-05-02T14:31:29.996Z</time></trkpt><trkpt lat="43.2686117" lon="12.88445"><ele>888.0</ele><time>2026-05-02T14:31:30.997Z</time></trkpt><trkpt lat="43.2687" lon="12.8843767"><ele>888.0</ele><time>2026-05-02T14:31:31.997Z</time></trkpt><trkpt lat="43.2687783" lon="12.8843117"><ele>888.0</ele><time>2026-05-02T14:31:32.998Z</time></trkpt><trkpt lat="43.2688467" lon="12.8842467"><ele>888.0</ele><time>2026-05-02T14:31:33.997Z</time></trkpt><trkpt lat="43.268915" lon="12.8841933"><ele>885.8333333333334</ele><time>2026-05-02T14:31:34.996Z</time></trkpt><trkpt lat="43.2689867" lon="12.8841367"><ele>883.6666666666667</ele><time>2026-05-02T14:31:35.997Z</time></trkpt><trkpt lat="43.2690567" lon="12.884065"><ele>881.5</ele><time>2026-05-02T14:31:36.997Z</time></trkpt><trkpt lat="43.2691217" lon="12.88398"><ele>879.3333333333334</ele><time>2026-05-02T14:31:37.997Z</time></trkpt><trkpt lat="43.2691817" lon="12.883895"><ele>877.1666666666667</ele><time>2026-05-02T14:31:38.998Z</time></trkpt><trkpt lat="43.269235" lon="12.8838167"><ele>875.0</ele><time>2026-05-02T14:31:39.996Z</time></trkpt><trkpt lat="43.2693067" lon="12.8837133"><ele>875.0</ele><time>2026-05-02T14:31:41.997Z</time></trkpt><trkpt lat="43.2693567" lon="12.8836467"><ele>875.0</ele><time>2026-05-02T14:31:46.994Z</time></trkpt><trkpt lat="43.2692833" lon="12.8835617"><ele>875.0</ele><time>2026-05-02T14:33:17.994Z</time></trkpt><trkpt lat="43.2691817" lon="12.8834667"><ele>875.0</ele><time>2026-05-02T14:33:19.993Z</time></trkpt><trkpt lat="43.26911" lon="12.8833933"><ele>875.0</ele><time>2026-05-02T14:33:20.995Z</time></trkpt><trkpt lat="43.26902" lon="12.8833333"><ele>874.8</ele><time>2026-05-02T14:33:21.993Z</time></trkpt><trkpt lat="43.2689283" lon="12.8832917"><ele>874.6</ele><time>2026-05-02T14:33:22.994Z</time></trkpt><trkpt lat="43.2688383" lon="12.8832417"><ele>874.4000000000001</ele><time>2026-05-02T14:33:23.996Z</time></trkpt><trkpt lat="43.2687483" lon="12.88317"><ele>874.2</ele><time>2026-05-02T14:33:24.994Z</time></trkpt><trkpt lat="43.2686583" lon="12.8830767"><ele>874.0</ele><time>2026-05-02T14:33:25.994Z</time></trkpt><trkpt lat="43.268575" lon="12.8829617"><ele>874.0</ele><time>2026-05-02T14:33:26.994Z</time></trkpt><trkpt lat="43.2685017" lon="12.882845"><ele>874.0</ele><time>2026-05-02T14:33:27.992Z</time></trkpt><trkpt lat="43.26843" lon="12.882735"><ele>874.0</ele><time>2026-05-02T14:33:28.993Z</time></trkpt><trkpt lat="43.2683533" lon="12.88262"><ele>874.0</ele><time>2026-05-02T14:33:29.991Z</time></trkpt><trkpt lat="43.2682733" lon="12.8824883"><ele>873.5</ele><time>2026-05-02T14:33:30.994Z</time></trkpt><trkpt lat="43.26819" lon="12.882355"><ele>873.0</ele><time>2026-05-02T14:33:31.994Z</time></trkpt><trkpt lat="43.2681" lon="12.8822267"><ele>872.5</ele><time>2026-05-02T14:33:32.993Z</time></trkpt><trkpt lat="43.2680033" lon="12.88209"><ele>872.0</ele><time>2026-05-02T14:33:33.994Z</time></trkpt><trkpt lat="43.2679" lon="12.8819433"><ele>872.0</ele><time>2026-05-02T14:33:34.993Z</time></trkpt><trkpt lat="43.2677933" lon="12.8817883"><ele>872.0</ele><time>2026-05-02T14:33:35.994Z</time></trkpt><trkpt lat="43.267685" lon="12.8816317"><ele>872.0</ele><time>2026-05-02T14:33:36.995Z</time></trkpt><trkpt lat="43.267575" lon="12.8814833"><ele>870.25</ele><time>2026-05-02T14:33:37.994Z</time></trkpt><trkpt lat="43.2674617" lon="12.8813433"><ele>868.5</ele><time>2026-05-02T14:33:38.995Z</time></trkpt><trkpt lat="43.2673483" lon="12.88121"><ele>866.75</ele><time>2026-05-02T14:33:39.994Z</time></trkpt><trkpt lat="43.2672467" lon="12.8810933"><ele>865.0</ele><time>2026-05-02T14:33:40.994Z</time></trkpt><trkpt lat="43.26715" lon="12.881"><ele>869.0</ele><time>2026-05-02T14:33:41.993Z</time></trkpt><trkpt lat="43.2670467" lon="12.8809167"><ele>873.0</ele><time>2026-05-02T14:33:42.994Z</time></trkpt><trkpt lat="43.2669367" lon="12.8808383"><ele>877.0</ele><time>2026-05-02T14:33:43.994Z</time></trkpt><trkpt lat="43.2668267" lon="12.880755"><ele>881.0</ele><time>2026-05-02T14:33:44.995Z</time></trkpt><trkpt lat="43.2667117" lon="12.8806583"><ele>881.0</ele><time>2026-05-02T14:33:45.993Z</time></trkpt><trkpt lat="43.2665867" lon="12.8805517"><ele>881.0</ele><time>2026-05-02T14:33:46.994Z</time></trkpt><trkpt lat="43.2664583" lon="12.8804433"><ele>881.0</ele><time>2026-05-02T14:33:47.993Z</time></trkpt><trkpt lat="43.2663367" lon="12.8803417"><ele>881.0</ele><time>2026-05-02T14:33:48.994Z</time></trkpt><trkpt lat="43.2662233" lon="12.880245"><ele>880.4</ele><time>2026-05-02T14:33:49.994Z</time></trkpt><trkpt lat="43.2661183" lon="12.88015"><ele>879.8</ele><time>2026-05-02T14:33:50.995Z</time></trkpt><trkpt lat="43.2660283" lon="12.88006"><ele>879.1999999999999</ele><time>2026-05-02T14:33:51.994Z</time></trkpt><trkpt lat="43.2659483" lon="12.8799683"><ele>878.5999999999999</ele><time>2026-05-02T14:33:52.993Z</time></trkpt><trkpt lat="43.2658717" lon="12.879865"><ele>878.0</ele><time>2026-05-02T14:33:53.992Z</time></trkpt><trkpt lat="43.2658067" lon="12.8797517"><ele>878.0</ele><time>2026-05-02T14:33:54.994Z</time></trkpt><trkpt lat="43.26574" lon="12.8796367"><ele>878.0</ele><time>2026-05-02T14:33:55.994Z</time></trkpt><trkpt lat="43.2656683" lon="12.87954"><ele>878.0</ele><time>2026-05-02T14:33:56.994Z</time></trkpt><trkpt lat="43.2655933" lon="12.8794667"><ele>878.0</ele><time>2026-05-02T14:33:57.992Z</time></trkpt><trkpt lat="43.2655083" lon="12.8793917"><ele>878.0</ele><time>2026-05-02T14:33:58.992Z</time></trkpt><trkpt lat="43.2654267" lon="12.8793017"><ele>877.4</ele><time>2026-05-02T14:33:59.994Z</time></trkpt><trkpt lat="43.26534" lon="12.8792167"><ele>876.8</ele><time>2026-05-02T14:34:00.994Z</time></trkpt><trkpt lat="43.2652517" lon="12.87914"><ele>876.2</ele><time>2026-05-02T14:34:01.994Z</time></trkpt><trkpt lat="43.26515" lon="12.8790767"><ele>875.6</ele><time>2026-05-02T14:34:02.996Z</time></trkpt><trkpt lat="43.2650417" lon="12.87904"><ele>875.0</ele><time>2026-05-02T14:34:03.994Z</time></trkpt><trkpt lat="43.2649333" lon="12.8790083"><ele>875.0</ele><time>2026-05-02T14:34:04.994Z</time></trkpt><trkpt lat="43.2648317" lon="12.8789767"><ele>875.0</ele><time>2026-05-02T14:34:05.995Z</time></trkpt><trkpt lat="43.2647267" lon="12.8789267"><ele>875.0</ele><time>2026-05-02T14:34:06.994Z</time></trkpt><trkpt lat="43.264605" lon="12.87888"><ele>875.0</ele><time>2026-05-02T14:34:07.994Z</time></trkpt><trkpt lat="43.2644867" lon="12.87883"><ele>872.5</ele><time>2026-05-02T14:34:08.995Z</time></trkpt><trkpt lat="43.2643683" lon="12.878795"><ele>870.0</ele><time>2026-05-02T14:34:09.995Z</time></trkpt><trkpt lat="43.26425" lon="12.878775"><ele>867.5</ele><time>2026-05-02T14:34:10.995Z</time></trkpt><trkpt lat="43.2641317" lon="12.8787733"><ele>865.0</ele><time>2026-05-02T14:34:11.995Z</time></trkpt><trkpt lat="43.264015" lon="12.8787783"><ele>862.6</ele><time>2026-05-02T14:34:12.994Z</time></trkpt><trkpt lat="43.2639033" lon="12.87879"><ele>860.2</ele><time>2026-05-02T14:34:13.994Z</time></trkpt><trkpt lat="43.2637933" lon="12.8788117"><ele>857.8</ele><time>2026-05-02T14:34:14.995Z</time></trkpt><trkpt lat="43.2636867" lon="12.8788267"><ele>855.4</ele><time>2026-05-02T14:34:15.993Z</time></trkpt><trkpt lat="43.2635833" lon="12.8788267"><ele>853.0</ele><time>2026-05-02T14:34:16.994Z</time></trkpt><trkpt lat="43.2634883" lon="12.8788117"><ele>853.0</ele><time>2026-05-02T14:34:17.993Z</time></trkpt><trkpt lat="43.2633917" lon="12.8787833"><ele>853.0</ele><time>2026-05-02T14:34:18.993Z</time></trkpt><trkpt lat="43.2633067" lon="12.8787317"><ele>853.0</ele><time>2026-05-02T14:34:19.994Z</time></trkpt><trkpt lat="43.26323" lon="12.8786567"><ele>853.0</ele><time>2026-05-02T14:34:20.996Z</time></trkpt><trkpt lat="43.2631483" lon="12.87855"><ele>853.0</ele><time>2026-05-02T14:34:21.995Z</time></trkpt><trkpt lat="43.2630667" lon="12.8784267"><ele>853.8</ele><time>2026-05-02T14:34:22.994Z</time></trkpt><trkpt lat="43.262995" lon="12.8782983"><ele>854.5999999999999</ele><time>2026-05-02T14:34:23.995Z</time></trkpt><trkpt lat="43.2629367" lon="12.8781883"><ele>855.4000000000001</ele><time>2026-05-02T14:34:24.993Z</time></trkpt><trkpt lat="43.2628967" lon="12.8780783"><ele>856.2</ele><time>2026-05-02T14:34:25.994Z</time></trkpt><trkpt lat="43.2628633" lon="12.8779583"><ele>857.0</ele><time>2026-05-02T14:34:26.994Z</time></trkpt><trkpt lat="43.2628383" lon="12.877835"><ele>857.0</ele><time>2026-05-02T14:34:27.993Z</time></trkpt><trkpt lat="43.2628167" lon="12.8777117"><ele>857.0</ele><time>2026-05-02T14:34:28.993Z</time></trkpt><trkpt lat="43.2628033" lon="12.8775867"><ele>857.0</ele><time>2026-05-02T14:34:29.994Z</time></trkpt><trkpt lat="43.2628033" lon="12.8774517"><ele>857.0</ele><time>2026-05-02T14:34:30.995Z</time></trkpt><trkpt lat="43.2628167" lon="12.8773033"><ele>857.0</ele><time>2026-05-02T14:34:31.994Z</time></trkpt><trkpt lat="43.2628283" lon="12.87716"><ele>857.5000000000001</ele><time>2026-05-02T14:34:32.995Z</time></trkpt><trkpt lat="43.262835" lon="12.8770483"><ele>858.0</ele><time>2026-05-02T14:34:33.992Z</time></trkpt><trkpt lat="43.2628317" lon="12.87695"><ele>858.5</ele><time>2026-05-02T14:34:35.995Z</time></trkpt><trkpt lat="43.2627383" lon="12.8770183"><ele>859.0</ele><time>2026-05-02T14:34:38.994Z</time></trkpt><trkpt lat="43.2626917" lon="12.8770883"><ele>859.5000000000001</ele><time>2026-05-02T14:34:39.992Z</time></trkpt><trkpt lat="43.2626433" lon="12.87716"><ele>860.0</ele><time>2026-05-02T14:34:40.993Z</time></trkpt><trkpt lat="43.2625517" lon="12.87725"><ele>860.0</ele><time>2026-05-02T14:34:42.994Z</time></trkpt><trkpt lat="43.262485" lon="12.87728"><ele>860.0</ele><time>2026-05-02T14:34:44.994Z</time></trkpt><trkpt lat="43.2624167" lon="12.8772167"><ele>860.0</ele><time>2026-05-02T14:34:46.994Z</time></trkpt><trkpt lat="43.2623617" lon="12.87716"><ele>860.0</ele><time>2026-05-02T14:34:47.993Z</time></trkpt><trkpt lat="43.262265" lon="12.8770633"><ele>860.0</ele><time>2026-05-02T14:34:49.996Z</time></trkpt><trkpt lat="43.2621617" lon="12.876985"><ele>861.8333333333334</ele><time>2026-05-02T14:34:51.993Z</time></trkpt><trkpt lat="43.2620717" lon="12.8768933"><ele>863.6666666666667</ele><time>2026-05-02T14:34:53.994Z</time></trkpt><trkpt lat="43.262005" lon="12.8767883"><ele>865.5</ele><time>2026-05-02T14:34:55.995Z</time></trkpt><trkpt lat="43.2619417" lon="12.8767967"><ele>867.3333333333333</ele><time>2026-05-02T14:35:13.993Z</time></trkpt><trkpt lat="43.261955" lon="12.8768933"><ele>869.1666666666666</ele><time>2026-05-02T14:35:18.995Z</time></trkpt><trkpt lat="43.2619533" lon="12.87699"><ele>871.0</ele><time>2026-05-02T14:35:23.993Z</time></trkpt><trkpt lat="43.26198" lon="12.8770933"><ele>870.9999999999999</ele><time>2026-05-02T14:35:27.994Z</time></trkpt><trkpt lat="43.261995" lon="12.87718"><ele>871.0</ele><time>2026-05-02T14:35:30.994Z</time></trkpt><trkpt lat="43.262015" lon="12.8772817"><ele>871.0</ele><time>2026-05-02T14:35:33.996Z</time></trkpt><trkpt lat="43.262045" lon="12.8773783"><ele>871.0</ele><time>2026-05-02T14:35:35.996Z</time></trkpt><trkpt lat="43.2620917" lon="12.8774517"><ele>870.9999999999999</ele><time>2026-05-02T14:35:40.992Z</time></trkpt><trkpt lat="43.26217" lon="12.877615"><ele>871.0</ele><time>2026-05-02T14:37:27.994Z</time></trkpt><trkpt lat="43.2621533" lon="12.8777367"><ele>871.1428571428571</ele><time>2026-05-02T14:38:49.994Z</time></trkpt><trkpt lat="43.2621617" lon="12.8778267"><ele>871.2857142857142</ele><time>2026-05-02T14:38:50.995Z</time></trkpt><trkpt lat="43.26218" lon="12.8779417"><ele>871.4285714285714</ele><time>2026-05-02T14:38:51.993Z</time></trkpt><trkpt lat="43.2621833" lon="12.8780417"><ele>871.5714285714286</ele><time>2026-05-02T14:38:52.993Z</time></trkpt><trkpt lat="43.26218" lon="12.8781333"><ele>871.7142857142858</ele><time>2026-05-02T14:38:53.993Z</time></trkpt><trkpt lat="43.2621583" lon="12.878215"><ele>871.8571428571429</ele><time>2026-05-02T14:38:54.994Z</time></trkpt><trkpt lat="43.262115" lon="12.8782933"><ele>872.0</ele><time>2026-05-02T14:38:55.995Z</time></trkpt><trkpt lat="43.26206" lon="12.8783583"><ele>872.0000000000001</ele><time>2026-05-02T14:38:56.995Z</time></trkpt><trkpt lat="43.2619967" lon="12.8784067"><ele>872.0</ele><time>2026-05-02T14:38:57.994Z</time></trkpt><trkpt lat="43.2619383" lon="12.878475"><ele>872.0</ele><time>2026-05-02T14:38:58.994Z</time></trkpt><trkpt lat="43.2618917" lon="12.87857"><ele>872.0</ele><time>2026-05-02T14:38:59.995Z</time></trkpt><trkpt lat="43.2618667" lon="12.8787033"><ele>872.0000000000001</ele><time>2026-05-02T14:39:00.994Z</time></trkpt><trkpt lat="43.2618333" lon="12.87883"><ele>872.0</ele><time>2026-05-02T14:39:01.993Z</time></trkpt><trkpt lat="43.261795" lon="12.8789683"><ele>873.2</ele><time>2026-05-02T14:39:02.994Z</time></trkpt><trkpt lat="43.2617633" lon="12.8791117"><ele>874.4000000000001</ele><time>2026-05-02T14:39:03.993Z</time></trkpt><trkpt lat="43.2617267" lon="12.8792367"><ele>875.5999999999999</ele><time>2026-05-02T14:39:04.994Z</time></trkpt><trkpt lat="43.26169" lon="12.8793533"><ele>876.8</ele><time>2026-05-02T14:39:05.993Z</time></trkpt><trkpt lat="43.2616533" lon="12.8794683"><ele>878.0</ele><time>2026-05-02T14:39:06.996Z</time></trkpt><trkpt lat="43.2616167" lon="12.8795783"><ele>878.2</ele><time>2026-05-02T14:39:07.994Z</time></trkpt><trkpt lat="43.2615867" lon="12.8796917"><ele>878.4</ele><time>2026-05-02T14:39:08.996Z</time></trkpt><trkpt lat="43.2615583" lon="12.879805"><ele>878.6000000000001</ele><time>2026-05-02T14:39:09.995Z</time></trkpt><trkpt lat="43.2615233" lon="12.8799383"><ele>878.8000000000001</ele><time>2026-05-02T14:39:10.994Z</time></trkpt><trkpt lat="43.2614833" lon="12.8800933"><ele>879.0</ele><time>2026-05-02T14:39:11.993Z</time></trkpt><trkpt lat="43.2614367" lon="12.8802467"><ele>886.5</ele><time>2026-05-02T14:39:12.994Z</time></trkpt><trkpt lat="43.2613983" lon="12.8804067"><ele>894.0</ele><time>2026-05-02T14:39:13.993Z</time></trkpt><trkpt lat="43.2613583" lon="12.8805583"><ele>901.5</ele><time>2026-05-02T14:39:14.996Z</time></trkpt><trkpt lat="43.2613167" lon="12.8807033"><ele>909.0</ele><time>2026-05-02T14:39:15.994Z</time></trkpt><trkpt lat="43.2612683" lon="12.8808417"><ele>908.5</ele><time>2026-05-02T14:39:16.994Z</time></trkpt><trkpt lat="43.261215" lon="12.8809833"><ele>908.0</ele><time>2026-05-02T14:39:17.994Z</time></trkpt><trkpt lat="43.26116" lon="12.88113"><ele>907.5</ele><time>2026-05-02T14:39:18.995Z</time></trkpt><trkpt lat="43.2610933" lon="12.8812683"><ele>907.0</ele><time>2026-05-02T14:39:19.995Z</time></trkpt><trkpt lat="43.2610217" lon="12.881405"><ele>907.0</ele><time>2026-05-02T14:39:20.996Z</time></trkpt><trkpt lat="43.260945" lon="12.881545"><ele>907.0</ele><time>2026-05-02T14:39:21.996Z</time></trkpt><trkpt lat="43.26086" lon="12.8816867"><ele>907.0</ele><time>2026-05-02T14:39:22.996Z</time></trkpt><trkpt lat="43.2607733" lon="12.8818333"><ele>907.0</ele><time>2026-05-02T14:39:23.997Z</time></trkpt><trkpt lat="43.2606933" lon="12.8819683"><ele>904.6</ele><time>2026-05-02T14:39:24.994Z</time></trkpt><trkpt lat="43.2606217" lon="12.88208"><ele>902.2</ele><time>2026-05-02T14:39:25.99Z</time></trkpt><trkpt lat="43.26055" lon="12.8821717"><ele>899.8</ele><time>2026-05-02T14:39:26.994Z</time></trkpt><trkpt lat="43.2604717" lon="12.882255"><ele>897.4</ele><time>2026-05-02T14:39:27.993Z</time></trkpt><trkpt lat="43.260395" lon="12.8823433"><ele>895.0</ele><time>2026-05-02T14:39:28.993Z</time></trkpt><trkpt lat="43.26032" lon="12.8824433"><ele>895.4999999999999</ele><time>2026-05-02T14:39:29.994Z</time></trkpt><trkpt lat="43.260255" lon="12.882555"><ele>896.0</ele><time>2026-05-02T14:39:30.993Z</time></trkpt><trkpt lat="43.2602" lon="12.8826517"><ele>896.5</ele><time>2026-05-02T14:39:31.995Z</time></trkpt><trkpt lat="43.2601367" lon="12.8827167"><ele>897.0</ele><time>2026-05-02T14:39:32.994Z</time></trkpt><trkpt lat="43.2600683" lon="12.88277"><ele>897.4999999999999</ele><time>2026-05-02T14:39:33.995Z</time></trkpt><trkpt lat="43.25999" lon="12.8828183"><ele>898.0</ele><time>2026-05-02T14:39:34.993Z</time></trkpt><trkpt lat="43.25991" lon="12.8828767"><ele>897.9999999999999</ele><time>2026-05-02T14:39:35.993Z</time></trkpt><trkpt lat="43.2598433" lon="12.8829283"><ele>898.0</ele><time>2026-05-02T14:39:36.995Z</time></trkpt><trkpt lat="43.259785" lon="12.88297"><ele>898.0</ele><time>2026-05-02T14:39:37.992Z</time></trkpt><trkpt lat="43.2597133" lon="12.88301"><ele>898.0</ele><time>2026-05-02T14:39:38.994Z</time></trkpt><trkpt lat="43.2596333" lon="12.88304"><ele>897.9999999999999</ele><time>2026-05-02T14:39:39.993Z</time></trkpt><trkpt lat="43.25954" lon="12.8830583"><ele>898.0</ele><time>2026-05-02T14:39:40.994Z</time></trkpt><trkpt lat="43.2594417" lon="12.883055"><ele>900.2</ele><time>2026-05-02T14:39:41.992Z</time></trkpt><trkpt lat="43.2593333" lon="12.883055"><ele>902.4</ele><time>2026-05-02T14:39:42.995Z</time></trkpt><trkpt lat="43.2592167" lon="12.8830567"><ele>904.6000000000001</ele><time>2026-05-02T14:39:43.995Z</time></trkpt><trkpt lat="43.259105" lon="12.883075"><ele>906.8000000000001</ele><time>2026-05-02T14:39:44.995Z</time></trkpt><trkpt lat="43.2589967" lon="12.883095"><ele>909.0</ele><time>2026-05-02T14:39:45.995Z</time></trkpt><trkpt lat="43.25892" lon="12.883115"><ele>912.6666666666666</ele><time>2026-05-02T14:39:46.992Z</time></trkpt><trkpt lat="43.258835" lon="12.8831533"><ele>916.3333333333333</ele><time>2026-05-02T14:39:48.994Z</time></trkpt><trkpt lat="43.2587417" lon="12.88319"><ele>920.0</ele><time>2026-05-02T14:40:03.993Z</time></trkpt><trkpt lat="43.2587" lon="12.8832567"><ele>923.6666666666666</ele><time>2026-05-02T14:40:04.993Z</time></trkpt><trkpt lat="43.2586583" lon="12.8833283"><ele>927.3333333333333</ele><time>2026-05-02T14:40:05.993Z</time></trkpt><trkpt lat="43.2585867" lon="12.8834617"><ele>931.0</ele><time>2026-05-02T14:40:07.994Z</time></trkpt><trkpt lat="43.2585217" lon="12.8835917"><ele>930.9999999999999</ele><time>2026-05-02T14:40:09.994Z</time></trkpt><trkpt lat="43.2584833" lon="12.8836617"><ele>931.0</ele><time>2026-05-02T14:40:10.993Z</time></trkpt><trkpt lat="43.2584517" lon="12.8837417"><ele>931.0</ele><time>2026-05-02T14:40:11.994Z</time></trkpt><trkpt lat="43.25842" lon="12.8838283"><ele>931.0</ele><time>2026-05-02T14:40:12.994Z</time></trkpt><trkpt lat="43.2583983" lon="12.8839383"><ele>930.9999999999999</ele><time>2026-05-02T14:40:13.995Z</time></trkpt><trkpt lat="43.2583733" lon="12.8840783"><ele>931.0</ele><time>2026-05-02T14:40:14.993Z</time></trkpt><trkpt lat="43.258345" lon="12.884205"><ele>929.25</ele><time>2026-05-02T14:40:15.997Z</time></trkpt><trkpt lat="43.2583433" lon="12.8843667"><ele>927.5</ele><time>2026-05-02T14:40:16.992Z</time></trkpt><trkpt lat="43.2583333" lon="12.8845367"><ele>925.75</ele><time>2026-05-02T14:40:17.994Z</time></trkpt><trkpt lat="43.258325" lon="12.884715"><ele>924.0</ele><time>2026-05-02T14:40:18.994Z</time></trkpt><trkpt lat="43.2583167" lon="12.8848833"><ele>924.0</ele><time>2026-05-02T14:40:19.994Z</time></trkpt><trkpt lat="43.2582933" lon="12.885045"><ele>924.0000000000001</ele><time>2026-05-02T14:40:20.995Z</time></trkpt><trkpt lat="43.2582717" lon="12.8851983"><ele>924.0000000000001</ele><time>2026-05-02T14:40:21.994Z</time></trkpt><trkpt lat="43.2582483" lon="12.8853"><ele>924.0</ele><time>2026-05-02T14:40:22.994Z</time></trkpt><trkpt lat="43.25823" lon="12.8854017"><ele>924.0</ele><time>2026-05-02T14:40:23.994Z</time></trkpt><trkpt lat="43.2581667" lon="12.8855017"><ele>923.6666666666666</ele><time>2026-05-02T14:40:25.994Z</time></trkpt><trkpt lat="43.2581033" lon="12.88558"><ele>923.3333333333333</ele><time>2026-05-02T14:40:27.992Z</time></trkpt><trkpt lat="43.258015" lon="12.8857217"><ele>923.0</ele><time>2026-05-02T14:40:29.993Z</time></trkpt><trkpt lat="43.2579683" lon="12.8858033"><ele>922.6666666666666</ele><time>2026-05-02T14:40:30.994Z</time></trkpt><trkpt lat="43.257925" lon="12.8858783"><ele>922.3333333333333</ele><time>2026-05-02T14:40:31.993Z</time></trkpt><trkpt lat="43.2578867" lon="12.8859567"><ele>922.0</ele><time>2026-05-02T14:40:32.994Z</time></trkpt><trkpt lat="43.2578433" lon="12.8860267"><ele>922.0</ele><time>2026-05-02T14:40:33.993Z</time></trkpt><trkpt lat="43.2578" lon="12.886105"><ele>922.0000000000001</ele><time>2026-05-02T14:40:34.994Z</time></trkpt><trkpt lat="43.2577483" lon="12.8861767"><ele>922.0</ele><time>2026-05-02T14:40:35.995Z</time></trkpt><trkpt lat="43.2577033" lon="12.886245"><ele>922.0</ele><time>2026-05-02T14:40:36.994Z</time></trkpt><trkpt lat="43.2576567" lon="12.8863083"><ele>922.0000000000001</ele><time>2026-05-02T14:40:37.993Z</time></trkpt><trkpt lat="43.2576033" lon="12.8863683"><ele>922.0</ele><time>2026-05-02T14:40:38.996Z</time></trkpt><trkpt lat="43.2575467" lon="12.8864283"><ele>922.0</ele><time>2026-05-02T14:40:39.996Z</time></trkpt><trkpt lat="43.2574867" lon="12.8864817"><ele>921.9999999999999</ele><time>2026-05-02T14:40:40.993Z</time></trkpt><trkpt lat="43.2574267" lon="12.8865417"><ele>922.0</ele><time>2026-05-02T14:40:41.994Z</time></trkpt><trkpt lat="43.25736" lon="12.886605"><ele>922.0</ele><time>2026-05-02T14:40:42.994Z</time></trkpt><trkpt lat="43.25729" lon="12.88667"><ele>922.0</ele><time>2026-05-02T14:40:43.991Z</time></trkpt><trkpt lat="43.2572267" lon="12.8867283"><ele>921.9999999999999</ele><time>2026-05-02T14:40:44.995Z</time></trkpt><trkpt lat="43.2571717" lon="12.8867917"><ele>922.0</ele><time>2026-05-02T14:40:45.994Z</time></trkpt><trkpt lat="43.2571217" lon="12.8868517"><ele>918.4000000000001</ele><time>2026-05-02T14:40:46.993Z</time></trkpt><trkpt lat="43.2570533" lon="12.8869733"><ele>914.8000000000001</ele><time>2026-05-02T14:40:48.995Z</time></trkpt><trkpt lat="43.2570083" lon="12.8871167"><ele>911.2</ele><time>2026-05-02T14:40:50.994Z</time></trkpt><trkpt lat="43.2569917" lon="12.8872433"><ele>907.6</ele><time>2026-05-02T14:40:52.993Z</time></trkpt><trkpt lat="43.2569783" lon="12.887345"><ele>904.0</ele><time>2026-05-02T14:40:54.994Z</time></trkpt><trkpt lat="43.25692" lon="12.887415"><ele>903.9999999999999</ele><time>2026-05-02T14:40:57.997Z</time></trkpt><trkpt lat="43.256835" lon="12.8873917"><ele>904.0</ele><time>2026-05-02T14:40:59.995Z</time></trkpt><trkpt lat="43.2567317" lon="12.88735"><ele>904.0</ele><time>2026-05-02T14:41:01.994Z</time></trkpt><trkpt lat="43.256655" lon="12.887305"><ele>904.0</ele><time>2026-05-02T14:41:03.994Z</time></trkpt><trkpt lat="43.2565867" lon="12.8872617"><ele>903.9999999999999</ele><time>2026-05-02T14:41:05.993Z</time></trkpt><trkpt lat="43.2565267" lon="12.8872267"><ele>904.0</ele><time>2026-05-02T14:41:09.994Z</time></trkpt><trkpt lat="43.2564483" lon="12.8871817"><ele>902.1666666666666</ele><time>2026-05-02T14:41:11.994Z</time></trkpt><trkpt lat="43.2563733" lon="12.8871083"><ele>900.3333333333333</ele><time>2026-05-02T14:41:13.993Z</time></trkpt><trkpt lat="43.2563167" lon="12.8870517"><ele>898.5</ele><time>2026-05-02T14:41:15.992Z</time></trkpt><trkpt lat="43.25625" lon="12.8869917"><ele>896.6666666666667</ele><time>2026-05-02T14:41:28.993Z</time></trkpt><trkpt lat="43.2562167" lon="12.8868967"><ele>894.8333333333334</ele><time>2026-05-02T14:41:31.991Z</time></trkpt><trkpt lat="43.25618" lon="12.886795"><ele>893.0</ele><time>2026-05-02T14:41:34.992Z</time></trkpt><trkpt lat="43.2561517" lon="12.8867067"><ele>893.0</ele><time>2026-05-02T14:41:37.991Z</time></trkpt><trkpt lat="43.256135" lon="12.8865817"><ele>893.0</ele><time>2026-05-02T14:41:40.993Z</time></trkpt><trkpt lat="43.25612" lon="12.886495"><ele>893.0</ele><time>2026-05-02T14:41:42.994Z</time></trkpt><trkpt lat="43.2561" lon="12.8863667"><ele>893.0</ele><time>2026-05-02T14:41:44.994Z</time></trkpt><trkpt lat="43.2560333" lon="12.8862083"><ele>893.0</ele><time>2026-05-02T14:41:46.993Z</time></trkpt><trkpt lat="43.2559883" lon="12.8861183"><ele>893.0</ele><time>2026-05-02T14:41:47.994Z</time></trkpt><trkpt lat="43.2559383" lon="12.886025"><ele>893.0</ele><time>2026-05-02T14:41:48.994Z</time></trkpt><trkpt lat="43.2558783" lon="12.8859283"><ele>893.0</ele><time>2026-05-02T14:41:49.993Z</time></trkpt><trkpt lat="43.25581" lon="12.88584"><ele>893.0</ele><time>2026-05-02T14:41:50.993Z</time></trkpt><trkpt lat="43.2557417" lon="12.8857483"><ele>893.0</ele><time>2026-05-02T14:41:51.994Z</time></trkpt><trkpt lat="43.2556717" lon="12.8856583"><ele>889.6666666666667</ele><time>2026-05-02T14:41:52.994Z</time></trkpt><trkpt lat="43.255605" lon="12.8855833"><ele>886.3333333333334</ele><time>2026-05-02T14:41:53.994Z</time></trkpt><trkpt lat="43.2555467" lon="12.8855083"><ele>883.0</ele><time>2026-05-02T14:41:54.994Z</time></trkpt><trkpt lat="43.255485" lon="12.88543"><ele>879.6666666666667</ele><time>2026-05-02T14:41:55.992Z</time></trkpt><trkpt lat="43.2554183" lon="12.8853467"><ele>876.3333333333334</ele><time>2026-05-02T14:41:56.994Z</time></trkpt><trkpt lat="43.255355" lon="12.8852583"><ele>873.0</ele><time>2026-05-02T14:41:57.992Z</time></trkpt><trkpt lat="43.2552983" lon="12.8851733"><ele>875.1666666666666</ele><time>2026-05-02T14:41:58.992Z</time></trkpt><trkpt lat="43.255245" lon="12.8850933"><ele>877.3333333333333</ele><time>2026-05-02T14:41:59.994Z</time></trkpt><trkpt lat="43.2551917" lon="12.8850167"><ele>879.5</ele><time>2026-05-02T14:42:00.997Z</time></trkpt><trkpt lat="43.2551333" lon="12.884945"><ele>881.6666666666666</ele><time>2026-05-02T14:42:01.994Z</time></trkpt><trkpt lat="43.2550717" lon="12.88488"><ele>883.8333333333333</ele><time>2026-05-02T14:42:02.994Z</time></trkpt><trkpt lat="43.2549967" lon="12.8848233"><ele>886.0</ele><time>2026-05-02T14:42:03.994Z</time></trkpt><trkpt lat="43.2549183" lon="12.88476"><ele>886.0</ele><time>2026-05-02T14:42:04.994Z</time></trkpt><trkpt lat="43.2548383" lon="12.884685"><ele>885.9999999999999</ele><time>2026-05-02T14:42:05.994Z</time></trkpt><trkpt lat="43.25476" lon="12.884615"><ele>885.9999999999999</ele><time>2026-05-02T14:42:06.995Z</time></trkpt><trkpt lat="43.254685" lon="12.88456"><ele>886.0</ele><time>2026-05-02T14:42:07.994Z</time></trkpt><trkpt lat="43.2546033" lon="12.8845117"><ele>886.0</ele><time>2026-05-02T14:42:08.996Z</time></trkpt><trkpt lat="43.2545117" lon="12.88445"><ele>883.8</ele><time>2026-05-02T14:42:09.994Z</time></trkpt><trkpt lat="43.254415" lon="12.8843833"><ele>881.5999999999999</ele><time>2026-05-02T14:42:10.994Z</time></trkpt><trkpt lat="43.2543183" lon="12.8843133"><ele>879.4</ele><time>2026-05-02T14:42:11.994Z</time></trkpt><trkpt lat="43.25423" lon="12.8842533"><ele>877.2</ele><time>2026-05-02T14:42:12.996Z</time></trkpt><trkpt lat="43.2541517" lon="12.884205"><ele>875.0</ele><time>2026-05-02T14:42:13.994Z</time></trkpt><trkpt lat="43.2540633" lon="12.8841183"><ele>875.0</ele><time>2026-05-02T14:42:14.996Z</time></trkpt><trkpt lat="43.253985" lon="12.8840167"><ele>875.0</ele><time>2026-05-02T14:42:15.994Z</time></trkpt><trkpt lat="43.253905" lon="12.8839083"><ele>875.0</ele><time>2026-05-02T14:42:16.994Z</time></trkpt><trkpt lat="43.2538183" lon="12.8838017"><ele>875.0</ele><time>2026-05-02T14:42:17.994Z</time></trkpt><trkpt lat="43.2537317" lon="12.883695"><ele>872.25</ele><time>2026-05-02T14:42:18.994Z</time></trkpt><trkpt lat="43.25364" lon="12.8835983"><ele>869.5</ele><time>2026-05-02T14:42:19.993Z</time></trkpt><trkpt lat="43.2535367" lon="12.8834917"><ele>866.75</ele><time>2026-05-02T14:42:20.996Z</time></trkpt><trkpt lat="43.253435" lon="12.8833767"><ele>864.0</ele><time>2026-05-02T14:42:21.993Z</time></trkpt><trkpt lat="43.2533417" lon="12.8832633"><ele>864.0</ele><time>2026-05-02T14:42:22.992Z</time></trkpt><trkpt lat="43.253255" lon="12.8831567"><ele>864.0000000000001</ele><time>2026-05-02T14:42:23.994Z</time></trkpt><trkpt lat="43.253175" lon="12.8830517"><ele>864.0000000000001</ele><time>2026-05-02T14:42:24.994Z</time></trkpt><trkpt lat="43.2530967" lon="12.882955"><ele>864.0</ele><time>2026-05-02T14:42:25.993Z</time></trkpt><trkpt lat="43.25302" lon="12.8828733"><ele>864.0</ele><time>2026-05-02T14:42:26.996Z</time></trkpt><trkpt lat="43.2529433" lon="12.8827967"><ele>862.5</ele><time>2026-05-02T14:42:27.993Z</time></trkpt><trkpt lat="43.2528683" lon="12.8827133"><ele>861.0</ele><time>2026-05-02T14:42:28.993Z</time></trkpt><trkpt lat="43.2527967" lon="12.8826267"><ele>859.5</ele><time>2026-05-02T14:42:29.994Z</time></trkpt><trkpt lat="43.25273" lon="12.882535"><ele>858.0</ele><time>2026-05-02T14:42:30.994Z</time></trkpt><trkpt lat="43.2526767" lon="12.8824417"><ele>856.5</ele><time>2026-05-02T14:42:31.992Z</time></trkpt><trkpt lat="43.2526333" lon="12.8823783"><ele>855.0</ele><time>2026-05-02T14:42:32.995Z</time></trkpt><trkpt lat="43.2525533" lon="12.8823567"><ele>855.0</ele><time>2026-05-02T14:42:35.993Z</time></trkpt><trkpt lat="43.2524517" lon="12.8824033"><ele>855.0</ele><time>2026-05-02T14:42:37.994Z</time></trkpt><trkpt lat="43.2523833" lon="12.882395"><ele>855.0</ele><time>2026-05-02T14:42:38.988Z</time></trkpt><trkpt lat="43.252305" lon="12.8823567"><ele>855.0</ele><time>2026-05-02T14:42:39.996Z</time></trkpt><trkpt lat="43.2522183" lon="12.8823083"><ele>855.0</ele><time>2026-05-02T14:42:40.995Z</time></trkpt><trkpt lat="43.252135" lon="12.8822533"><ele>855.0</ele><time>2026-05-02T14:42:41.994Z</time></trkpt><trkpt lat="43.2520583" lon="12.8821817"><ele>854.4</ele><time>2026-05-02T14:42:42.995Z</time></trkpt><trkpt lat="43.2519917" lon="12.8820833"><ele>853.8</ele><time>2026-05-02T14:42:43.994Z</time></trkpt><trkpt lat="43.2519367" lon="12.88197"><ele>853.2</ele><time>2026-05-02T14:42:44.997Z</time></trkpt><trkpt lat="43.2518983" lon="12.8818417"><ele>852.6</ele><time>2026-05-02T14:42:45.994Z</time></trkpt><trkpt lat="43.2518667" lon="12.8817083"><ele>852.0</ele><time>2026-05-02T14:42:46.995Z</time></trkpt><trkpt lat="43.25182" lon="12.8815667"><ele>850.0</ele><time>2026-05-02T14:42:47.994Z</time></trkpt><trkpt lat="43.2517617" lon="12.8814217"><ele>848.0</ele><time>2026-05-02T14:42:48.996Z</time></trkpt><trkpt lat="43.2516967" lon="12.8812767"><ele>846.0</ele><time>2026-05-02T14:42:49.993Z</time></trkpt><trkpt lat="43.251625" lon="12.8811367"><ele>844.0</ele><time>2026-05-02T14:42:50.995Z</time></trkpt><trkpt lat="43.2515533" lon="12.8810067"><ele>843.8000000000001</ele><time>2026-05-02T14:42:51.993Z</time></trkpt><trkpt lat="43.2514733" lon="12.8808917"><ele>843.6</ele><time>2026-05-02T14:42:52.993Z</time></trkpt><trkpt lat="43.2513867" lon="12.88079"><ele>843.4</ele><time>2026-05-02T14:42:53.994Z</time></trkpt><trkpt lat="43.2513" lon="12.8806983"><ele>843.2</ele><time>2026-05-02T14:42:54.994Z</time></trkpt><trkpt lat="43.251225" lon="12.880615"><ele>843.0</ele><time>2026-05-02T14:42:55.993Z</time></trkpt><trkpt lat="43.251155" lon="12.880545"><ele>842.6666666666666</ele><time>2026-05-02T14:42:56.995Z</time></trkpt><trkpt lat="43.251085" lon="12.8804933"><ele>842.3333333333333</ele><time>2026-05-02T14:42:57.993Z</time></trkpt><trkpt lat="43.2510217" lon="12.88045"><ele>842.0</ele><time>2026-05-02T14:42:58.992Z</time></trkpt><trkpt lat="43.2509367" lon="12.88034"><ele>841.6666666666666</ele><time>2026-05-02T14:43:00.993Z</time></trkpt><trkpt lat="43.2509217" lon="12.88023"><ele>841.3333333333333</ele><time>2026-05-02T14:43:02.995Z</time></trkpt><trkpt lat="43.2509583" lon="12.880145"><ele>841.0</ele><time>2026-05-02T14:43:06.995Z</time></trkpt><trkpt lat="43.2510017" lon="12.8800567"><ele>839.3333333333333</ele><time>2026-05-02T14:43:09.993Z</time></trkpt><trkpt lat="43.251035" lon="12.8799567"><ele>837.6666666666666</ele><time>2026-05-02T14:43:11.994Z</time></trkpt><trkpt lat="43.251015" lon="12.8798317"><ele>836.0</ele><time>2026-05-02T14:43:13.994Z</time></trkpt><trkpt lat="43.2509717" lon="12.8796917"><ele>834.3333333333333</ele><time>2026-05-02T14:43:15.994Z</time></trkpt><trkpt lat="43.2509433" lon="12.87961"><ele>832.6666666666666</ele><time>2026-05-02T14:43:16.995Z</time></trkpt><trkpt lat="43.2509033" lon="12.8795167"><ele>831.0</ele><time>2026-05-02T14:43:17.993Z</time></trkpt><trkpt lat="43.2508583" lon="12.8794083"><ele>831.0</ele><time>2026-05-02T14:43:18.995Z</time></trkpt><trkpt lat="43.2508017" lon="12.879305"><ele>831.0</ele><time>2026-05-02T14:43:19.996Z</time></trkpt><trkpt lat="43.2507233" lon="12.8792067"><ele>831.0</ele><time>2026-05-02T14:43:20.995Z</time></trkpt><trkpt lat="43.25064" lon="12.879135"><ele>831.0</ele><time>2026-05-02T14:43:21.994Z</time></trkpt><trkpt lat="43.2505433" lon="12.8790717"><ele>831.0</ele><time>2026-05-02T14:43:22.994Z</time></trkpt><trkpt lat="43.25045" lon="12.8790083"><ele>829.8333333333334</ele><time>2026-05-02T14:43:23.994Z</time></trkpt><trkpt lat="43.2503617" lon="12.8789467"><ele>828.6666666666667</ele><time>2026-05-02T14:43:24.994Z</time></trkpt><trkpt lat="43.2502867" lon="12.8788917"><ele>827.5</ele><time>2026-05-02T14:43:25.995Z</time></trkpt><trkpt lat="43.2502267" lon="12.8788333"><ele>826.3333333333334</ele><time>2026-05-02T14:43:26.995Z</time></trkpt><trkpt lat="43.25025" lon="12.878745"><ele>825.1666666666667</ele><time>2026-05-02T14:43:28.994Z</time></trkpt><trkpt lat="43.2502933" lon="12.878665"><ele>824.0</ele><time>2026-05-02T14:43:29.993Z</time></trkpt><trkpt lat="43.2503017" lon="12.8785667"><ele>824.0000000000001</ele><time>2026-05-02T14:43:31.996Z</time></trkpt><trkpt lat="43.2502367" lon="12.8785483"><ele>824.0</ele><time>2026-05-02T14:43:35.993Z</time></trkpt><trkpt lat="43.2501667" lon="12.8785683"><ele>824.0</ele><time>2026-05-02T14:43:38.996Z</time></trkpt><trkpt lat="43.2500767" lon="12.8784967"><ele>824.0</ele><time>2026-05-02T14:43:41.995Z</time></trkpt><trkpt lat="43.2499867" lon="12.8784717"><ele>824.0000000000001</ele><time>2026-05-02T14:43:43.994Z</time></trkpt><trkpt lat="43.249875" lon="12.8784733"><ele>824.0</ele><time>2026-05-02T14:43:45.995Z</time></trkpt><trkpt lat="43.2497833" lon="12.8784517"><ele>821.8333333333334</ele><time>2026-05-02T14:43:47.994Z</time></trkpt><trkpt lat="43.249725" lon="12.878415"><ele>819.6666666666667</ele><time>2026-05-02T14:43:49.995Z</time></trkpt><trkpt lat="43.2496617" lon="12.87834"><ele>817.5</ele><time>2026-05-02T14:43:51.994Z</time></trkpt><trkpt lat="43.2496" lon="12.8782367"><ele>815.3333333333333</ele><time>2026-05-02T14:43:53.994Z</time></trkpt><trkpt lat="43.2495683" lon="12.8781317"><ele>813.1666666666666</ele><time>2026-05-02T14:43:55.995Z</time></trkpt><trkpt lat="43.249555" lon="12.878005"><ele>811.0</ele><time>2026-05-02T14:43:57.994Z</time></trkpt><trkpt lat="43.2495383" lon="12.8778933"><ele>810.9999999999999</ele><time>2026-05-02T14:44:00.996Z</time></trkpt><trkpt lat="43.249535" lon="12.8777783"><ele>811.0</ele><time>2026-05-02T14:44:02.995Z</time></trkpt><trkpt lat="43.249525" lon="12.8776767"><ele>811.0</ele><time>2026-05-02T14:44:04.994Z</time></trkpt><trkpt lat="43.24949" lon="12.8776017"><ele>811.0</ele><time>2026-05-02T14:44:06.995Z</time></trkpt><trkpt lat="43.24942" lon="12.877545"><ele>810.9999999999999</ele><time>2026-05-02T14:44:09.994Z</time></trkpt><trkpt lat="43.2493683" lon="12.8774467"><ele>811.0</ele><time>2026-05-02T14:44:11.993Z</time></trkpt><trkpt lat="43.2493217" lon="12.8773833"><ele>809.4999999999999</ele><time>2026-05-02T14:44:12.994Z</time></trkpt><trkpt lat="43.2492783" lon="12.8773183"><ele>808.0</ele><time>2026-05-02T14:44:13.995Z</time></trkpt><trkpt lat="43.2492233" lon="12.8772467"><ele>806.5</ele><time>2026-05-02T14:44:14.994Z</time></trkpt><trkpt lat="43.249155" lon="12.8771867"><ele>805.0</ele><time>2026-05-02T14:44:15.995Z</time></trkpt><trkpt lat="43.2490883" lon="12.8771183"><ele>803.4999999999999</ele><time>2026-05-02T14:44:16.993Z</time></trkpt><trkpt lat="43.2490117" lon="12.8770617"><ele>802.0</ele><time>2026-05-02T14:44:17.993Z</time></trkpt><trkpt lat="43.2489217" lon="12.8770167"><ele>801.9999999999999</ele><time>2026-05-02T14:44:18.994Z</time></trkpt><trkpt lat="43.2488483" lon="12.8769933"><ele>802.0</ele><time>2026-05-02T14:44:19.993Z</time></trkpt><trkpt lat="43.2487767" lon="12.8769617"><ele>802.0</ele><time>2026-05-02T14:44:20.995Z</time></trkpt><trkpt lat="43.2486683" lon="12.8769117"><ele>802.0</ele><time>2026-05-02T14:44:22.993Z</time></trkpt><trkpt lat="43.2486067" lon="12.8768917"><ele>801.9999999999999</ele><time>2026-05-02T14:44:24.994Z</time></trkpt><trkpt lat="43.24852" lon="12.8768317"><ele>802.0</ele><time>2026-05-02T14:44:30.993Z</time></trkpt><trkpt lat="43.2484517" lon="12.87682"><ele>799.2</ele><time>2026-05-02T14:44:33.994Z</time></trkpt><trkpt lat="43.2483983" lon="12.8767617"><ele>796.4000000000001</ele><time>2026-05-02T14:44:39.995Z</time></trkpt><trkpt lat="43.2483417" lon="12.8767133"><ele>793.5999999999999</ele><time>2026-05-02T14:44:42.994Z</time></trkpt><trkpt lat="43.2482717" lon="12.8766633"><ele>790.8</ele><time>2026-05-02T14:44:45.994Z</time></trkpt><trkpt lat="43.2481117" lon="12.8765983"><ele>788.0</ele><time>2026-05-02T14:44:57.995Z</time></trkpt><trkpt lat="43.2480233" lon="12.8765817"><ele>788.0</ele><time>2026-05-02T14:44:59.994Z</time></trkpt><trkpt lat="43.24795" lon="12.876525"><ele>788.0</ele><time>2026-05-02T14:45:01.995Z</time></trkpt><trkpt lat="43.24788" lon="12.8764767"><ele>788.0</ele><time>2026-05-02T14:45:03.994Z</time></trkpt><trkpt lat="43.2478017" lon="12.8763817"><ele>788.0</ele><time>2026-05-02T14:45:13.995Z</time></trkpt><trkpt lat="43.2477283" lon="12.8762967"><ele>788.0</ele><time>2026-05-02T14:45:16.993Z</time></trkpt><trkpt lat="43.2476567" lon="12.87621"><ele>788.0</ele><time>2026-05-02T14:45:18.995Z</time></trkpt><trkpt lat="43.2475567" lon="12.8761333"><ele>788.0</ele><time>2026-05-02T14:45:20.995Z</time></trkpt><trkpt lat="43.2474583" lon="12.876065"><ele>788.0</ele><time>2026-05-02T14:45:22.993Z</time></trkpt><trkpt lat="43.2473667" lon="12.8760133"><ele>788.0</ele><time>2026-05-02T14:45:24.995Z</time></trkpt><trkpt lat="43.2472917" lon="12.8759283"><ele>788.0</ele><time>2026-05-02T14:45:26.994Z</time></trkpt><trkpt lat="43.247225" lon="12.8758467"><ele>782.0000000000001</ele><time>2026-05-02T14:45:28.992Z</time></trkpt><trkpt lat="43.2471717" lon="12.875775"><ele>776.0</ele><time>2026-05-02T14:45:30.994Z</time></trkpt><trkpt lat="43.2471167" lon="12.87569"><ele>770.0</ele><time>2026-05-02T14:45:33.994Z</time></trkpt><trkpt lat="43.2470617" lon="12.8755983"><ele>764.0</ele><time>2026-05-02T14:45:36.995Z</time></trkpt><trkpt lat="43.2469717" lon="12.8754783"><ele>758.0</ele><time>2026-05-02T14:45:44.994Z</time></trkpt><trkpt lat="43.24692" lon="12.8754283"><ele>752.0</ele><time>2026-05-02T14:45:46.993Z</time></trkpt><trkpt lat="43.24685" lon="12.87537"><ele>752.0</ele><time>2026-05-02T14:45:49.994Z</time></trkpt><trkpt lat="43.246785" lon="12.8753267"><ele>752.0</ele><time>2026-05-02T14:45:51.992Z</time></trkpt><trkpt lat="43.246725" lon="12.8752817"><ele>752.0</ele><time>2026-05-02T14:45:53.994Z</time></trkpt><trkpt lat="43.2466583" lon="12.8752617"><ele>752.0</ele><time>2026-05-02T14:45:56.996Z</time></trkpt><trkpt lat="43.2465683" lon="12.8752217"><ele>752.0</ele><time>2026-05-02T14:46:15.993Z</time></trkpt><trkpt lat="43.2464883" lon="12.8751833"><ele>752.0</ele><time>2026-05-02T14:46:26.994Z</time></trkpt><trkpt lat="43.2463967" lon="12.8751217"><ele>749.6666666666666</ele><time>2026-05-02T14:46:28.993Z</time></trkpt><trkpt lat="43.2463383" lon="12.8750867"><ele>747.3333333333333</ele><time>2026-05-02T14:46:30.995Z</time></trkpt><trkpt lat="43.2462683" lon="12.8751017"><ele>745.0</ele><time>2026-05-02T14:46:33.994Z</time></trkpt><trkpt lat="43.2461917" lon="12.8751717"><ele>742.6666666666666</ele><time>2026-05-02T14:46:35.995Z</time></trkpt><trkpt lat="43.246105" lon="12.87524"><ele>740.3333333333334</ele><time>2026-05-02T14:46:37.994Z</time></trkpt><trkpt lat="43.2460083" lon="12.8752917"><ele>738.0</ele><time>2026-05-02T14:46:39.993Z</time></trkpt><trkpt lat="43.24595" lon="12.87533"><ele>738.0</ele><time>2026-05-02T14:46:40.993Z</time></trkpt><trkpt lat="43.2458917" lon="12.8753717"><ele>738.0</ele><time>2026-05-02T14:46:41.994Z</time></trkpt><trkpt lat="43.2458283" lon="12.8754067"><ele>738.0</ele><time>2026-05-02T14:46:42.994Z</time></trkpt><trkpt lat="43.2457583" lon="12.8754333"><ele>738.0</ele><time>2026-05-02T14:46:43.993Z</time></trkpt><trkpt lat="43.24569" lon="12.87544"><ele>738.0</ele><time>2026-05-02T14:46:44.995Z</time></trkpt><trkpt lat="43.245615" lon="12.8754383"><ele>738.0</ele><time>2026-05-02T14:46:45.994Z</time></trkpt><trkpt lat="43.24554" lon="12.8754383"><ele>738.0</ele><time>2026-05-02T14:46:46.994Z</time></trkpt><trkpt lat="43.245465" lon="12.8754267"><ele>734.6666666666666</ele><time>2026-05-02T14:46:47.994Z</time></trkpt><trkpt lat="43.2453917" lon="12.8754"><ele>731.3333333333334</ele><time>2026-05-02T14:46:48.994Z</time></trkpt><trkpt lat="43.2453283" lon="12.87536"><ele>728.0</ele><time>2026-05-02T14:46:49.994Z</time></trkpt><trkpt lat="43.2452683" lon="12.87531"><ele>724.6666666666667</ele><time>2026-05-02T14:46:50.995Z</time></trkpt><trkpt lat="43.2451517" lon="12.875315"><ele>721.3333333333334</ele><time>2026-05-02T14:46:52.995Z</time></trkpt><trkpt lat="43.24509" lon="12.87535"><ele>718.0</ele><time>2026-05-02T14:46:53.995Z</time></trkpt><trkpt lat="43.24502" lon="12.875405"><ele>718.0</ele><time>2026-05-02T14:46:54.996Z</time></trkpt><trkpt lat="43.2449517" lon="12.8754667"><ele>718.0</ele><time>2026-05-02T14:46:55.994Z</time></trkpt><trkpt lat="43.24489" lon="12.8755233"><ele>718.0</ele><time>2026-05-02T14:46:56.995Z</time></trkpt><trkpt lat="43.2448283" lon="12.875585"><ele>718.0</ele><time>2026-05-02T14:46:57.994Z</time></trkpt><trkpt lat="43.2447667" lon="12.8756333"><ele>718.0</ele><time>2026-05-02T14:46:58.994Z</time></trkpt><trkpt lat="43.2446983" lon="12.8756733"><ele>718.0</ele><time>2026-05-02T14:46:59.994Z</time></trkpt><trkpt lat="43.2446317" lon="12.8757233"><ele>718.0</ele><time>2026-05-02T14:47:00.995Z</time></trkpt><trkpt lat="43.24457" lon="12.8757617"><ele>718.0</ele><time>2026-05-02T14:47:01.994Z</time></trkpt><trkpt lat="43.2445" lon="12.8757983"><ele>718.0</ele><time>2026-05-02T14:47:02.995Z</time></trkpt><trkpt lat="43.244415" lon="12.8758333"><ele>718.0</ele><time>2026-05-02T14:47:03.993Z</time></trkpt><trkpt lat="43.244335" lon="12.8758733"><ele>718.0</ele><time>2026-05-02T14:47:04.994Z</time></trkpt><trkpt lat="43.2442483" lon="12.8759167"><ele>718.0</ele><time>2026-05-02T14:47:05.995Z</time></trkpt><trkpt lat="43.2441533" lon="12.8759533"><ele>718.0</ele><time>2026-05-02T14:47:06.995Z</time></trkpt><trkpt lat="43.2440483" lon="12.8759867"><ele>718.0</ele><time>2026-05-02T14:47:07.995Z</time></trkpt><trkpt lat="43.2439417" lon="12.8760117"><ele>718.0</ele><time>2026-05-02T14:47:08.995Z</time></trkpt><trkpt lat="43.2438333" lon="12.8760367"><ele>718.0</ele><time>2026-05-02T14:47:09.993Z</time></trkpt><trkpt lat="43.2437283" lon="12.87606"><ele>718.0</ele><time>2026-05-02T14:47:10.992Z</time></trkpt><trkpt lat="43.2436183" lon="12.876105"><ele>712.0</ele><time>2026-05-02T14:47:11.994Z</time></trkpt><trkpt lat="43.2434933" lon="12.8761467"><ele>706.0</ele><time>2026-05-02T14:47:12.995Z</time></trkpt><trkpt lat="43.24337" lon="12.8761867"><ele>700.0</ele><time>2026-05-02T14:47:13.993Z</time></trkpt><trkpt lat="43.2432383" lon="12.8762183"><ele>694.0</ele><time>2026-05-02T14:47:14.996Z</time></trkpt><trkpt lat="43.2431067" lon="12.8762517"><ele>687.25</ele><time>2026-05-02T14:47:15.994Z</time></trkpt><trkpt lat="43.2429733" lon="12.87629"><ele>680.5</ele><time>2026-05-02T14:47:16.994Z</time></trkpt><trkpt lat="43.24284" lon="12.8763167"><ele>673.75</ele><time>2026-05-02T14:47:17.993Z</time></trkpt><trkpt lat="43.242715" lon="12.8763433"><ele>667.0</ele><time>2026-05-02T14:47:18.994Z</time></trkpt><trkpt lat="43.24258" lon="12.87636"><ele>667.0</ele><time>2026-05-02T14:47:19.994Z</time></trkpt><trkpt lat="43.2424567" lon="12.8763833"><ele>667.0</ele><time>2026-05-02T14:47:20.996Z</time></trkpt><trkpt lat="43.2423317" lon="12.8764233"><ele>667.0</ele><time>2026-05-02T14:47:21.993Z</time></trkpt><trkpt lat="43.24221" lon="12.8764867"><ele>667.0</ele><time>2026-05-02T14:47:22.994Z</time></trkpt><trkpt lat="43.2420933" lon="12.876545"><ele>663.75</ele><time>2026-05-02T14:47:23.995Z</time></trkpt><trkpt lat="43.2419817" lon="12.8765933"><ele>660.5</ele><time>2026-05-02T14:47:24.994Z</time></trkpt><trkpt lat="43.2418717" lon="12.87662"><ele>657.25</ele><time>2026-05-02T14:47:25.994Z</time></trkpt><trkpt lat="43.2417433" lon="12.8766417"><ele>654.0</ele><time>2026-05-02T14:47:26.995Z</time></trkpt><trkpt lat="43.2416067" lon="12.876675"><ele>654.0</ele><time>2026-05-02T14:47:27.994Z</time></trkpt><trkpt lat="43.2414683" lon="12.8767117"><ele>654.0</ele><time>2026-05-02T14:47:28.994Z</time></trkpt><trkpt lat="43.24133" lon="12.8767417"><ele>654.0</ele><time>2026-05-02T14:47:29.993Z</time></trkpt><trkpt lat="43.24119" lon="12.87676"><ele>654.0</ele><time>2026-05-02T14:47:30.994Z</time></trkpt><trkpt lat="43.24104" lon="12.8767767"><ele>656.75</ele><time>2026-05-02T14:47:31.994Z</time></trkpt><trkpt lat="43.2408933" lon="12.876795"><ele>659.5</ele><time>2026-05-02T14:47:32.993Z</time></trkpt><trkpt lat="43.2407517" lon="12.8768183"><ele>662.25</ele><time>2026-05-02T14:47:33.993Z</time></trkpt><trkpt lat="43.2406183" lon="12.8768417"><ele>665.0</ele><time>2026-05-02T14:47:34.994Z</time></trkpt><trkpt lat="43.240485" lon="12.876855"><ele>665.0</ele><time>2026-05-02T14:47:35.994Z</time></trkpt><trkpt lat="43.24035" lon="12.8768567"><ele>665.0</ele><time>2026-05-02T14:47:36.993Z</time></trkpt><trkpt lat="43.2402183" lon="12.8768467"><ele>665.0</ele><time>2026-05-02T14:47:37.994Z</time></trkpt><trkpt lat="43.2400917" lon="12.8768233"><ele>665.0</ele><time>2026-05-02T14:47:38.994Z</time></trkpt><trkpt lat="43.2399683" lon="12.8767783"><ele>658.25</ele><time>2026-05-02T14:47:39.993Z</time></trkpt><trkpt lat="43.2398483" lon="12.8767233"><ele>651.5</ele><time>2026-05-02T14:47:40.994Z</time></trkpt><trkpt lat="43.2397317" lon="12.8766833"><ele>644.75</ele><time>2026-05-02T14:47:41.995Z</time></trkpt><trkpt lat="43.2396133" lon="12.8766533"><ele>638.0</ele><time>2026-05-02T14:47:42.995Z</time></trkpt><trkpt lat="43.2395033" lon="12.8766283"><ele>637.1999999999999</ele><time>2026-05-02T14:47:43.994Z</time></trkpt><trkpt lat="43.2393917" lon="12.8766167"><ele>636.4</ele><time>2026-05-02T14:47:44.995Z</time></trkpt><trkpt lat="43.2392867" lon="12.8766183"><ele>635.5999999999999</ele><time>2026-05-02T14:47:45.994Z</time></trkpt><trkpt lat="43.2391917" lon="12.87661"><ele>634.8</ele><time>2026-05-02T14:47:46.994Z</time></trkpt><trkpt lat="43.2390917" lon="12.876595"><ele>634.0</ele><time>2026-05-02T14:47:47.994Z</time></trkpt><trkpt lat="43.2389817" lon="12.8765617"><ele>632.5</ele><time>2026-05-02T14:47:48.993Z</time></trkpt><trkpt lat="43.2388633" lon="12.8765117"><ele>631.0</ele><time>2026-05-02T14:47:49.995Z</time></trkpt><trkpt lat="43.238745" lon="12.8764483"><ele>629.5</ele><time>2026-05-02T14:47:50.995Z</time></trkpt><trkpt lat="43.2386233" lon="12.8764"><ele>628.0</ele><time>2026-05-02T14:47:51.994Z</time></trkpt><trkpt lat="43.2385117" lon="12.87636"><ele>628.0</ele><time>2026-05-02T14:47:52.994Z</time></trkpt><trkpt lat="43.2383933" lon="12.876325"><ele>628.0</ele><time>2026-05-02T14:47:53.994Z</time></trkpt><trkpt lat="43.23827" lon="12.876295"><ele>628.0</ele><time>2026-05-02T14:47:54.994Z</time></trkpt><trkpt lat="43.23814" lon="12.8762683"><ele>628.0</ele><time>2026-05-02T14:47:55.994Z</time></trkpt><trkpt lat="43.2380067" lon="12.8762483"><ele>627.25</ele><time>2026-05-02T14:47:56.994Z</time></trkpt><trkpt lat="43.2378733" lon="12.8762317"><ele>626.5</ele><time>2026-05-02T14:47:57.994Z</time></trkpt><trkpt lat="43.2377383" lon="12.876235"><ele>625.75</ele><time>2026-05-02T14:47:58.992Z</time></trkpt><trkpt lat="43.2375883" lon="12.8762433"><ele>625.0</ele><time>2026-05-02T14:47:59.994Z</time></trkpt><trkpt lat="43.237435" lon="12.8762517"><ele>624.75</ele><time>2026-05-02T14:48:00.994Z</time></trkpt><trkpt lat="43.2372817" lon="12.8762533"><ele>624.5</ele><time>2026-05-02T14:48:01.994Z</time></trkpt><trkpt lat="43.2371333" lon="12.8762417"><ele>624.25</ele><time>2026-05-02T14:48:02.994Z</time></trkpt><trkpt lat="43.2369883" lon="12.8762217"><ele>624.0</ele><time>2026-05-02T14:48:03.995Z</time></trkpt><trkpt lat="43.2368433" lon="12.87618"><ele>624.0</ele><time>2026-05-02T14:48:04.995Z</time></trkpt><trkpt lat="43.2366933" lon="12.8761283"><ele>624.0</ele><time>2026-05-02T14:48:05.996Z</time></trkpt><trkpt lat="43.2365383" lon="12.8760833"><ele>624.0</ele><time>2026-05-02T14:48:06.996Z</time></trkpt><trkpt lat="43.2363817" lon="12.876045"><ele>623.75</ele><time>2026-05-02T14:48:07.996Z</time></trkpt><trkpt lat="43.2362267" lon="12.8760083"><ele>623.5</ele><time>2026-05-02T14:48:08.996Z</time></trkpt><trkpt lat="43.2360817" lon="12.8759783"><ele>623.25</ele><time>2026-05-02T14:48:09.996Z</time></trkpt><trkpt lat="43.235945" lon="12.8759517"><ele>623.0</ele><time>2026-05-02T14:48:10.995Z</time></trkpt><trkpt lat="43.2358183" lon="12.8759217"><ele>618.5</ele><time>2026-05-02T14:48:11.996Z</time></trkpt><trkpt lat="43.2356933" lon="12.8758833"><ele>614.0</ele><time>2026-05-02T14:48:12.997Z</time></trkpt><trkpt lat="43.235575" lon="12.8758433"><ele>609.5</ele><time>2026-05-02T14:48:13.995Z</time></trkpt><trkpt lat="43.235455" lon="12.875805"><ele>605.0</ele><time>2026-05-02T14:48:14.996Z</time></trkpt><trkpt lat="43.2353383" lon="12.87578"><ele>603.6</ele><time>2026-05-02T14:48:15.993Z</time></trkpt><trkpt lat="43.2352283" lon="12.875745"><ele>602.2</ele><time>2026-05-02T14:48:16.994Z</time></trkpt><trkpt lat="43.2351283" lon="12.875695"><ele>600.8</ele><time>2026-05-02T14:48:17.994Z</time></trkpt><trkpt lat="43.235035" lon="12.87563"><ele>599.4</ele><time>2026-05-02T14:48:18.993Z</time></trkpt><trkpt lat="43.234955" lon="12.8755483"><ele>598.0</ele><time>2026-05-02T14:48:19.994Z</time></trkpt><trkpt lat="43.2348833" lon="12.8754517"><ele>598.0</ele><time>2026-05-02T14:48:20.995Z</time></trkpt><trkpt lat="43.2348183" lon="12.87534"><ele>598.0</ele><time>2026-05-02T14:48:21.994Z</time></trkpt><trkpt lat="43.2347617" lon="12.8752133"><ele>598.0</ele><time>2026-05-02T14:48:22.994Z</time></trkpt><trkpt lat="43.2347217" lon="12.875065"><ele>598.0</ele><time>2026-05-02T14:48:23.994Z</time></trkpt><trkpt lat="43.2346867" lon="12.874915"><ele>598.0</ele><time>2026-05-02T14:48:24.994Z</time></trkpt><trkpt lat="43.234645" lon="12.8747783"><ele>599.0</ele><time>2026-05-02T14:48:25.993Z</time></trkpt><trkpt lat="43.234595" lon="12.87466"><ele>600.0</ele><time>2026-05-02T14:48:26.994Z</time></trkpt><trkpt lat="43.2345333" lon="12.87456"><ele>601.0</ele><time>2026-05-02T14:48:27.994Z</time></trkpt><trkpt lat="43.2344667" lon="12.8744783"><ele>602.0</ele><time>2026-05-02T14:48:28.993Z</time></trkpt><trkpt lat="43.234395" lon="12.8744067"><ele>603.0</ele><time>2026-05-02T14:48:29.993Z</time></trkpt><trkpt lat="43.234315" lon="12.8743383"><ele>602.0</ele><time>2026-05-02T14:48:30.994Z</time></trkpt><trkpt lat="43.23423" lon="12.8742683"><ele>601.0</ele><time>2026-05-02T14:48:31.994Z</time></trkpt><trkpt lat="43.23415" lon="12.8741883"><ele>600.0</ele><time>2026-05-02T14:48:32.994Z</time></trkpt><trkpt lat="43.2340783" lon="12.8741017"><ele>599.0</ele><time>2026-05-02T14:48:33.994Z</time></trkpt><trkpt lat="43.2340133" lon="12.874005"><ele>598.0</ele><time>2026-05-02T14:48:34.995Z</time></trkpt><trkpt lat="43.233955" lon="12.8739117"><ele>599.2857142857142</ele><time>2026-05-02T14:48:35.994Z</time></trkpt><trkpt lat="43.233905" lon="12.8738267"><ele>600.5714285714286</ele><time>2026-05-02T14:48:36.994Z</time></trkpt><trkpt lat="43.2338583" lon="12.8737467"><ele>601.8571428571429</ele><time>2026-05-02T14:48:37.994Z</time></trkpt><trkpt lat="43.2338083" lon="12.87368"><ele>603.1428571428571</ele><time>2026-05-02T14:48:38.995Z</time></trkpt><trkpt lat="43.2337567" lon="12.8736183"><ele>604.4285714285714</ele><time>2026-05-02T14:48:39.993Z</time></trkpt><trkpt lat="43.2337017" lon="12.873555"><ele>605.7142857142857</ele><time>2026-05-02T14:48:40.993Z</time></trkpt><trkpt lat="43.233645" lon="12.87349"><ele>607.0</ele><time>2026-05-02T14:48:41.994Z</time></trkpt><trkpt lat="43.233585" lon="12.8734217"><ele>607.0</ele><time>2026-05-02T14:48:42.994Z</time></trkpt><trkpt lat="43.233525" lon="12.8733517"><ele>607.0</ele><time>2026-05-02T14:48:43.995Z</time></trkpt><trkpt lat="43.2334667" lon="12.8732733"><ele>607.0</ele><time>2026-05-02T14:48:44.993Z</time></trkpt><trkpt lat="43.2334067" lon="12.8731883"><ele>607.0</ele><time>2026-05-02T14:48:45.994Z</time></trkpt><trkpt lat="43.2333433" lon="12.873095"><ele>607.0</ele><time>2026-05-02T14:48:46.993Z</time></trkpt><trkpt lat="43.2332783" lon="12.87301"><ele>607.0</ele><time>2026-05-02T14:48:47.994Z</time></trkpt><trkpt lat="43.2332217" lon="12.872935"><ele>607.0</ele><time>2026-05-02T14:48:48.993Z</time></trkpt><trkpt lat="43.2331483" lon="12.8728383"><ele>607.0</ele><time>2026-05-02T14:48:50.994Z</time></trkpt><trkpt lat="43.2332283" lon="12.8728483"><ele>607.0</ele><time>2026-05-02T14:50:10.993Z</time></trkpt><trkpt lat="43.23331" lon="12.8728533"><ele>607.0</ele><time>2026-05-02T14:50:13.995Z</time></trkpt><trkpt lat="43.2333233" lon="12.872755"><ele>607.0</ele><time>2026-05-02T14:50:15.993Z</time></trkpt><trkpt lat="43.2333083" lon="12.872665"><ele>607.0</ele><time>2026-05-02T14:50:16.993Z</time></trkpt><trkpt lat="43.2332883" lon="12.8725533"><ele>606.0</ele><time>2026-05-02T14:50:17.994Z</time></trkpt><trkpt lat="43.2332767" lon="12.872425"><ele>605.0</ele><time>2026-05-02T14:50:18.993Z</time></trkpt><trkpt lat="43.2332717" lon="12.8723033"><ele>604.0</ele><time>2026-05-02T14:50:19.994Z</time></trkpt><trkpt lat="43.23327" lon="12.87219"><ele>603.0</ele><time>2026-05-02T14:50:20.993Z</time></trkpt><trkpt lat="43.2332733" lon="12.8720833"><ele>602.0</ele><time>2026-05-02T14:50:21.994Z</time></trkpt><trkpt lat="43.233285" lon="12.8719783"><ele>601.0</ele><time>2026-05-02T14:50:22.993Z</time></trkpt><trkpt lat="43.2333067" lon="12.8718667"><ele>599.8333333333334</ele><time>2026-05-02T14:50:23.993Z</time></trkpt><trkpt lat="43.23334" lon="12.87175"><ele>598.6666666666667</ele><time>2026-05-02T14:50:24.993Z</time></trkpt><trkpt lat="43.233375" lon="12.8716367"><ele>597.5</ele><time>2026-05-02T14:50:25.993Z</time></trkpt><trkpt lat="43.233395" lon="12.8715283"><ele>596.3333333333334</ele><time>2026-05-02T14:50:26.993Z</time></trkpt><trkpt lat="43.233395" lon="12.87142"><ele>595.1666666666666</ele><time>2026-05-02T14:50:27.993Z</time></trkpt><trkpt lat="43.2333783" lon="12.871305"><ele>594.0</ele><time>2026-05-02T14:50:28.992Z</time></trkpt><trkpt lat="43.2333517" lon="12.87118"><ele>594.0</ele><time>2026-05-02T14:50:29.993Z</time></trkpt><trkpt lat="43.2333267" lon="12.871055"><ele>594.0</ele><time>2026-05-02T14:50:30.993Z</time></trkpt><trkpt lat="43.2333017" lon="12.8709483"><ele>594.0</ele><time>2026-05-02T14:50:31.993Z</time></trkpt><trkpt lat="43.2332667" lon="12.8708533"><ele>594.0</ele><time>2026-05-02T14:50:32.995Z</time></trkpt><trkpt lat="43.2332233" lon="12.8707583"><ele>594.0</ele><time>2026-05-02T14:50:33.992Z</time></trkpt><trkpt lat="43.2331733" lon="12.8706617"><ele>594.0</ele><time>2026-05-02T14:50:34.992Z</time></trkpt><trkpt lat="43.23312" lon="12.8705733"><ele>593.5</ele><time>2026-05-02T14:50:35.992Z</time></trkpt><trkpt lat="43.2330633" lon="12.8704817"><ele>593.0</ele><time>2026-05-02T14:50:36.993Z</time></trkpt><trkpt lat="43.2330067" lon="12.8703867"><ele>592.5</ele><time>2026-05-02T14:50:37.993Z</time></trkpt><trkpt lat="43.2329533" lon="12.8702917"><ele>592.0</ele><time>2026-05-02T14:50:38.993Z</time></trkpt><trkpt lat="43.2329017" lon="12.8702033"><ele>591.5</ele><time>2026-05-02T14:50:39.993Z</time></trkpt><trkpt lat="43.23285" lon="12.870115"><ele>591.0</ele><time>2026-05-02T14:50:40.994Z</time></trkpt><trkpt lat="43.2328067" lon="12.8700167"><ele>589.6</ele><time>2026-05-02T14:50:41.993Z</time></trkpt><trkpt lat="43.2327633" lon="12.86991"><ele>588.2</ele><time>2026-05-02T14:50:42.994Z</time></trkpt><trkpt lat="43.2327233" lon="12.8697933"><ele>586.8</ele><time>2026-05-02T14:50:43.993Z</time></trkpt><trkpt lat="43.2326783" lon="12.869675"><ele>585.4</ele><time>2026-05-02T14:50:44.996Z</time></trkpt><trkpt lat="43.2326317" lon="12.8695483"><ele>584.0</ele><time>2026-05-02T14:50:45.993Z</time></trkpt><trkpt lat="43.23258" lon="12.86942"><ele>584.0</ele><time>2026-05-02T14:50:46.992Z</time></trkpt><trkpt lat="43.23252" lon="12.8692983"><ele>584.0</ele><time>2026-05-02T14:50:47.992Z</time></trkpt><trkpt lat="43.2324533" lon="12.86918"><ele>584.0</ele><time>2026-05-02T14:50:48.993Z</time></trkpt><trkpt lat="43.2323867" lon="12.8690517"><ele>584.0</ele><time>2026-05-02T14:50:49.993Z</time></trkpt><trkpt lat="43.2323217" lon="12.8689183"><ele>584.0</ele><time>2026-05-02T14:50:50.992Z</time></trkpt><trkpt lat="43.232255" lon="12.8687883"><ele>583.0</ele><time>2026-05-02T14:50:51.994Z</time></trkpt><trkpt lat="43.2321967" lon="12.86867"><ele>582.0</ele><time>2026-05-02T14:50:52.992Z</time></trkpt><trkpt lat="43.2321467" lon="12.8685283"><ele>581.0</ele><time>2026-05-02T14:50:53.994Z</time></trkpt><trkpt lat="43.2321" lon="12.8683783"><ele>580.0</ele><time>2026-05-02T14:50:54.994Z</time></trkpt><trkpt lat="43.23207" lon="12.8682283"><ele>584.5</ele><time>2026-05-02T14:50:55.993Z</time></trkpt><trkpt lat="43.2320317" lon="12.8680717"><ele>589.0</ele><time>2026-05-02T14:50:56.993Z</time></trkpt><trkpt lat="43.231985" lon="12.86792"><ele>593.5</ele><time>2026-05-02T14:50:57.992Z</time></trkpt><trkpt lat="43.2319383" lon="12.8677583"><ele>598.0</ele><time>2026-05-02T14:50:58.993Z</time></trkpt><trkpt lat="43.2318983" lon="12.867625"><ele>602.5</ele><time>2026-05-02T14:50:59.993Z</time></trkpt><trkpt lat="43.2318667" lon="12.8675133"><ele>607.0</ele><time>2026-05-02T14:51:00.994Z</time></trkpt><trkpt lat="43.2318283" lon="12.8674083"><ele>611.5</ele><time>2026-05-02T14:51:01.994Z</time></trkpt><trkpt lat="43.2317883" lon="12.867325"><ele>616.0</ele><time>2026-05-02T14:51:02.992Z</time></trkpt><trkpt lat="43.2317517" lon="12.8672483"><ele>620.5</ele><time>2026-05-02T14:51:03.992Z</time></trkpt><trkpt lat="43.231725" lon="12.86716"><ele>625.0</ele><time>2026-05-02T14:51:04.992Z</time></trkpt><trkpt lat="43.231685" lon="12.86705"><ele>625.0</ele><time>2026-05-02T14:51:06.993Z</time></trkpt><trkpt lat="43.2316933" lon="12.8669517"><ele>625.0</ele><time>2026-05-02T14:51:08.995Z</time></trkpt><trkpt lat="43.2317883" lon="12.8668883"><ele>625.0</ele><time>2026-05-02T14:51:10.993Z</time></trkpt><trkpt lat="43.23189" lon="12.8669017"><ele>625.0</ele><time>2026-05-02T14:51:12.994Z</time></trkpt><trkpt lat="43.2319883" lon="12.8669483"><ele>625.0</ele><time>2026-05-02T14:51:14.995Z</time></trkpt><trkpt lat="43.232075" lon="12.867"><ele>625.0</ele><time>2026-05-02T14:51:16.994Z</time></trkpt><trkpt lat="43.2321867" lon="12.8670533"><ele>625.0</ele><time>2026-05-02T14:51:18.989Z</time></trkpt><trkpt lat="43.2322617" lon="12.8670783"><ele>625.0</ele><time>2026-05-02T14:51:19.992Z</time></trkpt><trkpt lat="43.232345" lon="12.8671133"><ele>625.0</ele><time>2026-05-02T14:51:20.993Z</time></trkpt><trkpt lat="43.232425" lon="12.8671467"><ele>625.0</ele><time>2026-05-02T14:51:21.993Z</time></trkpt><trkpt lat="43.2325017" lon="12.867185"><ele>625.0</ele><time>2026-05-02T14:51:22.993Z</time></trkpt><trkpt lat="43.2325833" lon="12.8672267"><ele>630.3333333333334</ele><time>2026-05-02T14:51:23.994Z</time></trkpt><trkpt lat="43.2326733" lon="12.8672667"><ele>635.6666666666667</ele><time>2026-05-02T14:51:24.994Z</time></trkpt><trkpt lat="43.2327533" lon="12.8673133"><ele>641.0</ele><time>2026-05-02T14:51:25.993Z</time></trkpt><trkpt lat="43.2328117" lon="12.867375"><ele>646.3333333333334</ele><time>2026-05-02T14:51:26.994Z</time></trkpt><trkpt lat="43.2328767" lon="12.8674483"><ele>651.6666666666666</ele><time>2026-05-02T14:51:27.994Z</time></trkpt><trkpt lat="43.232945" lon="12.867515"><ele>657.0</ele><time>2026-05-02T14:51:28.992Z</time></trkpt><trkpt lat="43.2330267" lon="12.8675733"><ele>660.1666666666666</ele><time>2026-05-02T14:51:29.993Z</time></trkpt><trkpt lat="43.2331017" lon="12.8676283"><ele>663.3333333333334</ele><time>2026-05-02T14:51:30.994Z</time></trkpt><trkpt lat="43.2331983" lon="12.8676767"><ele>666.5</ele><time>2026-05-02T14:51:31.992Z</time></trkpt><trkpt lat="43.2332917" lon="12.8677217"><ele>669.6666666666667</ele><time>2026-05-02T14:51:32.995Z</time></trkpt><trkpt lat="43.2333633" lon="12.8677633"><ele>672.8333333333334</ele><time>2026-05-02T14:51:33.993Z</time></trkpt><trkpt lat="43.2334317" lon="12.867805"><ele>676.0</ele><time>2026-05-02T14:51:34.993Z</time></trkpt><trkpt lat="43.2335133" lon="12.8678567"><ele>676.0</ele><time>2026-05-02T14:51:35.993Z</time></trkpt><trkpt lat="43.233575" lon="12.867925"><ele>676.0</ele><time>2026-05-02T14:51:36.994Z</time></trkpt><trkpt lat="43.2336417" lon="12.8679967"><ele>676.0</ele><time>2026-05-02T14:51:37.994Z</time></trkpt><trkpt lat="43.23372" lon="12.8680667"><ele>676.0</ele><time>2026-05-02T14:51:38.994Z</time></trkpt><trkpt lat="43.233805" lon="12.8681367"><ele>676.0</ele><time>2026-05-02T14:51:39.994Z</time></trkpt><trkpt lat="43.2338983" lon="12.8682083"><ele>679.75</ele><time>2026-05-02T14:51:40.993Z</time></trkpt><trkpt lat="43.233995" lon="12.8682833"><ele>683.5</ele><time>2026-05-02T14:51:41.993Z</time></trkpt><trkpt lat="43.234105" lon="12.8683633"><ele>687.25</ele><time>2026-05-02T14:51:42.994Z</time></trkpt><trkpt lat="43.2342183" lon="12.8684433"><ele>691.0</ele><time>2026-05-02T14:51:43.993Z</time></trkpt><trkpt lat="43.2343317" lon="12.8685233"><ele>691.0</ele><time>2026-05-02T14:51:44.995Z</time></trkpt><trkpt lat="43.2344467" lon="12.8686117"><ele>691.0</ele><time>2026-05-02T14:51:45.994Z</time></trkpt><trkpt lat="43.234555" lon="12.8686967"><ele>691.0</ele><time>2026-05-02T14:51:46.993Z</time></trkpt><trkpt lat="43.2346567" lon="12.8687717"><ele>691.0</ele><time>2026-05-02T14:51:47.993Z</time></trkpt><trkpt lat="43.2347683" lon="12.8688317"><ele>700.0</ele><time>2026-05-02T14:51:48.994Z</time></trkpt><trkpt lat="43.2348783" lon="12.8688933"><ele>709.0</ele><time>2026-05-02T14:51:49.993Z</time></trkpt><trkpt lat="43.234995" lon="12.8689633"><ele>718.0</ele><time>2026-05-02T14:51:50.995Z</time></trkpt><trkpt lat="43.23512" lon="12.8690433"><ele>727.0</ele><time>2026-05-02T14:51:51.993Z</time></trkpt><trkpt lat="43.2352367" lon="12.86912"><ele>727.0</ele><time>2026-05-02T14:51:52.994Z</time></trkpt><trkpt lat="43.2353517" lon="12.8691867"><ele>727.0</ele><time>2026-05-02T14:51:53.993Z</time></trkpt><trkpt lat="43.2354683" lon="12.86925"><ele>727.0</ele><time>2026-05-02T14:51:54.993Z</time></trkpt><trkpt lat="43.2355833" lon="12.8693067"><ele>727.0</ele><time>2026-05-02T14:51:55.995Z</time></trkpt><trkpt lat="43.2357017" lon="12.8693583"><ele>732.5</ele><time>2026-05-02T14:51:56.993Z</time></trkpt><trkpt lat="43.2358217" lon="12.8694083"><ele>738.0</ele><time>2026-05-02T14:51:57.993Z</time></trkpt><trkpt lat="43.23595" lon="12.869455"><ele>743.5</ele><time>2026-05-02T14:51:58.992Z</time></trkpt><trkpt lat="43.2360717" lon="12.86952"><ele>749.0</ele><time>2026-05-02T14:51:59.992Z</time></trkpt><trkpt lat="43.2361867" lon="12.8695883"><ele>749.0</ele><time>2026-05-02T14:52:00.993Z</time></trkpt><trkpt lat="43.2362967" lon="12.8696683"><ele>749.0</ele><time>2026-05-02T14:52:01.993Z</time></trkpt><trkpt lat="43.2364083" lon="12.86975"><ele>749.0</ele><time>2026-05-02T14:52:02.993Z</time></trkpt><trkpt lat="43.2365267" lon="12.869815"><ele>749.0</ele><time>2026-05-02T14:52:03.993Z</time></trkpt><trkpt lat="43.2366467" lon="12.8698667"><ele>752.2</ele><time>2026-05-02T14:52:04.992Z</time></trkpt><trkpt lat="43.2367583" lon="12.8699033"><ele>755.4000000000001</ele><time>2026-05-02T14:52:05.992Z</time></trkpt><trkpt lat="43.2368633" lon="12.8699433"><ele>758.6</ele><time>2026-05-02T14:52:06.994Z</time></trkpt><trkpt lat="43.23695" lon="12.8699917"><ele>761.8</ele><time>2026-05-02T14:52:07.993Z</time></trkpt><trkpt lat="43.2370283" lon="12.8700467"><ele>765.0</ele><time>2026-05-02T14:52:08.993Z</time></trkpt><trkpt lat="43.237105" lon="12.8701133"><ele>765.0</ele><time>2026-05-02T14:52:09.993Z</time></trkpt><trkpt lat="43.23718" lon="12.8701867"><ele>765.0</ele><time>2026-05-02T14:52:10.993Z</time></trkpt><trkpt lat="43.2372617" lon="12.8702583"><ele>765.0</ele><time>2026-05-02T14:52:11.993Z</time></trkpt><trkpt lat="43.2373483" lon="12.870325"><ele>765.0</ele><time>2026-05-02T14:52:12.994Z</time></trkpt><trkpt lat="43.2374483" lon="12.8703917"><ele>765.0</ele><time>2026-05-02T14:52:13.993Z</time></trkpt><trkpt lat="43.2375517" lon="12.8704583"><ele>772.5</ele><time>2026-05-02T14:52:14.994Z</time></trkpt><trkpt lat="43.2376567" lon="12.8705267"><ele>780.0</ele><time>2026-05-02T14:52:15.993Z</time></trkpt><trkpt lat="43.23776" lon="12.8706"><ele>787.5</ele><time>2026-05-02T14:52:16.994Z</time></trkpt><trkpt lat="43.2378683" lon="12.870675"><ele>795.0</ele><time>2026-05-02T14:52:17.994Z</time></trkpt><trkpt lat="43.2379817" lon="12.8707533"><ele>795.0</ele><time>2026-05-02T14:52:18.994Z</time></trkpt><trkpt lat="43.2380933" lon="12.870825"><ele>795.0</ele><time>2026-05-02T14:52:19.993Z</time></trkpt><trkpt lat="43.2382" lon="12.8708817"><ele>795.0</ele><time>2026-05-02T14:52:20.994Z</time></trkpt><trkpt lat="43.2383" lon="12.8709233"><ele>795.0</ele><time>2026-05-02T14:52:21.993Z</time></trkpt><trkpt lat="43.238405" lon="12.87094"><ele>795.0</ele><time>2026-05-02T14:52:22.993Z</time></trkpt><trkpt lat="43.2385117" lon="12.8709433"><ele>799.5</ele><time>2026-05-02T14:52:23.993Z</time></trkpt><trkpt lat="43.2386117" lon="12.8709483"><ele>804.0</ele><time>2026-05-02T14:52:24.994Z</time></trkpt><trkpt lat="43.2387217" lon="12.870965"><ele>808.5</ele><time>2026-05-02T14:52:25.994Z</time></trkpt><trkpt lat="43.2388433" lon="12.8709817"><ele>813.0</ele><time>2026-05-02T14:52:26.994Z</time></trkpt><trkpt lat="43.238965" lon="12.8709917"><ele>818.25</ele><time>2026-05-02T14:52:27.993Z</time></trkpt><trkpt lat="43.2390833" lon="12.8709883"><ele>823.5</ele><time>2026-05-02T14:52:28.993Z</time></trkpt><trkpt lat="43.2392067" lon="12.87099"><ele>828.75</ele><time>2026-05-02T14:52:29.993Z</time></trkpt><trkpt lat="43.2393267" lon="12.8709983"><ele>834.0</ele><time>2026-05-02T14:52:30.993Z</time></trkpt><trkpt lat="43.23944" lon="12.8710083"><ele>834.0</ele><time>2026-05-02T14:52:31.993Z</time></trkpt><trkpt lat="43.239545" lon="12.8710167"><ele>834.0</ele><time>2026-05-02T14:52:32.994Z</time></trkpt><trkpt lat="43.2396383" lon="12.8710433"><ele>834.0</ele><time>2026-05-02T14:52:33.993Z</time></trkpt><trkpt lat="43.2397317" lon="12.8710617"><ele>834.0</ele><time>2026-05-02T14:52:34.987Z</time></trkpt><trkpt lat="43.2398217" lon="12.871075"><ele>834.0</ele><time>2026-05-02T14:52:36.003Z</time></trkpt><trkpt lat="43.2399067" lon="12.871085"><ele>835.2</ele><time>2026-05-02T14:52:36.994Z</time></trkpt><trkpt lat="43.24" lon="12.8710983"><ele>836.4000000000001</ele><time>2026-05-02T14:52:37.993Z</time></trkpt><trkpt lat="43.2400933" lon="12.8711183"><ele>837.6</ele><time>2026-05-02T14:52:38.993Z</time></trkpt><trkpt lat="43.2401933" lon="12.87114"><ele>838.8</ele><time>2026-05-02T14:52:39.993Z</time></trkpt><trkpt lat="43.240295" lon="12.871175"><ele>840.0</ele><time>2026-05-02T14:52:40.995Z</time></trkpt><trkpt lat="43.24041" lon="12.8712167"><ele>840.0</ele><time>2026-05-02T14:52:41.995Z</time></trkpt><trkpt lat="43.2405183" lon="12.871265"><ele>840.0</ele><time>2026-05-02T14:52:42.994Z</time></trkpt><trkpt lat="43.2406133" lon="12.87131"><ele>840.0</ele><time>2026-05-02T14:52:43.994Z</time></trkpt><trkpt lat="43.240725" lon="12.8713333"><ele>840.0</ele><time>2026-05-02T14:52:44.997Z</time></trkpt><trkpt lat="43.24083" lon="12.8713483"><ele>840.0</ele><time>2026-05-02T14:52:45.993Z</time></trkpt><trkpt lat="43.2409317" lon="12.87136"><ele>840.2</ele><time>2026-05-02T14:52:46.992Z</time></trkpt><trkpt lat="43.241035" lon="12.8713767"><ele>840.4</ele><time>2026-05-02T14:52:47.993Z</time></trkpt><trkpt lat="43.2411517" lon="12.8713783"><ele>840.5999999999999</ele><time>2026-05-02T14:52:48.993Z</time></trkpt><trkpt lat="43.2412583" lon="12.8713917"><ele>840.8</ele><time>2026-05-02T14:52:49.994Z</time></trkpt><trkpt lat="43.241375" lon="12.8714"><ele>841.0</ele><time>2026-05-02T14:52:50.995Z</time></trkpt><trkpt lat="43.241495" lon="12.8714067"><ele>840.3333333333333</ele><time>2026-05-02T14:52:51.992Z</time></trkpt><trkpt lat="43.24161" lon="12.8714167"><ele>839.6666666666666</ele><time>2026-05-02T14:52:52.993Z</time></trkpt><trkpt lat="43.241705" lon="12.871435"><ele>839.0</ele><time>2026-05-02T14:52:53.993Z</time></trkpt><trkpt lat="43.2417833" lon="12.8714533"><ele>838.3333333333333</ele><time>2026-05-02T14:52:54.995Z</time></trkpt><trkpt lat="43.24185" lon="12.8714583"><ele>837.6666666666666</ele><time>2026-05-02T14:52:55.993Z</time></trkpt><trkpt lat="43.2419233" lon="12.8714617"><ele>837.0</ele><time>2026-05-02T14:52:56.994Z</time></trkpt><trkpt lat="43.2420033" lon="12.8714683"><ele>837.0</ele><time>2026-05-02T14:52:57.993Z</time></trkpt><trkpt lat="43.2421017" lon="12.87147"><ele>837.0</ele><time>2026-05-02T14:52:58.993Z</time></trkpt><trkpt lat="43.242215" lon="12.8714767"><ele>837.0</ele><time>2026-05-02T14:52:59.993Z</time></trkpt><trkpt lat="43.2423417" lon="12.8714833"><ele>837.0</ele><time>2026-05-02T14:53:00.993Z</time></trkpt><trkpt lat="43.2424733" lon="12.8714833"><ele>835.75</ele><time>2026-05-02T14:53:01.994Z</time></trkpt><trkpt lat="43.242605" lon="12.87149"><ele>834.5</ele><time>2026-05-02T14:53:02.994Z</time></trkpt><trkpt lat="43.2427167" lon="12.8715083"><ele>833.25</ele><time>2026-05-02T14:53:03.994Z</time></trkpt><trkpt lat="43.242845" lon="12.87151"><ele>832.0</ele><time>2026-05-02T14:53:04.993Z</time></trkpt><trkpt lat="43.2429583" lon="12.87154"><ele>832.0</ele><time>2026-05-02T14:53:05.994Z</time></trkpt><trkpt lat="43.2430767" lon="12.8715667"><ele>832.0</ele><time>2026-05-02T14:53:06.993Z</time></trkpt><trkpt lat="43.24319" lon="12.8715933"><ele>832.0</ele><time>2026-05-02T14:53:07.994Z</time></trkpt><trkpt lat="43.2432833" lon="12.8716417"><ele>832.0</ele><time>2026-05-02T14:53:08.995Z</time></trkpt><trkpt lat="43.243365" lon="12.8716867"><ele>832.0</ele><time>2026-05-02T14:53:09.992Z</time></trkpt><trkpt lat="43.24344" lon="12.8717283"><ele>827.4000000000001</ele><time>2026-05-02T14:53:10.993Z</time></trkpt><trkpt lat="43.243535" lon="12.8717783"><ele>822.8000000000001</ele><time>2026-05-02T14:53:12.992Z</time></trkpt><trkpt lat="43.24362" lon="12.8718017"><ele>818.2</ele><time>2026-05-02T14:53:14.995Z</time></trkpt><trkpt lat="43.2436867" lon="12.87181"><ele>813.6</ele><time>2026-05-02T14:53:16.993Z</time></trkpt><trkpt lat="43.243775" lon="12.8718067"><ele>809.0</ele><time>2026-05-02T14:53:18.993Z</time></trkpt><trkpt lat="43.2439033" lon="12.8717883"><ele>811.0</ele><time>2026-05-02T14:53:20.993Z</time></trkpt><trkpt lat="43.2440133" lon="12.8717467"><ele>813.0</ele><time>2026-05-02T14:53:21.993Z</time></trkpt><trkpt lat="43.24416" lon="12.8717"><ele>815.0</ele><time>2026-05-02T14:53:22.992Z</time></trkpt><trkpt lat="43.2442917" lon="12.871665"><ele>817.0</ele><time>2026-05-02T14:53:23.996Z</time></trkpt><trkpt lat="43.244435" lon="12.8716467"><ele>817.0</ele><time>2026-05-02T14:53:24.994Z</time></trkpt><trkpt lat="43.2445717" lon="12.871635"><ele>817.0</ele><time>2026-05-02T14:53:25.993Z</time></trkpt><trkpt lat="43.2446967" lon="12.87162"><ele>817.0</ele><time>2026-05-02T14:53:26.995Z</time></trkpt><trkpt lat="43.24481" lon="12.8716167"><ele>817.0</ele><time>2026-05-02T14:53:27.992Z</time></trkpt><trkpt lat="43.2449267" lon="12.8716167"><ele>817.25</ele><time>2026-05-02T14:53:28.992Z</time></trkpt><trkpt lat="43.2450517" lon="12.8716217"><ele>817.5</ele><time>2026-05-02T14:53:29.993Z</time></trkpt><trkpt lat="43.2451717" lon="12.8716367"><ele>817.75</ele><time>2026-05-02T14:53:30.992Z</time></trkpt><trkpt lat="43.2452917" lon="12.87166"><ele>818.0</ele><time>2026-05-02T14:53:31.992Z</time></trkpt><trkpt lat="43.24541" lon="12.8716933"><ele>818.0</ele><time>2026-05-02T14:53:32.993Z</time></trkpt><trkpt lat="43.2455283" lon="12.8717267"><ele>818.0</ele><time>2026-05-02T14:53:33.995Z</time></trkpt><trkpt lat="43.2456433" lon="12.8717583"><ele>818.0</ele><time>2026-05-02T14:53:34.992Z</time></trkpt><trkpt lat="43.2457533" lon="12.87178"><ele>818.0</ele><time>2026-05-02T14:53:35.991Z</time></trkpt><trkpt lat="43.2458683" lon="12.8717917"><ele>815.8</ele><time>2026-05-02T14:53:36.992Z</time></trkpt><trkpt lat="43.2459833" lon="12.8717967"><ele>813.5999999999999</ele><time>2026-05-02T14:53:37.993Z</time></trkpt><trkpt lat="43.2460967" lon="12.8718067"><ele>811.4000000000001</ele><time>2026-05-02T14:53:38.994Z</time></trkpt><trkpt lat="43.2462067" lon="12.87182"><ele>809.2</ele><time>2026-05-02T14:53:39.992Z</time></trkpt><trkpt lat="43.24631" lon="12.8718333"><ele>807.0</ele><time>2026-05-02T14:53:40.994Z</time></trkpt><trkpt lat="43.2464083" lon="12.8718383"><ele>808.0</ele><time>2026-05-02T14:53:41.995Z</time></trkpt><trkpt lat="43.246515" lon="12.8718317"><ele>809.0</ele><time>2026-05-02T14:53:42.993Z</time></trkpt><trkpt lat="43.2466317" lon="12.87181"><ele>810.0</ele><time>2026-05-02T14:53:43.994Z</time></trkpt><trkpt lat="43.246745" lon="12.8717817"><ele>811.0</ele><time>2026-05-02T14:53:44.993Z</time></trkpt><trkpt lat="43.2468583" lon="12.87174"><ele>817.0</ele><time>2026-05-02T14:53:45.993Z</time></trkpt><trkpt lat="43.2469683" lon="12.8716917"><ele>823.0</ele><time>2026-05-02T14:53:46.989Z</time></trkpt><trkpt lat="43.2470817" lon="12.87164"><ele>829.0</ele><time>2026-05-02T14:53:47.994Z</time></trkpt><trkpt lat="43.2471917" lon="12.87159"><ele>835.0</ele><time>2026-05-02T14:53:48.996Z</time></trkpt><trkpt lat="43.2473017" lon="12.8715483"><ele>835.0</ele><time>2026-05-02T14:53:49.995Z</time></trkpt><trkpt lat="43.2474183" lon="12.8715"><ele>835.0</ele><time>2026-05-02T14:53:50.994Z</time></trkpt><trkpt lat="43.2475333" lon="12.87145"><ele>835.0</ele><time>2026-05-02T14:53:51.995Z</time></trkpt><trkpt lat="43.247645" lon="12.8713983"><ele>835.0</ele><time>2026-05-02T14:53:52.993Z</time></trkpt><trkpt lat="43.2477567" lon="12.8713383"><ele>835.0</ele><time>2026-05-02T14:53:53.994Z</time></trkpt><trkpt lat="43.2478667" lon="12.87127"><ele>835.0</ele><time>2026-05-02T14:53:54.996Z</time></trkpt><trkpt lat="43.2479733" lon="12.871185"><ele>835.0</ele><time>2026-05-02T14:53:55.994Z</time></trkpt><trkpt lat="43.248075" lon="12.8710867"><ele>835.0</ele><time>2026-05-02T14:53:56.995Z</time></trkpt><trkpt lat="43.2481733" lon="12.8709733"><ele>837.0</ele><time>2026-05-02T14:53:57.993Z</time></trkpt><trkpt lat="43.2482667" lon="12.870845"><ele>839.0</ele><time>2026-05-02T14:53:58.993Z</time></trkpt><trkpt lat="43.248345" lon="12.8707017"><ele>841.0</ele><time>2026-05-02T14:53:59.995Z</time></trkpt><trkpt lat="43.2484083" lon="12.870535"><ele>843.0</ele><time>2026-05-02T14:54:00.994Z</time></trkpt><trkpt lat="43.24846" lon="12.870355"><ele>843.0</ele><time>2026-05-02T14:54:01.994Z</time></trkpt><trkpt lat="43.2485033" lon="12.870165"><ele>843.0</ele><time>2026-05-02T14:54:02.995Z</time></trkpt><trkpt lat="43.2485417" lon="12.86997"><ele>843.0</ele><time>2026-05-02T14:54:03.994Z</time></trkpt><trkpt lat="43.2485817" lon="12.869775"><ele>843.0</ele><time>2026-05-02T14:54:04.993Z</time></trkpt><trkpt lat="43.24863" lon="12.869585"><ele>846.0</ele><time>2026-05-02T14:54:05.994Z</time></trkpt><trkpt lat="43.248685" lon="12.8693967"><ele>849.0</ele><time>2026-05-02T14:54:06.993Z</time></trkpt><trkpt lat="43.2487467" lon="12.86921"><ele>852.0</ele><time>2026-05-02T14:54:07.993Z</time></trkpt><trkpt lat="43.2488117" lon="12.8690167"><ele>852.3333333333333</ele><time>2026-05-02T14:54:08.995Z</time></trkpt><trkpt lat="43.2488767" lon="12.8688183"><ele>852.6666666666666</ele><time>2026-05-02T14:54:09.994Z</time></trkpt><trkpt lat="43.2489467" lon="12.8686167"><ele>853.0</ele><time>2026-05-02T14:54:10.994Z</time></trkpt><trkpt lat="43.2490167" lon="12.86842"><ele>860.0</ele><time>2026-05-02T14:54:11.993Z</time></trkpt><trkpt lat="43.2490867" lon="12.868225"><ele>867.0</ele><time>2026-05-02T14:54:12.993Z</time></trkpt><trkpt lat="43.2491567" lon="12.8680333"><ele>874.0</ele><time>2026-05-02T14:54:13.993Z</time></trkpt><trkpt lat="43.2492267" lon="12.8678483"><ele>874.0</ele><time>2026-05-02T14:54:14.993Z</time></trkpt><trkpt lat="43.2493" lon="12.86766"><ele>874.0</ele><time>2026-05-02T14:54:15.993Z</time></trkpt><trkpt lat="43.2493783" lon="12.86747"><ele>874.0</ele><time>2026-05-02T14:54:16.993Z</time></trkpt><trkpt lat="43.2494717" lon="12.8672833"><ele>872.6666666666666</ele><time>2026-05-02T14:54:17.994Z</time></trkpt><trkpt lat="43.24958" lon="12.867085"><ele>871.3333333333333</ele><time>2026-05-02T14:54:18.995Z</time></trkpt><trkpt lat="43.2496883" lon="12.86689"><ele>870.0</ele><time>2026-05-02T14:54:19.995Z</time></trkpt><trkpt lat="43.2497967" lon="12.8667"><ele>874.0</ele><time>2026-05-02T14:54:20.995Z</time></trkpt><trkpt lat="43.249915" lon="12.8665167"><ele>878.0</ele><time>2026-05-02T14:54:21.995Z</time></trkpt><trkpt lat="43.2500367" lon="12.86634"><ele>882.0</ele><time>2026-05-02T14:54:22.994Z</time></trkpt><trkpt lat="43.2501667" lon="12.8661633"><ele>882.0</ele><time>2026-05-02T14:54:23.995Z</time></trkpt><trkpt lat="43.2502983" lon="12.8659933"><ele>882.0</ele><time>2026-05-02T14:54:24.994Z</time></trkpt><trkpt lat="43.2504283" lon="12.86583"><ele>882.0</ele><time>2026-05-02T14:54:25.994Z</time></trkpt><trkpt lat="43.2505567" lon="12.865675"><ele>886.3333333333333</ele><time>2026-05-02T14:54:26.994Z</time></trkpt><trkpt lat="43.2506833" lon="12.8655267"><ele>890.6666666666666</ele><time>2026-05-02T14:54:27.994Z</time></trkpt><trkpt lat="43.2508033" lon="12.8653817"><ele>895.0</ele><time>2026-05-02T14:54:28.994Z</time></trkpt><trkpt lat="43.2509283" lon="12.8652467"><ele>889.6666666666666</ele><time>2026-05-02T14:54:29.993Z</time></trkpt><trkpt lat="43.2510617" lon="12.86511"><ele>884.3333333333333</ele><time>2026-05-02T14:54:30.995Z</time></trkpt><trkpt lat="43.251205" lon="12.8649767"><ele>879.0</ele><time>2026-05-02T14:54:31.993Z</time></trkpt><trkpt lat="43.2513517" lon="12.8648517"><ele>885.6666666666667</ele><time>2026-05-02T14:54:32.995Z</time></trkpt><trkpt lat="43.251495" lon="12.8647317"><ele>892.3333333333334</ele><time>2026-05-02T14:54:33.994Z</time></trkpt><trkpt lat="43.2516283" lon="12.8646233"><ele>899.0</ele><time>2026-05-02T14:54:34.993Z</time></trkpt><trkpt lat="43.2517733" lon="12.8645233"><ele>899.0</ele><time>2026-05-02T14:54:35.995Z</time></trkpt><trkpt lat="43.251925" lon="12.8644333"><ele>899.0</ele><time>2026-05-02T14:54:36.994Z</time></trkpt><trkpt lat="43.2520767" lon="12.86435"><ele>899.0</ele><time>2026-05-02T14:54:37.993Z</time></trkpt><trkpt lat="43.2522267" lon="12.8642783"><ele>897.0</ele><time>2026-05-02T14:54:38.992Z</time></trkpt><trkpt lat="43.25237" lon="12.86421"><ele>895.0</ele><time>2026-05-02T14:54:39.994Z</time></trkpt><trkpt lat="43.2525167" lon="12.8641467"><ele>893.0</ele><time>2026-05-02T14:54:40.994Z</time></trkpt><trkpt lat="43.2526683" lon="12.8640933"><ele>893.0</ele><time>2026-05-02T14:54:41.994Z</time></trkpt><trkpt lat="43.252815" lon="12.8640333"><ele>893.0</ele><time>2026-05-02T14:54:42.994Z</time></trkpt><trkpt lat="43.2529583" lon="12.8639767"><ele>893.0</ele><time>2026-05-02T14:54:43.997Z</time></trkpt><trkpt lat="43.2531033" lon="12.8639183"><ele>896.25</ele><time>2026-05-02T14:54:44.995Z</time></trkpt><trkpt lat="43.25325" lon="12.863875"><ele>899.5</ele><time>2026-05-02T14:54:45.994Z</time></trkpt><trkpt lat="43.2533933" lon="12.8638283"><ele>902.75</ele><time>2026-05-02T14:54:46.994Z</time></trkpt><trkpt lat="43.2535417" lon="12.8637917"><ele>906.0</ele><time>2026-05-02T14:54:47.995Z</time></trkpt><trkpt lat="43.25369" lon="12.8637783"><ele>906.0</ele><time>2026-05-02T14:54:49Z</time></trkpt><trkpt lat="43.2538317" lon="12.863755"><ele>906.0</ele><time>2026-05-02T14:54:49.996Z</time></trkpt><trkpt lat="43.2539733" lon="12.8637283"><ele>906.0</ele><time>2026-05-02T14:54:50.995Z</time></trkpt><trkpt lat="43.2541183" lon="12.8637183"><ele>906.0</ele><time>2026-05-02T14:54:51.994Z</time></trkpt><trkpt lat="43.254265" lon="12.8637133"><ele>909.3333333333333</ele><time>2026-05-02T14:54:52.994Z</time></trkpt><trkpt lat="43.2544283" lon="12.8637217"><ele>912.6666666666666</ele><time>2026-05-02T14:54:53.995Z</time></trkpt><trkpt lat="43.2545917" lon="12.8637367"><ele>916.0</ele><time>2026-05-02T14:54:54.995Z</time></trkpt><trkpt lat="43.2547633" lon="12.8637633"><ele>916.0</ele><time>2026-05-02T14:54:55.995Z</time></trkpt><trkpt lat="43.25493" lon="12.8637833"><ele>916.0</ele><time>2026-05-02T14:54:56.995Z</time></trkpt><trkpt lat="43.25509" lon="12.863815"><ele>916.0</ele><time>2026-05-02T14:54:57.995Z</time></trkpt><trkpt lat="43.2552433" lon="12.8638467"><ele>916.0</ele><time>2026-05-02T14:54:58.993Z</time></trkpt><trkpt lat="43.2553883" lon="12.8638667"><ele>916.0</ele><time>2026-05-02T14:54:59.994Z</time></trkpt><trkpt lat="43.2555167" lon="12.8638933"><ele>916.0</ele><time>2026-05-02T14:55:00.993Z</time></trkpt><trkpt lat="43.2556533" lon="12.8639183"><ele>916.0</ele><time>2026-05-02T14:55:01.993Z</time></trkpt><trkpt lat="43.255785" lon="12.8639417"><ele>915.75</ele><time>2026-05-02T14:55:02.995Z</time></trkpt><trkpt lat="43.255885" lon="12.8639483"><ele>915.5</ele><time>2026-05-02T14:55:03.994Z</time></trkpt><trkpt lat="43.2560167" lon="12.863975"><ele>915.25</ele><time>2026-05-02T14:55:04.994Z</time></trkpt><trkpt lat="43.25614" lon="12.8639983"><ele>915.0</ele><time>2026-05-02T14:55:05.995Z</time></trkpt><trkpt lat="43.2562583" lon="12.8640117"><ele>915.0</ele><time>2026-05-02T14:55:06.995Z</time></trkpt><trkpt lat="43.2563683" lon="12.8640383"><ele>915.0</ele><time>2026-05-02T14:55:07.994Z</time></trkpt><trkpt lat="43.2564833" lon="12.8640683"><ele>915.0</ele><time>2026-05-02T14:55:08.995Z</time></trkpt><trkpt lat="43.25661" lon="12.8641133"><ele>915.0</ele><time>2026-05-02T14:55:09.993Z</time></trkpt><trkpt lat="43.25673" lon="12.8641433"><ele>914.2</ele><time>2026-05-02T14:55:10.994Z</time></trkpt><trkpt lat="43.2568567" lon="12.8641533"><ele>913.4</ele><time>2026-05-02T14:55:11.995Z</time></trkpt><trkpt lat="43.25696" lon="12.86414"><ele>912.5999999999999</ele><time>2026-05-02T14:55:12.995Z</time></trkpt><trkpt lat="43.2570517" lon="12.8641433"><ele>911.8</ele><time>2026-05-02T14:55:13.994Z</time></trkpt><trkpt lat="43.2571383" lon="12.86416"><ele>911.0</ele><time>2026-05-02T14:55:14.996Z</time></trkpt><trkpt lat="43.2572367" lon="12.864195"><ele>910.0000000000001</ele><time>2026-05-02T14:55:15.994Z</time></trkpt><trkpt lat="43.2573333" lon="12.8642317"><ele>909.0</ele><time>2026-05-02T14:55:16.992Z</time></trkpt><trkpt lat="43.257425" lon="12.8642567"><ele>908.0</ele><time>2026-05-02T14:55:17.994Z</time></trkpt><trkpt lat="43.2575083" lon="12.8642883"><ele>907.0</ele><time>2026-05-02T14:55:18.995Z</time></trkpt><trkpt lat="43.2575833" lon="12.8643283"><ele>906.0000000000001</ele><time>2026-05-02T14:55:19.994Z</time></trkpt><trkpt lat="43.25765" lon="12.8643683"><ele>905.0</ele><time>2026-05-02T14:55:20.995Z</time></trkpt><trkpt lat="43.2577267" lon="12.8644283"><ele>909.8</ele><time>2026-05-02T14:55:21.993Z</time></trkpt><trkpt lat="43.257795" lon="12.8644717"><ele>914.6</ele><time>2026-05-02T14:55:22.993Z</time></trkpt><trkpt lat="43.2578883" lon="12.8645283"><ele>919.4000000000001</ele><time>2026-05-02T14:55:23.995Z</time></trkpt><trkpt lat="43.2579867" lon="12.8645633"><ele>924.2</ele><time>2026-05-02T14:55:24.995Z</time></trkpt><trkpt lat="43.2581033" lon="12.8645917"><ele>929.0</ele><time>2026-05-02T14:55:25.994Z</time></trkpt><trkpt lat="43.258215" lon="12.864615"><ele>929.0</ele><time>2026-05-02T14:55:26.995Z</time></trkpt><trkpt lat="43.2583233" lon="12.86464"><ele>929.0000000000001</ele><time>2026-05-02T14:55:27.995Z</time></trkpt><trkpt lat="43.2584267" lon="12.864655"><ele>929.0000000000001</ele><time>2026-05-02T14:55:28.993Z</time></trkpt><trkpt lat="43.2585233" lon="12.864665"><ele>929.0</ele><time>2026-05-02T14:55:29.994Z</time></trkpt><trkpt lat="43.2586183" lon="12.8646933"><ele>929.0</ele><time>2026-05-02T14:55:30.995Z</time></trkpt><trkpt lat="43.2587183" lon="12.8647117"><ele>929.0</ele><time>2026-05-02T14:55:31.994Z</time></trkpt><trkpt lat="43.2588333" lon="12.8647383"><ele>929.0</ele><time>2026-05-02T14:55:32.994Z</time></trkpt><trkpt lat="43.25898" lon="12.8647917"><ele>929.0</ele><time>2026-05-02T14:55:33.994Z</time></trkpt><trkpt lat="43.25918" lon="12.8648733"><ele>927.5</ele><time>2026-05-02T14:55:34.993Z</time></trkpt><trkpt lat="43.2593167" lon="12.86491"><ele>926.0</ele><time>2026-05-02T14:55:35.994Z</time></trkpt><trkpt lat="43.259445" lon="12.8649483"><ele>924.5</ele><time>2026-05-02T14:55:36.996Z</time></trkpt><trkpt lat="43.25956" lon="12.86498"><ele>923.0</ele><time>2026-05-02T14:55:37.993Z</time></trkpt><trkpt lat="43.2596717" lon="12.8650167"><ele>921.0</ele><time>2026-05-02T14:55:38.995Z</time></trkpt><trkpt lat="43.25979" lon="12.8650533"><ele>919.0</ele><time>2026-05-02T14:55:39.994Z</time></trkpt><trkpt lat="43.2599217" lon="12.8650917"><ele>917.0</ele><time>2026-05-02T14:55:40.993Z</time></trkpt><trkpt lat="43.2600583" lon="12.86512"><ele>915.0</ele><time>2026-05-02T14:55:41.994Z</time></trkpt><trkpt lat="43.2601933" lon="12.8651483"><ele>919.6</ele><time>2026-05-02T14:55:42.993Z</time></trkpt><trkpt lat="43.2603167" lon="12.8651667"><ele>924.2</ele><time>2026-05-02T14:55:43.993Z</time></trkpt><trkpt lat="43.2604267" lon="12.86518"><ele>928.8</ele><time>2026-05-02T14:55:44.995Z</time></trkpt><trkpt lat="43.2605283" lon="12.8652033"><ele>933.4</ele><time>2026-05-02T14:55:45.994Z</time></trkpt><trkpt lat="43.26063" lon="12.8652533"><ele>938.0</ele><time>2026-05-02T14:55:46.992Z</time></trkpt><trkpt lat="43.2607333" lon="12.8653117"><ele>938.0</ele><time>2026-05-02T14:55:47.994Z</time></trkpt><trkpt lat="43.260855" lon="12.8653917"><ele>938.0</ele><time>2026-05-02T14:55:48.994Z</time></trkpt><trkpt lat="43.26096" lon="12.8654733"><ele>938.0</ele><time>2026-05-02T14:55:49.994Z</time></trkpt><trkpt lat="43.2610533" lon="12.865555"><ele>938.0</ele><time>2026-05-02T14:55:50.994Z</time></trkpt><trkpt lat="43.261135" lon="12.8656317"><ele>938.0000000000001</ele><time>2026-05-02T14:55:51.993Z</time></trkpt><trkpt lat="43.261205" lon="12.86569"><ele>938.0</ele><time>2026-05-02T14:55:52.994Z</time></trkpt><trkpt lat="43.26127" lon="12.8657617"><ele>938.0</ele><time>2026-05-02T14:55:53.994Z</time></trkpt><trkpt lat="43.2613483" lon="12.8658383"><ele>938.0</ele><time>2026-05-02T14:55:54.994Z</time></trkpt><trkpt lat="43.2614217" lon="12.8659067"><ele>938.0000000000001</ele><time>2026-05-02T14:55:55.993Z</time></trkpt><trkpt lat="43.2614883" lon="12.865965"><ele>938.0</ele><time>2026-05-02T14:55:56.995Z</time></trkpt><trkpt lat="43.2615467" lon="12.86602"><ele>938.4</ele><time>2026-05-02T14:55:57.994Z</time></trkpt><trkpt lat="43.26161" lon="12.8661"><ele>938.8</ele><time>2026-05-02T14:55:59.994Z</time></trkpt><trkpt lat="43.261675" lon="12.86618"><ele>939.2</ele><time>2026-05-02T14:56:01.994Z</time></trkpt><trkpt lat="43.2617333" lon="12.8663017"><ele>939.6</ele><time>2026-05-02T14:56:03.994Z</time></trkpt><trkpt lat="43.2617983" lon="12.8664283"><ele>940.0</ele><time>2026-05-02T14:56:05.993Z</time></trkpt><trkpt lat="43.2618717" lon="12.8665167"><ele>940.0</ele><time>2026-05-02T14:56:07.993Z</time></trkpt><trkpt lat="43.2619783" lon="12.86652"><ele>940.0</ele><time>2026-05-02T14:56:32.994Z</time></trkpt><trkpt lat="43.2619417" lon="12.8664383"><ele>940.0</ele><time>2026-05-02T14:56:33.993Z</time></trkpt><trkpt lat="43.26189" lon="12.866345"><ele>940.0</ele><time>2026-05-02T14:56:34.992Z</time></trkpt><trkpt lat="43.2618283" lon="12.8662333"><ele>940.0</ele><time>2026-05-02T14:56:35.992Z</time></trkpt><trkpt lat="43.2617633" lon="12.86612"><ele>939.9999999999999</ele><time>2026-05-02T14:56:36.994Z</time></trkpt><trkpt lat="43.2617033" lon="12.8660183"><ele>940.0</ele><time>2026-05-02T14:56:37.995Z</time></trkpt><trkpt lat="43.2616533" lon="12.86594"><ele>940.0</ele><time>2026-05-02T14:56:38.994Z</time></trkpt><trkpt lat="43.2615783" lon="12.8658233"><ele>940.0</ele><time>2026-05-02T14:56:40.994Z</time></trkpt><trkpt lat="43.2615167" lon="12.86574"><ele>939.9999999999999</ele><time>2026-05-02T14:56:42.993Z</time></trkpt><trkpt lat="43.2614717" lon="12.8656767"><ele>940.0</ele><time>2026-05-02T14:56:45.993Z</time></trkpt><trkpt lat="43.261515" lon="12.8658133"><ele>939.9999999999999</ele><time>2026-05-02T14:56:53.989Z</time></trkpt><trkpt lat="43.26156" lon="12.8658933"><ele>940.0</ele><time>2026-05-02T14:56:54.996Z</time></trkpt><trkpt lat="43.261615" lon="12.8659833"><ele>940.0</ele><time>2026-05-02T14:56:55.995Z</time></trkpt><trkpt lat="43.2616667" lon="12.8660767"><ele>940.0</ele><time>2026-05-02T14:56:56.996Z</time></trkpt><trkpt lat="43.2617033" lon="12.8661633"><ele>939.9999999999999</ele><time>2026-05-02T14:56:57.999Z</time></trkpt><trkpt lat="43.26174" lon="12.8662367"><ele>940.0</ele><time>2026-05-02T14:56:58.993Z</time></trkpt><trkpt lat="43.2617883" lon="12.86635"><ele>939.9999999999999</ele><time>2026-05-02T14:57:00.994Z</time></trkpt><trkpt lat="43.2618333" lon="12.8664433"><ele>940.0</ele><time>2026-05-02T14:57:03.994Z</time></trkpt><trkpt lat="43.2619017" lon="12.8665617"><ele>940.0</ele><time>2026-05-02T14:57:12.995Z</time></trkpt><trkpt lat="43.26198" lon="12.8666"><ele>940.0</ele><time>2026-05-02T14:57:15.994Z</time></trkpt><trkpt lat="43.262045" lon="12.8666217"><ele>939.9999999999999</ele><time>2026-05-02T14:57:18.994Z</time></trkpt><trkpt lat="43.26211" lon="12.8666467"><ele>940.0</ele><time>2026-05-02T14:57:21.994Z</time></trkpt><trkpt lat="43.2622067" lon="12.866685"><ele>935.1666666666666</ele><time>2026-05-02T14:57:24.993Z</time></trkpt><trkpt lat="43.26229" lon="12.8666867"><ele>930.3333333333333</ele><time>2026-05-02T14:57:26.994Z</time></trkpt><trkpt lat="43.2623533" lon="12.8666883"><ele>925.5</ele><time>2026-05-02T14:57:28.994Z</time></trkpt><trkpt lat="43.2624417" lon="12.8667067"><ele>920.6666666666667</ele><time>2026-05-02T14:57:31.995Z</time></trkpt><trkpt lat="43.26251" lon="12.8667317"><ele>915.8333333333334</ele><time>2026-05-02T14:57:34.993Z</time></trkpt><trkpt lat="43.2625833" lon="12.8667017"><ele>911.0</ele><time>2026-05-02T14:57:36.993Z</time></trkpt><trkpt lat="43.2626417" lon="12.8666267"><ele>911.0000000000001</ele><time>2026-05-02T14:57:38.993Z</time></trkpt><trkpt lat="43.262645" lon="12.8665367"><ele>911.0</ele><time>2026-05-02T14:57:40.994Z</time></trkpt><trkpt lat="43.26261" lon="12.8664467"><ele>911.0</ele><time>2026-05-02T14:57:42.993Z</time></trkpt><trkpt lat="43.2625417" lon="12.8663117"><ele>911.0</ele><time>2026-05-02T14:57:44.995Z</time></trkpt><trkpt lat="43.2624933" lon="12.8662033"><ele>911.0000000000001</ele><time>2026-05-02T14:57:46.993Z</time></trkpt><trkpt lat="43.2625583" lon="12.8661417"><ele>911.0</ele><time>2026-05-02T14:57:50.994Z</time></trkpt><trkpt lat="43.2627167" lon="12.86611"><ele>911.0000000000001</ele><time>2026-05-02T14:58:04.993Z</time></trkpt><trkpt lat="43.2627883" lon="12.86609"><ele>911.0</ele><time>2026-05-02T14:58:06.993Z</time></trkpt><trkpt lat="43.2628817" lon="12.8660667"><ele>911.0</ele><time>2026-05-02T14:58:08.994Z</time></trkpt><trkpt lat="43.26296" lon="12.8660567"><ele>911.0</ele><time>2026-05-02T14:58:09.993Z</time></trkpt><trkpt lat="43.26303" lon="12.8660533"><ele>911.0000000000001</ele><time>2026-05-02T14:58:10.993Z</time></trkpt><trkpt lat="43.26314" lon="12.8660267"><ele>911.0</ele><time>2026-05-02T14:58:12.994Z</time></trkpt><trkpt lat="43.2632117" lon="12.8660133"><ele>907.4</ele><time>2026-05-02T14:58:13.994Z</time></trkpt><trkpt lat="43.2633217" lon="12.8659933"><ele>903.8</ele><time>2026-05-02T14:58:15.993Z</time></trkpt><trkpt lat="43.2634267" lon="12.8659717"><ele>900.1999999999999</ele><time>2026-05-02T14:58:17.994Z</time></trkpt><trkpt lat="43.26352" lon="12.8659433"><ele>896.5999999999999</ele><time>2026-05-02T14:58:19.994Z</time></trkpt><trkpt lat="43.2636017" lon="12.8658833"><ele>893.0</ele><time>2026-05-02T14:58:21.994Z</time></trkpt><trkpt lat="43.2636783" lon="12.8657867"><ele>889.2857142857143</ele><time>2026-05-02T14:58:23.995Z</time></trkpt><trkpt lat="43.26372" lon="12.8657167"><ele>885.5714285714287</ele><time>2026-05-02T14:58:25.993Z</time></trkpt><trkpt lat="43.263775" lon="12.8656667"><ele>881.8571428571429</ele><time>2026-05-02T14:58:27.994Z</time></trkpt><trkpt lat="43.263835" lon="12.865615"><ele>878.1428571428571</ele><time>2026-05-02T14:58:47.995Z</time></trkpt><trkpt lat="43.2639267" lon="12.8655883"><ele>874.4285714285714</ele><time>2026-05-02T14:58:58.993Z</time></trkpt><trkpt lat="43.26399" lon="12.86555"><ele>870.7142857142857</ele><time>2026-05-02T14:59:02.994Z</time></trkpt><trkpt lat="43.264045" lon="12.8654983"><ele>867.0</ele><time>2026-05-02T14:59:06.993Z</time></trkpt><trkpt lat="43.264115" lon="12.865415"><ele>864.3333333333334</ele><time>2026-05-02T14:59:21.994Z</time></trkpt><trkpt lat="43.2641833" lon="12.8653867"><ele>861.6666666666667</ele><time>2026-05-02T14:59:27.994Z</time></trkpt><trkpt lat="43.2642633" lon="12.865385"><ele>859.0</ele><time>2026-05-02T14:59:31.992Z</time></trkpt><trkpt lat="43.2643283" lon="12.8653967"><ele>856.3333333333334</ele><time>2026-05-02T14:59:33.993Z</time></trkpt><trkpt lat="43.2643917" lon="12.8654"><ele>853.6666666666667</ele><time>2026-05-02T14:59:35.993Z</time></trkpt><trkpt lat="43.2644667" lon="12.865405"><ele>851.0</ele><time>2026-05-02T14:59:38.993Z</time></trkpt><trkpt lat="43.2646033" lon="12.86531"><ele>851.0000000000001</ele><time>2026-05-02T14:59:55.993Z</time></trkpt><trkpt lat="43.2646533" lon="12.86522"><ele>851.0</ele><time>2026-05-02T14:59:57.993Z</time></trkpt><trkpt lat="43.2646817" lon="12.8651267"><ele>851.0</ele><time>2026-05-02T14:59:59.995Z</time></trkpt><trkpt lat="43.2646933" lon="12.86504"><ele>851.0</ele><time>2026-05-02T15:00:01.991Z</time></trkpt><trkpt lat="43.2646917" lon="12.8649383"><ele>851.0000000000001</ele><time>2026-05-02T15:00:04.992Z</time></trkpt><trkpt lat="43.2646467" lon="12.86484"><ele>851.0</ele><time>2026-05-02T15:00:08.995Z</time></trkpt><trkpt lat="43.2645917" lon="12.86476"><ele>846.0000000000001</ele><time>2026-05-02T15:00:12.993Z</time></trkpt><trkpt lat="43.26456" lon="12.864685"><ele>841.0</ele><time>2026-05-02T15:00:15.994Z</time></trkpt><trkpt lat="43.2645" lon="12.86463"><ele>836.0</ele><time>2026-05-02T15:00:18.994Z</time></trkpt><trkpt lat="43.2644583" lon="12.8645417"><ele>831.0</ele><time>2026-05-02T15:00:21.995Z</time></trkpt><trkpt lat="43.2644483" lon="12.8644417"><ele>826.0000000000001</ele><time>2026-05-02T15:00:23.995Z</time></trkpt><trkpt lat="43.264435" lon="12.8643383"><ele>821.0</ele><time>2026-05-02T15:00:25.993Z</time></trkpt><trkpt lat="43.2643583" lon="12.8642417"><ele>815.8333333333334</ele><time>2026-05-02T15:00:28.993Z</time></trkpt><trkpt lat="43.2643" lon="12.86416"><ele>810.6666666666667</ele><time>2026-05-02T15:00:30.994Z</time></trkpt><trkpt lat="43.2642533" lon="12.8640867"><ele>805.5</ele><time>2026-05-02T15:00:32.995Z</time></trkpt><trkpt lat="43.2641933" lon="12.8640033"><ele>800.3333333333333</ele><time>2026-05-02T15:00:34.992Z</time></trkpt><trkpt lat="43.2641467" lon="12.863915"><ele>795.1666666666666</ele><time>2026-05-02T15:00:36.994Z</time></trkpt><trkpt lat="43.2641" lon="12.8638367"><ele>790.0</ele><time>2026-05-02T15:00:38.993Z</time></trkpt><trkpt lat="43.2640533" lon="12.86373"><ele>789.9999999999999</ele><time>2026-05-02T15:00:40.993Z</time></trkpt><trkpt lat="43.264" lon="12.8636267"><ele>790.0</ele><time>2026-05-02T15:00:42.993Z</time></trkpt><trkpt lat="43.2639667" lon="12.8635367"><ele>790.0</ele><time>2026-05-02T15:00:44.993Z</time></trkpt><trkpt lat="43.2639717" lon="12.86345"><ele>790.0</ele><time>2026-05-02T15:00:48.995Z</time></trkpt><trkpt lat="43.26401" lon="12.8633633"><ele>789.9999999999999</ele><time>2026-05-02T15:00:53.989Z</time></trkpt><trkpt lat="43.2640933" lon="12.8633217"><ele>790.0</ele><time>2026-05-02T15:00:57.992Z</time></trkpt><trkpt lat="43.26417" lon="12.863315"><ele>784.0</ele><time>2026-05-02T15:00:59.993Z</time></trkpt><trkpt lat="43.26425" lon="12.8633167"><ele>778.0</ele><time>2026-05-02T15:01:01.993Z</time></trkpt><trkpt lat="43.264335" lon="12.8633067"><ele>772.0</ele><time>2026-05-02T15:01:03.993Z</time></trkpt><trkpt lat="43.2644367" lon="12.863275"><ele>766.0</ele><time>2026-05-02T15:01:05.994Z</time></trkpt><trkpt lat="43.2645317" lon="12.8632183"><ele>760.0</ele><time>2026-05-02T15:01:07.988Z</time></trkpt><trkpt lat="43.2646283" lon="12.8631383"><ele>760.0</ele><time>2026-05-02T15:01:09.993Z</time></trkpt><trkpt lat="43.264745" lon="12.8630883"><ele>760.0</ele><time>2026-05-02T15:01:11.992Z</time></trkpt><trkpt lat="43.26481" lon="12.8630683"><ele>760.0</ele><time>2026-05-02T15:01:12.993Z</time></trkpt><trkpt lat="43.2649" lon="12.8630167"><ele>760.0</ele><time>2026-05-02T15:01:14.99Z</time></trkpt><trkpt lat="43.2649317" lon="12.8629183"><ele>760.0</ele><time>2026-05-02T15:01:16.99Z</time></trkpt><trkpt lat="43.264875" lon="12.8628333"><ele>760.0</ele><time>2026-05-02T15:01:18.993Z</time></trkpt><trkpt lat="43.264815" lon="12.8627933"><ele>760.0</ele><time>2026-05-02T15:01:19.993Z</time></trkpt><trkpt lat="43.26476" lon="12.862735"><ele>760.0</ele><time>2026-05-02T15:01:20.994Z</time></trkpt><trkpt lat="43.26471" lon="12.8626233"><ele>760.0</ele><time>2026-05-02T15:01:22.995Z</time></trkpt><trkpt lat="43.264755" lon="12.8625617"><ele>760.0</ele><time>2026-05-02T15:01:24.992Z</time></trkpt><trkpt lat="43.2648633" lon="12.8625233"><ele>760.0</ele><time>2026-05-02T15:01:26.994Z</time></trkpt><trkpt lat="43.2649617" lon="12.8624933"><ele>760.0</ele><time>2026-05-02T15:01:28.992Z</time></trkpt><trkpt lat="43.2650733" lon="12.8624567"><ele>752.8333333333334</ele><time>2026-05-02T15:01:30.994Z</time></trkpt><trkpt lat="43.26515" lon="12.86242"><ele>745.6666666666667</ele><time>2026-05-02T15:01:31.992Z</time></trkpt><trkpt lat="43.2652467" lon="12.8623817"><ele>738.5</ele><time>2026-05-02T15:01:32.994Z</time></trkpt><trkpt lat="43.2653317" lon="12.8623333"><ele>731.3333333333334</ele><time>2026-05-02T15:01:33.993Z</time></trkpt><trkpt lat="43.26541" lon="12.8622833"><ele>724.1666666666666</ele><time>2026-05-02T15:01:34.993Z</time></trkpt><trkpt lat="43.265475" lon="12.8622283"><ele>717.0</ele><time>2026-05-02T15:01:35.993Z</time></trkpt><trkpt lat="43.265545" lon="12.8621733"><ele>715.5</ele><time>2026-05-02T15:01:36.994Z</time></trkpt><trkpt lat="43.2656233" lon="12.8621267"><ele>714.0</ele><time>2026-05-02T15:01:37.993Z</time></trkpt><trkpt lat="43.2657067" lon="12.8620817"><ele>712.5</ele><time>2026-05-02T15:01:38.994Z</time></trkpt><trkpt lat="43.26579" lon="12.8620417"><ele>711.0</ele><time>2026-05-02T15:01:39.993Z</time></trkpt><trkpt lat="43.265875" lon="12.8620083"><ele>709.5</ele><time>2026-05-02T15:01:40.993Z</time></trkpt><trkpt lat="43.2659633" lon="12.8619817"><ele>708.0</ele><time>2026-05-02T15:01:41.995Z</time></trkpt><trkpt lat="43.2660467" lon="12.8619617"><ele>708.0</ele><time>2026-05-02T15:01:42.99Z</time></trkpt><trkpt lat="43.26613" lon="12.8619383"><ele>708.0</ele><time>2026-05-02T15:01:43.993Z</time></trkpt><trkpt lat="43.2662167" lon="12.861895"><ele>708.0</ele><time>2026-05-02T15:01:44.994Z</time></trkpt><trkpt lat="43.2663" lon="12.8618417"><ele>708.0</ele><time>2026-05-02T15:01:45.993Z</time></trkpt><trkpt lat="43.2663967" lon="12.8617833"><ele>708.0</ele><time>2026-05-02T15:01:46.993Z</time></trkpt><trkpt lat="43.266495" lon="12.8617367"><ele>702.5</ele><time>2026-05-02T15:01:47.993Z</time></trkpt><trkpt lat="43.2665917" lon="12.8616967"><ele>697.0</ele><time>2026-05-02T15:01:48.994Z</time></trkpt><trkpt lat="43.2666883" lon="12.8616833"><ele>691.5</ele><time>2026-05-02T15:01:49.992Z</time></trkpt><trkpt lat="43.266775" lon="12.8616883"><ele>686.0</ele><time>2026-05-02T15:01:50.993Z</time></trkpt><trkpt lat="43.2668517" lon="12.8617133"><ele>680.5</ele><time>2026-05-02T15:01:51.993Z</time></trkpt><trkpt lat="43.26693" lon="12.8617483"><ele>675.0</ele><time>2026-05-02T15:01:52.994Z</time></trkpt><trkpt lat="43.2670167" lon="12.8617633"><ele>675.0</ele><time>2026-05-02T15:01:53.993Z</time></trkpt><trkpt lat="43.2670967" lon="12.861765"><ele>675.0</ele><time>2026-05-02T15:01:54.994Z</time></trkpt><trkpt lat="43.26717" lon="12.8617467"><ele>675.0</ele><time>2026-05-02T15:01:55.992Z</time></trkpt><trkpt lat="43.2672333" lon="12.861735"><ele>675.0</ele><time>2026-05-02T15:01:56.993Z</time></trkpt><trkpt lat="43.2673533" lon="12.8617117"><ele>675.0</ele><time>2026-05-02T15:01:58.993Z</time></trkpt><trkpt lat="43.2674717" lon="12.8617117"><ele>672.5</ele><time>2026-05-02T15:02:00.993Z</time></trkpt><trkpt lat="43.2675567" lon="12.86172"><ele>670.0</ele><time>2026-05-02T15:02:02.993Z</time></trkpt><trkpt lat="43.26764" lon="12.8617417"><ele>667.5</ele><time>2026-05-02T15:02:04.992Z</time></trkpt><trkpt lat="43.2677417" lon="12.8617717"><ele>665.0</ele><time>2026-05-02T15:02:06.994Z</time></trkpt><trkpt lat="43.2678333" lon="12.8617967"><ele>662.5</ele><time>2026-05-02T15:02:08.994Z</time></trkpt><trkpt lat="43.2679067" lon="12.8617917"><ele>660.0</ele><time>2026-05-02T15:02:09.993Z</time></trkpt><trkpt lat="43.26803" lon="12.8617883"><ele>656.6666666666666</ele><time>2026-05-02T15:02:11.993Z</time></trkpt><trkpt lat="43.268095" lon="12.8617833"><ele>653.3333333333334</ele><time>2026-05-02T15:02:12.994Z</time></trkpt><trkpt lat="43.2681617" lon="12.8617767"><ele>650.0</ele><time>2026-05-02T15:02:13.993Z</time></trkpt><trkpt lat="43.2682683" lon="12.8617383"><ele>646.6666666666667</ele><time>2026-05-02T15:02:15.994Z</time></trkpt><trkpt lat="43.2683083" lon="12.861665"><ele>643.3333333333334</ele><time>2026-05-02T15:02:17.994Z</time></trkpt><trkpt lat="43.2682967" lon="12.8615633"><ele>640.0</ele><time>2026-05-02T15:02:19.992Z</time></trkpt><trkpt lat="43.2682483" lon="12.86142"><ele>640.0</ele><time>2026-05-02T15:02:21.994Z</time></trkpt><trkpt lat="43.2682267" lon="12.861335"><ele>640.0</ele><time>2026-05-02T15:02:22.993Z</time></trkpt><trkpt lat="43.2681917" lon="12.8611717"><ele>640.0</ele><time>2026-05-02T15:02:24.994Z</time></trkpt><trkpt lat="43.268175" lon="12.86108"><ele>640.0</ele><time>2026-05-02T15:02:25.995Z</time></trkpt><trkpt lat="43.2681517" lon="12.8609917"><ele>640.0</ele><time>2026-05-02T15:02:26.994Z</time></trkpt><trkpt lat="43.2681317" lon="12.8609083"><ele>640.0</ele><time>2026-05-02T15:02:27.994Z</time></trkpt><trkpt lat="43.26807" lon="12.8607433"><ele>640.0</ele><time>2026-05-02T15:02:29.994Z</time></trkpt><trkpt lat="43.2680217" lon="12.8606717"><ele>640.0</ele><time>2026-05-02T15:02:30.994Z</time></trkpt><trkpt lat="43.26797" lon="12.8605467"><ele>640.0</ele><time>2026-05-02T15:02:32.994Z</time></trkpt><trkpt lat="43.268015" lon="12.860475"><ele>640.0</ele><time>2026-05-02T15:02:34.994Z</time></trkpt><trkpt lat="43.2681417" lon="12.8604567"><ele>640.0</ele><time>2026-05-02T15:02:36.994Z</time></trkpt><trkpt lat="43.2682317" lon="12.8604717"><ele>636.1666666666667</ele><time>2026-05-02T15:02:37.995Z</time></trkpt><trkpt lat="43.26833" lon="12.86051"><ele>632.3333333333334</ele><time>2026-05-02T15:02:38.995Z</time></trkpt><trkpt lat="43.26842" lon="12.8605567"><ele>628.5</ele><time>2026-05-02T15:02:39.992Z</time></trkpt><trkpt lat="43.2684967" lon="12.8606067"><ele>624.6666666666666</ele><time>2026-05-02T15:02:40.993Z</time></trkpt><trkpt lat="43.268575" lon="12.860645"><ele>620.8333333333333</ele><time>2026-05-02T15:02:41.994Z</time></trkpt><trkpt lat="43.2686483" lon="12.8606783"><ele>617.0</ele><time>2026-05-02T15:02:42.992Z</time></trkpt><trkpt lat="43.2687183" lon="12.8607033"><ele>617.0</ele><time>2026-05-02T15:02:43.993Z</time></trkpt><trkpt lat="43.26882" lon="12.860735"><ele>617.0</ele><time>2026-05-02T15:02:45.994Z</time></trkpt><trkpt lat="43.26888" lon="12.8606867"><ele>617.0</ele><time>2026-05-02T15:02:47.992Z</time></trkpt><trkpt lat="43.26887" lon="12.8605717"><ele>617.0</ele><time>2026-05-02T15:02:49.994Z</time></trkpt><trkpt lat="43.2688383" lon="12.86043"><ele>617.0</ele><time>2026-05-02T15:02:51.993Z</time></trkpt><trkpt lat="43.2687967" lon="12.8603383"><ele>617.0</ele><time>2026-05-02T15:02:52.993Z</time></trkpt><trkpt lat="43.2687517" lon="12.86027"><ele>617.0</ele><time>2026-05-02T15:02:53.993Z</time></trkpt><trkpt lat="43.2687083" lon="12.8602"><ele>617.0</ele><time>2026-05-02T15:02:54.993Z</time></trkpt><trkpt lat="43.268695" lon="12.8600867"><ele>617.0</ele><time>2026-05-02T15:02:56.993Z</time></trkpt><trkpt lat="43.2687783" lon="12.86003"><ele>617.0</ele><time>2026-05-02T15:02:58.992Z</time></trkpt><trkpt lat="43.2688333" lon="12.859965"><ele>617.0</ele><time>2026-05-02T15:02:59.993Z</time></trkpt><trkpt lat="43.2688917" lon="12.859865"><ele>617.0</ele><time>2026-05-02T15:03:01.993Z</time></trkpt><trkpt lat="43.2689733" lon="12.8597083"><ele>613.2857142857143</ele><time>2026-05-02T15:03:03.994Z</time></trkpt><trkpt lat="43.2689917" lon="12.859625"><ele>609.5714285714286</ele><time>2026-05-02T15:03:04.993Z</time></trkpt><trkpt lat="43.2690233" lon="12.8595433"><ele>605.8571428571429</ele><time>2026-05-02T15:03:05.989Z</time></trkpt><trkpt lat="43.2690517" lon="12.8594533"><ele>602.1428571428571</ele><time>2026-05-02T15:03:06.992Z</time></trkpt><trkpt lat="43.269065" lon="12.8593617"><ele>598.4285714285714</ele><time>2026-05-02T15:03:07.993Z</time></trkpt><trkpt lat="43.2690683" lon="12.8592683"><ele>594.7142857142857</ele><time>2026-05-02T15:03:08.993Z</time></trkpt><trkpt lat="43.2690567" lon="12.8591683"><ele>591.0</ele><time>2026-05-02T15:03:09.994Z</time></trkpt><trkpt lat="43.268985" lon="12.8590033"><ele>588.0</ele><time>2026-05-02T15:03:10.993Z</time></trkpt><trkpt lat="43.26894" lon="12.8588917"><ele>585.0</ele><time>2026-05-02T15:03:11.99Z</time></trkpt><trkpt lat="43.268865" lon="12.8587767"><ele>582.0</ele><time>2026-05-02T15:03:13.993Z</time></trkpt><trkpt lat="43.2688017" lon="12.8586367"><ele>579.0</ele><time>2026-05-02T15:03:15.993Z</time></trkpt><trkpt lat="43.2687933" lon="12.8585367"><ele>576.0</ele><time>2026-05-02T15:03:16.993Z</time></trkpt><trkpt lat="43.2687817" lon="12.8584383"><ele>573.5714285714287</ele><time>2026-05-02T15:03:17.994Z</time></trkpt><trkpt lat="43.2687567" lon="12.8583483"><ele>571.1428571428571</ele><time>2026-05-02T15:03:18.994Z</time></trkpt><trkpt lat="43.2687233" lon="12.8582717"><ele>568.7142857142858</ele><time>2026-05-02T15:03:19.994Z</time></trkpt><trkpt lat="43.268685" lon="12.8582017"><ele>566.2857142857143</ele><time>2026-05-02T15:03:20.994Z</time></trkpt><trkpt lat="43.26864" lon="12.858135"><ele>563.8571428571429</ele><time>2026-05-02T15:03:21.994Z</time></trkpt><trkpt lat="43.2685933" lon="12.85806"><ele>561.4285714285714</ele><time>2026-05-02T15:03:22.994Z</time></trkpt><trkpt lat="43.268545" lon="12.857975"><ele>559.0</ele><time>2026-05-02T15:03:23.995Z</time></trkpt><trkpt lat="43.2685067" lon="12.85789"><ele>559.0</ele><time>2026-05-02T15:03:24.992Z</time></trkpt><trkpt lat="43.2684817" lon="12.8577833"><ele>559.0</ele><time>2026-05-02T15:03:25.994Z</time></trkpt><trkpt lat="43.2684633" lon="12.857685"><ele>559.0</ele><time>2026-05-02T15:03:26.994Z</time></trkpt><trkpt lat="43.2684533" lon="12.8575917"><ele>559.0</ele><time>2026-05-02T15:03:27.994Z</time></trkpt><trkpt lat="43.2684383" lon="12.8575067"><ele>559.0</ele><time>2026-05-02T15:03:28.993Z</time></trkpt><trkpt lat="43.2684167" lon="12.85742"><ele>559.0</ele><time>2026-05-02T15:03:29.994Z</time></trkpt><trkpt lat="43.2683833" lon="12.8573367"><ele>559.0</ele><time>2026-05-02T15:03:30.994Z</time></trkpt><trkpt lat="43.2683383" lon="12.85724"><ele>556.6</ele><time>2026-05-02T15:03:31.992Z</time></trkpt><trkpt lat="43.2682933" lon="12.8571467"><ele>554.2</ele><time>2026-05-02T15:03:32.993Z</time></trkpt><trkpt lat="43.2682667" lon="12.8570583"><ele>551.8000000000001</ele><time>2026-05-02T15:03:33.994Z</time></trkpt><trkpt lat="43.2682683" lon="12.8568933"><ele>549.4</ele><time>2026-05-02T15:03:35.993Z</time></trkpt><trkpt lat="43.26831" lon="12.8568033"><ele>547.0</ele><time>2026-05-02T15:03:36.994Z</time></trkpt><trkpt lat="43.268395" lon="12.856705"><ele>545.0</ele><time>2026-05-02T15:03:37.988Z</time></trkpt><trkpt lat="43.2684883" lon="12.8565983"><ele>543.0</ele><time>2026-05-02T15:03:38.993Z</time></trkpt><trkpt lat="43.268555" lon="12.8564917"><ele>541.0</ele><time>2026-05-02T15:03:39.994Z</time></trkpt><trkpt lat="43.268615" lon="12.8563933"><ele>539.0</ele><time>2026-05-02T15:03:40.99Z</time></trkpt><trkpt lat="43.268675" lon="12.856305"><ele>537.0</ele><time>2026-05-02T15:03:41.993Z</time></trkpt><trkpt lat="43.2687283" lon="12.8562117"><ele>537.0</ele><time>2026-05-02T15:03:42.994Z</time></trkpt><trkpt lat="43.268775" lon="12.8561167"><ele>537.0</ele><time>2026-05-02T15:03:43.99Z</time></trkpt><trkpt lat="43.268805" lon="12.85601"><ele>537.0</ele><time>2026-05-02T15:03:44.994Z</time></trkpt><trkpt lat="43.2688283" lon="12.8559033"><ele>537.0</ele><time>2026-05-02T15:03:45.993Z</time></trkpt><trkpt lat="43.26883" lon="12.8558067"><ele>537.0</ele><time>2026-05-02T15:03:46.993Z</time></trkpt><trkpt lat="43.2688217" lon="12.8557117"><ele>537.0</ele><time>2026-05-02T15:03:47.994Z</time></trkpt><trkpt lat="43.2687983" lon="12.85562"><ele>536.6</ele><time>2026-05-02T15:03:48.995Z</time></trkpt><trkpt lat="43.2687633" lon="12.8555217"><ele>536.2</ele><time>2026-05-02T15:03:49.993Z</time></trkpt><trkpt lat="43.2687183" lon="12.8554233"><ele>535.8</ele><time>2026-05-02T15:03:50.994Z</time></trkpt><trkpt lat="43.26867" lon="12.855315"><ele>535.4</ele><time>2026-05-02T15:03:51.994Z</time></trkpt><trkpt lat="43.2686217" lon="12.8551933"><ele>535.0</ele><time>2026-05-02T15:03:52.992Z</time></trkpt><trkpt lat="43.2685733" lon="12.8550617"><ele>535.0</ele><time>2026-05-02T15:03:53.989Z</time></trkpt><trkpt lat="43.2685217" lon="12.854935"><ele>535.0</ele><time>2026-05-02T15:03:54.993Z</time></trkpt><trkpt lat="43.2684767" lon="12.8548183"><ele>535.0</ele><time>2026-05-02T15:03:55.993Z</time></trkpt><trkpt lat="43.2684467" lon="12.85469"><ele>535.0</ele><time>2026-05-02T15:03:56.994Z</time></trkpt><trkpt lat="43.2684283" lon="12.8545583"><ele>535.0</ele><time>2026-05-02T15:03:57.993Z</time></trkpt><trkpt lat="43.2684133" lon="12.854425"><ele>535.0</ele><time>2026-05-02T15:03:58.992Z</time></trkpt><trkpt lat="43.2683967" lon="12.8542883"><ele>535.0</ele><time>2026-05-02T15:03:59.992Z</time></trkpt><trkpt lat="43.268355" lon="12.8541617"><ele>535.0</ele><time>2026-05-02T15:04:00.994Z</time></trkpt><trkpt lat="43.2683017" lon="12.85405"><ele>535.0</ele><time>2026-05-02T15:04:01.993Z</time></trkpt><trkpt lat="43.2682417" lon="12.853945"><ele>535.0</ele><time>2026-05-02T15:04:02.994Z</time></trkpt><trkpt lat="43.268155" lon="12.85386"><ele>533.8</ele><time>2026-05-02T15:04:03.993Z</time></trkpt><trkpt lat="43.2680667" lon="12.853765"><ele>532.6</ele><time>2026-05-02T15:04:04.992Z</time></trkpt><trkpt lat="43.267985" lon="12.8536733"><ele>531.4</ele><time>2026-05-02T15:04:05.994Z</time></trkpt><trkpt lat="43.2679117" lon="12.8535733"><ele>530.2</ele><time>2026-05-02T15:04:06.994Z</time></trkpt><trkpt lat="43.2678417" lon="12.853475"><ele>529.0</ele><time>2026-05-02T15:04:07.993Z</time></trkpt><trkpt lat="43.26777" lon="12.8533817"><ele>529.0</ele><time>2026-05-02T15:04:08.994Z</time></trkpt><trkpt lat="43.2677017" lon="12.8533"><ele>529.0</ele><time>2026-05-02T15:04:09.994Z</time></trkpt><trkpt lat="43.267635" lon="12.8532233"><ele>529.0</ele><time>2026-05-02T15:04:10.993Z</time></trkpt><trkpt lat="43.26756" lon="12.8531583"><ele>529.0</ele><time>2026-05-02T15:04:11.992Z</time></trkpt><trkpt lat="43.267475" lon="12.85309"><ele>529.0</ele><time>2026-05-02T15:04:12.992Z</time></trkpt><trkpt lat="43.267395" lon="12.8530117"><ele>529.0</ele><time>2026-05-02T15:04:13.992Z</time></trkpt><trkpt lat="43.2673083" lon="12.85293"><ele>529.0</ele><time>2026-05-02T15:04:14.994Z</time></trkpt><trkpt lat="43.2672333" lon="12.852855"><ele>529.0</ele><time>2026-05-02T15:04:15.994Z</time></trkpt><trkpt lat="43.2671667" lon="12.8527783"><ele>529.0</ele><time>2026-05-02T15:04:16.993Z</time></trkpt><trkpt lat="43.2671083" lon="12.8527083"><ele>529.0</ele><time>2026-05-02T15:04:17.993Z</time></trkpt><trkpt lat="43.2670483" lon="12.8526233"><ele>529.0</ele><time>2026-05-02T15:04:19.992Z</time></trkpt><trkpt lat="43.2670017" lon="12.852545"><ele>530.0</ele><time>2026-05-02T15:04:22.994Z</time></trkpt><trkpt lat="43.26702" lon="12.85246"><ele>531.0</ele><time>2026-05-02T15:05:03.992Z</time></trkpt><trkpt lat="43.26708" lon="12.8523833"><ele>532.0</ele><time>2026-05-02T15:05:07.993Z</time></trkpt><trkpt lat="43.2671283" lon="12.8523083"><ele>533.0</ele><time>2026-05-02T15:05:10.993Z</time></trkpt><trkpt lat="43.267185" lon="12.8522217"><ele>534.0</ele><time>2026-05-02T15:05:13.993Z</time></trkpt><trkpt lat="43.2672583" lon="12.85217"><ele>535.0</ele><time>2026-05-02T15:05:16.992Z</time></trkpt><trkpt lat="43.2673417" lon="12.8521567"><ele>535.0</ele><time>2026-05-02T15:05:19.993Z</time></trkpt><trkpt lat="43.2674183" lon="12.8521717"><ele>535.0</ele><time>2026-05-02T15:05:22.992Z</time></trkpt><trkpt lat="43.2674783" lon="12.8522233"><ele>535.0</ele><time>2026-05-02T15:05:35.993Z</time></trkpt><trkpt lat="43.267535" lon="12.8522917"><ele>535.0</ele><time>2026-05-02T15:05:40.992Z</time></trkpt><trkpt lat="43.2675883" lon="12.852385"><ele>535.0</ele><time>2026-05-02T15:05:44.993Z</time></trkpt><trkpt lat="43.2676583" lon="12.8524717"><ele>535.0</ele><time>2026-05-02T15:05:47.993Z</time></trkpt><trkpt lat="43.2677233" lon="12.85252"><ele>535.0</ele><time>2026-05-02T15:05:49.993Z</time></trkpt><trkpt lat="43.2677767" lon="12.8525767"><ele>535.0</ele><time>2026-05-02T15:05:51.994Z</time></trkpt><trkpt lat="43.26784" lon="12.8526217"><ele>535.0</ele><time>2026-05-02T15:05:54.994Z</time></trkpt><trkpt lat="43.2679067" lon="12.852675"><ele>535.0</ele><time>2026-05-02T15:05:57.995Z</time></trkpt><trkpt lat="43.2679683" lon="12.8527317"><ele>535.0</ele><time>2026-05-02T15:06:00.993Z</time></trkpt><trkpt lat="43.26806" lon="12.85279"><ele>535.0</ele><time>2026-05-02T15:06:03.995Z</time></trkpt><trkpt lat="43.2681233" lon="12.8528317"><ele>538.5</ele><time>2026-05-02T15:06:05.993Z</time></trkpt><trkpt lat="43.268185" lon="12.8528733"><ele>542.0</ele><time>2026-05-02T15:06:07.993Z</time></trkpt><trkpt lat="43.2682617" lon="12.85292"><ele>545.5</ele><time>2026-05-02T15:06:09.992Z</time></trkpt><trkpt lat="43.2683317" lon="12.85296"><ele>549.0</ele><time>2026-05-02T15:06:13.993Z</time></trkpt><trkpt lat="43.2684083" lon="12.85301"><ele>552.5</ele><time>2026-05-02T15:06:16.993Z</time></trkpt><trkpt lat="43.2684683" lon="12.8530467"><ele>556.0</ele><time>2026-05-02T15:06:18.994Z</time></trkpt><trkpt lat="43.26854" lon="12.8531067"><ele>556.0</ele><time>2026-05-02T15:06:21.994Z</time></trkpt><trkpt lat="43.26862" lon="12.853155"><ele>556.0</ele><time>2026-05-02T15:06:24.993Z</time></trkpt><trkpt lat="43.2686917" lon="12.8532"><ele>556.0</ele><time>2026-05-02T15:06:26.992Z</time></trkpt><trkpt lat="43.26876" lon="12.85325"><ele>556.0</ele><time>2026-05-02T15:06:28.992Z</time></trkpt><trkpt lat="43.2688433" lon="12.8533133"><ele>556.0</ele><time>2026-05-02T15:06:30.993Z</time></trkpt><trkpt lat="43.26893" lon="12.8533883"><ele>556.0</ele><time>2026-05-02T15:06:32.993Z</time></trkpt><trkpt lat="43.2690117" lon="12.8534517"><ele>560.6666666666667</ele><time>2026-05-02T15:06:34.992Z</time></trkpt><trkpt lat="43.269095" lon="12.853455"><ele>565.3333333333334</ele><time>2026-05-02T15:06:36.994Z</time></trkpt><trkpt lat="43.26917" lon="12.8534367"><ele>570.0</ele><time>2026-05-02T15:06:38.993Z</time></trkpt><trkpt lat="43.2692533" lon="12.853425"><ele>574.6666666666666</ele><time>2026-05-02T15:06:40.992Z</time></trkpt><trkpt lat="43.2693383" lon="12.853455"><ele>579.3333333333333</ele><time>2026-05-02T15:06:42.993Z</time></trkpt><trkpt lat="43.2694133" lon="12.8534717"><ele>584.0</ele><time>2026-05-02T15:06:44.996Z</time></trkpt><trkpt lat="43.26948" lon="12.8535117"><ele>584.0</ele><time>2026-05-02T15:06:46.994Z</time></trkpt><trkpt lat="43.2695467" lon="12.8535867"><ele>584.0</ele><time>2026-05-02T15:06:48.992Z</time></trkpt><trkpt lat="43.2696183" lon="12.8536933"><ele>584.0</ele><time>2026-05-02T15:06:50.994Z</time></trkpt><trkpt lat="43.2697017" lon="12.8538217"><ele>584.0</ele><time>2026-05-02T15:06:52.992Z</time></trkpt><trkpt lat="43.2697833" lon="12.8539417"><ele>584.0</ele><time>2026-05-02T15:06:54.994Z</time></trkpt><trkpt lat="43.2698517" lon="12.8540317"><ele>591.6666666666666</ele><time>2026-05-02T15:06:56.994Z</time></trkpt><trkpt lat="43.2699" lon="12.8541133"><ele>599.3333333333333</ele><time>2026-05-02T15:06:58.994Z</time></trkpt><trkpt lat="43.269956" lon="12.8542057"><ele>607.0</ele><time>2026-05-02T15:07:00.994Z</time></trkpt><trkpt lat="43.270011" lon="12.8542763"><ele>614.6666666666666</ele><time>2026-05-02T15:07:02.994Z</time></trkpt><trkpt lat="43.2700667" lon="12.8543403"><ele>622.3333333333334</ele><time>2026-05-02T15:07:04.993Z</time></trkpt><trkpt lat="43.2701252" lon="12.8543983"><ele>630.0</ele><time>2026-05-02T15:07:06.996Z</time></trkpt><trkpt lat="43.2701807" lon="12.8544702"><ele>630.0</ele><time>2026-05-02T15:07:08.994Z</time></trkpt><trkpt lat="43.2702258" lon="12.8545585"><ele>630.0</ele><time>2026-05-02T15:07:11.919Z</time></trkpt><trkpt lat="43.2703055" lon="12.8546294"><ele>630.0</ele><time>2026-05-02T15:07:13.836Z</time></trkpt><trkpt lat="43.2703845" lon="12.8547198"><ele>630.0</ele><time>2026-05-02T15:07:16.022Z</time></trkpt><trkpt lat="43.2704482" lon="12.8547927"><ele>630.0</ele><time>2026-05-02T15:07:17.899Z</time></trkpt><trkpt lat="43.2705219" lon="12.8548649"><ele>630.0</ele><time>2026-05-02T15:07:19.897Z</time></trkpt><trkpt lat="43.27059" lon="12.8549618"><ele>630.0</ele><time>2026-05-02T15:07:22.046Z</time></trkpt><trkpt lat="43.2706781" lon="12.8549986"><ele>630.0</ele><time>2026-05-02T15:07:23.994Z</time></trkpt><trkpt lat="43.2707611" lon="12.8550322"><ele>630.0</ele><time>2026-05-02T15:07:25.994Z</time></trkpt><trkpt lat="43.2708549" lon="12.8550453"><ele>630.0</ele><time>2026-05-02T15:07:28.006Z</time></trkpt><trkpt lat="43.2709616" lon="12.8550769"><ele>638.5</ele><time>2026-05-02T15:07:29.96Z</time></trkpt><trkpt lat="43.2710248" lon="12.8551458"><ele>647.0</ele><time>2026-05-02T15:07:31.996Z</time></trkpt><trkpt lat="43.2711042" lon="12.8552148"><ele>655.5</ele><time>2026-05-02T15:07:34.994Z</time></trkpt><trkpt lat="43.2711637" lon="12.8552977"><ele>664.0</ele><time>2026-05-02T15:07:37.977Z</time></trkpt><trkpt lat="43.2711947" lon="12.8554083"><ele>672.5</ele><time>2026-05-02T15:07:41.001Z</time></trkpt><trkpt lat="43.2712567" lon="12.8554945"><ele>681.0</ele><time>2026-05-02T15:07:43.994Z</time></trkpt><trkpt lat="43.2712962" lon="12.8556303"><ele>681.0000000000001</ele><time>2026-05-02T15:07:46.993Z</time></trkpt><trkpt lat="43.271295" lon="12.8557417"><ele>681.0</ele><time>2026-05-02T15:07:48.995Z</time></trkpt><trkpt lat="43.2713317" lon="12.8558433"><ele>681.0</ele><time>2026-05-02T15:07:52.993Z</time></trkpt><trkpt lat="43.271365" lon="12.8559167"><ele>681.0</ele><time>2026-05-02T15:07:55.995Z</time></trkpt><trkpt lat="43.2714083" lon="12.8559983"><ele>681.0</ele><time>2026-05-02T15:07:58.992Z</time></trkpt><trkpt lat="43.2714783" lon="12.8560233"><ele>681.0000000000001</ele><time>2026-05-02T15:08:01.994Z</time></trkpt><trkpt lat="43.2715467" lon="12.85599"><ele>681.0</ele><time>2026-05-02T15:08:05.994Z</time></trkpt><trkpt lat="43.27167" lon="12.8558333"><ele>689.75</ele><time>2026-05-02T15:09:44.994Z</time></trkpt><trkpt lat="43.27175" lon="12.8557133"><ele>698.5</ele><time>2026-05-02T15:09:45.992Z</time></trkpt><trkpt lat="43.2718367" lon="12.85558"><ele>707.25</ele><time>2026-05-02T15:09:46.993Z</time></trkpt><trkpt lat="43.2719383" lon="12.8554517"><ele>716.0</ele><time>2026-05-02T15:09:47.992Z</time></trkpt><trkpt lat="43.2720467" lon="12.8553417"><ele>716.0</ele><time>2026-05-02T15:09:48.995Z</time></trkpt><trkpt lat="43.272165" lon="12.8552317"><ele>716.0</ele><time>2026-05-02T15:09:49.994Z</time></trkpt><trkpt lat="43.2722917" lon="12.8551283"><ele>716.0</ele><time>2026-05-02T15:09:50.994Z</time></trkpt><trkpt lat="43.2724233" lon="12.8550367"><ele>716.0</ele><time>2026-05-02T15:09:51.995Z</time></trkpt><trkpt lat="43.2725633" lon="12.85496"><ele>720.3333333333333</ele><time>2026-05-02T15:09:52.993Z</time></trkpt><trkpt lat="43.2727067" lon="12.854895"><ele>724.6666666666666</ele><time>2026-05-02T15:09:53.995Z</time></trkpt><trkpt lat="43.272855" lon="12.85484"><ele>729.0</ele><time>2026-05-02T15:09:54.995Z</time></trkpt><trkpt lat="43.2730033" lon="12.854795"><ele>736.3333333333334</ele><time>2026-05-02T15:09:55.994Z</time></trkpt><trkpt lat="43.2731517" lon="12.8547567"><ele>743.6666666666667</ele><time>2026-05-02T15:09:56.995Z</time></trkpt><trkpt lat="43.2733017" lon="12.8547217"><ele>751.0</ele><time>2026-05-02T15:09:57.994Z</time></trkpt><trkpt lat="43.2734483" lon="12.8546867"><ele>751.0</ele><time>2026-05-02T15:09:58.988Z</time></trkpt><trkpt lat="43.273595" lon="12.854655"><ele>751.0</ele><time>2026-05-02T15:09:59.993Z</time></trkpt><trkpt lat="43.2737433" lon="12.8546283"><ele>751.0</ele><time>2026-05-02T15:10:00.993Z</time></trkpt><trkpt lat="43.2738817" lon="12.854605"><ele>751.0</ele><time>2026-05-02T15:10:01.993Z</time></trkpt><trkpt lat="43.2739867" lon="12.85459"><ele>754.5</ele><time>2026-05-02T15:10:02.994Z</time></trkpt><trkpt lat="43.2741167" lon="12.8545933"><ele>758.0</ele><time>2026-05-02T15:10:03.993Z</time></trkpt><trkpt lat="43.2742383" lon="12.8545933"><ele>761.5</ele><time>2026-05-02T15:10:04.992Z</time></trkpt><trkpt lat="43.2743617" lon="12.8545983"><ele>765.0</ele><time>2026-05-02T15:10:05.996Z</time></trkpt><trkpt lat="43.274485" lon="12.8546217"><ele>765.0</ele><time>2026-05-02T15:10:06.993Z</time></trkpt><trkpt lat="43.2746233" lon="12.8546367"><ele>765.0</ele><time>2026-05-02T15:10:07.995Z</time></trkpt><trkpt lat="43.2747667" lon="12.8546567"><ele>765.0</ele><time>2026-05-02T15:10:08.994Z</time></trkpt><trkpt lat="43.274915" lon="12.85468"><ele>765.0</ele><time>2026-05-02T15:10:09.992Z</time></trkpt><trkpt lat="43.275065" lon="12.8547033"><ele>764.6666666666666</ele><time>2026-05-02T15:10:10.992Z</time></trkpt><trkpt lat="43.2752233" lon="12.8547367"><ele>764.3333333333333</ele><time>2026-05-02T15:10:11.993Z</time></trkpt><trkpt lat="43.2753867" lon="12.8547717"><ele>764.0</ele><time>2026-05-02T15:10:12.993Z</time></trkpt><trkpt lat="43.2755467" lon="12.8548183"><ele>765.5</ele><time>2026-05-02T15:10:13.992Z</time></trkpt><trkpt lat="43.2756983" lon="12.8548667"><ele>767.0</ele><time>2026-05-02T15:10:14.994Z</time></trkpt><trkpt lat="43.27584" lon="12.8549133"><ele>768.5</ele><time>2026-05-02T15:10:15.992Z</time></trkpt><trkpt lat="43.2759817" lon="12.854955"><ele>770.0</ele><time>2026-05-02T15:10:16.992Z</time></trkpt><trkpt lat="43.2761317" lon="12.8549917"><ele>770.0</ele><time>2026-05-02T15:10:17.992Z</time></trkpt><trkpt lat="43.2762817" lon="12.8550333"><ele>770.0</ele><time>2026-05-02T15:10:18.993Z</time></trkpt><trkpt lat="43.2764317" lon="12.8550783"><ele>770.0</ele><time>2026-05-02T15:10:19.994Z</time></trkpt><trkpt lat="43.276585" lon="12.85512"><ele>780.25</ele><time>2026-05-02T15:10:20.994Z</time></trkpt><trkpt lat="43.27673" lon="12.8551583"><ele>790.5</ele><time>2026-05-02T15:10:21.993Z</time></trkpt><trkpt lat="43.2768667" lon="12.8551917"><ele>800.75</ele><time>2026-05-02T15:10:22.992Z</time></trkpt><trkpt lat="43.2769967" lon="12.855225"><ele>811.0</ele><time>2026-05-02T15:10:23.993Z</time></trkpt><trkpt lat="43.277105" lon="12.8552517"><ele>811.0</ele><time>2026-05-02T15:10:24.993Z</time></trkpt><trkpt lat="43.2771983" lon="12.8552583"><ele>811.0</ele><time>2026-05-02T15:10:25.994Z</time></trkpt><trkpt lat="43.2772767" lon="12.8552117"><ele>811.0</ele><time>2026-05-02T15:10:26.995Z</time></trkpt><trkpt lat="43.2773483" lon="12.8551233"><ele>811.0</ele><time>2026-05-02T15:10:27.993Z</time></trkpt><trkpt lat="43.2774217" lon="12.85501"><ele>811.0</ele><time>2026-05-02T15:10:28.992Z</time></trkpt><trkpt lat="43.2774917" lon="12.854885"><ele>805.75</ele><time>2026-05-02T15:10:29.994Z</time></trkpt><trkpt lat="43.2775617" lon="12.85476"><ele>800.5</ele><time>2026-05-02T15:10:30.993Z</time></trkpt><trkpt lat="43.2776333" lon="12.85464"><ele>795.25</ele><time>2026-05-02T15:10:31.992Z</time></trkpt><trkpt lat="43.277715" lon="12.8545333"><ele>790.0</ele><time>2026-05-02T15:10:32.994Z</time></trkpt><trkpt lat="43.2778067" lon="12.8544433"><ele>790.0</ele><time>2026-05-02T15:10:33.993Z</time></trkpt><trkpt lat="43.2779133" lon="12.854375"><ele>790.0</ele><time>2026-05-02T15:10:34.992Z</time></trkpt><trkpt lat="43.278025" lon="12.85432"><ele>790.0</ele><time>2026-05-02T15:10:35.995Z</time></trkpt><trkpt lat="43.2781483" lon="12.8542783"><ele>790.0</ele><time>2026-05-02T15:10:36.994Z</time></trkpt><trkpt lat="43.278285" lon="12.854255"><ele>789.0</ele><time>2026-05-02T15:10:37.994Z</time></trkpt><trkpt lat="43.2784317" lon="12.854245"><ele>788.0</ele><time>2026-05-02T15:10:38.994Z</time></trkpt><trkpt lat="43.2785817" lon="12.854245"><ele>787.0</ele><time>2026-05-02T15:10:39.992Z</time></trkpt><trkpt lat="43.2787283" lon="12.8542517"><ele>786.0</ele><time>2026-05-02T15:10:40.994Z</time></trkpt><trkpt lat="43.2788733" lon="12.8542633"><ele>788.5</ele><time>2026-05-02T15:10:41.994Z</time></trkpt><trkpt lat="43.279015" lon="12.8542783"><ele>791.0</ele><time>2026-05-02T15:10:42.993Z</time></trkpt><trkpt lat="43.2791567" lon="12.8543067"><ele>793.5</ele><time>2026-05-02T15:10:43.993Z</time></trkpt><trkpt lat="43.2792983" lon="12.8543433"><ele>796.0</ele><time>2026-05-02T15:10:44.994Z</time></trkpt><trkpt lat="43.2794417" lon="12.8543883"><ele>803.25</ele><time>2026-05-02T15:10:45.994Z</time></trkpt><trkpt lat="43.2795833" lon="12.85444"><ele>810.5</ele><time>2026-05-02T15:10:46.993Z</time></trkpt><trkpt lat="43.2797217" lon="12.8544967"><ele>817.75</ele><time>2026-05-02T15:10:47.995Z</time></trkpt><trkpt lat="43.2798533" lon="12.8545667"><ele>825.0</ele><time>2026-05-02T15:10:48.995Z</time></trkpt><trkpt lat="43.2799733" lon="12.854645"><ele>825.0</ele><time>2026-05-02T15:10:49.995Z</time></trkpt><trkpt lat="43.2800867" lon="12.85472"><ele>825.0</ele><time>2026-05-02T15:10:50.994Z</time></trkpt><trkpt lat="43.2801917" lon="12.85479"><ele>825.0</ele><time>2026-05-02T15:10:51.995Z</time></trkpt><trkpt lat="43.2802883" lon="12.8548717"><ele>825.0</ele><time>2026-05-02T15:10:52.993Z</time></trkpt><trkpt lat="43.2803733" lon="12.8549733"><ele>825.0</ele><time>2026-05-02T15:10:53.994Z</time></trkpt><trkpt lat="43.2804517" lon="12.8550717"><ele>825.0</ele><time>2026-05-02T15:10:54.993Z</time></trkpt><trkpt lat="43.2805317" lon="12.8551467"><ele>825.0</ele><time>2026-05-02T15:10:55.993Z</time></trkpt><trkpt lat="43.2805983" lon="12.8551817"><ele>825.0</ele><time>2026-05-02T15:10:56.995Z</time></trkpt><trkpt lat="43.28073" lon="12.8551483"><ele>825.0</ele><time>2026-05-02T15:10:58.988Z</time></trkpt><trkpt lat="43.2808033" lon="12.8550683"><ele>825.75</ele><time>2026-05-02T15:10:59.99Z</time></trkpt><trkpt lat="43.28089" lon="12.854945"><ele>826.5</ele><time>2026-05-02T15:11:00.994Z</time></trkpt><trkpt lat="43.28099" lon="12.85483"><ele>827.25</ele><time>2026-05-02T15:11:01.994Z</time></trkpt><trkpt lat="43.2810917" lon="12.85472"><ele>828.0</ele><time>2026-05-02T15:11:02.994Z</time></trkpt><trkpt lat="43.2812017" lon="12.8546467"><ele>828.0</ele><time>2026-05-02T15:11:03.995Z</time></trkpt><trkpt lat="43.2813233" lon="12.854605"><ele>828.0</ele><time>2026-05-02T15:11:04.993Z</time></trkpt><trkpt lat="43.2814433" lon="12.8545717"><ele>828.0</ele><time>2026-05-02T15:11:05.993Z</time></trkpt><trkpt lat="43.2815733" lon="12.8545467"><ele>828.0</ele><time>2026-05-02T15:11:06.995Z</time></trkpt><trkpt lat="43.2817083" lon="12.854535"><ele>832.25</ele><time>2026-05-02T15:11:07.995Z</time></trkpt><trkpt lat="43.2818433" lon="12.85453"><ele>836.5</ele><time>2026-05-02T15:11:08.995Z</time></trkpt><trkpt lat="43.2819733" lon="12.854525"><ele>840.75</ele><time>2026-05-02T15:11:09.993Z</time></trkpt><trkpt lat="43.2820983" lon="12.8545283"><ele>845.0</ele><time>2026-05-02T15:11:10.995Z</time></trkpt><trkpt lat="43.2822233" lon="12.854525"><ele>846.5</ele><time>2026-05-02T15:11:11.992Z</time></trkpt><trkpt lat="43.2823517" lon="12.8545183"><ele>848.0</ele><time>2026-05-02T15:11:12.994Z</time></trkpt><trkpt lat="43.28248" lon="12.8545217"><ele>849.5</ele><time>2026-05-02T15:11:13.994Z</time></trkpt><trkpt lat="43.2826017" lon="12.85453"><ele>851.0</ele><time>2026-05-02T15:11:14.993Z</time></trkpt><trkpt lat="43.2827233" lon="12.85454"><ele>851.0</ele><time>2026-05-02T15:11:15.996Z</time></trkpt><trkpt lat="43.2828383" lon="12.8545533"><ele>851.0</ele><time>2026-05-02T15:11:16.99Z</time></trkpt><trkpt lat="43.2829483" lon="12.8545667"><ele>851.0</ele><time>2026-05-02T15:11:17.994Z</time></trkpt><trkpt lat="43.28306" lon="12.8545733"><ele>851.0</ele><time>2026-05-02T15:11:18.995Z</time></trkpt><trkpt lat="43.2831767" lon="12.85458"><ele>852.5</ele><time>2026-05-02T15:11:19.994Z</time></trkpt><trkpt lat="43.283295" lon="12.854595"><ele>854.0</ele><time>2026-05-02T15:11:20.994Z</time></trkpt><trkpt lat="43.2834117" lon="12.8546267"><ele>855.5</ele><time>2026-05-02T15:11:21.993Z</time></trkpt><trkpt lat="43.2835283" lon="12.8546617"><ele>857.0</ele><time>2026-05-02T15:11:22.993Z</time></trkpt><trkpt lat="43.28365" lon="12.8546983"><ele>857.0</ele><time>2026-05-02T15:11:23.993Z</time></trkpt><trkpt lat="43.283775" lon="12.8547383"><ele>857.0</ele><time>2026-05-02T15:11:24.993Z</time></trkpt><trkpt lat="43.2839083" lon="12.8547983"><ele>857.0</ele><time>2026-05-02T15:11:25.993Z</time></trkpt><trkpt lat="43.284055" lon="12.85484"><ele>857.0</ele><time>2026-05-02T15:11:26.992Z</time></trkpt><trkpt lat="43.2842017" lon="12.8548833"><ele>856.75</ele><time>2026-05-02T15:11:27.993Z</time></trkpt><trkpt lat="43.28435" lon="12.85492"><ele>856.5</ele><time>2026-05-02T15:11:28.992Z</time></trkpt><trkpt lat="43.2844967" lon="12.8549533"><ele>856.25</ele><time>2026-05-02T15:11:29.993Z</time></trkpt><trkpt lat="43.2846417" lon="12.8549983"><ele>856.0</ele><time>2026-05-02T15:11:30.993Z</time></trkpt><trkpt lat="43.2847867" lon="12.8550483"><ele>856.0</ele><time>2026-05-02T15:11:31.993Z</time></trkpt><trkpt lat="43.2849433" lon="12.8551017"><ele>856.0</ele><time>2026-05-02T15:11:32.994Z</time></trkpt><trkpt lat="43.285095" lon="12.8551517"><ele>856.0</ele><time>2026-05-02T15:11:33.994Z</time></trkpt><trkpt lat="43.285245" lon="12.8551983"><ele>861.25</ele><time>2026-05-02T15:11:34.994Z</time></trkpt><trkpt lat="43.285385" lon="12.8552433"><ele>866.5</ele><time>2026-05-02T15:11:35.994Z</time></trkpt><trkpt lat="43.2855183" lon="12.8552767"><ele>871.75</ele><time>2026-05-02T15:11:36.996Z</time></trkpt><trkpt lat="43.2856433" lon="12.8553033"><ele>877.0</ele><time>2026-05-02T15:11:37.993Z</time></trkpt><trkpt lat="43.285745" lon="12.85533"><ele>877.4000000000001</ele><time>2026-05-02T15:11:38.994Z</time></trkpt><trkpt lat="43.2858183" lon="12.8553717"><ele>877.8000000000001</ele><time>2026-05-02T15:11:39.994Z</time></trkpt><trkpt lat="43.28588" lon="12.8554717"><ele>878.2</ele><time>2026-05-02T15:11:41.994Z</time></trkpt><trkpt lat="43.2859717" lon="12.855405"><ele>878.6</ele><time>2026-05-02T15:11:44.994Z</time></trkpt><trkpt lat="43.2860283" lon="12.855335"><ele>879.0</ele><time>2026-05-02T15:11:45.992Z</time></trkpt><trkpt lat="43.2861033" lon="12.85525"><ele>879.0</ele><time>2026-05-02T15:11:46.993Z</time></trkpt><trkpt lat="43.2862" lon="12.8551633"><ele>879.0</ele><time>2026-05-02T15:11:47.994Z</time></trkpt><trkpt lat="43.286315" lon="12.85508"><ele>879.0</ele><time>2026-05-02T15:11:48.995Z</time></trkpt><trkpt lat="43.28643" lon="12.8549967"><ele>879.0</ele><time>2026-05-02T15:11:49.994Z</time></trkpt><trkpt lat="43.2865433" lon="12.85492"><ele>875.6</ele><time>2026-05-02T15:11:50.995Z</time></trkpt><trkpt lat="43.286655" lon="12.854845"><ele>872.2</ele><time>2026-05-02T15:11:51.993Z</time></trkpt><trkpt lat="43.2867567" lon="12.8547733"><ele>868.8000000000001</ele><time>2026-05-02T15:11:52.994Z</time></trkpt><trkpt lat="43.2868483" lon="12.8547117"><ele>865.4000000000001</ele><time>2026-05-02T15:11:53.995Z</time></trkpt><trkpt lat="43.2869283" lon="12.8546583"><ele>862.0</ele><time>2026-05-02T15:11:54.997Z</time></trkpt><trkpt lat="43.28699" lon="12.85461"><ele>862.0</ele><time>2026-05-02T15:11:55.995Z</time></trkpt><trkpt lat="43.28707" lon="12.8544917"><ele>862.0</ele><time>2026-05-02T15:11:57.994Z</time></trkpt><trkpt lat="43.287115" lon="12.85442"><ele>862.0</ele><time>2026-05-02T15:11:58.988Z</time></trkpt><trkpt lat="43.2871783" lon="12.85434"><ele>862.0</ele><time>2026-05-02T15:11:59.994Z</time></trkpt><trkpt lat="43.2872633" lon="12.854255"><ele>862.0</ele><time>2026-05-02T15:12:00.993Z</time></trkpt><trkpt lat="43.2873533" lon="12.85416"><ele>858.5</ele><time>2026-05-02T15:12:01.994Z</time></trkpt><trkpt lat="43.2874467" lon="12.8540583"><ele>855.0</ele><time>2026-05-02T15:12:02.994Z</time></trkpt><trkpt lat="43.28754" lon="12.8539483"><ele>851.5</ele><time>2026-05-02T15:12:03.994Z</time></trkpt><trkpt lat="43.2876283" lon="12.8538317"><ele>848.0</ele><time>2026-05-02T15:12:04.994Z</time></trkpt><trkpt lat="43.2877133" lon="12.853715"><ele>848.0</ele><time>2026-05-02T15:12:05.995Z</time></trkpt><trkpt lat="43.2877967" lon="12.8535983"><ele>848.0</ele><time>2026-05-02T15:12:06.995Z</time></trkpt><trkpt lat="43.2878833" lon="12.8534917"><ele>848.0</ele><time>2026-05-02T15:12:07.994Z</time></trkpt><trkpt lat="43.2879683" lon="12.853395"><ele>848.0</ele><time>2026-05-02T15:12:08.993Z</time></trkpt><trkpt lat="43.28805" lon="12.8533"><ele>843.25</ele><time>2026-05-02T15:12:09.989Z</time></trkpt><trkpt lat="43.2881317" lon="12.85321"><ele>838.5</ele><time>2026-05-02T15:12:10.992Z</time></trkpt><trkpt lat="43.2882183" lon="12.8531183"><ele>833.75</ele><time>2026-05-02T15:12:11.993Z</time></trkpt><trkpt lat="43.28831" lon="12.8530183"><ele>829.0</ele><time>2026-05-02T15:12:12.994Z</time></trkpt><trkpt lat="43.288405" lon="12.8529167"><ele>829.0</ele><time>2026-05-02T15:12:13.993Z</time></trkpt><trkpt lat="43.2885" lon="12.8528117"><ele>829.0</ele><time>2026-05-02T15:12:14.995Z</time></trkpt><trkpt lat="43.2885967" lon="12.8527083"><ele>829.0</ele><time>2026-05-02T15:12:15.992Z</time></trkpt><trkpt lat="43.2886933" lon="12.8526133"><ele>829.0</ele><time>2026-05-02T15:12:16.991Z</time></trkpt><trkpt lat="43.2887983" lon="12.8525333"><ele>825.5</ele><time>2026-05-02T15:12:17.996Z</time></trkpt><trkpt lat="43.2889067" lon="12.8524567"><ele>822.0</ele><time>2026-05-02T15:12:18.996Z</time></trkpt><trkpt lat="43.2890183" lon="12.8523767"><ele>818.5</ele><time>2026-05-02T15:12:19.993Z</time></trkpt><trkpt lat="43.2891317" lon="12.8522967"><ele>815.0</ele><time>2026-05-02T15:12:20.991Z</time></trkpt><trkpt lat="43.2892433" lon="12.8522183"><ele>815.0</ele><time>2026-05-02T15:12:21.996Z</time></trkpt><trkpt lat="43.2893517" lon="12.8521433"><ele>815.0</ele><time>2026-05-02T15:12:22.995Z</time></trkpt><trkpt lat="43.2894583" lon="12.8520683"><ele>815.0</ele><time>2026-05-02T15:12:23.995Z</time></trkpt><trkpt lat="43.289565" lon="12.8519917"><ele>815.0</ele><time>2026-05-02T15:12:24.996Z</time></trkpt><trkpt lat="43.289665" lon="12.8519167"><ele>815.2</ele><time>2026-05-02T15:12:25.996Z</time></trkpt><trkpt lat="43.2897683" lon="12.8518417"><ele>815.4</ele><time>2026-05-02T15:12:26.997Z</time></trkpt><trkpt lat="43.2898717" lon="12.8517783"><ele>815.5999999999999</ele><time>2026-05-02T15:12:27.996Z</time></trkpt><trkpt lat="43.2899633" lon="12.8517133"><ele>815.8</ele><time>2026-05-02T15:12:28.996Z</time></trkpt><trkpt lat="43.2900467" lon="12.85166"><ele>816.0</ele><time>2026-05-02T15:12:29.995Z</time></trkpt><trkpt lat="43.2901217" lon="12.8516133"><ele>812.0</ele><time>2026-05-02T15:12:30.997Z</time></trkpt><trkpt lat="43.2902" lon="12.85156"><ele>808.0</ele><time>2026-05-02T15:12:31.997Z</time></trkpt><trkpt lat="43.2902917" lon="12.8515033"><ele>804.0</ele><time>2026-05-02T15:12:32.997Z</time></trkpt><trkpt lat="43.290375" lon="12.85145"><ele>800.0</ele><time>2026-05-02T15:12:33.996Z</time></trkpt><trkpt lat="43.2904583" lon="12.851395"><ele>796.0</ele><time>2026-05-02T15:12:34.996Z</time></trkpt><trkpt lat="43.2905433" lon="12.8513383"><ele>795.4</ele><time>2026-05-02T15:12:35.995Z</time></trkpt><trkpt lat="43.2906333" lon="12.85128"><ele>794.8</ele><time>2026-05-02T15:12:36.996Z</time></trkpt><trkpt lat="43.290725" lon="12.851225"><ele>794.1999999999999</ele><time>2026-05-02T15:12:37.995Z</time></trkpt><trkpt lat="43.290815" lon="12.8511717"><ele>793.5999999999999</ele><time>2026-05-02T15:12:38.996Z</time></trkpt><trkpt lat="43.290895" lon="12.85114"><ele>793.0</ele><time>2026-05-02T15:12:39.995Z</time></trkpt><trkpt lat="43.29097" lon="12.8511117"><ele>793.0</ele><time>2026-05-02T15:12:40.995Z</time></trkpt><trkpt lat="43.2910467" lon="12.8510933"><ele>793.0</ele><time>2026-05-02T15:12:41.995Z</time></trkpt><trkpt lat="43.2911317" lon="12.851075"><ele>793.0</ele><time>2026-05-02T15:12:42.997Z</time></trkpt><trkpt lat="43.29123" lon="12.85105"><ele>793.0</ele><time>2026-05-02T15:12:43.996Z</time></trkpt><trkpt lat="43.2913267" lon="12.851015"><ele>793.0</ele><time>2026-05-02T15:12:44.995Z</time></trkpt><trkpt lat="43.2914183" lon="12.8509733"><ele>790.4</ele><time>2026-05-02T15:12:45.995Z</time></trkpt><trkpt lat="43.2915033" lon="12.850915"><ele>787.8</ele><time>2026-05-02T15:12:46.997Z</time></trkpt><trkpt lat="43.2915917" lon="12.85085"><ele>785.2</ele><time>2026-05-02T15:12:47.994Z</time></trkpt><trkpt lat="43.2916867" lon="12.8508033"><ele>782.6</ele><time>2026-05-02T15:12:48.995Z</time></trkpt><trkpt lat="43.29178" lon="12.850755"><ele>780.0</ele><time>2026-05-02T15:12:49.993Z</time></trkpt><trkpt lat="43.291875" lon="12.850725"><ele>780.0</ele><time>2026-05-02T15:12:50.993Z</time></trkpt><trkpt lat="43.2919683" lon="12.85069"><ele>780.0</ele><time>2026-05-02T15:12:51.994Z</time></trkpt><trkpt lat="43.2920583" lon="12.8506417"><ele>780.0</ele><time>2026-05-02T15:12:52.993Z</time></trkpt><trkpt lat="43.2921467" lon="12.8506017"><ele>780.0</ele><time>2026-05-02T15:12:53.993Z</time></trkpt><trkpt lat="43.2922267" lon="12.8505617"><ele>780.0</ele><time>2026-05-02T15:12:54.994Z</time></trkpt><trkpt lat="43.2923117" lon="12.8505117"><ele>778.6</ele><time>2026-05-02T15:12:55.994Z</time></trkpt><trkpt lat="43.2924033" lon="12.8504483"><ele>777.2</ele><time>2026-05-02T15:12:56.994Z</time></trkpt><trkpt lat="43.292495" lon="12.8503983"><ele>775.8</ele><time>2026-05-02T15:12:57.995Z</time></trkpt><trkpt lat="43.2925867" lon="12.8503733"><ele>774.4</ele><time>2026-05-02T15:12:58.99Z</time></trkpt><trkpt lat="43.2926867" lon="12.8503317"><ele>773.0</ele><time>2026-05-02T15:12:59.993Z</time></trkpt><trkpt lat="43.2927783" lon="12.8503183"><ele>773.0000000000001</ele><time>2026-05-02T15:13:00.994Z</time></trkpt><trkpt lat="43.2928717" lon="12.8502867"><ele>773.0</ele><time>2026-05-02T15:13:01.995Z</time></trkpt><trkpt lat="43.2929633" lon="12.8502617"><ele>773.0</ele><time>2026-05-02T15:13:02.995Z</time></trkpt><trkpt lat="43.2930517" lon="12.8502483"><ele>773.0</ele><time>2026-05-02T15:13:03.995Z</time></trkpt><trkpt lat="43.293115" lon="12.85023"><ele>773.0000000000001</ele><time>2026-05-02T15:13:04.994Z</time></trkpt><trkpt lat="43.2932033" lon="12.850215"><ele>773.0</ele><time>2026-05-02T15:13:05.993Z</time></trkpt><trkpt lat="43.2932767" lon="12.8502417"><ele>770.5999999999999</ele><time>2026-05-02T15:13:07.994Z</time></trkpt><trkpt lat="43.2933567" lon="12.850255"><ele>768.1999999999999</ele><time>2026-05-02T15:13:08.994Z</time></trkpt><trkpt lat="43.293425" lon="12.850255"><ele>765.8</ele><time>2026-05-02T15:13:09.993Z</time></trkpt><trkpt lat="43.293525" lon="12.8502783"><ele>763.4</ele><time>2026-05-02T15:13:10.993Z</time></trkpt><trkpt lat="43.293635" lon="12.8502833"><ele>761.0</ele><time>2026-05-02T15:13:11.994Z</time></trkpt><trkpt lat="43.2937617" lon="12.8502833"><ele>761.0</ele><time>2026-05-02T15:13:12.993Z</time></trkpt><trkpt lat="43.293895" lon="12.8502967"><ele>761.0</ele><time>2026-05-02T15:13:13.994Z</time></trkpt><trkpt lat="43.2940267" lon="12.850315"><ele>761.0</ele><time>2026-05-02T15:13:14.994Z</time></trkpt><trkpt lat="43.29414" lon="12.850335"><ele>761.0</ele><time>2026-05-02T15:13:15.993Z</time></trkpt><trkpt lat="43.2942317" lon="12.8503567"><ele>757.5</ele><time>2026-05-02T15:13:16.994Z</time></trkpt><trkpt lat="43.2943683" lon="12.8503683"><ele>754.0</ele><time>2026-05-02T15:13:17.994Z</time></trkpt><trkpt lat="43.2944833" lon="12.8504"><ele>750.5</ele><time>2026-05-02T15:13:18.995Z</time></trkpt><trkpt lat="43.294595" lon="12.8504217"><ele>747.0</ele><time>2026-05-02T15:13:19.994Z</time></trkpt><trkpt lat="43.2947017" lon="12.8504483"><ele>742.5</ele><time>2026-05-02T15:13:20.994Z</time></trkpt><trkpt lat="43.2948233" lon="12.850495"><ele>738.0</ele><time>2026-05-02T15:13:21.993Z</time></trkpt><trkpt lat="43.2949617" lon="12.8505433"><ele>733.5</ele><time>2026-05-02T15:13:22.993Z</time></trkpt><trkpt lat="43.2950967" lon="12.85059"><ele>729.0</ele><time>2026-05-02T15:13:23.993Z</time></trkpt><trkpt lat="43.2952083" lon="12.8506383"><ele>729.0</ele><time>2026-05-02T15:13:24.993Z</time></trkpt><trkpt lat="43.2953117" lon="12.8506933"><ele>729.0</ele><time>2026-05-02T15:13:25.993Z</time></trkpt><trkpt lat="43.295405" lon="12.8507617"><ele>729.0</ele><time>2026-05-02T15:13:26.993Z</time></trkpt><trkpt lat="43.2954967" lon="12.8508267"><ele>729.0</ele><time>2026-05-02T15:13:27.993Z</time></trkpt><trkpt lat="43.2955517" lon="12.8508733"><ele>729.0</ele><time>2026-05-02T15:13:28.999Z</time></trkpt><trkpt lat="43.29564" lon="12.850935"><ele>727.8571428571429</ele><time>2026-05-02T15:13:29.993Z</time></trkpt><trkpt lat="43.2957133" lon="12.850985"><ele>726.7142857142857</ele><time>2026-05-02T15:13:30.994Z</time></trkpt><trkpt lat="43.29577" lon="12.851035"><ele>725.5714285714286</ele><time>2026-05-02T15:13:31.993Z</time></trkpt><trkpt lat="43.2958217" lon="12.8511"><ele>724.4285714285714</ele><time>2026-05-02T15:14:02.994Z</time></trkpt><trkpt lat="43.2958417" lon="12.8511917"><ele>723.2857142857142</ele><time>2026-05-02T15:14:04.994Z</time></trkpt><trkpt lat="43.2958267" lon="12.851285"><ele>722.1428571428571</ele><time>2026-05-02T15:14:06.994Z</time></trkpt><trkpt lat="43.2958167" lon="12.8514017"><ele>721.0</ele><time>2026-05-02T15:14:08.994Z</time></trkpt><trkpt lat="43.2958083" lon="12.85155"><ele>721.0</ele><time>2026-05-02T15:14:10.993Z</time></trkpt><trkpt lat="43.2957983" lon="12.8516367"><ele>721.0</ele><time>2026-05-02T15:14:11.993Z</time></trkpt><trkpt lat="43.2957933" lon="12.8517367"><ele>721.0</ele><time>2026-05-02T15:14:12.994Z</time></trkpt><trkpt lat="43.29579" lon="12.8518367"><ele>721.0</ele><time>2026-05-02T15:14:13.994Z</time></trkpt><trkpt lat="43.295815" lon="12.8520317"><ele>721.0</ele><time>2026-05-02T15:14:14.994Z</time></trkpt><trkpt lat="43.29584" lon="12.8522"><ele>723.8</ele><time>2026-05-02T15:14:15.994Z</time></trkpt><trkpt lat="43.29587" lon="12.85238"><ele>726.5999999999999</ele><time>2026-05-02T15:14:16.993Z</time></trkpt><trkpt lat="43.2958867" lon="12.8525067"><ele>729.4</ele><time>2026-05-02T15:14:17.992Z</time></trkpt><trkpt lat="43.2959033" lon="12.85266"><ele>732.2</ele><time>2026-05-02T15:14:18.994Z</time></trkpt><trkpt lat="43.2959217" lon="12.85279"><ele>735.0</ele><time>2026-05-02T15:14:19.993Z</time></trkpt><trkpt lat="43.2959467" lon="12.85293"><ele>737.8</ele><time>2026-05-02T15:14:20.996Z</time></trkpt><trkpt lat="43.2959817" lon="12.8531033"><ele>740.6</ele><time>2026-05-02T15:14:21.993Z</time></trkpt><trkpt lat="43.2960033" lon="12.8532117"><ele>743.4000000000001</ele><time>2026-05-02T15:14:22.992Z</time></trkpt><trkpt lat="43.29603" lon="12.8533317"><ele>746.2</ele><time>2026-05-02T15:14:23.994Z</time></trkpt><trkpt lat="43.2960567" lon="12.8534583"><ele>749.0</ele><time>2026-05-02T15:14:24.995Z</time></trkpt><trkpt lat="43.296075" lon="12.85357"><ele>751.6</ele><time>2026-05-02T15:14:26.994Z</time></trkpt><trkpt lat="43.2961317" lon="12.8536767"><ele>754.2</ele><time>2026-05-02T15:14:28.992Z</time></trkpt><trkpt lat="43.2961867" lon="12.85379"><ele>756.8000000000001</ele><time>2026-05-02T15:14:45.993Z</time></trkpt><trkpt lat="43.29626" lon="12.85376"><ele>759.4000000000001</ele><time>2026-05-02T15:15:29.992Z</time></trkpt><trkpt lat="43.2962567" lon="12.8536433"><ele>762.0</ele><time>2026-05-02T15:15:32.992Z</time></trkpt><trkpt lat="43.2962583" lon="12.853515"><ele>759.8333333333334</ele><time>2026-05-02T15:15:35.993Z</time></trkpt><trkpt lat="43.2962517" lon="12.853395"><ele>757.6666666666666</ele><time>2026-05-02T15:15:37.993Z</time></trkpt><trkpt lat="43.2962383" lon="12.8532483"><ele>755.5</ele><time>2026-05-02T15:15:40.994Z</time></trkpt><trkpt lat="43.2962333" lon="12.85313"><ele>753.3333333333333</ele><time>2026-05-02T15:15:42.994Z</time></trkpt><trkpt lat="43.29622" lon="12.8530067"><ele>751.1666666666666</ele><time>2026-05-02T15:15:44.994Z</time></trkpt><trkpt lat="43.2962217" lon="12.8529067"><ele>749.0</ele><time>2026-05-02T15:15:46.992Z</time></trkpt><trkpt lat="43.2962167" lon="12.8528183"><ele>749.0</ele><time>2026-05-02T15:15:47.994Z</time></trkpt><trkpt lat="43.296215" lon="12.8527233"><ele>749.0</ele><time>2026-05-02T15:15:48.994Z</time></trkpt><trkpt lat="43.296205" lon="12.8526117"><ele>749.0</ele><time>2026-05-02T15:15:49.994Z</time></trkpt><trkpt lat="43.296195" lon="12.8524517"><ele>749.0</ele><time>2026-05-02T15:15:50.993Z</time></trkpt><trkpt lat="43.2961767" lon="12.8522933"><ele>749.0</ele><time>2026-05-02T15:15:51.994Z</time></trkpt><trkpt lat="43.2961517" lon="12.8521283"><ele>746.6666666666666</ele><time>2026-05-02T15:15:52.994Z</time></trkpt><trkpt lat="43.2961367" lon="12.852005"><ele>744.3333333333333</ele><time>2026-05-02T15:15:53.993Z</time></trkpt><trkpt lat="43.2961233" lon="12.8519"><ele>742.0</ele><time>2026-05-02T15:15:54.994Z</time></trkpt><trkpt lat="43.2961117" lon="12.85179"><ele>739.6666666666666</ele><time>2026-05-02T15:15:55.993Z</time></trkpt><trkpt lat="43.2961017" lon="12.8516817"><ele>737.3333333333334</ele><time>2026-05-02T15:15:56.996Z</time></trkpt><trkpt lat="43.296095" lon="12.8515717"><ele>735.0</ele><time>2026-05-02T15:15:57.993Z</time></trkpt><trkpt lat="43.2960883" lon="12.8514633"><ele>732.6666666666666</ele><time>2026-05-02T15:15:58.993Z</time></trkpt><trkpt lat="43.2960817" lon="12.8513633"><ele>730.3333333333334</ele><time>2026-05-02T15:15:59.994Z</time></trkpt><trkpt lat="43.2960617" lon="12.8512667"><ele>728.0</ele><time>2026-05-02T15:16:00.995Z</time></trkpt><trkpt lat="43.296055" lon="12.8511633"><ele>725.6666666666667</ele><time>2026-05-02T15:16:01.992Z</time></trkpt><trkpt lat="43.2960333" lon="12.85105"><ele>723.3333333333334</ele><time>2026-05-02T15:16:02.995Z</time></trkpt><trkpt lat="43.2960167" lon="12.85094"><ele>721.0</ele><time>2026-05-02T15:16:03.994Z</time></trkpt><trkpt lat="43.296005" lon="12.850825"><ele>718.6666666666667</ele><time>2026-05-02T15:16:04.993Z</time></trkpt><trkpt lat="43.2959983" lon="12.8507083"><ele>716.3333333333334</ele><time>2026-05-02T15:16:05.994Z</time></trkpt><trkpt lat="43.2960067" lon="12.8506017"><ele>714.0</ele><time>2026-05-02T15:16:06.994Z</time></trkpt><trkpt lat="43.2960133" lon="12.85049"><ele>711.6666666666666</ele><time>2026-05-02T15:16:07.994Z</time></trkpt><trkpt lat="43.2960217" lon="12.8503933"><ele>709.3333333333333</ele><time>2026-05-02T15:16:08.994Z</time></trkpt><trkpt lat="43.2960167" lon="12.850215"><ele>707.0</ele><time>2026-05-02T15:16:10.993Z</time></trkpt><trkpt lat="43.296015" lon="12.8501167"><ele>705.6666666666666</ele><time>2026-05-02T15:16:11.993Z</time></trkpt><trkpt lat="43.29602" lon="12.850015"><ele>704.3333333333333</ele><time>2026-05-02T15:16:12.994Z</time></trkpt><trkpt lat="43.29603" lon="12.8498983"><ele>703.0</ele><time>2026-05-02T15:16:13.993Z</time></trkpt><trkpt lat="43.296045" lon="12.84977"><ele>701.6666666666666</ele><time>2026-05-02T15:16:14.995Z</time></trkpt><trkpt lat="43.2960533" lon="12.84964"><ele>700.3333333333334</ele><time>2026-05-02T15:16:15.993Z</time></trkpt><trkpt lat="43.296035" lon="12.8495467"><ele>699.0</ele><time>2026-05-02T15:16:16.992Z</time></trkpt><trkpt lat="43.2960267" lon="12.8494233"><ele>696.6</ele><time>2026-05-02T15:16:17.993Z</time></trkpt><trkpt lat="43.2959933" lon="12.8492883"><ele>694.2</ele><time>2026-05-02T15:16:18.995Z</time></trkpt><trkpt lat="43.29598" lon="12.8491533"><ele>691.8000000000001</ele><time>2026-05-02T15:16:19.994Z</time></trkpt><trkpt lat="43.2959583" lon="12.849015"><ele>689.4000000000001</ele><time>2026-05-02T15:16:20.995Z</time></trkpt><trkpt lat="43.2959267" lon="12.8488967"><ele>687.0</ele><time>2026-05-02T15:16:21.995Z</time></trkpt><trkpt lat="43.2959067" lon="12.8488133"><ele>687.0</ele><time>2026-05-02T15:16:22.995Z</time></trkpt><trkpt lat="43.2959017" lon="12.84872"><ele>687.0</ele><time>2026-05-02T15:16:24.994Z</time></trkpt><trkpt lat="43.29597" lon="12.84864"><ele>687.0</ele><time>2026-05-02T15:16:28.993Z</time></trkpt><trkpt lat="43.29608" lon="12.8486067"><ele>687.0</ele><time>2026-05-02T15:16:30.993Z</time></trkpt><trkpt lat="43.2961833" lon="12.8484933"><ele>687.0</ele><time>2026-05-02T15:16:32.994Z</time></trkpt><trkpt lat="43.2962283" lon="12.8484067"><ele>684.2</ele><time>2026-05-02T15:16:33.993Z</time></trkpt><trkpt lat="43.2962833" lon="12.848335"><ele>681.4000000000001</ele><time>2026-05-02T15:16:34.992Z</time></trkpt><trkpt lat="43.2963467" lon="12.8482433"><ele>678.5999999999999</ele><time>2026-05-02T15:16:35.992Z</time></trkpt><trkpt lat="43.2964117" lon="12.8481567"><ele>675.8</ele><time>2026-05-02T15:16:36.993Z</time></trkpt><trkpt lat="43.2964867" lon="12.8480533"><ele>673.0</ele><time>2026-05-02T15:16:37.992Z</time></trkpt><trkpt lat="43.2965667" lon="12.8479383"><ele>670.4</ele><time>2026-05-02T15:16:38.994Z</time></trkpt><trkpt lat="43.2966467" lon="12.8478217"><ele>667.8</ele><time>2026-05-02T15:16:39.992Z</time></trkpt><trkpt lat="43.2967283" lon="12.847715"><ele>665.2</ele><time>2026-05-02T15:16:40.993Z</time></trkpt><trkpt lat="43.296805" lon="12.84762"><ele>662.6</ele><time>2026-05-02T15:16:41.993Z</time></trkpt><trkpt lat="43.29688" lon="12.8475483"><ele>660.0</ele><time>2026-05-02T15:16:42.994Z</time></trkpt><trkpt lat="43.2969683" lon="12.8474917"><ele>659.4</ele><time>2026-05-02T15:16:43.994Z</time></trkpt><trkpt lat="43.297065" lon="12.8474667"><ele>658.8</ele><time>2026-05-02T15:16:44.992Z</time></trkpt><trkpt lat="43.2971717" lon="12.847435"><ele>658.2</ele><time>2026-05-02T15:16:45.994Z</time></trkpt><trkpt lat="43.297265" lon="12.847415"><ele>657.6</ele><time>2026-05-02T15:16:46.992Z</time></trkpt><trkpt lat="43.2973633" lon="12.8474033"><ele>657.0</ele><time>2026-05-02T15:16:47.994Z</time></trkpt><trkpt lat="43.2974683" lon="12.8474"><ele>655.2</ele><time>2026-05-02T15:16:48.994Z</time></trkpt><trkpt lat="43.2975767" lon="12.8473983"><ele>653.4000000000001</ele><time>2026-05-02T15:16:49.993Z</time></trkpt><trkpt lat="43.2976867" lon="12.8473983"><ele>651.5999999999999</ele><time>2026-05-02T15:16:50.993Z</time></trkpt><trkpt lat="43.2978017" lon="12.8473933"><ele>649.8</ele><time>2026-05-02T15:16:51.992Z</time></trkpt><trkpt lat="43.2979033" lon="12.8473767"><ele>648.0</ele><time>2026-05-02T15:16:52.992Z</time></trkpt><trkpt lat="43.2979917" lon="12.8473433"><ele>648.0</ele><time>2026-05-02T15:16:53.992Z</time></trkpt><trkpt lat="43.2980667" lon="12.8473233"><ele>648.0</ele><time>2026-05-02T15:16:54.994Z</time></trkpt><trkpt lat="43.298155" lon="12.847295"><ele>648.0</ele><time>2026-05-02T15:16:55.993Z</time></trkpt><trkpt lat="43.2982267" lon="12.84728"><ele>648.0</ele><time>2026-05-02T15:16:56.995Z</time></trkpt><trkpt lat="43.2983017" lon="12.8472717"><ele>648.0</ele><time>2026-05-02T15:16:57.993Z</time></trkpt><trkpt lat="43.2984333" lon="12.847255"><ele>648.0</ele><time>2026-05-02T15:16:59.993Z</time></trkpt><trkpt lat="43.2985333" lon="12.8472633"><ele>647.0</ele><time>2026-05-02T15:17:00.993Z</time></trkpt><trkpt lat="43.2986317" lon="12.8472717"><ele>646.0</ele><time>2026-05-02T15:17:01.993Z</time></trkpt><trkpt lat="43.2987517" lon="12.8472983"><ele>645.0</ele><time>2026-05-02T15:17:02.995Z</time></trkpt><trkpt lat="43.298865" lon="12.8473033"><ele>644.0</ele><time>2026-05-02T15:17:03.994Z</time></trkpt><trkpt lat="43.2989667" lon="12.847305"><ele>643.0</ele><time>2026-05-02T15:17:04.993Z</time></trkpt><trkpt lat="43.299055" lon="12.8473117"><ele>641.8</ele><time>2026-05-02T15:17:05.991Z</time></trkpt><trkpt lat="43.2991617" lon="12.847325"><ele>640.5999999999999</ele><time>2026-05-02T15:17:06.992Z</time></trkpt><trkpt lat="43.299255" lon="12.847335"><ele>639.4000000000001</ele><time>2026-05-02T15:17:07.994Z</time></trkpt><trkpt lat="43.2993617" lon="12.847345"><ele>638.2</ele><time>2026-05-02T15:17:08.995Z</time></trkpt><trkpt lat="43.299475" lon="12.8473583"><ele>637.0</ele><time>2026-05-02T15:17:09.993Z</time></trkpt><trkpt lat="43.299595" lon="12.8473683"><ele>637.0</ele><time>2026-05-02T15:17:10.993Z</time></trkpt><trkpt lat="43.29972" lon="12.847385"><ele>637.0</ele><time>2026-05-02T15:17:11.992Z</time></trkpt><trkpt lat="43.29985" lon="12.8473867"><ele>637.0</ele><time>2026-05-02T15:17:12.994Z</time></trkpt><trkpt lat="43.2999783" lon="12.8474017"><ele>637.0</ele><time>2026-05-02T15:17:13.994Z</time></trkpt><trkpt lat="43.3001083" lon="12.8474083"><ele>636.25</ele><time>2026-05-02T15:17:14.994Z</time></trkpt><trkpt lat="43.3002483" lon="12.8474317"><ele>635.5</ele><time>2026-05-02T15:17:15.992Z</time></trkpt><trkpt lat="43.30039" lon="12.8474533"><ele>634.75</ele><time>2026-05-02T15:17:16.994Z</time></trkpt><trkpt lat="43.3005117" lon="12.847465"><ele>634.0</ele><time>2026-05-02T15:17:17.995Z</time></trkpt><trkpt lat="43.3006417" lon="12.8474733"><ele>633.0</ele><time>2026-05-02T15:17:18.993Z</time></trkpt><trkpt lat="43.3007783" lon="12.8474833"><ele>632.0</ele><time>2026-05-02T15:17:19.993Z</time></trkpt><trkpt lat="43.3009117" lon="12.84749"><ele>631.0</ele><time>2026-05-02T15:17:20.993Z</time></trkpt><trkpt lat="43.30104" lon="12.847495"><ele>630.0</ele><time>2026-05-02T15:17:21.993Z</time></trkpt><trkpt lat="43.3011717" lon="12.8475033"><ele>630.0</ele><time>2026-05-02T15:17:22.995Z</time></trkpt><trkpt lat="43.3012817" lon="12.8475083"><ele>630.0</ele><time>2026-05-02T15:17:23.994Z</time></trkpt><trkpt lat="43.3013917" lon="12.84752"><ele>630.0</ele><time>2026-05-02T15:17:24.995Z</time></trkpt><trkpt lat="43.3015067" lon="12.8475467"><ele>630.0</ele><time>2026-05-02T15:17:25.993Z</time></trkpt><trkpt lat="43.3016167" lon="12.847565"><ele>630.0</ele><time>2026-05-02T15:17:26.994Z</time></trkpt><trkpt lat="43.3017167" lon="12.84759"><ele>628.2</ele><time>2026-05-02T15:17:27.993Z</time></trkpt><trkpt lat="43.301815" lon="12.8476033"><ele>626.4</ele><time>2026-05-02T15:17:28.994Z</time></trkpt><trkpt lat="43.30191" lon="12.847605"><ele>624.6</ele><time>2026-05-02T15:17:29.992Z</time></trkpt><trkpt lat="43.302005" lon="12.8476083"><ele>622.8</ele><time>2026-05-02T15:17:30.992Z</time></trkpt><trkpt lat="43.3020933" lon="12.8476083"><ele>621.0</ele><time>2026-05-02T15:17:31.991Z</time></trkpt><trkpt lat="43.3021817" lon="12.8476183"><ele>616.75</ele><time>2026-05-02T15:17:32.994Z</time></trkpt><trkpt lat="43.3022733" lon="12.8476483"><ele>612.5</ele><time>2026-05-02T15:17:33.992Z</time></trkpt><trkpt lat="43.3023783" lon="12.8476967"><ele>608.25</ele><time>2026-05-02T15:17:34.993Z</time></trkpt><trkpt lat="43.3025" lon="12.8477833"><ele>604.0</ele><time>2026-05-02T15:17:35.994Z</time></trkpt><trkpt lat="43.3026217" lon="12.847855"><ele>604.0</ele><time>2026-05-02T15:17:36.993Z</time></trkpt><trkpt lat="43.3027383" lon="12.8479117"><ele>604.0</ele><time>2026-05-02T15:17:37.993Z</time></trkpt><trkpt lat="43.30284" lon="12.8479667"><ele>604.0</ele><time>2026-05-02T15:17:38.993Z</time></trkpt><trkpt lat="43.3029333" lon="12.848"><ele>604.0</ele><time>2026-05-02T15:17:39.992Z</time></trkpt><trkpt lat="43.3030183" lon="12.8480267"><ele>604.0</ele><time>2026-05-02T15:17:40.992Z</time></trkpt><trkpt lat="43.3031017" lon="12.8480667"><ele>602.0</ele><time>2026-05-02T15:17:41.994Z</time></trkpt><trkpt lat="43.3031867" lon="12.8481333"><ele>600.0</ele><time>2026-05-02T15:17:42.994Z</time></trkpt><trkpt lat="43.303275" lon="12.8482167"><ele>598.0</ele><time>2026-05-02T15:17:43.992Z</time></trkpt><trkpt lat="43.30336" lon="12.848285"><ele>596.0</ele><time>2026-05-02T15:17:44.994Z</time></trkpt><trkpt lat="43.3034367" lon="12.8483533"><ele>594.0</ele><time>2026-05-02T15:17:45.993Z</time></trkpt><trkpt lat="43.3035133" lon="12.8484367"><ele>592.2</ele><time>2026-05-02T15:17:46.992Z</time></trkpt><trkpt lat="43.303595" lon="12.8485267"><ele>590.4</ele><time>2026-05-02T15:17:47.993Z</time></trkpt><trkpt lat="43.3036883" lon="12.84861"><ele>588.6</ele><time>2026-05-02T15:17:48.994Z</time></trkpt><trkpt lat="43.30379" lon="12.848685"><ele>586.8</ele><time>2026-05-02T15:17:49.994Z</time></trkpt><trkpt lat="43.3038883" lon="12.8487583"><ele>585.0</ele><time>2026-05-02T15:17:50.993Z</time></trkpt><trkpt lat="43.3039783" lon="12.84885"><ele>585.0</ele><time>2026-05-02T15:17:51.993Z</time></trkpt><trkpt lat="43.304065" lon="12.8489583"><ele>585.0</ele><time>2026-05-02T15:17:52.992Z</time></trkpt><trkpt lat="43.3041517" lon="12.84908"><ele>585.0</ele><time>2026-05-02T15:17:53.994Z</time></trkpt><trkpt lat="43.30424" lon="12.849205"><ele>585.0</ele><time>2026-05-02T15:17:54.993Z</time></trkpt><trkpt lat="43.3043283" lon="12.8493333"><ele>581.75</ele><time>2026-05-02T15:17:55.993Z</time></trkpt><trkpt lat="43.3044133" lon="12.849465"><ele>578.5</ele><time>2026-05-02T15:17:56.994Z</time></trkpt><trkpt lat="43.3044983" lon="12.8496"><ele>575.25</ele><time>2026-05-02T15:17:57.993Z</time></trkpt><trkpt lat="43.304585" lon="12.8497317"><ele>572.0</ele><time>2026-05-02T15:17:58.993Z</time></trkpt><trkpt lat="43.304675" lon="12.8498583"><ele>572.4</ele><time>2026-05-02T15:17:59.994Z</time></trkpt><trkpt lat="43.3047583" lon="12.849985"><ele>572.8000000000001</ele><time>2026-05-02T15:18:00.994Z</time></trkpt><trkpt lat="43.3048333" lon="12.8501033"><ele>573.2</ele><time>2026-05-02T15:18:01.993Z</time></trkpt><trkpt lat="43.3048983" lon="12.850215"><ele>573.6</ele><time>2026-05-02T15:18:02.993Z</time></trkpt><trkpt lat="43.3049517" lon="12.8503283"><ele>574.0</ele><time>2026-05-02T15:18:03.994Z</time></trkpt><trkpt lat="43.3049933" lon="12.85044"><ele>574.8</ele><time>2026-05-02T15:18:04.992Z</time></trkpt><trkpt lat="43.3050267" lon="12.8505467"><ele>575.5999999999999</ele><time>2026-05-02T15:18:05.991Z</time></trkpt><trkpt lat="43.3050533" lon="12.8506717"><ele>576.4</ele><time>2026-05-02T15:18:06.993Z</time></trkpt><trkpt lat="43.3050767" lon="12.8507983"><ele>577.1999999999999</ele><time>2026-05-02T15:18:07.993Z</time></trkpt><trkpt lat="43.30511" lon="12.85092"><ele>578.0</ele><time>2026-05-02T15:18:08.993Z</time></trkpt><trkpt lat="43.3051533" lon="12.8510233"><ele>575.4</ele><time>2026-05-02T15:18:09.992Z</time></trkpt><trkpt lat="43.305195" lon="12.8511167"><ele>572.8</ele><time>2026-05-02T15:18:10.992Z</time></trkpt><trkpt lat="43.3052617" lon="12.85123"><ele>570.2</ele><time>2026-05-02T15:18:11.994Z</time></trkpt><trkpt lat="43.3053333" lon="12.85134"><ele>567.6</ele><time>2026-05-02T15:18:12.994Z</time></trkpt><trkpt lat="43.3054017" lon="12.851435"><ele>565.0</ele><time>2026-05-02T15:18:13.992Z</time></trkpt><trkpt lat="43.30546" lon="12.8515133"><ele>565.0</ele><time>2026-05-02T15:18:14.994Z</time></trkpt><trkpt lat="43.3055067" lon="12.851585"><ele>565.0</ele><time>2026-05-02T15:18:15.993Z</time></trkpt><trkpt lat="43.30555" lon="12.8516633"><ele>565.0</ele><time>2026-05-02T15:18:16.992Z</time></trkpt><trkpt lat="43.3055967" lon="12.8517617"><ele>565.0</ele><time>2026-05-02T15:18:17.993Z</time></trkpt><trkpt lat="43.3056467" lon="12.8518733"><ele>565.0</ele><time>2026-05-02T15:18:18.992Z</time></trkpt><trkpt lat="43.3056967" lon="12.85199"><ele>565.0</ele><time>2026-05-02T15:18:19.993Z</time></trkpt><trkpt lat="43.30575" lon="12.852115"><ele>564.4</ele><time>2026-05-02T15:18:20.994Z</time></trkpt><trkpt lat="43.3057967" lon="12.8522467"><ele>563.8</ele><time>2026-05-02T15:18:21.993Z</time></trkpt><trkpt lat="43.3058417" lon="12.8523767"><ele>563.2</ele><time>2026-05-02T15:18:22.993Z</time></trkpt><trkpt lat="43.30589" lon="12.8524933"><ele>562.6</ele><time>2026-05-02T15:18:23.993Z</time></trkpt><trkpt lat="43.3059417" lon="12.8526067"><ele>562.0</ele><time>2026-05-02T15:18:24.992Z</time></trkpt><trkpt lat="43.3059967" lon="12.8527083"><ele>559.2</ele><time>2026-05-02T15:18:25.993Z</time></trkpt><trkpt lat="43.306055" lon="12.852815"><ele>556.4000000000001</ele><time>2026-05-02T15:18:26.994Z</time></trkpt><trkpt lat="43.306105" lon="12.85292"><ele>553.5999999999999</ele><time>2026-05-02T15:18:27.993Z</time></trkpt><trkpt lat="43.306145" lon="12.8530283"><ele>550.8</ele><time>2026-05-02T15:18:28.995Z</time></trkpt><trkpt lat="43.30618" lon="12.8531433"><ele>548.0</ele><time>2026-05-02T15:18:29.995Z</time></trkpt><trkpt lat="43.3062217" lon="12.8532733"><ele>548.0</ele><time>2026-05-02T15:18:30.993Z</time></trkpt><trkpt lat="43.3062633" lon="12.8534067"><ele>548.0</ele><time>2026-05-02T15:18:31.992Z</time></trkpt><trkpt lat="43.3063017" lon="12.8535333"><ele>548.0</ele><time>2026-05-02T15:18:32.993Z</time></trkpt><trkpt lat="43.3063383" lon="12.8536567"><ele>548.0</ele><time>2026-05-02T15:18:33.991Z</time></trkpt><trkpt lat="43.3063733" lon="12.8537733"><ele>548.0</ele><time>2026-05-02T15:18:34.994Z</time></trkpt><trkpt lat="43.3064133" lon="12.85389"><ele>545.8</ele><time>2026-05-02T15:18:35.993Z</time></trkpt><trkpt lat="43.306455" lon="12.8540083"><ele>543.5999999999999</ele><time>2026-05-02T15:18:36.994Z</time></trkpt><trkpt lat="43.3064933" lon="12.8541317"><ele>541.4000000000001</ele><time>2026-05-02T15:18:37.992Z</time></trkpt><trkpt lat="43.3065367" lon="12.8542533"><ele>539.2</ele><time>2026-05-02T15:18:38.995Z</time></trkpt><trkpt lat="43.3065817" lon="12.8543717"><ele>537.0</ele><time>2026-05-02T15:18:39.993Z</time></trkpt><trkpt lat="43.30663" lon="12.854485"><ele>535.0</ele><time>2026-05-02T15:18:40.994Z</time></trkpt><trkpt lat="43.3066783" lon="12.85459"><ele>533.0</ele><time>2026-05-02T15:18:41.994Z</time></trkpt><trkpt lat="43.30672" lon="12.8547133"><ele>531.0</ele><time>2026-05-02T15:18:42.992Z</time></trkpt><trkpt lat="43.306765" lon="12.8548317"><ele>529.0</ele><time>2026-05-02T15:18:43.992Z</time></trkpt><trkpt lat="43.3068067" lon="12.8549483"><ele>527.0</ele><time>2026-05-02T15:18:44.994Z</time></trkpt><trkpt lat="43.3068383" lon="12.8550633"><ele>523.1666666666666</ele><time>2026-05-02T15:18:45.993Z</time></trkpt><trkpt lat="43.3068633" lon="12.8551817"><ele>519.3333333333333</ele><time>2026-05-02T15:18:46.992Z</time></trkpt><trkpt lat="43.3068783" lon="12.8553033"><ele>515.5</ele><time>2026-05-02T15:18:47.993Z</time></trkpt><trkpt lat="43.3069033" lon="12.8554133"><ele>511.66666666666663</ele><time>2026-05-02T15:18:48.993Z</time></trkpt><trkpt lat="43.3069333" lon="12.85553"><ele>507.8333333333333</ele><time>2026-05-02T15:18:49.991Z</time></trkpt><trkpt lat="43.30697" lon="12.85564"><ele>504.0</ele><time>2026-05-02T15:18:50.994Z</time></trkpt><trkpt lat="43.3070033" lon="12.8557367"><ele>504.0</ele><time>2026-05-02T15:18:51.992Z</time></trkpt><trkpt lat="43.3070383" lon="12.8558367"><ele>504.0</ele><time>2026-05-02T15:18:52.994Z</time></trkpt><trkpt lat="43.3070683" lon="12.8559417"><ele>504.0</ele><time>2026-05-02T15:18:53.992Z</time></trkpt><trkpt lat="43.3070867" lon="12.85605"><ele>504.0</ele><time>2026-05-02T15:18:54.994Z</time></trkpt><trkpt lat="43.3070983" lon="12.856155"><ele>504.0</ele><time>2026-05-02T15:18:55.992Z</time></trkpt><trkpt lat="43.3071167" lon="12.856255"><ele>504.0</ele><time>2026-05-02T15:18:56.993Z</time></trkpt><trkpt lat="43.3071717" lon="12.856385"><ele>500.6666666666667</ele><time>2026-05-02T15:18:58.993Z</time></trkpt><trkpt lat="43.3072317" lon="12.8564617"><ele>497.33333333333337</ele><time>2026-05-02T15:19:00.993Z</time></trkpt><trkpt lat="43.3072717" lon="12.8565567"><ele>494.0</ele><time>2026-05-02T15:19:02.994Z</time></trkpt><trkpt lat="43.30733" lon="12.8566667"><ele>490.6666666666667</ele><time>2026-05-02T15:19:04.993Z</time></trkpt><trkpt lat="43.307385" lon="12.8568083"><ele>487.33333333333337</ele><time>2026-05-02T15:19:06.992Z</time></trkpt><trkpt lat="43.30742" lon="12.8568933"><ele>484.0</ele><time>2026-05-02T15:19:07.993Z</time></trkpt><trkpt lat="43.307465" lon="12.8569967"><ele>481.2</ele><time>2026-05-02T15:19:08.993Z</time></trkpt><trkpt lat="43.3075333" lon="12.8571183"><ele>478.4</ele><time>2026-05-02T15:19:09.992Z</time></trkpt><trkpt lat="43.30759" lon="12.8572167"><ele>475.6</ele><time>2026-05-02T15:19:10.994Z</time></trkpt><trkpt lat="43.307635" lon="12.857295"><ele>472.8</ele><time>2026-05-02T15:19:11.993Z</time></trkpt><trkpt lat="43.307675" lon="12.8574167"><ele>470.0</ele><time>2026-05-02T15:19:13.993Z</time></trkpt><trkpt lat="43.30756" lon="12.8574083"><ele>470.0</ele><time>2026-05-02T15:19:16.994Z</time></trkpt><trkpt lat="43.307485" lon="12.8573817"><ele>470.0</ele><time>2026-05-02T15:19:17.994Z</time></trkpt><trkpt lat="43.3073967" lon="12.857355"><ele>470.0</ele><time>2026-05-02T15:19:18.993Z</time></trkpt><trkpt lat="43.307295" lon="12.857325"><ele>470.0</ele><time>2026-05-02T15:19:19.994Z</time></trkpt><trkpt lat="43.307195" lon="12.8572967"><ele>470.0</ele><time>2026-05-02T15:19:20.994Z</time></trkpt><trkpt lat="43.307085" lon="12.8572633"><ele>464.8</ele><time>2026-05-02T15:19:21.994Z</time></trkpt><trkpt lat="43.3069683" lon="12.8572283"><ele>459.6</ele><time>2026-05-02T15:19:22.995Z</time></trkpt><trkpt lat="43.3068667" lon="12.8571917"><ele>454.4</ele><time>2026-05-02T15:19:23.993Z</time></trkpt><trkpt lat="43.3067717" lon="12.8571583"><ele>449.2</ele><time>2026-05-02T15:19:24.994Z</time></trkpt><trkpt lat="43.306685" lon="12.85713"><ele>444.0</ele><time>2026-05-02T15:19:25.994Z</time></trkpt><trkpt lat="43.3066067" lon="12.8570967"><ele>444.0</ele><time>2026-05-02T15:19:26.994Z</time></trkpt><trkpt lat="43.3065233" lon="12.8570567"><ele>444.0</ele><time>2026-05-02T15:19:27.993Z</time></trkpt><trkpt lat="43.30644" lon="12.8570133"><ele>444.0</ele><time>2026-05-02T15:19:28.994Z</time></trkpt><trkpt lat="43.30636" lon="12.8569817"><ele>444.0</ele><time>2026-05-02T15:19:29.994Z</time></trkpt><trkpt lat="43.3062883" lon="12.8569517"><ele>444.0</ele><time>2026-05-02T15:19:30.994Z</time></trkpt><trkpt lat="43.30622" lon="12.8569283"><ele>444.0</ele><time>2026-05-02T15:19:31.995Z</time></trkpt><trkpt lat="43.3061433" lon="12.856895"><ele>439.1666666666667</ele><time>2026-05-02T15:19:33.994Z</time></trkpt><trkpt lat="43.3060617" lon="12.8568833"><ele>434.33333333333337</ele><time>2026-05-02T15:19:36.995Z</time></trkpt><trkpt lat="43.3059517" lon="12.85686"><ele>429.5</ele><time>2026-05-02T15:20:02.995Z</time></trkpt><trkpt lat="43.3058817" lon="12.8568583"><ele>424.6666666666667</ele><time>2026-05-02T15:20:05.995Z</time></trkpt><trkpt lat="43.3058067" lon="12.8568517"><ele>419.83333333333337</ele><time>2026-05-02T15:20:07.993Z</time></trkpt><trkpt lat="43.3057383" lon="12.8569317"><ele>415.0</ele><time>2026-05-02T15:20:10.994Z</time></trkpt><trkpt lat="43.3057267" lon="12.8570517"><ele>415.00000000000006</ele><time>2026-05-02T15:20:12.993Z</time></trkpt><trkpt lat="43.30572" lon="12.85714"><ele>415.0</ele><time>2026-05-02T15:20:13.993Z</time></trkpt><trkpt lat="43.3057183" lon="12.8572367"><ele>415.0</ele><time>2026-05-02T15:20:14.995Z</time></trkpt><trkpt lat="43.30572" lon="12.857325"><ele>415.0</ele><time>2026-05-02T15:20:15.994Z</time></trkpt><trkpt lat="43.3057533" lon="12.857485"><ele>415.00000000000006</ele><time>2026-05-02T15:20:17.994Z</time></trkpt><trkpt lat="43.3057867" lon="12.8576217"><ele>415.0</ele><time>2026-05-02T15:20:19.992Z</time></trkpt><trkpt lat="43.305845" lon="12.8577167"><ele>415.00000000000006</ele><time>2026-05-02T15:20:22.993Z</time></trkpt><trkpt lat="43.3059" lon="12.8577683"><ele>415.0</ele><time>2026-05-02T15:20:28.994Z</time></trkpt><trkpt lat="43.3059717" lon="12.85781"><ele>415.0</ele><time>2026-05-02T15:20:46.993Z</time></trkpt><trkpt lat="43.306045" lon="12.8578383"><ele>415.0</ele><time>2026-05-02T15:20:48.994Z</time></trkpt><trkpt lat="43.305995" lon="12.8577683"><ele>415.00000000000006</ele><time>2026-05-02T15:20:54.994Z</time></trkpt><trkpt lat="43.3059267" lon="12.8577217"><ele>415.0</ele><time>2026-05-02T15:20:56.988Z</time></trkpt><trkpt lat="43.305865" lon="12.8576117"><ele>415.0</ele><time>2026-05-02T15:20:59.995Z</time></trkpt><trkpt lat="43.3058233" lon="12.8574933"><ele>415.0</ele><time>2026-05-02T15:21:01.997Z</time></trkpt><trkpt lat="43.3057767" lon="12.8573233"><ele>415.0</ele><time>2026-05-02T15:21:03.993Z</time></trkpt><trkpt lat="43.30575" lon="12.857185"><ele>415.0</ele><time>2026-05-02T15:21:04.992Z</time></trkpt><trkpt lat="43.3057383" lon="12.8570617"><ele>415.0</ele><time>2026-05-02T15:21:05.994Z</time></trkpt><trkpt lat="43.3057217" lon="12.856955"><ele>415.00000000000006</ele><time>2026-05-02T15:21:06.994Z</time></trkpt><trkpt lat="43.3057117" lon="12.8568517"><ele>415.0</ele><time>2026-05-02T15:21:08.995Z</time></trkpt><trkpt lat="43.3057783" lon="12.8568717"><ele>415.0</ele><time>2026-05-02T15:21:10.993Z</time></trkpt><trkpt lat="43.3058883" lon="12.85687"><ele>415.0</ele><time>2026-05-02T15:21:12.993Z</time></trkpt><trkpt lat="43.30596" lon="12.8568717"><ele>415.00000000000006</ele><time>2026-05-02T15:21:13.992Z</time></trkpt><trkpt lat="43.3060283" lon="12.8568733"><ele>415.0</ele><time>2026-05-02T15:21:14.993Z</time></trkpt><trkpt lat="43.306105" lon="12.8568617"><ele>415.00000000000006</ele><time>2026-05-02T15:21:15.993Z</time></trkpt><trkpt lat="43.3061833" lon="12.8568683"><ele>415.0</ele><time>2026-05-02T15:21:16.995Z</time></trkpt><trkpt lat="43.306255" lon="12.8568917"><ele>415.0</ele><time>2026-05-02T15:21:17.993Z</time></trkpt><trkpt lat="43.3063317" lon="12.856925"><ele>415.0</ele><time>2026-05-02T15:21:18.992Z</time></trkpt><trkpt lat="43.3064167" lon="12.85696"><ele>415.00000000000006</ele><time>2026-05-02T15:21:19.994Z</time></trkpt><trkpt lat="43.30651" lon="12.856995"><ele>415.0</ele><time>2026-05-02T15:21:20.995Z</time></trkpt><trkpt lat="43.3066067" lon="12.85704"><ele>422.25</ele><time>2026-05-02T15:21:21.993Z</time></trkpt><trkpt lat="43.3067033" lon="12.8570783"><ele>429.5</ele><time>2026-05-02T15:21:22.993Z</time></trkpt><trkpt lat="43.3068217" lon="12.8571067"><ele>436.75</ele><time>2026-05-02T15:21:23.993Z</time></trkpt><trkpt lat="43.3069333" lon="12.8571583"><ele>444.0</ele><time>2026-05-02T15:21:24.992Z</time></trkpt><trkpt lat="43.3070517" lon="12.8572083"><ele>444.0</ele><time>2026-05-02T15:21:25.993Z</time></trkpt><trkpt lat="43.3071683" lon="12.857265"><ele>444.0</ele><time>2026-05-02T15:21:26.993Z</time></trkpt><trkpt lat="43.30729" lon="12.8573083"><ele>444.0</ele><time>2026-05-02T15:21:27.994Z</time></trkpt><trkpt lat="43.30741" lon="12.8573533"><ele>444.0</ele><time>2026-05-02T15:21:28.994Z</time></trkpt><trkpt lat="43.3075233" lon="12.8573967"><ele>448.3333333333333</ele><time>2026-05-02T15:21:29.992Z</time></trkpt><trkpt lat="43.3076083" lon="12.8574317"><ele>452.66666666666663</ele><time>2026-05-02T15:21:30.993Z</time></trkpt><trkpt lat="43.30768" lon="12.8574583"><ele>457.0</ele><time>2026-05-02T15:21:31.994Z</time></trkpt><trkpt lat="43.3076817" lon="12.8573233"><ele>461.3333333333333</ele><time>2026-05-02T15:21:34.994Z</time></trkpt><trkpt lat="43.3076417" lon="12.8572517"><ele>465.66666666666663</ele><time>2026-05-02T15:21:35.994Z</time></trkpt><trkpt lat="43.3075917" lon="12.8571767"><ele>470.0</ele><time>2026-05-02T15:21:36.996Z</time></trkpt><trkpt lat="43.3075383" lon="12.8571017"><ele>469.99999999999994</ele><time>2026-05-02T15:21:37.994Z</time></trkpt><trkpt lat="43.3074667" lon="12.85701"><ele>470.0</ele><time>2026-05-02T15:21:38.994Z</time></trkpt><trkpt lat="43.3074167" lon="12.8569117"><ele>470.0</ele><time>2026-05-02T15:21:39.994Z</time></trkpt><trkpt lat="43.3073717" lon="12.8568217"><ele>470.0</ele><time>2026-05-02T15:21:40.994Z</time></trkpt><trkpt lat="43.307335" lon="12.8567417"><ele>469.99999999999994</ele><time>2026-05-02T15:21:41.993Z</time></trkpt><trkpt lat="43.3072767" lon="12.8566267"><ele>470.0</ele><time>2026-05-02T15:21:43.994Z</time></trkpt><trkpt lat="43.307345" lon="12.856665"><ele>469.99999999999994</ele><time>2026-05-02T15:21:56.995Z</time></trkpt><trkpt lat="43.307385" lon="12.8565667"><ele>470.0</ele><time>2026-05-02T15:22:00.995Z</time></trkpt><trkpt lat="43.30744" lon="12.85667"><ele>470.0</ele><time>2026-05-02T15:22:06.994Z</time></trkpt><trkpt lat="43.30748" lon="12.8567567"><ele>470.0</ele><time>2026-05-02T15:22:07.994Z</time></trkpt><trkpt lat="43.30752" lon="12.85684"><ele>469.99999999999994</ele><time>2026-05-02T15:22:08.995Z</time></trkpt><trkpt lat="43.3075867" lon="12.856945"><ele>470.0</ele><time>2026-05-02T15:22:09.994Z</time></trkpt><trkpt lat="43.3076533" lon="12.8570533"><ele>469.99999999999994</ele><time>2026-05-02T15:22:10.993Z</time></trkpt><trkpt lat="43.3077167" lon="12.857155"><ele>470.0</ele><time>2026-05-02T15:22:11.994Z</time></trkpt><trkpt lat="43.30778" lon="12.85724"><ele>470.0</ele><time>2026-05-02T15:22:12.997Z</time></trkpt><trkpt lat="43.3078367" lon="12.857315"><ele>470.0</ele><time>2026-05-02T15:22:13.993Z</time></trkpt><trkpt lat="43.30792" lon="12.8573783"><ele>469.99999999999994</ele><time>2026-05-02T15:22:14.995Z</time></trkpt><trkpt lat="43.3079983" lon="12.8574317"><ele>470.0</ele><time>2026-05-02T15:22:15.994Z</time></trkpt><trkpt lat="43.3080883" lon="12.8574867"><ele>466.5</ele><time>2026-05-02T15:22:16.992Z</time></trkpt><trkpt lat="43.3081933" lon="12.85754"><ele>463.0</ele><time>2026-05-02T15:22:17.995Z</time></trkpt><trkpt lat="43.3083117" lon="12.857615"><ele>459.5</ele><time>2026-05-02T15:22:18.993Z</time></trkpt><trkpt lat="43.3084217" lon="12.85768"><ele>456.0</ele><time>2026-05-02T15:22:19.994Z</time></trkpt><trkpt lat="43.308535" lon="12.8576983"><ele>456.0</ele><time>2026-05-02T15:22:20.995Z</time></trkpt><trkpt lat="43.308635" lon="12.8577183"><ele>456.0</ele><time>2026-05-02T15:22:21.994Z</time></trkpt><trkpt lat="43.3087317" lon="12.857745"><ele>456.0</ele><time>2026-05-02T15:22:22.993Z</time></trkpt><trkpt lat="43.30882" lon="12.8577733"><ele>456.0</ele><time>2026-05-02T15:22:23.994Z</time></trkpt><trkpt lat="43.3089067" lon="12.857815"><ele>456.0</ele><time>2026-05-02T15:22:24.995Z</time></trkpt><trkpt lat="43.3089883" lon="12.8578533"><ele>451.0</ele><time>2026-05-02T15:22:25.995Z</time></trkpt><trkpt lat="43.309075" lon="12.8579667"><ele>446.0</ele><time>2026-05-02T15:22:26.995Z</time></trkpt><trkpt lat="43.3091517" lon="12.8580417"><ele>441.0</ele><time>2026-05-02T15:22:27.995Z</time></trkpt><trkpt lat="43.3092217" lon="12.8581283"><ele>436.0</ele><time>2026-05-02T15:22:28.994Z</time></trkpt><trkpt lat="43.3092933" lon="12.858225"><ele>431.0</ele><time>2026-05-02T15:22:29.994Z</time></trkpt><trkpt lat="43.309365" lon="12.858335"><ele>429.6</ele><time>2026-05-02T15:22:30.994Z</time></trkpt><trkpt lat="43.3094217" lon="12.8584583"><ele>428.20000000000005</ele><time>2026-05-02T15:22:31.994Z</time></trkpt><trkpt lat="43.3094633" lon="12.8585933"><ele>426.79999999999995</ele><time>2026-05-02T15:22:32.994Z</time></trkpt><trkpt lat="43.3094967" lon="12.8587383"><ele>425.4</ele><time>2026-05-02T15:22:33.995Z</time></trkpt><trkpt lat="43.309525" lon="12.8588833"><ele>424.0</ele><time>2026-05-02T15:22:34.995Z</time></trkpt><trkpt lat="43.309545" lon="12.8590117"><ele>424.0</ele><time>2026-05-02T15:22:35.994Z</time></trkpt><trkpt lat="43.3095467" lon="12.85913"><ele>424.0</ele><time>2026-05-02T15:22:36.996Z</time></trkpt><trkpt lat="43.3095467" lon="12.8592733"><ele>424.0</ele><time>2026-05-02T15:22:37.997Z</time></trkpt><trkpt lat="43.3095733" lon="12.8594267"><ele>424.0</ele><time>2026-05-02T15:22:38.995Z</time></trkpt><trkpt lat="43.30962" lon="12.8595833"><ele>424.0</ele><time>2026-05-02T15:22:39.994Z</time></trkpt><trkpt lat="43.3096667" lon="12.8596783"><ele>420.6666666666667</ele><time>2026-05-02T15:22:40.993Z</time></trkpt><trkpt lat="43.3097133" lon="12.859765"><ele>417.33333333333337</ele><time>2026-05-02T15:22:41.996Z</time></trkpt><trkpt lat="43.3097517" lon="12.8598633"><ele>414.0</ele><time>2026-05-02T15:22:42.995Z</time></trkpt><trkpt lat="43.309785" lon="12.8599567"><ele>410.66666666666663</ele><time>2026-05-02T15:22:43.994Z</time></trkpt><trkpt lat="43.309815" lon="12.8600583"><ele>407.3333333333333</ele><time>2026-05-02T15:22:44.995Z</time></trkpt><trkpt lat="43.30984" lon="12.86017"><ele>404.0</ele><time>2026-05-02T15:22:45.994Z</time></trkpt><trkpt lat="43.3098633" lon="12.8602817"><ele>401.3333333333333</ele><time>2026-05-02T15:22:46.993Z</time></trkpt><trkpt lat="43.30989" lon="12.8604033"><ele>398.66666666666663</ele><time>2026-05-02T15:22:47.994Z</time></trkpt><trkpt lat="43.309915" lon="12.860535"><ele>396.0</ele><time>2026-05-02T15:22:48.994Z</time></trkpt><trkpt lat="43.309945" lon="12.86066"><ele>393.33333333333337</ele><time>2026-05-02T15:22:49.994Z</time></trkpt><trkpt lat="43.3099717" lon="12.8607667"><ele>390.6666666666667</ele><time>2026-05-02T15:22:50.995Z</time></trkpt><trkpt lat="43.3100083" lon="12.8608583"><ele>388.0</ele><time>2026-05-02T15:22:51.994Z</time></trkpt><trkpt lat="43.31005" lon="12.860925"><ele>388.0</ele><time>2026-05-02T15:22:52.996Z</time></trkpt><trkpt lat="43.3101033" lon="12.860985"><ele>388.0</ele><time>2026-05-02T15:22:53.997Z</time></trkpt><trkpt lat="43.3102317" lon="12.8610183"><ele>388.0</ele><time>2026-05-02T15:22:55.994Z</time></trkpt><trkpt lat="43.3103033" lon="12.861"><ele>388.0</ele><time>2026-05-02T15:22:56.994Z</time></trkpt><trkpt lat="43.3103667" lon="12.86096"><ele>388.0</ele><time>2026-05-02T15:22:57.993Z</time></trkpt><trkpt lat="43.3104783" lon="12.8608567"><ele>388.00000000000006</ele><time>2026-05-02T15:22:59.993Z</time></trkpt><trkpt lat="43.31052" lon="12.86078"><ele>388.0</ele><time>2026-05-02T15:23:00.995Z</time></trkpt><trkpt lat="43.31058" lon="12.8606967"><ele>388.0</ele><time>2026-05-02T15:23:01.993Z</time></trkpt><trkpt lat="43.3106483" lon="12.8606183"><ele>388.0</ele><time>2026-05-02T15:23:02.994Z</time></trkpt><trkpt lat="43.3107233" lon="12.860555"><ele>388.00000000000006</ele><time>2026-05-02T15:23:03.994Z</time></trkpt><trkpt lat="43.3108017" lon="12.8605133"><ele>388.0</ele><time>2026-05-02T15:23:04.993Z</time></trkpt><trkpt lat="43.3108867" lon="12.86049"><ele>387.00000000000006</ele><time>2026-05-02T15:23:05.993Z</time></trkpt><trkpt lat="43.3109733" lon="12.8604767"><ele>386.0</ele><time>2026-05-02T15:23:06.995Z</time></trkpt><trkpt lat="43.3110483" lon="12.8604583"><ele>385.0</ele><time>2026-05-02T15:23:07.994Z</time></trkpt><trkpt lat="43.311115" lon="12.8604317"><ele>384.0</ele><time>2026-05-02T15:23:08.994Z</time></trkpt><trkpt lat="43.3112033" lon="12.8603117"><ele>383.0</ele><time>2026-05-02T15:23:10.993Z</time></trkpt><trkpt lat="43.3112467" lon="12.8602267"><ele>382.0</ele><time>2026-05-02T15:23:11.995Z</time></trkpt><trkpt lat="43.3112983" lon="12.8601417"><ele>381.5714285714286</ele><time>2026-05-02T15:23:12.994Z</time></trkpt><trkpt lat="43.3113483" lon="12.8600517"><ele>381.1428571428571</ele><time>2026-05-02T15:23:13.994Z</time></trkpt><trkpt lat="43.3113883" lon="12.85997"><ele>380.7142857142857</ele><time>2026-05-02T15:23:14.995Z</time></trkpt><trkpt lat="43.3114383" lon="12.8598917"><ele>380.28571428571433</ele><time>2026-05-02T15:23:15.994Z</time></trkpt><trkpt lat="43.311485" lon="12.8598233"><ele>379.8571428571429</ele><time>2026-05-02T15:23:16.992Z</time></trkpt><trkpt lat="43.311525" lon="12.8597517"><ele>379.42857142857144</ele><time>2026-05-02T15:23:17.994Z</time></trkpt><trkpt lat="43.3115717" lon="12.8596867"><ele>379.0</ele><time>2026-05-02T15:23:18.995Z</time></trkpt><trkpt lat="43.3116283" lon="12.85961"><ele>378.6</ele><time>2026-05-02T15:23:19.993Z</time></trkpt><trkpt lat="43.3117217" lon="12.8595233"><ele>378.2</ele><time>2026-05-02T15:23:21.994Z</time></trkpt><trkpt lat="43.3117933" lon="12.859545"><ele>377.8</ele><time>2026-05-02T15:23:22.995Z</time></trkpt><trkpt lat="43.311895" lon="12.8595717"><ele>377.40000000000003</ele><time>2026-05-02T15:23:23.994Z</time></trkpt><trkpt lat="43.3120183" lon="12.8596133"><ele>377.0</ele><time>2026-05-02T15:23:24.994Z</time></trkpt><trkpt lat="43.3121433" lon="12.859655"><ele>376.6</ele><time>2026-05-02T15:23:25.993Z</time></trkpt><trkpt lat="43.3122567" lon="12.8596867"><ele>376.20000000000005</ele><time>2026-05-02T15:23:26.994Z</time></trkpt><trkpt lat="43.3123517" lon="12.859725"><ele>375.8</ele><time>2026-05-02T15:23:27.993Z</time></trkpt><trkpt lat="43.3124333" lon="12.859775"><ele>375.4</ele><time>2026-05-02T15:23:28.993Z</time></trkpt><trkpt lat="43.312505" lon="12.85986"><ele>375.0</ele><time>2026-05-02T15:23:29.993Z</time></trkpt><trkpt lat="43.3125767" lon="12.85997"><ele>375.0</ele><time>2026-05-02T15:23:30.993Z</time></trkpt><trkpt lat="43.312665" lon="12.8600917"><ele>375.0</ele><time>2026-05-02T15:23:31.993Z</time></trkpt><trkpt lat="43.3127817" lon="12.860175"><ele>375.0</ele><time>2026-05-02T15:23:32.994Z</time></trkpt><trkpt lat="43.31292" lon="12.860235"><ele>375.0</ele><time>2026-05-02T15:23:33.994Z</time></trkpt><trkpt lat="43.313055" lon="12.86029"><ele>375.5</ele><time>2026-05-02T15:23:34.993Z</time></trkpt><trkpt lat="43.3131683" lon="12.860375"><ele>376.0</ele><time>2026-05-02T15:23:35.993Z</time></trkpt><trkpt lat="43.3132633" lon="12.8605067"><ele>376.5</ele><time>2026-05-02T15:23:36.992Z</time></trkpt><trkpt lat="43.3133617" lon="12.86067"><ele>377.0</ele><time>2026-05-02T15:23:37.994Z</time></trkpt><trkpt lat="43.3134583" lon="12.8608367"><ele>376.6666666666667</ele><time>2026-05-02T15:23:38.995Z</time></trkpt><trkpt lat="43.3135467" lon="12.86101"><ele>376.3333333333333</ele><time>2026-05-02T15:23:39.992Z</time></trkpt><trkpt lat="43.3136333" lon="12.8611967"><ele>376.0</ele><time>2026-05-02T15:23:40.993Z</time></trkpt><trkpt lat="43.31371" lon="12.8613933"><ele>376.0</ele><time>2026-05-02T15:23:41.994Z</time></trkpt><trkpt lat="43.3137833" lon="12.8615983"><ele>376.0</ele><time>2026-05-02T15:23:42.994Z</time></trkpt><trkpt lat="43.3138383" lon="12.8617983"><ele>376.0</ele><time>2026-05-02T15:23:43.992Z</time></trkpt><trkpt lat="43.3138733" lon="12.86199"><ele>376.0</ele><time>2026-05-02T15:23:44.995Z</time></trkpt><trkpt lat="43.313905" lon="12.8621733"><ele>376.0</ele><time>2026-05-02T15:23:45.993Z</time></trkpt><trkpt lat="43.3139283" lon="12.8623433"><ele>376.0</ele><time>2026-05-02T15:23:46.992Z</time></trkpt><trkpt lat="43.3139533" lon="12.8625067"><ele>376.0</ele><time>2026-05-02T15:23:47.994Z</time></trkpt><trkpt lat="43.3139783" lon="12.8626583"><ele>376.0</ele><time>2026-05-02T15:23:48.995Z</time></trkpt><trkpt lat="43.3140083" lon="12.862815"><ele>376.0</ele><time>2026-05-02T15:23:49.994Z</time></trkpt><trkpt lat="43.31405" lon="12.8629683"><ele>376.0</ele><time>2026-05-02T15:23:50.994Z</time></trkpt><trkpt lat="43.31411" lon="12.8631217"><ele>376.0</ele><time>2026-05-02T15:23:51.996Z</time></trkpt><trkpt lat="43.31419" lon="12.8632617"><ele>376.0</ele><time>2026-05-02T15:23:52.994Z</time></trkpt><trkpt lat="43.3142883" lon="12.8633817"><ele>376.0</ele><time>2026-05-02T15:23:53.994Z</time></trkpt><trkpt lat="43.3144" lon="12.8634783"><ele>376.0</ele><time>2026-05-02T15:23:54.995Z</time></trkpt><trkpt lat="43.314525" lon="12.8635583"><ele>376.0</ele><time>2026-05-02T15:23:55.993Z</time></trkpt><trkpt lat="43.3146633" lon="12.863615"><ele>375.75</ele><time>2026-05-02T15:23:56.994Z</time></trkpt><trkpt lat="43.314805" lon="12.8636417"><ele>375.5</ele><time>2026-05-02T15:23:57.994Z</time></trkpt><trkpt lat="43.3149433" lon="12.8636433"><ele>375.25</ele><time>2026-05-02T15:23:58.992Z</time></trkpt><trkpt lat="43.3150783" lon="12.863625"><ele>375.0</ele><time>2026-05-02T15:23:59.994Z</time></trkpt><trkpt lat="43.31521" lon="12.863605"><ele>375.0</ele><time>2026-05-02T15:24:00.994Z</time></trkpt><trkpt lat="43.315345" lon="12.8635817"><ele>375.0</ele><time>2026-05-02T15:24:01.994Z</time></trkpt><trkpt lat="43.3154817" lon="12.8635567"><ele>375.0</ele><time>2026-05-02T15:24:02.994Z</time></trkpt><trkpt lat="43.3156183" lon="12.8635383"><ele>375.0</ele><time>2026-05-02T15:24:03.993Z</time></trkpt><trkpt lat="43.3157567" lon="12.8635267"><ele>375.5</ele><time>2026-05-02T15:24:04.993Z</time></trkpt><trkpt lat="43.3158867" lon="12.86352"><ele>376.0</ele><time>2026-05-02T15:24:05.994Z</time></trkpt><trkpt lat="43.31602" lon="12.86352"><ele>376.5</ele><time>2026-05-02T15:24:06.996Z</time></trkpt><trkpt lat="43.3161533" lon="12.8635467"><ele>377.0</ele><time>2026-05-02T15:24:07.993Z</time></trkpt><trkpt lat="43.316285" lon="12.8635983"><ele>376.25</ele><time>2026-05-02T15:24:08.995Z</time></trkpt><trkpt lat="43.3164083" lon="12.863685"><ele>375.5</ele><time>2026-05-02T15:24:09.993Z</time></trkpt><trkpt lat="43.3165217" lon="12.8638067"><ele>374.75</ele><time>2026-05-02T15:24:10.994Z</time></trkpt><trkpt lat="43.3166233" lon="12.8639567"><ele>374.0</ele><time>2026-05-02T15:24:11.992Z</time></trkpt><trkpt lat="43.3167133" lon="12.8641367"><ele>374.0</ele><time>2026-05-02T15:24:12.994Z</time></trkpt><trkpt lat="43.3168033" lon="12.8643333"><ele>374.0</ele><time>2026-05-02T15:24:13.993Z</time></trkpt><trkpt lat="43.3168983" lon="12.8645333"><ele>374.0</ele><time>2026-05-02T15:24:14.993Z</time></trkpt><trkpt lat="43.31699" lon="12.8647433"><ele>374.0</ele><time>2026-05-02T15:24:15.993Z</time></trkpt><trkpt lat="43.3170867" lon="12.8649583"><ele>374.0</ele><time>2026-05-02T15:24:16.991Z</time></trkpt><trkpt lat="43.3171817" lon="12.86517"><ele>374.0</ele><time>2026-05-02T15:24:17.995Z</time></trkpt><trkpt lat="43.3172733" lon="12.86538"><ele>371.33333333333337</ele><time>2026-05-02T15:24:18.993Z</time></trkpt><trkpt lat="43.3173667" lon="12.865605"><ele>368.6666666666667</ele><time>2026-05-02T15:24:19.993Z</time></trkpt><trkpt lat="43.3174633" lon="12.865835"><ele>366.0</ele><time>2026-05-02T15:24:20.996Z</time></trkpt><trkpt lat="43.3175567" lon="12.8660683"><ele>365.6666666666667</ele><time>2026-05-02T15:24:21.993Z</time></trkpt><trkpt lat="43.31764" lon="12.86631"><ele>365.33333333333337</ele><time>2026-05-02T15:24:22.994Z</time></trkpt><trkpt lat="43.3177033" lon="12.8665683"><ele>365.0</ele><time>2026-05-02T15:24:23.996Z</time></trkpt><trkpt lat="43.317745" lon="12.866835"><ele>364.6666666666667</ele><time>2026-05-02T15:24:24.994Z</time></trkpt><trkpt lat="43.317765" lon="12.8670883"><ele>364.3333333333333</ele><time>2026-05-02T15:24:25.993Z</time></trkpt><trkpt lat="43.3177817" lon="12.8673217"><ele>364.0</ele><time>2026-05-02T15:24:26.994Z</time></trkpt><trkpt lat="43.3178067" lon="12.8675533"><ele>363.3333333333333</ele><time>2026-05-02T15:24:27.993Z</time></trkpt><trkpt lat="43.3178433" lon="12.8677817"><ele>362.6666666666667</ele><time>2026-05-02T15:24:28.993Z</time></trkpt><trkpt lat="43.3178883" lon="12.86801"><ele>362.0</ele><time>2026-05-02T15:24:29.993Z</time></trkpt><trkpt lat="43.3179317" lon="12.8682417"><ele>362.0</ele><time>2026-05-02T15:24:30.993Z</time></trkpt><trkpt lat="43.31796" lon="12.8684767"><ele>362.0</ele><time>2026-05-02T15:24:31.993Z</time></trkpt><trkpt lat="43.3179617" lon="12.8687167"><ele>362.0</ele><time>2026-05-02T15:24:32.994Z</time></trkpt><trkpt lat="43.317935" lon="12.86896"><ele>362.0</ele><time>2026-05-02T15:24:33.995Z</time></trkpt><trkpt lat="43.317885" lon="12.86921"><ele>362.0</ele><time>2026-05-02T15:24:34.993Z</time></trkpt><trkpt lat="43.31783" lon="12.8694533"><ele>362.0</ele><time>2026-05-02T15:24:35.993Z</time></trkpt><trkpt lat="43.317785" lon="12.869705"><ele>362.6666666666667</ele><time>2026-05-02T15:24:36.994Z</time></trkpt><trkpt lat="43.3177533" lon="12.869965"><ele>363.3333333333333</ele><time>2026-05-02T15:24:37.993Z</time></trkpt><trkpt lat="43.3177417" lon="12.8702267"><ele>364.0</ele><time>2026-05-02T15:24:38.994Z</time></trkpt><trkpt lat="43.3177367" lon="12.8704867"><ele>364.0</ele><time>2026-05-02T15:24:39.993Z</time></trkpt><trkpt lat="43.317735" lon="12.8707417"><ele>364.0</ele><time>2026-05-02T15:24:40.993Z</time></trkpt><trkpt lat="43.3177183" lon="12.8709867"><ele>364.0</ele><time>2026-05-02T15:24:41.994Z</time></trkpt><trkpt lat="43.3176783" lon="12.8712233"><ele>363.66666666666663</ele><time>2026-05-02T15:24:42.993Z</time></trkpt><trkpt lat="43.3176183" lon="12.871445"><ele>363.3333333333333</ele><time>2026-05-02T15:24:43.993Z</time></trkpt><trkpt lat="43.31756" lon="12.8716533"><ele>363.0</ele><time>2026-05-02T15:24:44.995Z</time></trkpt><trkpt lat="43.3175133" lon="12.8718617"><ele>362.0</ele><time>2026-05-02T15:24:45.993Z</time></trkpt><trkpt lat="43.3174883" lon="12.8720683"><ele>361.0</ele><time>2026-05-02T15:24:46.994Z</time></trkpt><trkpt lat="43.3174917" lon="12.8722733"><ele>360.0</ele><time>2026-05-02T15:24:47.993Z</time></trkpt><trkpt lat="43.3175233" lon="12.872475"><ele>359.6666666666667</ele><time>2026-05-02T15:24:48.994Z</time></trkpt><trkpt lat="43.3175783" lon="12.8726767"><ele>359.33333333333337</ele><time>2026-05-02T15:24:49.994Z</time></trkpt><trkpt lat="43.3176533" lon="12.8728783"><ele>359.0</ele><time>2026-05-02T15:24:50.994Z</time></trkpt><trkpt lat="43.3177267" lon="12.873085"><ele>359.0</ele><time>2026-05-02T15:24:51.994Z</time></trkpt><trkpt lat="43.3177967" lon="12.87329"><ele>359.0</ele><time>2026-05-02T15:24:52.993Z</time></trkpt><trkpt lat="43.3178567" lon="12.8734933"><ele>359.0</ele><time>2026-05-02T15:24:53.994Z</time></trkpt><trkpt lat="43.3179083" lon="12.8736933"><ele>359.25</ele><time>2026-05-02T15:24:54.994Z</time></trkpt><trkpt lat="43.3179433" lon="12.87389"><ele>359.5</ele><time>2026-05-02T15:24:55.994Z</time></trkpt><trkpt lat="43.3179667" lon="12.8740767"><ele>359.75</ele><time>2026-05-02T15:24:56.995Z</time></trkpt><trkpt lat="43.3179833" lon="12.8742433"><ele>360.0</ele><time>2026-05-02T15:24:57.995Z</time></trkpt><trkpt lat="43.3179967" lon="12.874385"><ele>360.0</ele><time>2026-05-02T15:24:58.994Z</time></trkpt><trkpt lat="43.3180167" lon="12.8745033"><ele>360.0</ele><time>2026-05-02T15:24:59.994Z</time></trkpt><trkpt lat="43.3180283" lon="12.8746233"><ele>360.0</ele><time>2026-05-02T15:25:00.995Z</time></trkpt><trkpt lat="43.3180317" lon="12.8747567"><ele>360.0</ele><time>2026-05-02T15:25:01.994Z</time></trkpt><trkpt lat="43.3180333" lon="12.8749017"><ele>360.0</ele><time>2026-05-02T15:25:02.995Z</time></trkpt><trkpt lat="43.3180367" lon="12.8750467"><ele>358.75</ele><time>2026-05-02T15:25:03.994Z</time></trkpt><trkpt lat="43.3180317" lon="12.8751967"><ele>357.5</ele><time>2026-05-02T15:25:04.993Z</time></trkpt><trkpt lat="43.31803" lon="12.87536"><ele>356.25</ele><time>2026-05-02T15:25:05.994Z</time></trkpt><trkpt lat="43.3180233" lon="12.8755283"><ele>355.0</ele><time>2026-05-02T15:25:06.995Z</time></trkpt><trkpt lat="43.3180183" lon="12.8756867"><ele>355.0</ele><time>2026-05-02T15:25:07.994Z</time></trkpt><trkpt lat="43.3180133" lon="12.87585"><ele>355.0</ele><time>2026-05-02T15:25:08.992Z</time></trkpt><trkpt lat="43.31801" lon="12.8760017"><ele>355.0</ele><time>2026-05-02T15:25:09.993Z</time></trkpt><trkpt lat="43.318015" lon="12.8761333"><ele>355.0</ele><time>2026-05-02T15:25:10.993Z</time></trkpt><trkpt lat="43.3180183" lon="12.8762383"><ele>355.0</ele><time>2026-05-02T15:25:11.993Z</time></trkpt><trkpt lat="43.3180233" lon="12.8763283"><ele>355.2</ele><time>2026-05-02T15:25:12.995Z</time></trkpt><trkpt lat="43.3180367" lon="12.876455"><ele>355.4</ele><time>2026-05-02T15:25:14.994Z</time></trkpt><trkpt lat="43.3180283" lon="12.87655"><ele>355.6</ele><time>2026-05-02T15:25:23.994Z</time></trkpt><trkpt lat="43.3180683" lon="12.87675"><ele>355.8</ele><time>2026-05-02T15:25:25.993Z</time></trkpt><trkpt lat="43.3181033" lon="12.87692"><ele>356.0</ele><time>2026-05-02T15:25:26.994Z</time></trkpt><trkpt lat="43.3181383" lon="12.877115"><ele>356.0</ele><time>2026-05-02T15:25:27.993Z</time></trkpt><trkpt lat="43.3181767" lon="12.87733"><ele>356.0</ele><time>2026-05-02T15:25:28.993Z</time></trkpt><trkpt lat="43.3182183" lon="12.8775467"><ele>356.0</ele><time>2026-05-02T15:25:29.993Z</time></trkpt><trkpt lat="43.3182617" lon="12.8777667"><ele>356.0</ele><time>2026-05-02T15:25:30.993Z</time></trkpt><trkpt lat="43.318305" lon="12.8779883"><ele>356.0</ele><time>2026-05-02T15:25:31.994Z</time></trkpt><trkpt lat="43.3183533" lon="12.8782117"><ele>356.0</ele><time>2026-05-02T15:25:32.995Z</time></trkpt><trkpt lat="43.3183983" lon="12.8784267"><ele>355.6666666666667</ele><time>2026-05-02T15:25:33.995Z</time></trkpt><trkpt lat="43.3184467" lon="12.8786367"><ele>355.3333333333333</ele><time>2026-05-02T15:25:34.995Z</time></trkpt><trkpt lat="43.3185083" lon="12.878835"><ele>355.0</ele><time>2026-05-02T15:25:35.994Z</time></trkpt><trkpt lat="43.3185967" lon="12.8790183"><ele>355.0</ele><time>2026-05-02T15:25:36.994Z</time></trkpt><trkpt lat="43.3187083" lon="12.87918"><ele>355.0</ele><time>2026-05-02T15:25:37.995Z</time></trkpt><trkpt lat="43.3188317" lon="12.8793333"><ele>355.0</ele><time>2026-05-02T15:25:38.994Z</time></trkpt><trkpt lat="43.3189517" lon="12.8794933"><ele>354.66666666666663</ele><time>2026-05-02T15:25:39.993Z</time></trkpt><trkpt lat="43.3190617" lon="12.8796633"><ele>354.3333333333333</ele><time>2026-05-02T15:25:40.993Z</time></trkpt><trkpt lat="43.3191533" lon="12.8798467"><ele>354.0</ele><time>2026-05-02T15:25:41.993Z</time></trkpt><trkpt lat="43.3192183" lon="12.8800367"><ele>352.3333333333333</ele><time>2026-05-02T15:25:42.994Z</time></trkpt><trkpt lat="43.3192683" lon="12.8802333"><ele>350.66666666666663</ele><time>2026-05-02T15:25:43.993Z</time></trkpt><trkpt lat="43.3193067" lon="12.880435"><ele>349.0</ele><time>2026-05-02T15:25:44.994Z</time></trkpt><trkpt lat="43.319345" lon="12.8806383"><ele>349.0</ele><time>2026-05-02T15:25:45.993Z</time></trkpt><trkpt lat="43.3193817" lon="12.88084"><ele>349.0</ele><time>2026-05-02T15:25:46.993Z</time></trkpt><trkpt lat="43.31942" lon="12.8810433"><ele>349.0</ele><time>2026-05-02T15:25:47.994Z</time></trkpt><trkpt lat="43.3194617" lon="12.881245"><ele>349.0</ele><time>2026-05-02T15:25:48.993Z</time></trkpt><trkpt lat="43.3195" lon="12.88144"><ele>349.0</ele><time>2026-05-02T15:25:49.993Z</time></trkpt><trkpt lat="43.3195433" lon="12.8816317"><ele>349.0</ele><time>2026-05-02T15:25:50.994Z</time></trkpt><trkpt lat="43.31959" lon="12.8818233"><ele>349.0</ele><time>2026-05-02T15:25:51.993Z</time></trkpt><trkpt lat="43.319645" lon="12.8820167"><ele>349.66666666666663</ele><time>2026-05-02T15:25:52.993Z</time></trkpt><trkpt lat="43.3197033" lon="12.8822117"><ele>350.3333333333333</ele><time>2026-05-02T15:25:53.993Z</time></trkpt><trkpt lat="43.3197667" lon="12.8824117"><ele>351.0</ele><time>2026-05-02T15:25:54.994Z</time></trkpt><trkpt lat="43.319835" lon="12.8826117"><ele>351.0</ele><time>2026-05-02T15:25:55.994Z</time></trkpt><trkpt lat="43.3199017" lon="12.8828083"><ele>351.0</ele><time>2026-05-02T15:25:56.995Z</time></trkpt><trkpt lat="43.319965" lon="12.8830067"><ele>351.0</ele><time>2026-05-02T15:25:57.992Z</time></trkpt><trkpt lat="43.32003" lon="12.8831933"><ele>351.0</ele><time>2026-05-02T15:25:58.992Z</time></trkpt><trkpt lat="43.3200933" lon="12.8833733"><ele>351.0</ele><time>2026-05-02T15:25:59.994Z</time></trkpt><trkpt lat="43.3201533" lon="12.8835483"><ele>351.0</ele><time>2026-05-02T15:26:00.993Z</time></trkpt><trkpt lat="43.3202133" lon="12.8837267"><ele>351.0</ele><time>2026-05-02T15:26:01.993Z</time></trkpt><trkpt lat="43.3202733" lon="12.8839067"><ele>349.5</ele><time>2026-05-02T15:26:02.995Z</time></trkpt><trkpt lat="43.320335" lon="12.8840833"><ele>348.0</ele><time>2026-05-02T15:26:03.993Z</time></trkpt><trkpt lat="43.3203967" lon="12.8842533"><ele>346.5</ele><time>2026-05-02T15:26:04.993Z</time></trkpt><trkpt lat="43.3204567" lon="12.8844283"><ele>345.0</ele><time>2026-05-02T15:26:05.993Z</time></trkpt><trkpt lat="43.32052" lon="12.8846033"><ele>345.5</ele><time>2026-05-02T15:26:06.992Z</time></trkpt><trkpt lat="43.32058" lon="12.884775"><ele>346.0</ele><time>2026-05-02T15:26:07.992Z</time></trkpt><trkpt lat="43.32064" lon="12.884945"><ele>346.5</ele><time>2026-05-02T15:26:08.993Z</time></trkpt><trkpt lat="43.3206967" lon="12.885115"><ele>347.0</ele><time>2026-05-02T15:26:09.995Z</time></trkpt><trkpt lat="43.3207517" lon="12.88529"><ele>347.0</ele><time>2026-05-02T15:26:10.993Z</time></trkpt><trkpt lat="43.3208083" lon="12.88547"><ele>347.0</ele><time>2026-05-02T15:26:11.994Z</time></trkpt><trkpt lat="43.320865" lon="12.8856533"><ele>347.0</ele><time>2026-05-02T15:26:12.994Z</time></trkpt><trkpt lat="43.3209217" lon="12.8858383"><ele>347.0</ele><time>2026-05-02T15:26:13.994Z</time></trkpt><trkpt lat="43.3209733" lon="12.8860233"><ele>347.0</ele><time>2026-05-02T15:26:14.993Z</time></trkpt><trkpt lat="43.3210217" lon="12.88621"><ele>347.0</ele><time>2026-05-02T15:26:15.992Z</time></trkpt><trkpt lat="43.321065" lon="12.8864017"><ele>347.0</ele><time>2026-05-02T15:26:16.993Z</time></trkpt><trkpt lat="43.3211083" lon="12.8865917"><ele>347.0</ele><time>2026-05-02T15:26:17.993Z</time></trkpt><trkpt lat="43.32115" lon="12.8867767"><ele>347.0</ele><time>2026-05-02T15:26:18.994Z</time></trkpt><trkpt lat="43.321195" lon="12.8869533"><ele>347.0</ele><time>2026-05-02T15:26:19.993Z</time></trkpt><trkpt lat="43.3212417" lon="12.8871183"><ele>347.0</ele><time>2026-05-02T15:26:20.995Z</time></trkpt><trkpt lat="43.32129" lon="12.8872717"><ele>347.0</ele><time>2026-05-02T15:26:21.994Z</time></trkpt><trkpt lat="43.3213383" lon="12.887415"><ele>347.0</ele><time>2026-05-02T15:26:22.994Z</time></trkpt><trkpt lat="43.3213867" lon="12.8875583"><ele>347.0</ele><time>2026-05-02T15:26:23.994Z</time></trkpt><trkpt lat="43.3214383" lon="12.8877033"><ele>347.0</ele><time>2026-05-02T15:26:24.992Z</time></trkpt><trkpt lat="43.3214883" lon="12.8878583"><ele>347.0</ele><time>2026-05-02T15:26:25.993Z</time></trkpt><trkpt lat="43.32154" lon="12.8880217"><ele>345.0</ele><time>2026-05-02T15:26:26.995Z</time></trkpt><trkpt lat="43.3215917" lon="12.88818"><ele>343.0</ele><time>2026-05-02T15:26:27.994Z</time></trkpt><trkpt lat="43.3216417" lon="12.8883317"><ele>341.0</ele><time>2026-05-02T15:26:28.992Z</time></trkpt><trkpt lat="43.32169" lon="12.8884717"><ele>339.0</ele><time>2026-05-02T15:26:29.993Z</time></trkpt><trkpt lat="43.321735" lon="12.8885933"><ele>338.6666666666667</ele><time>2026-05-02T15:26:30.992Z</time></trkpt><trkpt lat="43.3217717" lon="12.8887017"><ele>338.3333333333333</ele><time>2026-05-02T15:26:31.993Z</time></trkpt><trkpt lat="43.3218033" lon="12.8887967"><ele>338.0</ele><time>2026-05-02T15:26:32.995Z</time></trkpt><trkpt lat="43.3218317" lon="12.8888817"><ele>337.66666666666663</ele><time>2026-05-02T15:26:33.994Z</time></trkpt><trkpt lat="43.3218583" lon="12.8890083"><ele>337.3333333333333</ele><time>2026-05-02T15:26:35.994Z</time></trkpt><trkpt lat="43.3218717" lon="12.8890967"><ele>337.0</ele><time>2026-05-02T15:26:38.996Z</time></trkpt><trkpt lat="43.3218167" lon="12.8890233"><ele>337.0</ele><time>2026-05-02T15:26:42.993Z</time></trkpt><trkpt lat="43.3217583" lon="12.8889083"><ele>337.0</ele><time>2026-05-02T15:26:44.994Z</time></trkpt></trkseg></trk></gpx>